<
# Wetter Temperatur Luftdruck Luftfeuchtigkeit Sichtweite Windgeschwindigkeit Windrichtung Zeit
1 Clouds 24 1014 72 10000 4.47 141 13:44 01.02.2023
2 Clouds 24 1014 72 10000 4.02 138 13:19 01.02.2023
3 Clouds 24 1013 76 10000 3.58 127 12:26 01.02.2023
4 Clouds 23 1013 76 10000 3.58 131 10:46 01.02.2023
5 Clouds 23 1011 79 10000 3.13 114 08:26 01.02.2023
6 Clouds 24 1010 73 10000 6.26 144 22:41 31.01.2023
7 Clouds 24 1010 73 10000 6.69 140 21:20 31.01.2023
8 Clouds 25 1010 73 10000 7.72 170 19:24 31.01.2023
9 Clouds 25 1010 75 10000 6.17 160 17:37 31.01.2023
10 Clouds 24 1010 73 10000 5.14 160 15:36 31.01.2023
11 Clouds 25 1010 74 10000 5.14 160 15:18 31.01.2023
12 Clouds 25 1009 75 10000 4.12 190 13:19 31.01.2023
13 Clouds 24 1009 80 10000 2.06 140 11:28 31.01.2023
14 Fog 22 1009 81 10000 0 0 10:25 31.01.2023
15 Fog 22 1008 81 10000 0 0 09:44 31.01.2023
16 Clear 22 1008 80 10000 0 0 08:36 31.01.2023
17 Clouds 23 1008 81 10000 2.24 71 06:25 31.01.2023
18 Clear 24 1008 78 10000 6.71 69 01:54 31.01.2023
19 Clouds 24 1008 77 10000 7.72 110 23:27 30.01.2023
20 Smoke 24 1008 77 10000 8.75 130 22:50 30.01.2023
21 Smoke 24 1008 74 10000 8.23 150 21:43 30.01.2023
22 Smoke 24 1008 74 10000 7.72 140 20:44 30.01.2023
23 Clouds 24 1009 74 10000 8.23 130 18:26 30.01.2023
24 Clouds 24 1010 75 10000 6.69 140 17:25 30.01.2023
25 Clouds 24 1011 71 10000 5.14 120 14:47 30.01.2023
26 Clouds 24 1012 73 10000 5.14 110 13:39 30.01.2023
27 Clouds 24 1012 73 10000 5.14 110 12:18 30.01.2023
28 Clouds 23 1012 78 10000 5.36 68 10:20 30.01.2023
29 Clouds 23 1011 77 10000 4.47 87 09:53 30.01.2023
30 Clouds 23 1011 76 10000 5.81 96 08:23 30.01.2023
31 Clouds 23 1014 73 10000 5.36 83 04:32 30.01.2023
32 Clouds 23 1014 68 10000 8.23 120 23:35 29.01.2023
33 Clouds 23 1014 68 10000 8.23 120 23:35 29.01.2023
34 Clouds 23 1014 68 10000 7.72 130 22:59 29.01.2023
35 Clouds 23 1014 69 10000 8.23 130 22:31 29.01.2023
36 Clouds 23 1014 66 10000 9.26 140 20:52 29.01.2023
37 Clouds 23 1015 67 10000 9.26 140 20:19 29.01.2023
38 Clouds 23 1015 66 10000 8.23 150 19:32 29.01.2023
39 Clear 23 1016 69 10000 7.15 136 17:55 29.01.2023
40 Clouds 23 1016 64 10000 8.23 160 16:22 29.01.2023
41 Clouds 23 1017 65 10000 6.71 137 15:51 29.01.2023
42 Clouds 23 1017 68 10000 5.81 133 13:58 29.01.2023
43 Clouds 23 1016 72 10000 6.71 146 12:59 29.01.2023
44 Clouds 23 1016 70 10000 5.36 132 12:36 29.01.2023
45 Clouds 23 1016 70 10000 5.36 132 12:18 29.01.2023
46 Clouds 23 1016 74 10000 6.69 130 11:36 29.01.2023
47 Clouds 23 1016 72 10000 5.36 123 10:45 29.01.2023
48 Clouds 23 1014 75 10000 6.71 127 08:30 29.01.2023
49 Clouds 24 1015 78 10000 5.81 122 03:43 29.01.2023
50 Clouds 24 1014 79 10000 6.69 130 23:51 28.01.2023
51 Clouds 25 1013 73 10000 8.23 170 20:53 28.01.2023
52 Clouds 25 1014 75 10000 7.72 180 19:56 28.01.2023
53 Clouds 25 1014 73 10000 7.2 160 18:53 28.01.2023
54 Clouds 25 1013 76 10000 6.69 160 17:42 28.01.2023
55 Clouds 26 1014 76 10000 7.2 170 16:41 28.01.2023
56 Clouds 26 1014 76 10000 7.2 170 16:41 28.01.2023
57 Clouds 26 1014 75 10000 7.2 170 16:19 28.01.2023
58 Clouds 26 1013 76 10000 2.57 150 15:36 28.01.2023
59 Clouds 25 1013 82 10000 4.63 120 13:49 28.01.2023
60 Clouds 24 1012 86 10000 4.92 110 12:21 28.01.2023
61 Clouds 24 1012 86 7000 3.58 109 10:35 28.01.2023
62 Clouds 24 1012 85 10000 3.58 134 09:35 28.01.2023
63 Clouds 25 1010 80 10000 1.79 109 02:28 28.01.2023
64 Rain 25 1009 77 10000 3.6 190 00:28 28.01.2023
65 Rain 25 1009 70 10000 3.6 170 23:35 27.01.2023
66 Rain 26 1009 76 10000 1.54 250 19:48 27.01.2023
67 Rain 25 1009 74 10000 5.66 280 17:58 27.01.2023
68 Clouds 25 1009 72 10000 5.66 280 17:21 27.01.2023
69 Clouds 25 1010 75 10000 6.69 270 16:57 27.01.2023
70 Rain 27 1011 61 10000 5.36 288 15:49 27.01.2023
71 Rain 27 1010 61 10000 4.12 340 14:28 27.01.2023
72 Rain 27 1009 62 10000 3.09 360 13:39 27.01.2023
73 Clear 24 1008 80 10000 2.68 335 10:28 27.01.2023
74 Clear 24 1007 78 10000 3.6 20 08:35 27.01.2023
75 Clouds 25 1008 73 10000 7.72 110 00:45 27.01.2023
76 Clouds 26 1007 66 10000 6.26 70 22:45 26.01.2023
77 Clouds 32 1007 35 10000 6.17 10 20:57 26.01.2023
78 Clouds 33 1007 33 10000 7.2 350 20:34 26.01.2023
79 Clouds 29 1008 39 10000 8.23 360 18:20 26.01.2023
80 Clouds 28 1009 47 10000 8.23 10 16:59 26.01.2023
81 Clouds 28 1009 46 10000 8.23 10 16:26 26.01.2023
82 Clouds 27 1011 54 10000 7.72 360 15:46 26.01.2023
83 Clouds 27 1010 51 10000 7.72 360 15:26 26.01.2023
84 Clouds 25 1011 61 10000 5.14 20 13:56 26.01.2023
85 Clouds 23 1010 64 10000 8.23 10 12:43 26.01.2023
86 Rain 24 1009 58 10000 6.17 360 11:25 26.01.2023
87 Clouds 24 1009 62 10000 3.09 40 10:27 26.01.2023
88 Clear 24 1009 65 10000 3.6 30 09:43 26.01.2023
89 Clear 24 1008 64 10000 5.36 47 08:25 26.01.2023
90 Clear 24 1009 72 10000 7.2 120 23:58 25.01.2023
91 Clear 25 1009 71 10000 7.2 120 23:37 25.01.2023
92 Clouds 25 1008 66 10000 7.72 140 21:54 25.01.2023
93 Clouds 25 1009 65 10000 7.72 140 21:20 25.01.2023
94 Clouds 26 1009 57 10000 5.66 140 18:41 25.01.2023
95 Clear 26 1010 55 10000 6.17 180 17:30 25.01.2023
96 Clear 25 1010 59 10000 5.66 160 15:42 25.01.2023
97 Clear 27 1010 41 10000 3.6 10 12:54 25.01.2023
98 Clear 23 1009 47 10000 4.02 352 10:51 25.01.2023
99 Clear 23 1008 43 10000 3.58 338 09:44 25.01.2023
100 Clear 24 1008 32 10000 3.58 354 07:43 25.01.2023
101 Clear 27 1008 49 10000 3.58 38 01:32 25.01.2023
102 Clear 25 1008 62 10000 4.02 68 00:23 25.01.2023
103 Clear 27 1007 58 10000 6.17 130 21:33 24.01.2023
104 Clear 28 1006 51 10000 5.14 140 20:19 24.01.2023
105 Clear 28 1007 53 10000 5.14 150 18:43 24.01.2023
106 Clear 28 1007 50 10000 3.13 176 17:31 24.01.2023
107 Clear 28 1007 49 10000 3.58 171 16:53 24.01.2023
108 Clear 28 1007 42 10000 2.24 181 16:26 24.01.2023
109 Clear 25 1008 40 10000 3.6 350 13:41 24.01.2023
110 Clear 20 1008 55 10000 4.92 22 11:30 24.01.2023
111 Clear 19 1007 57 10000 3.13 326 08:38 24.01.2023
112 Clear 19 1007 57 10000 3.58 349 08:18 24.01.2023
113 Clear 20 1007 59 10000 3.13 23 07:47 24.01.2023
114 Clear 23 1009 59 10000 2.06 50 02:39 24.01.2023
115 Clear 24 1009 54 10000 2.68 33 00:37 24.01.2023
116 Clear 24 1009 54 10000 5.14 170 22:28 23.01.2023
117 Clear 26 1010 53 10000 4.63 210 20:26 23.01.2023
118 Clear 25 1010 50 10000 5.66 200 19:21 23.01.2023
119 Clouds 26 1010 53 10000 5.14 240 17:19 23.01.2023
120 Clouds 24 1011 59 10000 4.12 210 15:32 23.01.2023
121 Clouds 24 1011 60 10000 2.57 0 13:56 23.01.2023
122 Clouds 23 1011 67 10000 2.57 190 12:55 23.01.2023
123 Clouds 23 1010 73 10000 2.24 186 11:46 23.01.2023
124 Clouds 23 1010 73 10000 1.79 206 11:28 23.01.2023
125 Clouds 23 1010 73 10000 1.79 206 11:28 23.01.2023
126 Clear 23 1008 72 10000 3.58 176 08:25 23.01.2023
127 Clouds 29 1005 36 10000 1.34 255 00:22 23.01.2023
128 Clouds 30 1005 34 10000 2.57 260 21:51 22.01.2023
129 Clouds 30 1005 35 10000 2.57 260 21:19 22.01.2023
130 Clouds 27 1006 46 10000 4.12 210 19:58 22.01.2023
131 Clouds 27 1006 46 10000 4.63 210 19:40 22.01.2023
132 Clouds 28 1005 41 10000 5.14 230 18:43 22.01.2023
133 Clouds 29 1006 44 10000 7.2 220 17:55 22.01.2023
134 Clouds 28 1006 45 10000 7.2 220 17:24 22.01.2023
135 Clouds 27 1006 50 10000 5.66 220 15:29 22.01.2023
136 Clouds 27 1005 55 10000 6.69 230 14:41 22.01.2023
137 Clouds 26 1005 63 10000 7.2 220 13:28 22.01.2023
138 Clouds 25 1005 69 10000 3.6 230 12:32 22.01.2023
139 Clouds 24 1005 81 10000 2.06 250 11:34 22.01.2023
140 Clear 25 1003 69 10000 2.68 248 09:35 22.01.2023
141 Clear 26 1003 62 10000 2.24 314 05:51 22.01.2023
142 Clouds 27 1002 60 10000 0.89 331 00:40 22.01.2023
143 Clouds 28 1002 57 10000 3.09 290 23:30 21.01.2023
144 Clouds 27 1001 59 10000 6.17 260 21:40 21.01.2023
145 Clouds 27 1002 61 10000 7.2 280 19:23 21.01.2023
146 Clouds 27 1003 66 10000 4.92 255 16:54 21.01.2023
147 Clouds 26 1004 70 10000 5.66 350 14:24 21.01.2023
148 Rain 24 1004 76 10000 2.68 1 12:57 21.01.2023
149 Rain 24 1004 78 10000 1.79 28 11:42 21.01.2023
150 Rain 24 1005 77 10000 3.6 50 10:49 21.01.2023
151 Clouds 24 1003 75 10000 3.58 53 08:57 21.01.2023
152 Rain 25 1004 73 10000 6.71 23 04:32 21.01.2023
153 Clouds 24 1005 74 10000 6.17 130 22:29 20.01.2023
154 Clouds 24 1005 73 10000 5.66 120 21:38 20.01.2023
155 Clear 24 1006 71 10000 6.17 90 20:56 20.01.2023
156 Clouds 34 1007 36 10000 6.69 120 19:45 20.01.2023
157 Clouds 30 1010 48 10000 6.69 30 16:44 20.01.2023
158 Clouds 28 1010 55 10000 7.72 50 14:46 20.01.2023
159 Clouds 26 1011 64 10000 7.72 50 13:51 20.01.2023
160 Clear 22 1012 81 10000 3.58 53 10:24 20.01.2023
161 Clear 22 1012 79 10000 4.92 40 08:53 20.01.2023
162 Clear 22 1013 77 10000 6.69 50 05:54 20.01.2023
163 Clear 26 1014 58 10000 4.12 60 02:30 20.01.2023
164 Clouds 23 1013 74 10000 7.72 120 22:35 19.01.2023
165 Clouds 24 1014 72 10000 7.72 130 20:44 19.01.2023
166 Clouds 24 1015 72 10000 6.69 120 19:29 19.01.2023
167 Clouds 24 1017 72 10000 6.17 120 16:56 19.01.2023
168 Clouds 24 1018 65 10000 6.17 60 13:30 19.01.2023
169 Clear 22 1017 76 10000 4.92 50 09:37 19.01.2023
170 Rain 23 1018 70 10000 4.47 65 05:57 19.01.2023
171 Clear 23 1017 78 10000 11.32 110 22:26 18.01.2023
172 Clouds 23 1018 75 10000 10.29 120 20:20 18.01.2023
173 Clouds 24 1018 73 10000 10.29 120 19:38 18.01.2023
174 Clouds 24 1019 73 10000 10.29 120 19:20 18.01.2023
175 Clear 23 1020 72 10000 5.81 116 15:57 18.01.2023
176 Clouds 23 1020 74 10000 6.69 70 13:54 18.01.2023
177 Clear 22 1020 79 10000 5.81 63 11:44 18.01.2023
178 Clear 22 1018 77 10000 4.47 50 09:28 18.01.2023
179 Clear 22 1019 72 10000 4.92 44 05:35 18.01.2023
180 Clear 23 1016 79 10000 8.94 86 00:35 18.01.2023
181 Clouds 24 1015 71 10000 9.39 117 21:27 17.01.2023
182 Clouds 25 1016 70 10000 7.72 130 19:37 17.01.2023
183 Clear 25 1016 71 10000 7.72 140 18:48 17.01.2023
184 Clear 25 1016 67 10000 5.66 140 17:37 17.01.2023
185 Clear 24 1017 64 10000 5.66 60 15:26 17.01.2023
186 Clear 24 1017 67 10000 5.66 40 14:34 17.01.2023
187 Clear 25 1016 58 10000 3.13 72 13:31 17.01.2023
188 Clear 21 1017 78 10000 5.14 40 11:45 17.01.2023
189 Clear 21 1017 78 10000 5.14 40 11:45 17.01.2023
190 Clear 19 1016 82 10000 2.57 30 09:36 17.01.2023
191 Clear 20 1015 77 10000 2.06 30 08:20 17.01.2023
192 Clear 23 1014 59 10000 4.63 40 05:53 17.01.2023
193 Clear 25 1013 62 10000 6.26 66 00:58 17.01.2023
194 Clouds 26 1013 60 10000 7.2 110 23:57 16.01.2023
195 Clouds 26 1012 59 10000 7.72 120 22:26 16.01.2023
196 Clouds 26 1012 61 10000 9.26 120 20:50 16.01.2023
197 Clouds 26 1013 63 10000 8.23 130 19:42 16.01.2023
198 Clouds 26 1013 62 10000 7.72 120 18:55 16.01.2023
199 Clouds 26 1013 63 10000 7.72 120 18:26 16.01.2023
200 Clouds 26 1013 64 10000 6.17 130 17:57 16.01.2023
201 Clouds 26 1013 64 10000 6.17 130 17:19 16.01.2023
202 Clear 29 1015 39 10000 5.14 10 13:40 16.01.2023
203 Clear 24 1014 55 10000 3.6 10 11:58 16.01.2023
204 Clear 22 1013 60 10000 3.13 26 10:21 16.01.2023
205 Clear 23 1012 56 10000 4.92 4 07:35 16.01.2023
206 Clear 25 1012 61 10000 6.17 130 22:42 15.01.2023
207 Rain 26 1012 60 10000 7.2 170 20:50 15.01.2023
208 Clouds 26 1012 61 10000 7.2 170 20:25 15.01.2023
209 Clouds 25 1013 60 10000 6.69 170 18:56 15.01.2023
210 Clouds 25 1014 56 10000 4.12 140 16:48 15.01.2023
211 Clear 26 1014 33 10000 5.14 360 13:30 15.01.2023
212 Clear 20 1014 56 10000 2.57 20 11:56 15.01.2023
213 Clear 20 1014 56 10000 2.57 20 11:28 15.01.2023
214 Clear 17 1013 63 10000 1.54 30 10:21 15.01.2023
215 Clear 23 1011 43 10000 3.13 8 07:38 15.01.2023
216 Clear 26 1009 51 10000 2.06 140 23:30 14.01.2023
217 Clear 27 1009 44 10000 3.09 180 22:43 14.01.2023
218 Clear 27 1009 43 10000 2.57 220 21:36 14.01.2023
219 Clear 27 1009 43 10000 2.57 220 21:36 14.01.2023
220 Clear 27 1009 41 10000 2.57 220 21:18 14.01.2023
221 Clear 27 1009 41 10000 2.57 220 21:18 14.01.2023
222 Clear 28 1009 28 10000 4.63 210 20:40 14.01.2023
223 Clear 28 1009 25 10000 4.63 210 19:58 14.01.2023
224 Clear 27 1009 39 10000 6.69 240 17:49 14.01.2023
225 Clear 27 1010 32 10000 6.69 280 15:31 14.01.2023
226 Clear 26 1009 26 10000 5.14 290 14:56 14.01.2023
227 Clear 25 1009 30 10000 3.6 300 13:44 14.01.2023
228 Clear 24 1009 37 10000 2.68 307 12:49 14.01.2023
229 Clear 20 1008 43 10000 3.13 313 10:48 14.01.2023
230 Clear 20 1007 54 10000 2.68 317 08:20 14.01.2023
231 Clear 22 1008 55 10000 2.24 47 00:56 14.01.2023
232 Clouds 23 1008 52 10000 4.12 140 22:59 13.01.2023
233 Clouds 23 1008 54 10000 4.12 140 22:41 13.01.2023
234 Clouds 23 1007 54 10000 4.63 170 21:57 13.01.2023
235 Clouds 24 1007 53 10000 5.66 180 20:33 13.01.2023
236 Clouds 25 1008 54 10000 6.69 210 19:27 13.01.2023
237 Clouds 25 1009 58 10000 6.17 200 16:58 13.01.2023
238 Clouds 24 1009 47 10000 4.12 240 14:53 13.01.2023
239 Clouds 21 1010 72 10000 2.57 330 12:24 13.01.2023
240 Clouds 20 1009 69 10000 1.34 346 10:41 13.01.2023
241 Clouds 20 1009 69 10000 1.34 346 10:23 13.01.2023
242 Clear 20 1008 68 10000 1.54 60 09:44 13.01.2023
243 Clear 20 1008 67 10000 1.79 37 08:51 13.01.2023
244 Clear 20 1007 74 10000 3.58 32 06:56 13.01.2023
245 Clear 19 1009 88 10000 0 0 06:27 13.01.2023
246 Clear 21 1010 78 10000 2.06 110 02:20 13.01.2023
247 Clouds 23 1008 57 10000 6.17 170 22:52 12.01.2023
248 Clouds 23 1008 59 10000 6.17 170 21:59 12.01.2023
249 Clouds 23 1008 70 10000 5.81 186 20:52 12.01.2023
250 Clouds 25 1009 67 10000 3.6 190 18:27 12.01.2023
251 Clouds 24 1009 67 10000 5.66 170 17:20 12.01.2023
252 Clouds 23 1009 69 10000 5.14 150 15:28 12.01.2023
253 Clouds 23 1009 69 10000 6.17 180 14:42 12.01.2023
254 Clouds 23 1009 70 10000 6.17 180 14:19 12.01.2023
255 Clouds 23 1009 71 10000 5.66 180 12:29 12.01.2023
256 Clouds 22 1007 77 10000 5.81 181 10:26 12.01.2023
257 Clouds 22 1008 81 10000 2.24 186 07:27 12.01.2023
258 Rain 22 1008 85 10000 4.92 165 00:32 12.01.2023
259 Rain 22 1008 83 8000 4.47 176 23:57 11.01.2023
260 Rain 22 1008 83 8000 3.6 160 23:38 11.01.2023
261 Rain 22 1008 82 8000 3.6 160 23:19 11.01.2023
262 Rain 22 1009 80 10000 3.6 200 21:32 11.01.2023
263 Clouds 23 1009 75 10000 4.63 140 19:19 11.01.2023
264 Clouds 23 1009 76 10000 4.63 180 17:49 11.01.2023
265 Clouds 24 1009 72 10000 4.12 170 15:52 11.01.2023
266 Clouds 22 1010 79 10000 3.13 59 13:59 11.01.2023
267 Clouds 21 1010 82 10000 4.02 80 12:33 11.01.2023
268 Clouds 21 1010 84 10000 4.47 96 11:39 11.01.2023
269 Clear 21 1009 85 10000 4.63 120 09:29 11.01.2023
270 Clear 22 1009 81 10000 3.58 81 07:30 11.01.2023
271 Clear 22 1009 76 10000 4.02 60 06:47 11.01.2023
272 Clouds 22 1010 77 10000 7.72 120 23:55 10.01.2023
273 Clouds 23 1010 71 10000 8.75 120 22:34 10.01.2023
274 Clouds 23 1010 70 10000 8.23 120 21:28 10.01.2023
275 Rain 23 1010 73 10000 10.29 120 19:55 10.01.2023
276 Smoke 23 1011 76 10000 10.29 120 19:29 10.01.2023
277 Clouds 23 1011 75 10000 9.77 130 18:47 10.01.2023
278 Clouds 23 1012 74 10000 7.72 130 17:33 10.01.2023
279 Clouds 22 1012 74 10000 6.17 130 15:47 10.01.2023
280 Clouds 22 1013 73 10000 6.17 130 15:21 10.01.2023
281 Clouds 22 1013 76 10000 4.63 40 13:42 10.01.2023
282 Clouds 21 1013 78 10000 4.63 60 11:28 10.01.2023
283 Clear 20 1012 78 10000 2.68 53 08:44 10.01.2023
284 Clear 20 1012 78 10000 3.13 23 07:59 10.01.2023
285 Clear 20 1012 78 10000 3.13 23 07:59 10.01.2023
286 Clear 20 1012 76 10000 4.02 53 07:25 10.01.2023
287 Clear 22 1013 69 10000 4.92 55 04:50 10.01.2023
288 Clear 22 1013 74 10000 7.2 130 22:50 09.01.2023
289 Clouds 22 1013 74 10000 8.23 130 21:20 09.01.2023
290 Clouds 22 1014 72 10000 8.23 130 20:32 09.01.2023
291 Clouds 22 1015 71 10000 7.72 120 18:41 09.01.2023
292 Clouds 22 1015 73 10000 7.2 140 17:51 09.01.2023
293 Clouds 22 1015 72 10000 6.69 150 16:47 09.01.2023
294 Clouds 22 1016 70 10000 6.71 97 16:29 09.01.2023
295 Clouds 22 1016 74 10000 5.81 119 15:22 09.01.2023
296 Clouds 22 1016 74 10000 5.81 119 15:22 09.01.2023
297 Clouds 22 1016 77 10000 5.66 70 14:43 09.01.2023
298 Clouds 22 1016 77 10000 5.66 70 14:43 09.01.2023
299 Clouds 22 1017 68 10000 5.66 40 12:54 09.01.2023
300 Clouds 22 1017 72 10000 5.66 50 12:18 09.01.2023
301 Clear 20 1017 75 10000 4.02 43 11:19 09.01.2023
302 Clear 20 1016 74 10000 5.81 44 07:23 09.01.2023
303 Clear 21 1016 69 10000 5.36 50 06:21 09.01.2023
304 Clear 22 1017 75 10000 7.15 68 02:53 09.01.2023
305 Clouds 23 1017 72 10000 9.77 130 22:29 08.01.2023
306 Smoke 23 1018 75 10000 8.75 110 21:22 08.01.2023
307 Smoke 23 1018 75 10000 8.75 110 20:57 08.01.2023
308 Smoke 23 1019 73 10000 9.77 120 19:19 08.01.2023
309 Clouds 23 1020 72 10000 9.26 120 17:37 08.01.2023
310 Clouds 23 1020 71 10000 9.26 120 17:18 08.01.2023
311 Clouds 27 1022 47 10000 6.69 150 15:37 08.01.2023
312 Clouds 22 1021 74 10000 6.69 70 14:18 08.01.2023
313 Clouds 23 1021 72 10000 6.69 60 13:32 08.01.2023
314 Clouds 23 1022 69 10000 6.69 60 12:58 08.01.2023
315 Clouds 21 1021 77 10000 4.92 38 11:22 08.01.2023
316 Clear 20 1021 79 10000 4.47 46 09:37 08.01.2023
317 Clear 20 1019 79 10000 4.47 53 07:55 08.01.2023
318 Clear 23 1021 73 10000 4.63 100 02:25 08.01.2023
319 Clouds 23 1019 75 10000 8.75 120 22:49 07.01.2023
320 Clouds 23 1019 75 10000 8.94 93 22:26 07.01.2023
321 Clouds 23 1019 71 10000 9.26 120 21:49 07.01.2023
322 Clouds 23 1019 66 10000 8.49 117 20:57 07.01.2023
323 Clouds 23 1020 65 10000 8.49 101 20:25 07.01.2023
324 Clouds 23 1020 67 10000 9.26 110 19:19 07.01.2023
325 Clouds 23 1021 73 10000 8.05 113 18:18 07.01.2023
326 Clear 24 1021 70 10000 8.23 120 17:39 07.01.2023
327 Clear 24 1022 65 10000 7.2 130 16:39 07.01.2023
328 Clear 23 1022 65 10000 6.26 115 15:52 07.01.2023
329 Clear 23 1022 66 10000 6.26 110 15:31 07.01.2023
330 Clear 24 1022 67 10000 7.2 50 14:50 07.01.2023
331 Clear 25 1022 49 10000 7.2 40 13:58 07.01.2023
332 Clear 24 1022 49 10000 7.2 40 13:39 07.01.2023
333 Clear 23 1023 67 10000 6.69 50 12:35 07.01.2023
334 Clear 21 1022 79 10000 5.36 44 11:59 07.01.2023
335 Clear 20 1022 80 10000 3.58 48 10:27 07.01.2023
336 Clear 20 1021 80 10000 4.47 53 08:48 07.01.2023
337 Clear 20 1020 78 10000 4.12 60 07:47 07.01.2023
338 Clear 20 1020 76 10000 4.12 60 07:20 07.01.2023
339 Clear 23 1020 62 10000 5.81 28 04:59 07.01.2023
340 Clouds 25 1017 70 10000 7.72 120 22:57 06.01.2023
341 Clouds 25 1017 72 10000 7.72 120 22:20 06.01.2023
342 Clouds 25 1017 70 10000 6.69 120 21:44 06.01.2023
343 Clouds 25 1018 70 10000 7.2 120 20:32 06.01.2023
344 Clouds 25 1018 71 10000 7.2 120 19:41 06.01.2023
345 Clouds 25 1018 71 10000 7.2 120 19:23 06.01.2023
346 Clouds 24 1018 71 10000 7.72 130 18:54 06.01.2023
347 Clear 24 1019 68 10000 6.17 130 17:44 06.01.2023
348 Clear 24 1019 68 10000 5.66 40 16:52 06.01.2023
349 Clear 25 1019 68 10000 5.66 40 16:21 06.01.2023
350 Clear 27 1019 57 10000 6.17 60 15:51 06.01.2023
351 Clear 27 1019 46 10000 6.17 60 15:27 06.01.2023
352 Rain 24 1019 57 10000 6.69 40 13:31 06.01.2023
353 Clear 20 1018 75 10000 5.66 40 11:19 06.01.2023
354 Clear 19 1017 70 10000 3.58 17 09:56 06.01.2023
355 Rain 19 1016 65 10000 4.47 11 08:34 06.01.2023
356 Clear 24 1016 58 10000 3.09 90 03:44 06.01.2023
357 Clear 24 1014 57 10000 6.17 120 22:56 05.01.2023
358 Clear 25 1014 55 10000 5.66 140 21:56 05.01.2023
359 Clear 25 1015 48 10000 5.14 130 20:24 05.01.2023
360 Clear 25 1016 41 10000 4.12 110 17:29 05.01.2023
361 Clear 24 1016 46 10000 2.57 0 16:37 05.01.2023
362 Clear 24 1016 48 10000 1.79 97 15:48 05.01.2023
363 Clear 23 1016 49 10000 2.24 146 14:56 05.01.2023
364 Clear 22 1016 53 10000 3.6 360 13:28 05.01.2023
365 Clear 20 1016 57 10000 3.13 323 12:38 05.01.2023
366 Clear 17 1015 63 10000 2.68 342 09:57 05.01.2023
367 Rain 17 1014 63 10000 3.13 19 09:33 05.01.2023
368 Clear 18 1014 58 10000 4.02 36 07:26 05.01.2023
369 Rain 18 1014 59 10000 5.36 36 06:37 05.01.2023
370 Clear 22 1014 61 10000 5.81 120 00:28 05.01.2023
371 Clear 22 1013 60 10000 5.66 140 22:23 04.01.2023
372 Clear 22 1013 53 10000 5.14 150 21:29 04.01.2023
373 Clear 22 1013 56 10000 5.66 160 19:58 04.01.2023
374 Clear 22 1014 57 10000 6.17 190 19:36 04.01.2023
375 Clear 22 1014 57 10000 6.17 190 19:18 04.01.2023
376 Clear 22 1014 54 10000 6.17 170 16:58 04.01.2023
377 Clear 22 1014 52 10000 6.17 150 16:30 04.01.2023
378 Clear 22 1014 52 10000 6.17 150 16:30 04.01.2023
379 Clear 22 1014 48 10000 6.69 170 14:49 04.01.2023
380 Clear 22 1012 61 10000 6.26 186 11:56 04.01.2023
381 Clear 22 1012 63 10000 6.26 176 11:22 04.01.2023
382 Clear 22 1011 61 10000 5.36 202 10:44 04.01.2023
383 Clear 22 1011 65 10000 4.92 186 10:24 04.01.2023
384 Clouds 21 1010 73 10000 5.14 180 09:19 04.01.2023
385 Clouds 22 1009 82 10000 9.39 186 05:37 04.01.2023
386 Clear 24 1007 41 10000 2.06 350 01:20 04.01.2023
387 Clear 29 1005 24 10000 3.6 290 23:37 03.01.2023
388 Clear 29 1004 24 10000 4.12 290 22:55 03.01.2023
389 Clear 29 1004 22 10000 6.69 260 21:36 03.01.2023
390 Clouds 29 1005 29 10000 5.66 290 19:57 03.01.2023
391 Clouds 29 1006 26 10000 8.23 270 18:21 03.01.2023
392 Clouds 28 1008 29 10000 8.75 270 16:39 03.01.2023
393 Clear 26 1008 31 10000 5.66 340 14:21 03.01.2023
394 Clear 24 1008 34 10000 4.12 340 13:32 03.01.2023
395 -273 0 0 0 0 0 13:32 03.01.2023
396 Clear 23 1008 37 10000 5.14 360 12:58 03.01.2023
397 Clear 22 1008 38 10000 5.14 360 12:31 03.01.2023
398 Clear 20 1007 50 10000 3.6 10 11:41 03.01.2023
399 Clear 17 1006 71 10000 3.58 345 08:23 03.01.2023
400 Clear 20 1008 56 10000 3.13 40 04:26 03.01.2023
401 Clear 21 1008 55 10000 3.58 82 03:46 03.01.2023
402 Clear 21 1008 56 10000 4.02 84 03:26 03.01.2023
403 Clouds 21 1007 71 10000 5.14 170 23:19 02.01.2023
404 Clouds 22 1006 67 10000 5.66 180 22:26 02.01.2023
405 Clouds 23 1006 65 10000 8.23 220 20:51 02.01.2023
406 Clouds 22 1006 65 10000 8.23 220 20:26 02.01.2023
407 Clouds 21 1006 74 10000 6.69 230 18:40 02.01.2023
408 Clouds 20 1004 87 800 8.75 260 15:43 02.01.2023
409 Drizzle 19 1004 77 5000 7.72 270 13:51 02.01.2023
410 Clouds 20 1004 76 7000 8.75 260 12:19 02.01.2023
411 Clouds 22 1004 77 6000 7.2 260 10:57 02.01.2023
412 Clouds 22 1003 75 10000 3.09 290 08:38 02.01.2023
413 Clouds 22 1006 82 10000 0 0 04:38 02.01.2023
414 Rain 23 1006 84 6000 5.66 230 23:18 01.01.2023
415 Rain 24 1005 81 10000 7.2 230 21:46 01.01.2023
416 Clouds 24 1007 80 10000 5.66 230 20:49 01.01.2023
417 Rain 24 1006 77 10000 5.66 230 20:18 01.01.2023
418 Clouds 25 1006 71 10000 5.66 130 18:47 01.01.2023
419 Clear 25 1007 70 10000 5.66 20 17:23 01.01.2023
420 Clear 25 1008 70 10000 7.2 20 16:34 01.01.2023
421 Clear 30 1010 48 10000 6.69 30 15:31 01.01.2023
422 Clear 23 1010 72 10000 5.66 60 13:48 01.01.2023
423 Clear 22 1011 76 10000 5.66 80 12:46 01.01.2023
424 Clear 21 1011 77 10000 8.23 90 11:40 01.01.2023
425 Rain 21 1011 79 10000 8.23 90 11:21 01.01.2023
426 Clear 20 1011 80 10000 4.02 53 09:29 01.01.2023
427 Clear 20 1011 80 10000 2.68 50 08:25 01.01.2023
428 Rain 20 1011 78 10000 5.36 57 07:30 01.01.2023
429 Clouds 20 1012 78 10000 5.81 46 06:42 01.01.2023
430 Clear 21 1013 71 10000 8.05 80 23:46 31.12.2022
431 Clear 22 1013 68 10000 8.49 98 23:21 31.12.2022
432 Clear 22 1012 64 10000 8.05 121 21:46 31.12.2022
433 Clear 22 1013 65 10000 7.2 140 21:23 31.12.2022
434 Clear 22 1013 72 10000 6.71 134 20:22 31.12.2022
435 Clear 22 1014 63 10000 8.23 150 18:51 31.12.2022
436 Clear 22 1014 62 10000 8.23 150 18:32 31.12.2022
437 Clear 22 1014 63 10000 7.2 140 17:57 31.12.2022
438 Clear 22 1014 67 10000 7.2 140 17:31 31.12.2022
439 Clear 22 1014 67 10000 6.69 150 16:31 31.12.2022
440 Clouds 22 1014 68 10000 8.23 150 15:36 31.12.2022
441 Clear 23 1013 64 10000 6.69 150 13:56 31.12.2022
442 Clear 23 1013 63 10000 6.17 140 13:27 31.12.2022
443 Clear 23 1012 61 10000 6.69 150 12:24 31.12.2022
444 Clear 23 1012 62 10000 6.69 160 11:52 31.12.2022
445 Clear 23 1012 65 10000 6.69 160 11:25 31.12.2022
446 Clear 23 1010 66 10000 6.71 186 09:56 31.12.2022
447 Clear 23 1010 65 10000 6.26 171 09:37 31.12.2022
448 Clear 24 1008 70 10000 7.15 186 08:22 31.12.2022
449 Clear 27 1006 41 10000 3.6 50 02:26 31.12.2022
450 Rain 27 1006 46 10000 2.24 23 00:32 31.12.2022
451 Clear 32 1007 27 10000 5.14 280 22:55 30.12.2022
452 Clear 32 1007 29 10000 5.14 280 22:18 30.12.2022
453 Clouds 33 1007 25 10000 5.66 280 21:37 30.12.2022
454 Clear 34 1008 26 10000 6.17 240 20:55 30.12.2022
455 Clear 34 1009 22 10000 4.12 260 18:28 30.12.2022
456 Clear 34 1009 24 10000 4.63 300 17:34 30.12.2022
457 Clear 34 1009 24 10000 4.63 300 17:34 30.12.2022
458 Clear 32 1010 27 10000 5.66 310 16:46 30.12.2022
459 Clear 28 1010 28 10000 6.17 360 14:55 30.12.2022
460 Clear 23 1011 48 10000 6.69 10 12:54 30.12.2022
461 Clear 17 1011 57 10000 4.92 1 08:24 30.12.2022
462 Clear 20 1012 40 10000 3.13 1 03:55 30.12.2022
463 Clear 20 1013 35 10000 3.58 42 02:26 30.12.2022
464 Clear 22 1012 36 10000 3.58 55 23:45 29.12.2022
465 Clear 22 1012 42 10000 3.6 120 21:55 29.12.2022
466 Clear 21 1012 38 10000 3.6 120 21:20 29.12.2022
467 Clear 21 1012 45 10000 4.12 160 20:45 29.12.2022
468 Clouds 22 1014 36 10000 5.14 190 18:49 29.12.2022
469 Clouds 22 1014 34 10000 5.14 210 17:53 29.12.2022
470 Clouds 22 1014 36 10000 5.14 210 17:25 29.12.2022
471 Clouds 22 1015 32 10000 5.66 220 16:54 29.12.2022
472 Clouds 22 1015 40 10000 5.66 240 15:49 29.12.2022
473 Clouds 21 1014 48 10000 4.63 240 13:41 29.12.2022
474 Clear 20 1014 48 10000 1.79 246 11:52 29.12.2022
475 Clear 19 1013 49 10000 0.89 268 09:47 29.12.2022
476 Clouds 20 1014 69 10000 6.71 176 03:41 29.12.2022
477 Clouds 22 1010 76 10000 8.49 176 23:29 28.12.2022
478 Clouds 22 1009 74 10000 9.77 170 22:19 28.12.2022
479 Clouds 23 1008 76 10000 9.77 180 21:20 28.12.2022
480 Clouds 24 1008 71 10000 10.29 200 19:57 28.12.2022
481 Clouds 25 1007 65 10000 9.26 230 18:26 28.12.2022
482 Clouds 26 1007 56 10000 6.69 240 16:21 28.12.2022
483 Clear 27 1008 40 10000 4.02 279 13:59 28.12.2022
484 Clear 24 1008 49 10000 3.6 350 12:48 28.12.2022
485 Clear 22 1008 60 10000 3.6 360 11:33 28.12.2022
486 Clear 19 1008 68 10000 3.58 347 09:34 28.12.2022
487 Clear 20 1007 68 10000 4.92 337 07:42 28.12.2022
488 Clouds 20 1007 65 10000 4.02 11 06:45 28.12.2022
489 Clouds 23 1009 57 10000 4.12 90 00:57 28.12.2022
490 Clouds 24 1009 52 10000 4.12 120 22:28 27.12.2022
491 Clouds 25 1010 48 10000 3.6 190 19:51 27.12.2022
492 Clouds 25 1011 41 10000 4.63 170 18:41 27.12.2022
493 Clouds 24 1012 53 10000 2.68 171 16:59 27.12.2022
494 Clouds 24 1012 53 10000 3.13 170 15:55 27.12.2022
495 Clear 24 1012 45 10000 4.12 10 14:25 27.12.2022
496 Clear 19 1013 58 10000 5.14 20 12:23 27.12.2022
497 Clear 16 1012 66 10000 4.02 324 09:48 27.12.2022
498 Clear 16 1012 66 10000 3.58 343 09:24 27.12.2022
499 Clear 16 1012 64 10000 3.13 342 08:47 27.12.2022
500 Clear 18 1012 69 10000 2.06 50 04:55 27.12.2022
501 Clear 21 1012 61 10000 3.09 110 23:39 26.12.2022
502 Clouds 21 1013 60 10000 4.12 170 21:51 26.12.2022
503 Clouds 21 1013 58 10000 2.57 150 20:44 26.12.2022
504 Clouds 21 1014 53 10000 3.09 200 19:51 26.12.2022
505 Clouds 21 1014 56 10000 4.12 160 18:42 26.12.2022
506 Clouds 22 1015 52 10000 5.14 210 16:53 26.12.2022
507 Clouds 22 1016 53 10000 2.57 0 15:37 26.12.2022
508 Clouds 20 1016 56 10000 1.54 0 12:58 26.12.2022
509 Clouds 17 1016 62 10000 2.24 320 10:49 26.12.2022
510 Clear 17 1017 63 10000 0.89 11 05:43 26.12.2022
511 Clear 19 1016 54 10000 4.12 170 23:41 25.12.2022
512 Clear 19 1016 50 10000 4.12 190 22:50 25.12.2022
513 Clear 19 1016 50 10000 4.12 190 22:22 25.12.2022
514 Clouds 20 1016 55 10000 4.12 210 19:56 25.12.2022
515 Clouds 20 1016 55 10000 4.12 210 19:56 25.12.2022
516 Clouds 19 1017 55 10000 5.66 230 17:52 25.12.2022
517 Clouds 19 1017 55 10000 5.66 230 17:34 25.12.2022
518 Clouds 20 1017 56 10000 5.14 230 16:41 25.12.2022
519 Clouds 19 1017 60 10000 4.12 220 13:30 25.12.2022
520 Clouds 18 1017 58 10000 2.68 252 11:39 25.12.2022
521 Clouds 18 1017 67 10000 4.63 220 04:48 25.12.2022
522 Clouds 19 1014 78 8000 9.26 210 22:55 24.12.2022
523 Clouds 20 1012 79 1500 6.17 220 19:53 24.12.2022
524 Rain 20 1012 80 8000 7.2 240 17:34 24.12.2022
525 Rain 20 1011 81 10000 5.14 240 15:38 24.12.2022
526 Rain 20 1009 89 5000 3.09 190 14:30 24.12.2022
527 Rain 20 1010 89 1500 5.14 220 12:20 24.12.2022
528 Rain 22 1008 76 10000 1.79 28 10:23 24.12.2022
529 Rain 22 1008 75 10000 2.24 307 09:37 24.12.2022
530 Rain 22 1007 74 10000 2.24 348 08:46 24.12.2022
531 Clouds 23 1009 68 10000 4.47 47 02:52 24.12.2022
532 Clouds 22 1008 70 10000 3.6 120 00:29 24.12.2022
533 Clouds 26 1009 53 10000 3.6 100 22:30 23.12.2022
534 Clouds 27 1009 55 10000 4.12 110 21:43 23.12.2022
535 Clouds 21 1010 73 10000 2.24 69 19:40 23.12.2022
536 Clouds 21 1010 72 10000 3.13 132 19:22 23.12.2022
537 Clouds 25 1011 57 5000 2.57 90 18:53 23.12.2022
538 Clouds 25 1011 57 5000 2.57 90 18:22 23.12.2022
539 Clouds 25 1011 57 10000 3.09 100 17:43 23.12.2022
540 Rain 24 1011 54 10000 7.72 30 15:45 23.12.2022
541 Rain 23 1011 55 10000 7.72 30 13:42 23.12.2022
542 Clear 20 1012 65 10000 2.68 14 10:21 23.12.2022
543 Clear 20 1012 66 10000 5.14 40 09:35 23.12.2022
544 Clear 20 1010 69 10000 7.72 40 07:30 23.12.2022
545 Clear 21 1009 68 10000 6.26 28 06:50 23.12.2022
546 Clouds 23 1010 71 10000 7.6 64 00:39 23.12.2022
547 Clouds 22 1010 69 10000 6.17 120 23:19 22.12.2022
548 Clouds 22 1010 69 10000 6.17 120 21:55 22.12.2022
549 Clouds 22 1011 68 10000 7.2 120 19:48 22.12.2022
550 Clouds 22 1012 67 10000 7.2 120 19:19 22.12.2022
551 Clouds 22 1013 67 10000 7.2 120 17:59 22.12.2022
552 Clouds 30 1014 37 10000 5.66 50 16:53 22.12.2022
553 Clouds 27 1015 41 10000 6.17 30 15:47 22.12.2022
554 Clouds 26 1014 43 10000 6.17 30 15:29 22.12.2022
555 Clouds 26 1014 43 10000 6.17 30 15:29 22.12.2022
556 Clouds 24 1015 50 10000 7.2 20 14:27 22.12.2022
557 Clear 22 1015 61 10000 8.23 30 13:20 22.12.2022
558 Clear 20 1016 73 10000 6.69 40 12:29 22.12.2022
559 Clear 19 1015 81 10000 4.12 90 10:31 22.12.2022
560 Clear 19 1015 80 10000 4.02 64 09:24 22.12.2022
561 Clear 19 1015 80 10000 4.02 30 08:53 22.12.2022
562 Clouds 19 1014 77 10000 4.92 40 07:52 22.12.2022
563 Clear 21 1015 62 10000 6.26 42 04:19 22.12.2022
564 Clear 22 1014 69 10000 7.6 71 00:48 22.12.2022
565 Clouds 23 1013 67 10000 8.75 120 22:40 21.12.2022
566 Clouds 22 1014 70 10000 7.72 120 21:49 21.12.2022
567 Clouds 22 1014 71 10000 7.72 120 21:19 21.12.2022
568 Clouds 22 1015 70 10000 8.23 130 20:40 21.12.2022
569 Clouds 28 1016 50 10000 9.26 130 19:56 21.12.2022
570 Clouds 27 1016 52 10000 9.26 130 19:37 21.12.2022
571 Clouds 27 1016 52 10000 9.26 130 19:18 21.12.2022
572 Clouds 27 1017 53 10000 9.26 120 18:38 21.12.2022
573 Clouds 22 1017 72 10000 6.69 130 16:19 21.12.2022
574 Clouds 22 1017 74 10000 6.69 50 14:24 21.12.2022
575 Clear 21 1018 75 10000 5.14 80 12:18 21.12.2022
576 Clear 20 1017 74 10000 4.63 90 11:21 21.12.2022
577 Clear 20 1017 74 10000 4.63 90 11:21 21.12.2022
578 Clear 19 1017 73 10000 4.47 65 10:30 21.12.2022
579 Clear 19 1017 71 10000 2.68 41 08:49 21.12.2022
580 Clear 20 1017 69 10000 4.02 59 06:30 21.12.2022
581 Clouds 23 1015 69 10000 8.05 55 00:27 21.12.2022
582 Clouds 23 1015 67 10000 8.75 120 21:47 20.12.2022
583 Clouds 23 1015 67 10000 8.75 120 21:47 20.12.2022
584 Clouds 23 1015 70 10000 9.26 120 20:58 20.12.2022
585 Clouds 23 1016 73 10000 8.75 120 19:59 20.12.2022
586 Clouds 22 1017 75 10000 7.72 130 18:48 20.12.2022
587 Clouds 22 1017 75 10000 8.05 123 18:23 20.12.2022
588 Clouds 22 1017 75 10000 6.71 92 17:50 20.12.2022
589 Clouds 22 1017 75 10000 7.15 85 17:25 20.12.2022
590 Clouds 22 1018 74 10000 5.81 123 15:58 20.12.2022
591 Clouds 22 1018 74 10000 5.14 120 14:56 20.12.2022
592 Clouds 22 1018 74 10000 5.14 120 14:36 20.12.2022
593 Clear 22 1018 73 10000 5.14 60 13:26 20.12.2022
594 Clear 22 1018 70 10000 5.66 50 12:34 20.12.2022
595 Clear 20 1018 74 10000 5.66 50 11:54 20.12.2022
596 Clear 18 1017 83 10000 2.24 42 09:57 20.12.2022
597 Clear 19 1016 79 10000 3.58 55 07:25 20.12.2022
598 Clouds 22 1015 78 10000 8.05 67 00:20 20.12.2022
599 Clouds 22 1014 75 10000 8.23 130 22:22 19.12.2022
600 Clouds 22 1015 72 10000 8.23 120 21:22 19.12.2022
601 Clouds 22 1015 71 10000 8.49 101 19:41 19.12.2022
602 Clouds 23 1016 70 10000 7.2 130 18:44 19.12.2022
603 Clouds 22 1016 70 10000 6.71 124 17:38 19.12.2022
604 Clouds 22 1017 72 10000 6.69 50 15:52 19.12.2022
605 Clouds 22 1018 66 10000 5.66 60 12:47 19.12.2022
606 Clouds 20 1018 70 10000 5.81 40 11:36 19.12.2022
607 Clear 19 1017 70 10000 4.12 60 07:49 19.12.2022
608 Clear 19 1017 72 10000 5.36 42 06:42 19.12.2022
609 Clear 23 1015 65 10000 7.15 57 00:50 19.12.2022
610 Clouds 22 1014 68 10000 9.77 120 21:49 18.12.2022
611 Clouds 22 1014 68 10000 9.77 120 21:27 18.12.2022
612 Clouds 22 1014 68 10000 9.77 120 20:53 18.12.2022
613 Clouds 22 1015 65 10000 8.75 120 19:43 18.12.2022
614 Clouds 22 1015 63 10000 8.94 119 18:59 18.12.2022
615 Clouds 22 1016 64 10000 7.6 138 17:52 18.12.2022
616 Clouds 22 1016 64 10000 7.6 138 17:52 18.12.2022
617 Clouds 22 1017 62 10000 5.66 120 15:42 18.12.2022
618 Clouds 22 1017 61 10000 5.66 120 15:24 18.12.2022
619 Clouds 22 1017 58 10000 5.14 70 14:58 18.12.2022
620 Clouds 21 1017 60 10000 5.66 60 13:29 18.12.2022
621 Clear 20 1017 61 10000 4.47 46 12:50 18.12.2022
622 Clear 19 1017 64 10000 4.12 90 11:49 18.12.2022
623 Clear 17 1016 70 10000 2.68 33 09:36 18.12.2022
624 Clear 17 1016 69 10000 3.13 52 08:46 18.12.2022
625 Clear 18 1015 66 10000 2.68 55 06:41 18.12.2022
626 Clear 18 1015 65 10000 3.13 48 06:18 18.12.2022
627 Clear 20 1015 59 10000 8.49 67 01:53 18.12.2022
628 Clouds 21 1013 64 10000 10.29 120 22:57 17.12.2022
629 Clouds 21 1013 66 10000 9.77 120 20:57 17.12.2022
630 Clouds 21 1014 60 10000 6.71 84 17:52 17.12.2022
631 Clouds 21 1015 53 10000 6.17 120 15:32 17.12.2022
632 Clouds 20 1016 51 10000 6.26 65 13:20 17.12.2022
633 Clouds 18 1016 59 10000 3.09 70 11:19 17.12.2022
634 Clouds 18 1016 61 10000 1.79 329 10:40 17.12.2022
635 Clear 17 1014 67 10000 3.6 60 08:37 17.12.2022
636 Clear 17 1014 67 10000 3.6 60 08:37 17.12.2022
637 Clear 17 1015 68 10000 2.68 38 06:48 17.12.2022
638 Clouds 19 1015 69 10000 5.36 30 04:41 17.12.2022
639 Clouds 19 1016 63 10000 6.71 120 22:55 16.12.2022
640 Clouds 19 1017 60 10000 6.69 140 20:29 16.12.2022
641 Clouds 19 1018 57 10000 8.23 150 18:33 16.12.2022
642 Clouds 19 1019 57 10000 7.2 150 15:32 16.12.2022
643 Clouds 19 1019 60 10000 7.72 160 14:42 16.12.2022
644 Clouds 19 1018 60 10000 7.72 150 12:49 16.12.2022
645 Clouds 18 1018 61 10000 8.94 163 11:56 16.12.2022
646 Clouds 18 1017 62 10000 5.81 152 09:40 16.12.2022
647 Clouds 18 1016 59 10000 6.71 140 08:49 16.12.2022
648 Clouds 18 1015 63 10000 6.26 135 07:54 16.12.2022
649 Clouds 18 1016 65 10000 5.81 133 06:45 16.12.2022
650 Clouds 20 1016 57 10000 9.83 176 22:46 15.12.2022
651 Clouds 20 1015 61 10000 10.8 160 21:36 15.12.2022
652 Clouds 21 1015 67 10000 10.29 170 19:49 15.12.2022
653 Clouds 21 1014 64 10000 9.77 180 18:54 15.12.2022
654 Clouds 22 1014 68 10000 8.49 181 17:28 15.12.2022
655 Rain 22 1013 72 10000 2.24 234 15:47 15.12.2022
656 Rain 20 1013 76 10000 2.06 190 14:57 15.12.2022
657 Rain 20 1013 75 3000 4.63 260 12:54 15.12.2022
658 Clouds 21 1014 75 3000 4.63 260 12:24 15.12.2022
659 Rain 23 1010 64 10000 5.14 160 08:59 15.12.2022
660 Clouds 22 1010 70 10000 5.14 160 08:21 15.12.2022
661 Clear 23 1007 49 10000 4.47 2 05:45 15.12.2022
662 Clear 24 1006 68 10000 3.09 130 00:59 15.12.2022
663 Clear 26 1007 49 10000 5.14 180 21:24 14.12.2022
664 Clear 26 1007 46 10000 4.63 150 20:45 14.12.2022
665 Clear 26 1007 46 10000 5.14 170 19:53 14.12.2022
666 Clear 27 1009 44 10000 4.12 350 17:41 14.12.2022
667 Clear 28 1009 40 10000 5.14 320 16:54 14.12.2022
668 Clear 27 1010 35 10000 6.17 340 14:58 14.12.2022
669 Clear 23 1011 43 10000 6.17 350 13:19 14.12.2022
670 Clear 19 1011 56 10000 6.69 10 11:20 14.12.2022
671 Clear 18 1011 60 10000 3.6 10 10:23 14.12.2022
672 Clear 17 1010 54 10000 5.36 23 08:46 14.12.2022
673 Clear 21 1010 48 10000 3.13 129 22:46 13.12.2022
674 Clear 22 1010 46 10000 3.6 230 21:46 13.12.2022
675 Clouds 22 1011 43 10000 3.6 230 20:48 13.12.2022
676 Clouds 22 1011 43 10000 3.09 200 19:39 13.12.2022
677 Clouds 21 1012 46 10000 3.13 194 16:42 13.12.2022
678 Clouds 20 1013 47 10000 2.68 181 14:59 13.12.2022
679 Clouds 20 1013 50 10000 2.57 200 13:42 13.12.2022
680 Clouds 19 1011 53 10000 3.13 166 10:55 13.12.2022
681 Clouds 19 1011 56 10000 3.13 176 10:35 13.12.2022
682 Clouds 18 1010 56 10000 2.68 167 08:45 13.12.2022
683 Clouds 21 1007 60 10000 6.71 176 22:42 12.12.2022
684 Clouds 21 1007 63 10000 6.71 155 22:20 12.12.2022
685 Clouds 21 1006 55 10000 6.26 147 20:41 12.12.2022
686 Clouds 21 1006 55 10000 6.26 147 20:41 12.12.2022
687 Clouds 22 1006 48 10000 5.81 198 18:31 12.12.2022
688 Clouds 22 1006 54 10000 6.17 180 15:41 12.12.2022
689 Clouds 22 1006 57 10000 4.63 190 14:26 12.12.2022
690 Clouds 22 1006 57 10000 4.63 190 14:26 12.12.2022
691 Clear 21 1004 63 10000 1.54 210 09:56 12.12.2022
692 Clear 20 1004 64 10000 1.54 210 09:18 12.12.2022
693 Clouds 23 1002 63 10000 4.12 240 04:52 12.12.2022
694 Thunderstorm 22 1003 85 10000 3.6 180 01:51 12.12.2022
695 Clouds 31 1000 51 10000 6.17 290 22:19 11.12.2022
696 Rain 29 1001 55 10000 7.72 270 20:40 11.12.2022
697 Clouds 29 1002 54 10000 8.23 270 19:39 11.12.2022
698 Clouds 30 1001 51 10000 8.23 270 18:55 11.12.2022
699 Clouds 31 1003 51 10000 7.2 270 17:55 11.12.2022
700 Clouds 30 1004 53 10000 6.17 280 17:26 11.12.2022
701 Clear 31 1004 50 10000 5.66 330 16:49 11.12.2022
702 Clear 31 1006 45 10000 5.66 350 15:45 11.12.2022
703 Clear 26 1008 58 10000 6.69 10 13:39 11.12.2022
704 Clear 24 1008 62 10000 7.72 10 12:42 11.12.2022
705 Clear 20 1009 64 10000 4.47 356 10:44 11.12.2022
706 Clear 22 1011 45 10000 4.47 34 03:39 11.12.2022
707 Clear 24 1011 64 10000 7.15 66 00:28 11.12.2022
708 Clouds 24 1010 61 10000 8.75 120 22:50 10.12.2022
709 Clouds 24 1011 60 10000 8.75 120 22:32 10.12.2022
710 Clouds 23 1011 59 10000 9.26 120 21:18 10.12.2022
711 Clouds 23 1011 58 10000 9.26 130 20:20 10.12.2022
712 Clear 23 1011 63 10000 8.05 115 17:54 10.12.2022
713 Clear 23 1012 67 10000 7.72 130 16:47 10.12.2022
714 Clear 23 1012 67 10000 7.72 130 16:47 10.12.2022
715 Clear 23 1012 66 10000 8.23 130 15:53 10.12.2022
716 Clear 23 1011 63 10000 8.23 130 15:33 10.12.2022
717 Clear 23 1011 61 10000 7.72 120 13:44 10.12.2022
718 Clear 23 1011 61 10000 7.72 110 12:34 10.12.2022
719 Clear 23 1011 63 10000 7.6 94 11:22 10.12.2022
720 Clear 22 1011 70 10000 5.36 86 09:52 10.12.2022
721 Clear 22 1011 71 10000 7.15 79 07:23 10.12.2022
722 Clouds 22 1010 70 10000 7.6 103 06:54 10.12.2022
723 Clear 33 1002 38 10000 5.14 130 23:52 09.12.2022
724 Clouds 29 1002 62 10000 4.12 140 22:43 09.12.2022
725 Clouds 30 1002 63 10000 3.6 150 21:43 09.12.2022
726 Clouds 30 1002 62 10000 5.14 160 20:59 09.12.2022
727 Clouds 30 1003 59 10000 5.14 180 19:47 09.12.2022
728 Clouds 31 1004 60 10000 5.14 210 18:32 09.12.2022
729 Clear 29 1004 65 10000 6.17 10 17:32 09.12.2022
730 Clear 31 1005 55 10000 4.47 181 16:29 09.12.2022
731 Clear 35 1006 31 10000 5.14 320 15:31 09.12.2022
732 Clear 33 1006 32 10000 4.63 360 14:23 09.12.2022
733 Clear 24 1006 61 10000 2.68 18 10:51 09.12.2022
734 Rain 23 1005 66 10000 2.68 6 10:29 09.12.2022
735 Rain 24 1005 72 10000 2.24 44 08:22 09.12.2022
736 Clear 26 1005 60 10000 1.54 10 03:18 09.12.2022
737 Clear 31 1005 45 10000 2.06 190 23:36 08.12.2022
738 Clear 31 1004 44 10000 4.12 220 20:56 08.12.2022
739 Clear 31 1004 43 10000 5.66 280 20:20 08.12.2022
740 Clear 26 1005 64 10000 3.09 290 16:51 08.12.2022
741 Clear 27 1005 52 10000 4.12 50 14:40 08.12.2022
742 Clear 27 1006 54 10000 4.12 50 14:20 08.12.2022
743 Rain 23 1007 63 10000 5.14 60 10:43 08.12.2022
744 Rain 24 1008 61 10000 1.54 310 09:32 08.12.2022
745 Clear 22 1009 65 10000 5.81 263 08:28 08.12.2022
746 Clear 23 1008 72 10000 6.17 120 22:44 07.12.2022
747 Clear 23 1008 71 10000 6.17 120 22:18 07.12.2022
748 Clear 23 1008 72 10000 6.17 110 21:47 07.12.2022
749 Clear 24 1008 69 10000 6.69 110 20:35 07.12.2022
750 Clear 25 1009 66 10000 5.14 120 18:41 07.12.2022
751 Clear 28 1013 54 10000 0.51 110 15:53 07.12.2022
752 Clear 25 1012 66 10000 3.13 106 14:30 07.12.2022
753 Clear 22 1012 64 10000 1.79 360 11:36 07.12.2022
754 Clear 21 1012 73 10000 1.34 16 10:30 07.12.2022
755 Clear 21 1011 75 10000 4.02 4 09:36 07.12.2022
756 Clear 22 1011 73 10000 4.02 354 08:36 07.12.2022
757 Clear 24 1011 60 10000 4.12 30 05:27 07.12.2022
758 Clear 27 1011 45 10000 3.58 32 02:58 07.12.2022
759 Clear 26 1010 64 10000 5.66 100 22:35 06.12.2022
760 Clear 25 1011 65 10000 5.66 120 19:45 06.12.2022
761 Clear 34 1013 24 10000 4.12 130 17:30 06.12.2022
762 Clear 32 1014 37 10000 5.14 360 16:38 06.12.2022
763 Clear 26 1013 64 10000 4.12 350 15:38 06.12.2022
764 Clear 29 1013 48 10000 5.66 10 14:55 06.12.2022
765 Clear 27 1013 41 10000 5.66 10 14:24 06.12.2022
766 Clear 24 1014 59 10000 6.69 10 12:42 06.12.2022
767 Clear 23 1014 61 10000 6.69 10 12:20 06.12.2022
768 Clear 20 1012 74 10000 5.81 4 07:51 06.12.2022
769 Clear 24 1012 53 10000 4.92 23 03:26 06.12.2022
770 Clear 27 1011 58 10000 4.12 70 01:24 06.12.2022
771 Clear 26 1011 65 10000 6.17 110 22:25 05.12.2022
772 Clouds 26 1011 62 10000 5.66 100 20:55 05.12.2022
773 Clouds 25 1011 63 10000 6.17 120 20:23 05.12.2022
774 Clear 25 1011 64 10000 6.69 120 19:42 05.12.2022
775 Clear 25 1013 68 10000 5.66 120 16:57 05.12.2022
776 Clear 25 1013 68 10000 5.66 120 16:57 05.12.2022
777 Clear 25 1013 72 10000 4.02 101 15:49 05.12.2022
778 Rain 25 1013 73 10000 3.58 84 15:18 05.12.2022
779 Rain 25 1013 68 10000 4.12 10 12:59 05.12.2022
780 Clear 24 1013 70 10000 4.12 10 12:38 05.12.2022
781 Rain 23 1013 72 10000 4.12 10 11:46 05.12.2022
782 Rain 20 1012 75 10000 2.24 343 09:36 05.12.2022
783 Clear 23 1010 77 10000 4.12 100 00:19 05.12.2022
784 Rain 23 1009 76 10000 5.14 120 22:44 04.12.2022
785 Clear 23 1009 76 10000 5.14 120 22:20 04.12.2022
786 Clear 24 1009 74 10000 5.66 180 21:39 04.12.2022
787 Clear 24 1009 67 10000 5.14 160 20:26 04.12.2022
788 Clouds 24 1009 71 10000 5.14 180 19:25 04.12.2022
789 Clouds 27 1010 57 10000 3.6 170 18:40 04.12.2022
790 Clouds 23 1010 72 10000 4.63 170 17:23 04.12.2022
791 Clouds 24 1010 68 10000 4.12 170 16:37 04.12.2022
792 Clouds 24 1010 69 10000 4.12 170 16:19 04.12.2022
793 Clouds 23 1010 71 10000 4.63 160 15:54 04.12.2022
794 Clouds 24 1010 72 10000 2.57 290 14:43 04.12.2022
795 Clouds 23 1010 71 10000 2.57 340 13:18 04.12.2022
796 Clouds 22 1010 77 10000 3.09 340 12:42 04.12.2022
797 Clouds 22 1010 76 10000 2.24 319 11:46 04.12.2022
798 Fog 19 1009 85 8000 0.89 36 09:20 04.12.2022
799 Fog 19 1008 81 10000 0.45 17 07:21 04.12.2022
800 Clear 22 1010 82 10000 5.66 110 00:44 04.12.2022
801 Clear 22 1009 80 10000 6.17 120 23:30 03.12.2022
802 Clear 21 1009 78 10000 6.69 130 21:55 03.12.2022
803 Clear 21 1009 77 10000 6.69 130 21:19 03.12.2022
804 Clouds 21 1011 72 10000 5.66 140 19:34 03.12.2022
805 Clear 21 1011 72 10000 5.14 140 18:39 03.12.2022
806 Clouds 20 1013 71 10000 3.09 140 15:53 03.12.2022
807 Clouds 19 1013 72 10000 3.09 110 14:23 03.12.2022
808 Clouds 18 1014 74 10000 3.6 50 12:54 03.12.2022
809 Clouds 18 1014 75 10000 3.6 50 12:22 03.12.2022
810 Fog 15 1013 79 3000 1.79 32 10:20 03.12.2022
811 Clouds 17 1013 77 10000 2.24 33 06:53 03.12.2022
812 Clouds 19 1012 72 10000 3.6 150 00:31 03.12.2022
813 Clouds 19 1012 67 10000 5.66 170 22:22 02.12.2022
814 Clouds 21 1012 64 10000 6.17 170 20:53 02.12.2022
815 Clouds 21 1012 64 10000 6.17 170 19:23 02.12.2022
816 Clouds 20 1013 68 10000 7.2 180 15:59 02.12.2022
817 Clouds 20 1013 69 10000 6.69 170 14:40 02.12.2022
818 Clouds 20 1013 71 10000 6.69 170 14:22 02.12.2022
819 Clouds 19 1013 75 10000 6.69 180 12:55 02.12.2022
820 Clouds 19 1012 75 10000 7.2 190 11:32 02.12.2022
821 Clouds 19 1011 78 10000 8.05 181 08:35 02.12.2022
822 Rain 19 1010 79 10000 9.39 176 07:23 02.12.2022
823 Clouds 21 1009 80 10000 7.2 200 23:49 01.12.2022
824 Clouds 22 1007 78 10000 7.72 200 21:46 01.12.2022
825 Clouds 22 1007 78 10000 7.72 200 21:46 01.12.2022
826 Clouds 22 1007 78 10000 7.72 200 21:27 01.12.2022
827 Clouds 24 1007 75 10000 7.2 180 19:24 01.12.2022
828 Clouds 24 1007 72 10000 6.17 220 17:48 01.12.2022
829 Clouds 23 1007 78 10000 4.63 290 15:44 01.12.2022
830 Clouds 23 1007 75 10000 4.63 10 11:41 01.12.2022
831 Clouds 23 1006 76 10000 2.68 37 10:23 01.12.2022
832 Clouds 22 1006 77 10000 2.24 30 09:54 01.12.2022
833 Clouds 22 1005 83 10000 0.89 71 09:35 01.12.2022
834 Clouds 22 1004 85 10000 4.63 130 00:18 01.12.2022
835 Clouds 22 1004 79 10000 8.23 110 22:37 30.11.2022
836 Clouds 22 1004 80 10000 7.72 110 21:19 30.11.2022
837 Clouds 22 1005 78 10000 6.17 130 20:25 30.11.2022
838 Clouds 23 1005 77 10000 6.17 130 19:58 30.11.2022
839 Clouds 22 1006 77 10000 6.17 120 18:33 30.11.2022
840 Clouds 22 1007 76 10000 5.66 120 17:36 30.11.2022
841 Clouds 27 1008 61 10000 4.63 140 15:49 30.11.2022
842 Clouds 22 1008 76 10000 3.58 163 14:27 30.11.2022
843 Clouds 22 1008 77 10000 6.69 10 13:39 30.11.2022
844 Clear 20 1006 78 10000 6.26 8 10:30 30.11.2022
845 Clear 20 1005 78 10000 5.36 39 08:39 30.11.2022
846 Clear 20 1005 78 10000 6.26 5 07:56 30.11.2022
847 Clear 23 1005 67 10000 4.63 70 23:36 29.11.2022
848 Clouds 30 1006 39 10000 5.66 60 22:49 29.11.2022
849 Clouds 24 1006 69 10000 6.17 120 21:26 29.11.2022
850 Clouds 24 1006 66 10000 4.63 40 20:37 29.11.2022
851 Clear 27 1006 53 10000 5.66 30 18:59 29.11.2022
852 Clear 29 1007 45 10000 6.17 20 16:59 29.11.2022
853 Clear 29 1008 43 10000 6.17 20 16:25 29.11.2022
854 Clear 26 1009 56 10000 7.72 20 14:50 29.11.2022
855 Clear 24 1010 61 10000 7.72 20 13:20 29.11.2022
856 Clear 21 1010 74 10000 7.72 30 11:44 29.11.2022
857 Clear 20 1011 76 10000 4.02 11 10:56 29.11.2022
858 Clear 19 1010 79 10000 3.6 30 09:47 29.11.2022
859 Clear 20 1009 78 10000 4.63 30 08:42 29.11.2022
860 Clear 27 1011 52 10000 3.6 60 00:36 29.11.2022
861 Clear 27 1011 52 10000 3.6 60 00:36 29.11.2022
862 Clear 24 1011 73 10000 5.66 60 23:35 28.11.2022
863 Clouds 24 1011 77 10000 6.17 70 22:52 28.11.2022
864 Clouds 24 1011 73 10000 6.69 60 21:44 28.11.2022
865 Clouds 24 1011 73 10000 6.69 60 21:44 28.11.2022
866 Clouds 24 1011 72 10000 6.69 20 20:50 28.11.2022
867 Clouds 24 1012 73 10000 5.66 40 19:39 28.11.2022
868 Clear 24 1013 70 10000 5.36 124 18:29 28.11.2022
869 Clear 24 1013 70 10000 6.17 40 17:51 28.11.2022
870 Clear 27 1014 46 10000 7.72 10 16:25 28.11.2022
871 Clouds 22 1015 75 10000 7.2 40 14:24 28.11.2022
872 Clear 22 1016 77 10000 6.17 60 13:51 28.11.2022
873 Rain 22 1017 72 10000 6.69 60 12:42 28.11.2022
874 Clear 20 1016 82 10000 3.58 64 09:39 28.11.2022
875 Clear 20 1016 83 10000 3.58 53 07:19 28.11.2022
876 Clear 22 1017 77 10000 4.92 32 04:42 28.11.2022
877 Clear 23 1017 75 10000 4.92 38 03:58 28.11.2022
878 Clear 23 1017 75 10000 4.47 46 03:18 28.11.2022
879 Clouds 23 1017 79 10000 6.17 120 22:42 27.11.2022
880 Clouds 23 1017 80 10000 6.17 120 21:41 27.11.2022
881 Clouds 23 1017 80 10000 6.69 120 20:22 27.11.2022
882 Clouds 23 1019 76 10000 6.69 130 17:34 27.11.2022
883 Clear 23 1020 74 10000 5.14 60 14:33 27.11.2022
884 Clouds 23 1021 72 10000 5.14 50 12:32 27.11.2022
885 Clouds 21 1020 80 10000 3.09 70 10:48 27.11.2022
886 Clouds 21 1018 78 10000 4.02 38 08:18 27.11.2022
887 Clear 24 1018 79 10000 3.09 110 00:42 27.11.2022
888 Clear 24 1018 74 10000 5.66 110 22:22 26.11.2022
889 Clouds 24 1018 74 10000 6.69 120 20:51 26.11.2022
890 Clear 23 1018 73 10000 6.69 130 19:26 26.11.2022
891 Clear 23 1019 73 10000 5.66 140 17:30 26.11.2022
892 Clear 22 1019 74 10000 4.02 136 15:47 26.11.2022
893 Clear 22 1019 74 10000 2.68 108 13:33 26.11.2022
894 Mist 20 1019 78 10000 4.12 90 11:36 26.11.2022
895 Fog 19 1019 81 1500 2.68 49 09:45 26.11.2022
896 Fog 20 1018 81 10000 3.58 61 08:49 26.11.2022
897 Rain 20 1018 77 10000 6.71 77 05:37 26.11.2022
898 Rain 21 1018 81 10000 7.72 130 21:43 25.11.2022
899 Rain 21 1019 80 10000 7.72 130 21:21 25.11.2022
900 Clouds 21 1019 78 10000 8.05 113 19:56 25.11.2022
901 Clouds 21 1020 78 10000 7.2 130 16:49 25.11.2022
902 Clouds 20 1020 79 10000 7.72 130 14:21 25.11.2022
903 Clouds 19 1018 82 10000 7.15 140 09:21 25.11.2022
904 Clouds 19 1017 80 10000 7.6 138 08:40 25.11.2022
905 Clear 19 1016 75 10000 7.15 152 06:54 25.11.2022
906 Clear 20 1016 76 10000 6.71 148 05:40 25.11.2022
907 Clear 25 1012 59 10000 2.06 80 23:53 24.11.2022
908 Clear 25 1011 58 10000 2.06 180 22:50 24.11.2022
909 Clear 28 1011 48 10000 2.57 190 21:58 24.11.2022
910 Clear 31 1012 35 10000 4.12 280 19:53 24.11.2022
911 Clear 28 1011 40 10000 5.14 270 18:19 24.11.2022
912 Clear 28 1011 39 10000 4.63 270 17:38 24.11.2022
913 Clear 30 1012 35 10000 4.63 270 17:20 24.11.2022
914 Clear 29 1012 37 10000 6.69 310 14:36 24.11.2022
915 Clear 25 1012 47 10000 6.69 310 13:45 24.11.2022
916 Clear 19 1012 59 10000 4.63 340 11:54 24.11.2022
917 Clear 20 1010 49 10000 4.63 350 10:34 24.11.2022
918 Clear 20 1008 43 10000 4.92 30 07:44 24.11.2022
919 Clear 23 1009 38 10000 5.14 20 03:19 24.11.2022
920 Clear 26 1009 31 10000 4.63 340 23:33 23.11.2022
921 Clear 23 1008 59 10000 5.14 330 21:56 23.11.2022
922 Clear 24 1009 44 10000 5.14 330 21:19 23.11.2022
923 Clear 26 1009 37 10000 5.14 300 19:58 23.11.2022
924 Clear 25 1010 48 10000 5.14 330 18:58 23.11.2022
925 Clear 25 1010 45 10000 5.14 330 18:33 23.11.2022
926 Clear 24 1011 30 10000 5.66 350 16:24 23.11.2022
927 Clear 20 1013 46 10000 4.63 340 13:27 23.11.2022
928 Clear 19 1013 52 10000 3.6 350 12:58 23.11.2022
929 Clear 18 1012 61 10000 3.09 360 11:59 23.11.2022
930 Clear 17 1012 63 10000 3.09 360 11:40 23.11.2022
931 Clear 16 1012 63 10000 1.79 321 10:42 23.11.2022
932 Clear 10 1012 100 10000 1.54 340 09:42 23.11.2022
933 Clear 10 1012 100 10000 1.54 340 09:23 23.11.2022
934 Clear 15 1011 68 10000 2.68 317 08:36 23.11.2022
935 Clear 17 1012 58 10000 1.03 360 05:22 23.11.2022
936 Clear 17 1013 59 10000 1.54 350 02:56 23.11.2022
937 Clouds 19 1012 57 10000 2.57 160 22:58 22.11.2022
938 Clouds 19 1012 60 10000 2.57 220 21:54 22.11.2022
939 Clouds 19 1012 60 10000 2.57 220 21:32 22.11.2022
940 Clouds 19 1012 58 10000 4.12 190 20:45 22.11.2022
941 Clouds 19 1012 58 10000 4.12 190 20:45 22.11.2022
942 Clouds 19 1012 58 10000 6.69 210 19:52 22.11.2022
943 Clouds 19 1013 65 10000 7.2 220 17:55 22.11.2022
944 Clouds 18 1013 67 10000 6.17 210 16:48 22.11.2022
945 Clouds 18 1013 69 10000 7.2 220 15:24 22.11.2022
946 Clouds 17 1013 78 10000 6.17 200 13:24 22.11.2022
947 Drizzle 16 1012 84 1500 7.6 181 10:25 22.11.2022
948 Clouds 17 1011 84 10000 5.81 176 09:00 22.11.2022
949 Clouds 17 1010 82 10000 6.17 210 07:18 22.11.2022
950 Clouds 18 1011 84 10000 6.71 215 01:38 22.11.2022
951 Rain 18 1010 87 10000 6.26 176 23:36 21.11.2022
952 Rain 18 1010 88 6000 7.15 186 22:34 21.11.2022
953 Rain 18 1009 86 6000 8.05 176 21:58 21.11.2022
954 Clouds 19 1009 87 8000 6.69 190 20:36 21.11.2022
955 Clouds 18 1010 88 3500 6.26 195 19:41 21.11.2022
956 Clouds 18 1010 88 3500 5.81 193 18:54 21.11.2022
957 Clouds 19 1010 85 3500 5.14 200 17:46 21.11.2022
958 Clouds 19 1011 87 10000 5.36 192 16:52 21.11.2022
959 Clouds 20 1011 86 10000 5.14 190 16:34 21.11.2022
960 Clouds 20 1011 84 10000 5.66 190 15:24 21.11.2022
961 Clouds 20 1011 86 10000 4.12 210 13:59 21.11.2022
962 Clouds 20 1011 85 10000 4.12 210 13:40 21.11.2022
963 Clouds 19 1010 84 10000 1.34 16 10:27 21.11.2022
964 Rain 20 1009 85 10000 5.14 100 08:39 21.11.2022
965 Rain 20 1010 87 5000 6.69 130 05:45 21.11.2022
966 Rain 21 1008 87 10000 10.29 180 22:26 20.11.2022
967 Thunderstorm 22 1008 82 10000 8.94 203 21:33 20.11.2022
968 Clouds 23 1007 76 10000 6.69 170 20:24 20.11.2022
969 Clouds 25 1008 66 10000 6.69 180 18:25 20.11.2022
970 Clear 30 1009 45 10000 5.66 10 15:59 20.11.2022
971 Clear 30 1009 45 10000 5.66 10 15:29 20.11.2022
972 Clear 27 1009 54 10000 7.72 10 14:41 20.11.2022
973 Clear 25 1008 50 10000 8.23 20 13:32 20.11.2022
974 Clear 25 1008 50 10000 8.23 20 13:32 20.11.2022
975 Clear 24 1009 57 10000 8.23 20 12:31 20.11.2022
976 Clear 22 1008 63 10000 4.92 10 10:59 20.11.2022
977 Rain 22 1007 64 10000 4.92 5 10:23 20.11.2022
978 Rain 23 1007 65 10000 5.66 20 09:18 20.11.2022
979 Rain 23 1006 65 10000 4.02 34 08:34 20.11.2022
980 Rain 23 1006 65 10000 5.14 40 07:29 20.11.2022
981 Clear 25 1009 73 10000 3.6 30 02:18 20.11.2022
982 Clear 26 1008 56 10000 4.12 50 01:20 20.11.2022
983 Clear 27 1007 55 10000 3.13 23 00:41 20.11.2022
984 Clear 27 1007 55 10000 3.13 23 00:22 20.11.2022
985 Clear 26 1007 58 10000 3.6 70 23:49 19.11.2022
986 Clear 27 1008 57 10000 3.6 70 23:23 19.11.2022
987 Rain 28 1007 47 10000 3.09 70 22:38 19.11.2022
988 Rain 29 1008 42 10000 4.12 30 21:32 19.11.2022
989 Clear 29 1008 42 10000 4.63 10 20:56 19.11.2022
990 Clear 30 1007 34 10000 4.63 10 20:29 19.11.2022
991 Clear 29 1008 35 10000 6.17 360 18:55 19.11.2022
992 Clear 28 1009 35 10000 8.75 10 17:40 19.11.2022
993 Clear 28 1009 35 10000 8.75 10 17:19 19.11.2022
994 Clear 26 1010 40 10000 7.72 10 15:41 19.11.2022
995 Clear 25 1011 45 10000 8.23 20 14:30 19.11.2022
996 Clear 22 1010 63 10000 8.75 120 11:58 19.11.2022
997 Clear 22 1010 64 10000 5.81 8 10:40 19.11.2022
998 Clear 21 1010 69 10000 4.92 26 08:39 19.11.2022
999 Clear 22 1012 69 10000 4.92 45 04:55 19.11.2022
1000 Clear 22 1012 82 10000 4.92 35 02:51 19.11.2022
1001 Clouds 22 1012 80 10000 7.72 110 23:45 18.11.2022
1002 Clouds 22 1012 79 10000 8.23 120 22:38 18.11.2022
1003 Clouds 22 1013 75 10000 7.2 120 21:37 18.11.2022
1004 Clouds 23 1013 75 10000 7.2 120 20:59 18.11.2022
1005 Clouds 23 1013 75 10000 6.17 110 20:30 18.11.2022
1006 Clouds 23 1014 76 10000 5.66 110 19:46 18.11.2022
1007 Clouds 23 1014 75 10000 5.66 110 18:36 18.11.2022
1008 Clear 29 1015 45 10000 5.14 110 17:42 18.11.2022
1009 Clear 25 1018 61 10000 2.06 110 13:57 18.11.2022
1010 Clear 21 1017 78 10000 2.57 80 11:31 18.11.2022
1011 Clear 19 1016 100 10000 0 0 08:46 18.11.2022
1012 Clear 20 1016 94 10000 0 0 07:51 18.11.2022
1013 Clear 20 1017 94 10000 2.06 120 05:19 18.11.2022
1014 Rain 22 1018 64 10000 1.03 140 00:50 18.11.2022
1015 Rain 24 1017 46 10000 6.17 120 22:20 17.11.2022
1016 Rain 26 1017 47 10000 5.14 120 20:46 17.11.2022
1017 Clear 28 1017 44 10000 5.66 130 19:51 17.11.2022
1018 Clear 28 1017 44 10000 5.14 130 18:47 17.11.2022
1019 Clear 28 1018 44 10000 6.69 180 17:33 17.11.2022
1020 Clear 29 1018 45 10000 2.57 130 16:53 17.11.2022
1021 Clear 26 1019 50 10000 5.66 160 14:57 17.11.2022
1022 Clear 23 1019 60 10000 1.03 0 11:22 17.11.2022
1023 Rain 21 1018 68 10000 0 0 08:39 17.11.2022
1024 Clear 21 1017 64 10000 3.09 10 05:47 17.11.2022
1025 Clear 22 1016 83 10000 4.63 110 00:22 17.11.2022
1026 Clear 31 1015 25 10000 1.54 120 22:31 16.11.2022
1027 Clear 31 1015 22 10000 1.03 0 21:18 16.11.2022
1028 Clear 31 1016 27 10000 2.57 220 19:54 16.11.2022
1029 Clear 31 1016 27 10000 3.09 0 18:46 16.11.2022
1030 Clear 30 1017 35 10000 4.63 270 17:34 16.11.2022
1031 Clear 28 1017 39 10000 5.14 280 14:19 16.11.2022
1032 Rain 13 1014 76 10000 1.03 10 09:56 16.11.2022
1033 Rain 13 1014 82 10000 0 0 06:38 16.11.2022
1034 Clear 19 1014 55 10000 1.03 140 01:29 16.11.2022
1035 Clear 25 1011 31 10000 3.6 230 22:38 15.11.2022
1036 Clear 26 1011 41 10000 6.17 240 20:45 15.11.2022
1037 Clear 25 1011 44 10000 6.69 280 19:35 15.11.2022
1038 Clear 24 1011 46 10000 8.23 250 18:48 15.11.2022
1039 Clear 24 1011 43 10000 9.26 250 17:22 15.11.2022
1040 Clear 23 1011 46 10000 8.23 250 16:19 15.11.2022
1041 Clear 21 1010 52 10000 7.72 250 14:59 15.11.2022
1042 Clear 19 1010 59 10000 9.26 250 13:38 15.11.2022
1043 Clear 18 1008 63 10000 6.17 260 11:47 15.11.2022
1044 Clear 18 1008 63 10000 6.17 260 11:19 15.11.2022
1045 Clear 19 1005 66 10000 6.17 260 09:18 15.11.2022
1046 Clouds 19 1003 77 10000 5.66 270 00:39 15.11.2022
1047 Clouds 19 1003 77 10000 5.66 270 00:18 15.11.2022
1048 Rain 19 1002 88 10000 6.17 240 21:48 14.11.2022
1049 Rain 20 1002 77 2000 6.69 250 20:42 14.11.2022
1050 Clouds 20 1001 77 10000 10.29 230 18:57 14.11.2022
1051 Rain 20 1000 88 10000 7.2 220 16:56 14.11.2022
1052 Clouds 20 999 88 1500 3.6 230 12:55 14.11.2022
1053 Clouds 19 999 100 10000 2.06 260 11:42 14.11.2022
1054 Fog 18 998 100 200 0 0 09:54 14.11.2022
1055 Mist 18 998 100 1500 0 0 08:29 14.11.2022
1056 Mist 19 998 100 5000 0 0 07:50 14.11.2022
1057 Rain 19 1002 89 5000 2.68 94 00:19 14.11.2022
1058 Rain 18 1002 86 8000 3.09 80 22:39 13.11.2022
1059 Mist 18 1002 86 10000 4.12 90 21:40 13.11.2022
1060 Rain 20 1003 83 10000 5.66 70 20:22 13.11.2022
1061 Clouds 20 1003 83 10000 5.14 110 18:28 13.11.2022
1062 Rain 19 1004 86 10000 3.09 70 17:49 13.11.2022
1063 Mist 18 1007 91 5000 2.57 350 15:19 13.11.2022
1064 Rain 18 1007 94 3500 4.63 100 14:30 13.11.2022
1065 Rain 18 1008 90 10000 4.02 69 12:52 13.11.2022
1066 Clouds 17 1008 88 10000 4.12 120 11:34 13.11.2022
1067 Clouds 18 1008 84 10000 1.34 82 09:44 13.11.2022
1068 Clear 19 1008 84 10000 3.58 36 05:52 13.11.2022
1069 Rain 20 1009 75 10000 5.14 110 23:44 12.11.2022
1070 Clouds 20 1008 75 10000 6.17 110 21:24 12.11.2022
1071 Clouds 20 1008 75 10000 6.17 120 20:25 12.11.2022
1072 Clouds 20 1010 74 10000 6.17 120 18:56 12.11.2022
1073 Rain 20 1011 76 10000 3.6 120 16:32 12.11.2022
1074 Clouds 20 1011 77 10000 3.6 20 15:24 12.11.2022
1075 Clear 23 1012 63 10000 5.66 40 13:32 12.11.2022
1076 Clear 17 1011 84 10000 3.58 7 09:35 12.11.2022
1077 Clear 18 1011 81 10000 4.47 18 07:47 12.11.2022
1078 Clear 18 1011 78 10000 5.14 100 23:37 11.11.2022
1079 Clouds 20 1011 73 10000 6.69 110 20:52 11.11.2022
1080 Clouds 20 1011 71 10000 6.69 110 20:28 11.11.2022
1081 Clouds 20 1011 72 10000 6.69 130 19:26 11.11.2022
1082 Clouds 26 1014 44 10000 6.17 130 17:59 11.11.2022
1083 Clouds 20 1014 72 10000 5.66 130 16:55 11.11.2022
1084 Clear 24 1015 50 10000 5.14 20 14:31 11.11.2022
1085 Clear 20 1015 65 10000 5.14 30 13:42 11.11.2022
1086 Clear 19 1015 70 10000 6.17 40 12:18 11.11.2022
1087 Clear 17 1014 81 10000 3.58 40 08:57 11.11.2022
1088 Clear 17 1013 81 10000 3.58 34 07:41 11.11.2022
1089 Clear 18 1014 82 10000 1.03 140 00:31 11.11.2022
1090 Clouds 23 1014 46 10000 6.17 150 22:51 10.11.2022
1091 Clouds 24 1014 46 10000 5.66 170 21:44 10.11.2022
1092 Clouds 24 1014 46 10000 5.66 170 21:25 10.11.2022
1093 Clouds 25 1014 44 10000 7.2 120 20:24 10.11.2022
1094 Clouds 19 1014 74 10000 6.17 170 19:56 10.11.2022
1095 Clouds 26 1015 44 10000 5.14 130 18:45 10.11.2022
1096 Clouds 26 1015 36 10000 5.66 130 17:30 10.11.2022
1097 Clouds 25 1015 41 10000 4.63 50 16:25 10.11.2022
1098 Clear 19 1016 65 10000 7.2 30 13:34 10.11.2022
1099 Clear 14 1015 82 10000 3.13 34 09:38 10.11.2022
1100 Clear 15 1015 79 10000 4.12 60 07:57 10.11.2022
1101 Clear 19 1014 68 10000 4.12 60 01:21 10.11.2022
1102 Clear 18 1014 74 10000 4.92 62 23:20 09.11.2022
1103 Clear 18 1014 76 10000 6.17 130 21:57 09.11.2022
1104 Clear 18 1014 73 10000 6.69 110 20:46 09.11.2022
1105 Clear 18 1015 73 10000 6.69 110 20:28 09.11.2022
1106 Clear 18 1015 73 10000 8.23 110 19:26 09.11.2022
1107 Clear 24 1017 41 10000 5.66 40 17:49 09.11.2022
1108 Clouds 17 1019 73 10000 5.66 40 14:58 09.11.2022
1109 Clouds 17 1019 73 10000 5.66 40 14:40 09.11.2022
1110 Clouds 18 1019 67 10000 5.66 40 14:21 09.11.2022
1111 Clouds 17 1020 70 10000 5.66 60 12:55 09.11.2022
1112 Fog 13 1019 85 10000 2.68 56 09:45 09.11.2022
1113 Clear 14 1019 82 10000 3.6 70 07:47 09.11.2022
1114 Clear 14 1019 81 10000 4.02 53 06:55 09.11.2022
1115 Clouds 18 1019 75 10000 8.23 110 22:46 08.11.2022
1116 Clouds 22 1019 60 10000 6.69 110 21:43 08.11.2022
1117 Clouds 22 1019 60 10000 6.69 110 21:21 08.11.2022
1118 Clouds 23 1020 53 10000 7.72 120 20:36 08.11.2022
1119 Clouds 23 1021 53 10000 7.2 130 19:28 08.11.2022
1120 Clouds 25 1022 41 10000 5.66 50 17:38 08.11.2022
1121 Clouds 21 1024 56 10000 4.63 40 15:50 08.11.2022
1122 Clouds 20 1025 64 10000 5.14 40 14:51 08.11.2022
1123 Clouds 18 1025 72 10000 6.17 40 13:34 08.11.2022
1124 Clouds 14 1024 88 10000 2.57 80 11:55 08.11.2022
1125 Clear 12 1023 94 10000 1.03 90 08:25 08.11.2022
1126 Clear 13 1024 88 10000 0 0 06:29 08.11.2022
1127 Clear 20 1023 64 10000 7.2 90 23:52 07.11.2022
1128 Clouds 21 1023 64 10000 8.23 110 22:23 07.11.2022
1129 Clouds 22 1023 53 10000 7.72 110 21:20 07.11.2022
1130 Clear 23 1024 53 10000 6.69 130 19:59 07.11.2022
1131 Clouds 23 1025 43 10000 6.69 130 17:44 07.11.2022
1132 Clouds 22 1026 49 10000 5.66 60 16:27 07.11.2022
1133 Clouds 21 1027 52 10000 6.17 50 15:34 07.11.2022
1134 Clouds 20 1027 60 10000 7.72 50 14:18 07.11.2022
1135 Clouds 17 1027 77 10000 5.66 70 12:33 07.11.2022
1136 Clear 12 1026 94 10000 2.57 100 10:46 07.11.2022
1137 Clear 13 1026 88 10000 3.09 90 09:25 07.11.2022
1138 Clear 13 1025 88 10000 2.06 90 07:29 07.11.2022
1139 Clear 16 1026 72 10000 4.12 70 03:27 07.11.2022
1140 Clear 18 1026 68 10000 4.63 80 01:19 07.11.2022
1141 Clouds 22 1023 60 10000 8.75 110 22:18 06.11.2022
1142 Clouds 22 1023 56 10000 8.75 110 21:19 06.11.2022
1143 Clouds 23 1024 53 10000 8.23 110 20:20 06.11.2022
1144 Clouds 23 1024 53 10000 7.2 110 19:32 06.11.2022
1145 Clouds 23 1025 49 10000 7.72 120 18:39 06.11.2022
1146 Clouds 23 1025 49 10000 7.72 120 18:19 06.11.2022
1147 Clouds 24 1026 43 10000 6.17 50 17:20 06.11.2022
1148 Clouds 22 1026 49 10000 6.69 50 16:37 06.11.2022
1149 Clouds 22 1027 53 10000 6.69 60 15:42 06.11.2022
1150 Clear 16 1027 82 10000 4.63 70 12:48 06.11.2022
1151 Clear 13 1027 88 10000 3.6 80 11:56 06.11.2022
1152 Clear 13 1026 94 10000 0 0 10:40 06.11.2022
1153 Clear 13 1025 88 10000 2.06 80 07:45 06.11.2022
1154 Clear 13 1025 88 10000 2.06 80 07:45 06.11.2022
1155 Clear 18 1024 72 10000 6.17 100 00:49 06.11.2022
1156 Clouds 21 1022 64 10000 7.2 110 22:52 05.11.2022
1157 Clouds 22 1023 53 10000 8.23 120 19:21 05.11.2022
1158 Clouds 21 1025 49 10000 6.17 60 16:58 05.11.2022
1159 Clouds 21 1026 52 10000 7.72 50 15:28 05.11.2022
1160 Clouds 20 1026 60 10000 7.2 70 14:33 05.11.2022
1161 Clouds 16 1027 82 10000 6.69 80 12:34 05.11.2022
1162 Clear 12 1025 94 10000 3.09 80 09:37 05.11.2022
1163 Clear 12 1025 82 10000 0 0 07:25 05.11.2022
1164 Clear 13 1025 76 10000 3.6 80 06:57 05.11.2022
1165 Clear 17 1025 66 10000 8.49 63 00:46 05.11.2022
1166 Clear 17 1024 70 10000 8.05 89 23:32 04.11.2022
1167 Clouds 17 1023 65 10000 9.26 110 21:58 04.11.2022
1168 Clouds 18 1024 67 10000 9.77 120 19:40 04.11.2022
1169 Clouds 17 1026 72 10000 7.72 130 17:45 04.11.2022
1170 Clouds 17 1027 64 10000 5.14 80 15:27 04.11.2022
1171 Clear 17 1028 60 10000 5.66 50 13:19 04.11.2022
1172 Clear 16 1028 56 10000 4.12 90 12:21 04.11.2022
1173 Clear 13 1027 69 10000 2.68 49 09:31 04.11.2022
1174 Clear 14 1026 72 10000 2.57 70 08:20 04.11.2022
1175 Clear 14 1026 73 10000 3.58 48 06:51 04.11.2022
1176 Clear 17 1027 74 10000 6.71 63 00:57 04.11.2022
1177 Rain 17 1027 70 10000 7.72 120 21:52 03.11.2022
1178 Clear 17 1027 71 10000 7.72 120 20:47 03.11.2022
1179 Clear 17 1027 72 10000 6.69 120 19:42 03.11.2022
1180 Clear 17 1028 70 10000 6.17 110 18:27 03.11.2022
1181 Clear 17 1028 71 10000 6.17 130 17:38 03.11.2022
1182 Clear 16 1029 70 10000 5.66 120 15:27 03.11.2022
1183 Clear 19 1029 55 10000 4.12 120 13:37 03.11.2022
1184 Rain 16 1029 78 10000 3.6 120 12:35 03.11.2022
1185 Rain 15 1029 79 10000 4.12 130 11:41 03.11.2022
1186 Clouds 15 1027 94 10000 2.57 120 07:49 03.11.2022
1187 Clear 24 1028 22 10000 1.54 190 22:43 02.11.2022
1188 Clear 24 1028 22 10000 4.12 200 20:56 02.11.2022
1189 Clear 24 1028 23 10000 4.12 200 20:25 02.11.2022
1190 Clear 22 1028 29 10000 3.09 240 18:45 02.11.2022
1191 Clear 20 1029 42 10000 4.63 250 16:29 02.11.2022
1192 Clear 20 1030 37 10000 5.66 280 15:33 02.11.2022
1193 Clear 16 1030 45 10000 4.12 330 13:26 02.11.2022
1194 Clear 15 1030 51 10000 3.6 330 12:28 02.11.2022
1195 Clear 10 1029 70 10000 2.68 338 10:23 02.11.2022
1196 Clear 11 1029 67 10000 2.68 332 08:41 02.11.2022
1197 Clear 12 1030 64 10000 1.34 15 02:56 02.11.2022
1198 Clear 14 1029 51 10000 2.06 160 22:41 01.11.2022
1199 Clear 14 1029 51 10000 2.06 160 22:18 01.11.2022
1200 Clear 14 1029 58 10000 2.06 190 21:20 01.11.2022
1201 Clear 14 1029 58 10000 2.06 190 21:20 01.11.2022
1202 Clouds 13 1029 58 10000 3.09 160 20:23 01.11.2022
1203 Clouds 14 1029 59 10000 4.12 180 19:41 01.11.2022
1204 Clouds 14 1030 56 10000 5.14 180 18:26 01.11.2022
1205 Clouds 15 1031 54 10000 5.14 180 16:53 01.11.2022
1206 Clouds 13 1031 62 10000 4.12 180 14:45 01.11.2022
1207 Clouds 13 1031 63 10000 4.63 230 13:20 01.11.2022
1208 Clouds 13 1031 61 10000 4.02 186 12:26 01.11.2022
1209 Clouds 13 1030 64 10000 2.68 168 11:21 01.11.2022
1210 Clouds 13 1029 61 10000 4.02 176 09:24 01.11.2022
1211 Clouds 12 1028 58 10000 2.68 186 07:54 01.11.2022
1212 Clouds 12 1028 58 10000 3.6 200 07:28 01.11.2022
1213 Clouds 13 1028 57 10000 5.14 180 06:46 01.11.2022
1214 Clouds 13 1028 64 10000 5.81 186 05:23 01.11.2022
1215 Clouds 13 1027 61 10000 6.69 190 22:51 31.10.2022
1216 Clouds 13 1027 62 10000 7.72 180 21:34 31.10.2022
1217 Clouds 13 1026 59 10000 7.72 210 19:57 31.10.2022
1218 Clouds 13 1026 62 10000 9.26 190 18:44 31.10.2022
1219 Clouds 13 1026 56 10000 8.05 192 16:45 31.10.2022
1220 Clouds 14 1026 54 10000 9.26 180 15:35 31.10.2022
1221 Clouds 13 1023 64 10000 9.39 200 12:39 31.10.2022
1222 Clouds 12 1020 63 10000 9.83 196 09:44 31.10.2022
1223 Clouds 13 1019 67 10000 8.94 205 07:41 31.10.2022
1224 Clouds 14 1017 61 10000 10.28 176 02:47 31.10.2022
1225 Clouds 14 1015 57 10000 11.62 176 01:48 31.10.2022
1226 Clouds 13 1010 84 1000 13.41 181 22:22 30.10.2022
1227 Rain 15 1008 70 10000 4.63 210 20:43 30.10.2022
1228 Clouds 15 1007 66 10000 4.12 170 19:52 30.10.2022
1229 Rain 16 1006 67 10000 6.71 186 16:42 30.10.2022
1230 Rain 15 1005 78 10000 10.8 160 14:54 30.10.2022
1231 Rain 16 1004 75 10000 12.52 176 13:51 30.10.2022
1232 Rain 17 1003 80 10000 10.73 176 12:27 30.10.2022
1233 Rain 17 1000 83 10000 7.15 144 10:32 30.10.2022
1234 Rain 17 999 84 10000 5.81 98 09:35 30.10.2022
1235 Rain 17 997 85 10000 5.66 120 07:57 30.10.2022
1236 Clouds 19 1000 72 10000 3.6 90 00:29 30.10.2022
1237 Clouds 19 1000 74 10000 5.14 150 23:47 29.10.2022
1238 Clouds 19 1000 71 10000 5.14 170 22:31 29.10.2022
1239 Clouds 22 1001 72 10000 4.12 250 19:41 29.10.2022
1240 Clouds 26 1002 44 10000 3.6 350 17:24 29.10.2022
1241 Clear 23 1002 49 10000 6.17 10 15:40 29.10.2022
1242 Rain 22 1003 49 10000 5.66 270 14:56 29.10.2022
1243 Rain 22 1003 49 10000 5.66 270 14:36 29.10.2022
1244 Clear 19 1002 64 10000 4.12 20 12:33 29.10.2022
1245 Clear 18 1003 84 10000 4.02 48 09:57 29.10.2022
1246 Clear 19 1003 80 10000 3.58 66 07:31 29.10.2022
1247 Rain 18 1005 79 10000 4.66 72 05:55 29.10.2022
1248 Clouds 22 1004 61 10000 4.12 160 00:27 29.10.2022
1249 Clouds 27 1003 40 10000 6.17 270 22:23 28.10.2022
1250 Clouds 30 1005 32 10000 8.23 270 20:45 28.10.2022
1251 Clear 32 1005 29 10000 7.72 310 18:51 28.10.2022
1252 Clear 32 1005 29 10000 7.72 310 18:30 28.10.2022
1253 Clear 25 1007 41 10000 7.2 320 15:29 28.10.2022
1254 Clear 24 1006 36 10000 5.66 330 14:36 28.10.2022
1255 Clear 18 1006 43 10000 4.12 340 12:26 28.10.2022
1256 Clear 17 1006 47 10000 3.13 325 11:34 28.10.2022
1257 Clear 18 1006 43 10000 2.68 327 10:47 28.10.2022
1258 Clear 18 1005 43 10000 3.6 330 09:47 28.10.2022
1259 Clear 18 1005 40 10000 4.63 330 08:21 28.10.2022
1260 Clear 20 1006 36 10000 2.57 20 03:42 28.10.2022
1261 Clear 22 1006 42 10000 4.12 300 23:48 27.10.2022
1262 Clouds 22 1006 44 10000 5.14 280 22:40 27.10.2022
1263 Clouds 22 1006 49 10000 7.2 260 21:35 27.10.2022
1264 Clouds 19 1007 57 10000 7.72 270 19:55 27.10.2022
1265 Clouds 18 1008 65 10000 7.72 260 18:22 27.10.2022
1266 Clouds 17 1006 70 10000 8.23 250 13:58 27.10.2022
1267 Clouds 17 1003 69 10000 5.14 280 09:20 27.10.2022
1268 Clouds 19 1002 69 10000 3.58 288 06:21 27.10.2022
1269 Clouds 20 1000 73 10000 8.23 290 23:55 26.10.2022
1270 Clouds 20 1000 69 10000 9.26 280 22:47 26.10.2022
1271 Clouds 20 1000 70 10000 9.26 280 22:22 26.10.2022
1272 Clouds 24 1001 64 10000 9.26 340 19:34 26.10.2022
1273 Rain 18 1001 82 10000 8.23 30 16:35 26.10.2022
1274 Rain 18 1006 75 10000 7.72 20 14:36 26.10.2022
1275 Rain 17 1006 80 10000 4.12 80 12:37 26.10.2022
1276 Clouds 17 1006 82 10000 6.17 90 10:24 26.10.2022
1277 Clouds 17 1006 78 10000 6.71 49 08:54 26.10.2022
1278 Clouds 17 1006 79 10000 4.63 80 08:24 26.10.2022
1279 Clear 18 1010 80 10000 4.63 110 00:46 26.10.2022
1280 Clear 18 1010 80 10000 4.63 110 00:21 26.10.2022
1281 Clouds 18 1010 74 10000 6.69 110 21:52 25.10.2022
1282 Clouds 19 1011 74 10000 6.69 110 21:22 25.10.2022
1283 Clouds 19 1012 68 10000 5.66 30 19:43 25.10.2022
1284 Clouds 21 1014 62 10000 5.66 40 17:52 25.10.2022
1285 Clear 20 1016 57 10000 5.66 40 14:56 25.10.2022
1286 Clear 15 1016 77 10000 4.92 20 11:39 25.10.2022
1287 Clear 15 1016 77 10000 4.92 7 10:38 25.10.2022
1288 Clear 15 1016 78 10000 4.47 28 09:53 25.10.2022
1289 Clear 15 1016 79 10000 4.92 31 08:19 25.10.2022
1290 Clear 16 1016 77 10000 4.47 34 07:54 25.10.2022
1291 Clear 16 1016 76 10000 4.47 25 06:59 25.10.2022
1292 Clear 18 1017 74 10000 4.02 26 03:48 25.10.2022
1293 Clear 18 1016 81 10000 4.12 110 00:40 25.10.2022
1294 Clouds 18 1016 80 10000 5.14 110 23:49 24.10.2022
1295 Clouds 18 1016 78 10000 5.66 110 22:24 24.10.2022
1296 Clouds 18 1016 75 10000 6.17 110 21:33 24.10.2022
1297 Clouds 18 1016 75 10000 6.69 120 20:42 24.10.2022
1298 Clouds 18 1018 73 10000 5.66 20 18:52 24.10.2022
1299 Clouds 17 1019 75 10000 4.12 30 17:50 24.10.2022
1300 Clouds 17 1019 76 10000 4.47 112 16:45 24.10.2022
1301 Clouds 16 1021 78 10000 5.66 30 14:23 24.10.2022
1302 Clouds 15 1021 80 10000 4.92 51 13:40 24.10.2022
1303 Clouds 13 1021 85 10000 2.68 26 11:54 24.10.2022
1304 Clouds 14 1020 82 10000 1.79 51 08:50 24.10.2022
1305 Clear 15 1020 84 10000 6.26 85 00:52 24.10.2022
1306 Clouds 16 1020 76 10000 6.69 130 21:23 23.10.2022
1307 Clouds 16 1021 72 10000 6.69 130 19:51 23.10.2022
1308 Clouds 15 1022 68 10000 5.81 134 17:59 23.10.2022
1309 Clouds 15 1023 68 10000 5.66 130 17:27 23.10.2022
1310 Clouds 14 1023 69 10000 5.81 138 15:19 23.10.2022
1311 Clouds 14 1022 76 10000 5.81 134 12:59 23.10.2022
1312 Clouds 14 1021 77 10000 5.36 148 10:59 23.10.2022
1313 Clouds 13 1021 74 10000 6.71 142 08:18 23.10.2022
1314 Drizzle 13 1020 90 2500 9.83 160 23:40 22.10.2022
1315 Drizzle 13 1019 87 2500 11.32 170 22:31 22.10.2022
1316 Drizzle 13 1019 89 2500 10.28 181 21:42 22.10.2022
1317 Drizzle 13 1018 88 2000 12.52 186 20:49 22.10.2022
1318 Clouds 14 1018 86 2000 8.75 170 19:45 22.10.2022
1319 Clouds 14 1018 86 2000 9.26 160 19:24 22.10.2022
1320 Clouds 14 1017 87 6000 11.18 163 17:36 22.10.2022
1321 Clouds 15 1016 87 6000 2.06 300 15:36 22.10.2022
1322 Drizzle 14 1016 88 5000 1.54 0 14:39 22.10.2022
1323 Drizzle 14 1016 90 3500 3.09 70 13:39 22.10.2022
1324 Rain 14 1016 89 4000 1.54 160 09:51 22.10.2022
1325 Mist 14 1016 89 3000 0.45 221 09:24 22.10.2022
1326 Mist 14 1014 90 5000 7.15 133 07:45 22.10.2022
1327 Drizzle 14 1015 87 7000 8.49 145 02:55 22.10.2022
1328 Drizzle 15 1014 87 5000 7.15 161 23:46 21.10.2022
1329 Clouds 17 1011 82 10000 6.69 150 21:35 21.10.2022
1330 Clouds 19 1011 77 10000 6.17 140 20:56 21.10.2022
1331 Clouds 19 1011 82 10000 5.66 160 19:19 21.10.2022
1332 Fog 17 1011 94 6000 6.69 170 16:51 21.10.2022
1333 Clouds 17 1010 87 10000 4.12 190 13:57 21.10.2022
1334 Fog 17 1010 91 7000 0.51 0 12:56 21.10.2022
1335 Fog 15 1008 90 100 1.54 340 10:40 21.10.2022
1336 Mist 15 1008 89 1500 0.89 65 09:42 21.10.2022
1337 Fog 16 1007 88 700 0.89 90 08:37 21.10.2022
1338 Clear 17 1007 87 10000 2.06 160 06:46 21.10.2022
1339 Clouds 17 1008 85 10000 2.06 110 00:24 21.10.2022
1340 Rain 17 1008 85 10000 2.68 93 22:23 20.10.2022
1341 Rain 17 1008 83 10000 3.6 100 20:35 20.10.2022
1342 Rain 17 1009 84 10000 3.6 120 19:33 20.10.2022
1343 Rain 18 1009 85 10000 4.12 50 17:52 20.10.2022
1344 Rain 16 1010 92 3000 3.09 60 16:30 20.10.2022
1345 Clouds 16 1012 85 10000 3.09 40 12:36 20.10.2022
1346 Clouds 16 1012 85 10000 3.09 40 12:18 20.10.2022
1347 Clouds 16 1011 84 10000 2.06 40 10:57 20.10.2022
1348 Clouds 16 1011 84 10000 2.06 40 10:27 20.10.2022
1349 Clear 17 1011 80 10000 4.02 34 07:45 20.10.2022
1350 Clear 18 1014 80 10000 3.13 44 04:58 20.10.2022
1351 Clouds 17 1013 84 10000 5.14 110 00:58 20.10.2022
1352 Clouds 17 1013 82 10000 5.14 120 22:45 19.10.2022
1353 Clouds 17 1014 80 10000 5.14 120 21:55 19.10.2022
1354 Clouds 17 1014 82 10000 6.17 110 20:52 19.10.2022
1355 Clouds 17 1016 82 10000 6.17 120 18:36 19.10.2022
1356 Clouds 17 1017 81 10000 6.69 120 17:37 19.10.2022
1357 Clouds 16 1019 84 10000 7.2 50 15:23 19.10.2022
1358 Clouds 15 1020 87 10000 4.47 69 12:49 19.10.2022
1359 Clouds 15 1020 87 10000 4.02 81 09:34 19.10.2022
1360 Clouds 15 1020 85 10000 4.02 80 08:28 19.10.2022
1361 Clouds 15 1022 85 10000 5.14 100 04:56 19.10.2022
1362 Clouds 16 1022 79 10000 7.2 110 00:59 19.10.2022
1363 Clouds 16 1021 100 10000 6.26 97 22:57 18.10.2022
1364 Clouds 16 1022 78 10000 7.72 120 21:38 18.10.2022
1365 Clouds 16 1022 78 10000 7.2 110 20:44 18.10.2022
1366 Clouds 16 1023 79 10000 8.75 110 19:51 18.10.2022
1367 Clouds 16 1025 78 10000 6.17 100 17:34 18.10.2022
1368 Clouds 16 1025 77 10000 6.17 110 16:20 18.10.2022
1369 Clouds 16 1026 79 10000 7.72 100 14:19 18.10.2022
1370 Rain 15 1026 83 10000 7.2 110 12:32 18.10.2022
1371 Clear 14 1026 82 10000 5.36 64 11:21 18.10.2022
1372 Clear 15 1026 81 10000 6.71 75 09:28 18.10.2022
1373 Clouds 15 1026 79 10000 6.71 61 07:54 18.10.2022
1374 Clouds 15 1027 80 10000 6.26 95 02:29 18.10.2022
1375 Clouds 16 1025 77 10000 9.77 120 22:19 17.10.2022
1376 Clouds 16 1025 76 10000 10.29 120 20:51 17.10.2022
1377 Clouds 16 1025 76 10000 10.29 120 20:30 17.10.2022
1378 Clouds 16 1025 76 10000 9.26 120 19:51 17.10.2022
1379 Clouds 16 1026 75 10000 10.8 120 18:42 17.10.2022
1380 Clouds 16 1027 75 10000 9.77 120 16:49 17.10.2022
1381 Clouds 15 1027 75 10000 9.26 120 15:29 17.10.2022
1382 Clouds 15 1027 75 10000 8.23 120 14:34 17.10.2022
1383 Clouds 14 1025 79 10000 7.6 127 10:30 17.10.2022
1384 Clouds 14 1025 81 10000 4.92 111 05:26 17.10.2022
1385 Clouds 15 1023 80 10000 7.72 130 23:30 16.10.2022
1386 Clouds 15 1023 77 10000 8.23 130 21:48 16.10.2022
1387 Clouds 15 1023 78 10000 7.2 120 20:43 16.10.2022
1388 Clouds 15 1023 78 10000 7.72 130 19:46 16.10.2022
1389 Clouds 15 1024 76 10000 6.69 130 17:52 16.10.2022
1390 Clouds 14 1024 79 10000 7.2 140 16:33 16.10.2022
1391 Clouds 14 1024 78 10000 7.2 120 15:57 16.10.2022
1392 Clouds 14 1023 80 10000 6.71 131 14:26 16.10.2022
1393 Clouds 14 1023 83 10000 5.81 121 12:23 16.10.2022
1394 Clouds 14 1022 83 10000 4.02 78 10:27 16.10.2022
1395 Clouds 14 1022 83 10000 5.36 52 08:44 16.10.2022
1396 Clouds 15 1026 77 10000 3.6 110 01:26 16.10.2022
1397 Rain 15 1025 79 10000 6.26 117 22:43 15.10.2022
1398 Rain 15 1025 78 10000 5.81 109 21:25 15.10.2022
1399 Rain 15 1026 76 10000 7.2 120 20:43 15.10.2022
1400 Rain 15 1027 68 10000 5.66 120 18:44 15.10.2022
1401 Rain 15 1027 68 10000 5.66 120 18:44 15.10.2022
1402 Clear 14 1029 72 10000 5.66 100 15:49 15.10.2022
1403 Clouds 14 1030 70 10000 5.81 62 14:39 15.10.2022
1404 Rain 13 1031 71 10000 5.81 63 11:58 15.10.2022
1405 Clear 13 1030 74 10000 5.36 65 10:47 15.10.2022
1406 Rain 13 1030 74 10000 6.71 64 08:54 15.10.2022
1407 Clear 13 1032 69 10000 7.72 100 02:42 15.10.2022
1408 Clear 13 1030 69 10000 8.75 110 23:58 14.10.2022
1409 Clear 14 1030 54 10000 9.77 110 22:23 14.10.2022
1410 Clear 14 1030 51 10000 10.8 120 21:30 14.10.2022
1411 Clouds 12 1030 63 10000 8.75 130 20:18 14.10.2022
1412 Clouds 12 1032 59 10000 5.66 100 16:59 14.10.2022
1413 Clouds 12 1032 50 10000 5.14 140 13:52 14.10.2022
1414 Clouds 11 1031 55 10000 6.71 144 12:19 14.10.2022
1415 Clouds 12 1029 52 10000 5.81 115 09:40 14.10.2022
1416 Clouds 12 1028 54 10000 6.71 122 07:47 14.10.2022
1417 Clouds 12 1028 58 10000 5.81 123 06:18 14.10.2022
1418 Clouds 12 1028 56 10000 6.71 131 05:42 14.10.2022
1419 Clouds 12 1028 58 10000 7.15 127 04:42 14.10.2022
1420 Clouds 13 1024 58 10000 8.05 144 00:41 14.10.2022
1421 Clouds 13 1023 54 10000 6.17 160 22:31 13.10.2022
1422 Clouds 13 1022 55 10000 8.75 180 21:29 13.10.2022
1423 Clouds 13 1022 53 10000 8.23 180 20:19 13.10.2022
1424 Clouds 13 1021 56 10000 9.83 186 19:38 13.10.2022
1425 Clouds 13 1021 59 10000 8.75 180 18:43 13.10.2022
1426 Clouds 14 1021 61 10000 8.23 180 17:24 13.10.2022
1427 Clouds 13 1019 69 10000 8.75 210 15:48 13.10.2022
1428 Clouds 13 1018 71 10000 8.23 220 14:25 13.10.2022
1429 Clear 14 1015 74 10000 12.35 210 12:50 13.10.2022
1430 Clear 16 1012 55 10000 3.6 280 11:36 13.10.2022
1431 Clear 18 1010 44 10000 4.47 304 09:40 13.10.2022
1432 Clear 17 1009 46 10000 3.13 308 08:32 13.10.2022
1433 Clear 17 1009 47 10000 3.09 350 07:35 13.10.2022
1434 Clear 22 1008 31 10000 4.63 360 01:53 13.10.2022
1435 Clear 20 1008 49 10000 2.57 360 00:57 13.10.2022
1436 Clear 24 1007 29 10000 6.69 310 22:47 12.10.2022
1437 Clear 23 1008 30 10000 6.69 310 22:28 12.10.2022
1438 Clear 22 1008 36 10000 7.2 330 21:22 12.10.2022
1439 Clear 26 1010 25 10000 7.2 320 20:52 12.10.2022
1440 Clear 25 1011 29 10000 7.2 280 19:38 12.10.2022
1441 Clear 24 1012 29 10000 6.69 270 18:26 12.10.2022
1442 Clear 23 1013 33 10000 5.66 330 17:47 12.10.2022
1443 Clear 18 1014 43 10000 4.12 350 15:45 12.10.2022
1444 Clouds 12 1015 76 8000 4.12 350 13:57 12.10.2022
1445 Fog 12 1015 81 600 4.12 320 13:22 12.10.2022
1446 Fog 11 1014 84 100 2.24 300 09:45 12.10.2022
1447 Fog 12 1014 82 50 0.89 352 07:59 12.10.2022
1448 Rain 12 1014 81 500 0.89 352 07:39 12.10.2022
1449 Rain 13 1015 80 800 0 0 06:43 12.10.2022
1450 Clouds 13 1016 80 10000 3.58 130 01:31 12.10.2022
1451 Clouds 14 1017 78 10000 5.14 120 22:39 11.10.2022
1452 Clouds 14 1018 78 10000 5.14 130 20:54 11.10.2022
1453 Clouds 14 1019 75 10000 4.63 150 19:43 11.10.2022
1454 Clouds 14 1020 69 10000 4.02 125 16:50 11.10.2022
1455 Clear 13 1021 67 10000 2.57 140 14:48 11.10.2022
1456 Clear 13 1022 67 10000 2.06 150 13:23 11.10.2022
1457 Clear 9 1022 72 10000 1.79 38 10:29 11.10.2022
1458 Clear 9 1022 73 10000 1.79 43 09:36 11.10.2022
1459 Clear 10 1022 73 10000 2.68 30 07:53 11.10.2022
1460 Clear 14 1023 74 10000 5.36 47 02:39 11.10.2022
1461 Clouds 14 1023 73 10000 4.92 100 00:33 11.10.2022
1462 Clouds 14 1022 62 10000 5.14 130 21:40 10.10.2022
1463 Clouds 14 1023 64 10000 5.14 120 20:30 10.10.2022
1464 Clouds 14 1024 65 10000 5.66 110 18:44 10.10.2022
1465 Clouds 13 1025 62 10000 5.66 120 17:24 10.10.2022
1466 Clouds 13 1025 60 10000 5.14 120 16:20 10.10.2022
1467 Clouds 14 1025 46 10000 1.54 70 13:31 10.10.2022
1468 Clear 11 1025 51 10000 3.6 70 12:22 10.10.2022
1469 Clear 11 1023 54 10000 0.89 340 09:23 10.10.2022
1470 Clear 12 1023 55 10000 0.45 355 05:52 10.10.2022
1471 Clear 12 1023 54 10000 0.89 356 05:27 10.10.2022
1472 Clouds 13 1020 45 10000 1.54 240 00:41 10.10.2022
1473 Clouds 13 1020 43 10000 2.57 210 23:36 09.10.2022
1474 Clouds 14 1019 47 10000 3.09 200 22:24 09.10.2022
1475 Clouds 14 1019 43 10000 4.12 240 21:27 09.10.2022
1476 Clouds 14 1019 44 10000 6.17 250 20:42 09.10.2022
1477 Clouds 14 1019 45 10000 6.17 230 19:47 09.10.2022
1478 Clouds 13 1019 46 10000 6.69 240 18:48 09.10.2022
1479 Clouds 13 1020 47 10000 7.72 240 17:39 09.10.2022
1480 Clouds 12 1020 56 10000 7.72 240 16:44 09.10.2022
1481 Clouds 12 1020 56 10000 7.72 240 16:19 09.10.2022
1482 Clouds 12 1019 58 10000 7.72 210 14:54 09.10.2022
1483 Clouds 12 1019 59 10000 7.72 210 14:26 09.10.2022
1484 Clouds 10 1018 64 10000 7.72 210 12:48 09.10.2022
1485 Clouds 9 1017 67 10000 4.63 230 11:27 09.10.2022
1486 Clouds 9 1015 66 10000 6.69 220 08:32 09.10.2022
1487 Clouds 11 1014 58 10000 10.29 210 05:44 09.10.2022
1488 Clouds 12 1013 61 10000 6.26 208 03:22 09.10.2022
1489 Clouds 11 1011 65 8000 8.75 230 00:46 09.10.2022
1490 Clouds 13 1009 59 10000 8.23 240 23:33 08.10.2022
1491 Clouds 13 1009 59 10000 8.23 240 23:33 08.10.2022
1492 Clouds 14 1008 51 10000 7.2 250 22:38 08.10.2022
1493 Clouds 14 1006 48 10000 8.23 260 20:37 08.10.2022
1494 Clouds 14 1006 49 10000 7.72 260 19:38 08.10.2022
1495 Clouds 14 1004 65 9000 7.72 240 17:44 08.10.2022
1496 Rain 16 1003 80 10000 6.17 250 15:36 08.10.2022
1497 Rain 19 1001 51 10000 7.2 330 13:53 08.10.2022
1498 Clouds 18 1001 53 10000 5.14 320 12:20 08.10.2022
1499 Rain 17 1000 55 10000 4.63 360 10:35 08.10.2022
1500 Rain 17 1001 55 10000 3.09 340 09:35 08.10.2022
1501 Clear 17 1002 45 10000 4.63 360 07:29 08.10.2022
1502 Clear 21 1003 32 10000 3.6 360 02:41 08.10.2022
1503 Clear 23 1004 27 10000 5.66 310 23:52 07.10.2022
1504 Clear 23 1004 27 10000 5.66 310 23:20 07.10.2022
1505 Clear 24 1004 27 10000 6.17 310 22:19 07.10.2022
1506 Clear 22 1004 31 10000 5.66 280 20:35 07.10.2022
1507 Clear 17 1008 49 10000 5.14 280 18:40 07.10.2022
1508 Clear 17 1008 57 10000 5.14 250 16:58 07.10.2022
1509 Clear 17 1008 58 10000 4.63 220 15:50 07.10.2022
1510 Clear 16 1008 61 10000 5.14 240 14:35 07.10.2022
1511 Clouds 15 1007 74 10000 3.09 240 11:48 07.10.2022
1512 Clouds 14 1006 85 10000 3.13 261 09:26 07.10.2022
1513 Clouds 14 1006 84 10000 3.6 230 08:47 07.10.2022
1514 Clouds 15 1006 83 10000 3.09 210 05:51 07.10.2022
1515 Clouds 15 1005 85 10000 4.63 210 00:41 07.10.2022
1516 Rain 15 1005 82 10000 4.63 210 22:50 06.10.2022
1517 Rain 15 1005 82 10000 4.63 200 21:42 06.10.2022
1518 Rain 15 1005 82 10000 4.63 200 21:21 06.10.2022
1519 Clouds 17 1006 79 10000 3.6 210 19:46 06.10.2022
1520 Clouds 16 1007 79 10000 2.06 230 18:37 06.10.2022
1521 Rain 15 1008 85 10000 2.06 110 17:26 06.10.2022
1522 Rain 14 1010 86 10000 3.58 142 14:19 06.10.2022
1523 Clouds 14 1009 84 10000 3.09 160 11:24 06.10.2022
1524 Clear 15 1012 74 10000 4.63 70 05:47 06.10.2022
1525 Clear 17 1013 67 10000 6.26 49 03:24 06.10.2022
1526 Clouds 17 1013 77 10000 6.17 120 22:55 05.10.2022
1527 Clouds 16 1013 77 10000 6.69 120 19:57 05.10.2022
1528 Clouds 21 1015 56 10000 6.69 40 17:58 05.10.2022
1529 Clouds 21 1015 56 10000 6.69 40 17:33 05.10.2022
1530 Clouds 21 1015 56 10000 6.69 40 17:33 05.10.2022
1531 Clouds 14 1016 82 10000 6.17 60 15:54 05.10.2022
1532 Clouds 15 1017 81 10000 5.14 80 14:46 05.10.2022
1533 Clear 14 1017 79 10000 5.14 80 13:54 05.10.2022
1534 Clear 13 1017 85 10000 2.57 80 12:19 05.10.2022
1535 Clear 13 1015 74 10000 3.58 40 08:49 05.10.2022
1536 Clear 13 1016 70 10000 3.6 80 07:29 05.10.2022
1537 Clear 13 1016 68 10000 4.47 35 05:35 05.10.2022
1538 Clear 15 1016 73 10000 6.26 62 02:47 05.10.2022
1539 Clear 15 1014 78 10000 7.2 110 00:41 05.10.2022
1540 Clear 15 1014 80 10000 7.2 110 00:23 05.10.2022
1541 Clouds 15 1015 75 10000 8.23 120 21:59 04.10.2022
1542 Clouds 15 1016 72 10000 8.23 120 20:29 04.10.2022
1543 Clouds 15 1017 72 10000 5.81 107 18:58 04.10.2022
1544 Clouds 15 1017 72 10000 6.69 120 18:35 04.10.2022
1545 Clouds 15 1017 67 10000 6.17 60 17:43 04.10.2022
1546 Clouds 15 1019 66 10000 5.14 80 16:28 04.10.2022
1547 Clouds 13 1019 70 8000 4.47 53 12:41 04.10.2022
1548 Clouds 13 1019 70 8000 4.47 53 12:41 04.10.2022
1549 Clouds 13 1019 69 10000 4.47 84 08:52 04.10.2022
1550 Clouds 13 1019 70 10000 4.47 55 07:23 04.10.2022
1551 Clouds 13 1021 68 10000 5.66 110 01:44 04.10.2022
1552 Clouds 13 1020 69 10000 6.17 130 23:40 03.10.2022
1553 Clouds 14 1020 69 10000 5.14 140 21:52 03.10.2022
1554 Clouds 14 1020 71 10000 5.14 110 20:55 03.10.2022
1555 Clouds 13 1021 68 10000 5.14 140 19:34 03.10.2022
1556 Clouds 13 1023 72 10000 5.14 150 17:53 03.10.2022
1557 Clouds 13 1023 70 10000 6.17 120 16:43 03.10.2022
1558 Clouds 13 1023 68 10000 6.17 150 15:27 03.10.2022
1559 Clouds 12 1023 74 10000 6.71 169 13:45 03.10.2022
1560 Clouds 12 1023 76 10000 5.81 159 12:22 03.10.2022
1561 Clouds 12 1023 75 10000 6.71 150 10:38 03.10.2022
1562 Clouds 11 1023 75 10000 6.26 186 09:35 03.10.2022
1563 Clear 13 1023 73 10000 5.36 163 05:34 03.10.2022
1564 Clouds 14 1023 67 10000 6.26 148 02:51 03.10.2022
1565 Clear 16 1022 74 10000 7.72 150 22:29 02.10.2022
1566 Clear 17 1022 68 10000 9.26 210 20:42 02.10.2022
1567 Clear 20 1021 54 10000 5.14 240 18:31 02.10.2022
1568 Clear 19 1022 49 10000 5.14 260 17:38 02.10.2022
1569 Clear 20 1022 48 10000 4.12 250 16:33 02.10.2022
1570 Clear 19 1023 55 10000 2.68 268 15:41 02.10.2022
1571 Clear 16 1023 62 10000 3.13 300 13:51 02.10.2022
1572 Fog 14 1023 65 10000 2.68 300 12:52 02.10.2022
1573 Fog 13 1023 69 10000 2.06 340 12:28 02.10.2022
1574 Fog 13 1022 66 10000 2.24 305 11:37 02.10.2022
1575 Clear 13 1021 64 10000 2.68 327 10:37 02.10.2022
1576 Fog 13 1021 65 10000 2.24 340 09:27 02.10.2022
1577 Fog 13 1021 68 800 2.24 345 07:39 02.10.2022
1578 Clear 15 1022 76 10000 2.68 55 02:55 02.10.2022
1579 Clear 15 1021 74 10000 3.6 100 00:46 02.10.2022
1580 Clear 15 1021 75 10000 3.6 100 00:20 02.10.2022
1581 Clear 16 1021 72 10000 3.6 170 22:37 01.10.2022
1582 Clouds 17 1021 68 10000 4.63 170 20:34 01.10.2022
1583 Clouds 17 1022 69 10000 4.12 140 18:40 01.10.2022
1584 Clouds 16 1022 72 10000 2.06 160 16:36 01.10.2022
1585 Clouds 15 1022 75 10000 1.79 100 14:35 01.10.2022
1586 Clouds 14 1022 77 10000 2.06 70 13:31 01.10.2022
1587 Fog 13 1021 81 10000 1.03 60 12:32 01.10.2022
1588 Mist 12 1021 82 2000 0.89 38 11:20 01.10.2022
1589 Fog 8 1021 100 800 0 0 10:32 01.10.2022
1590 Fog 12 1020 82 4000 1.54 60 09:28 01.10.2022
1591 Fog 13 1020 82 800 0 0 08:58 01.10.2022
1592 Clear 14 1022 81 10000 2.57 100 05:28 01.10.2022
1593 Clear 15 1022 79 10000 3.09 120 03:32 01.10.2022
1594 Clear 15 1021 72 10000 4.63 110 00:18 01.10.2022
1595 Clouds 18 1021 55 10000 6.17 130 22:48 30.09.2022
1596 Clouds 18 1021 59 10000 6.69 120 21:29 30.09.2022
1597 Rain 17 1022 63 10000 5.14 130 20:44 30.09.2022
1598 Clouds 17 1022 63 10000 5.14 130 20:18 30.09.2022
1599 Clouds 14 1023 76 10000 5.14 120 17:38 30.09.2022
1600 Clouds 14 1024 78 10000 5.14 100 15:58 30.09.2022
1601 Clear 14 1024 82 10000 4.92 45 13:34 30.09.2022
1602 Clear 13 1024 83 10000 4.47 54 11:58 30.09.2022
1603 Clear 13 1024 79 10000 4.47 68 11:28 30.09.2022
1604 Clouds 12 1024 82 10000 3.09 90 08:37 30.09.2022
1605 Clear 13 1025 78 10000 3.13 57 06:27 30.09.2022
1606 Clouds 13 1026 77 10000 6.71 67 02:42 30.09.2022
1607 Clear 13 1025 74 10000 6.69 120 23:35 29.09.2022
1608 Clear 13 1025 65 10000 7.2 120 21:29 29.09.2022
1609 Clear 14 1025 64 10000 6.17 130 20:59 29.09.2022
1610 Clear 14 1027 58 10000 6.69 120 18:45 29.09.2022
1611 Clear 14 1027 57 10000 5.66 120 17:32 29.09.2022
1612 Clear 14 1029 61 10000 5.66 120 16:28 29.09.2022
1613 Clear 14 1029 57 10000 5.14 130 15:36 29.09.2022
1614 Clear 14 1029 58 10000 3.6 110 14:54 29.09.2022
1615 Clear 10 1030 67 10000 1.03 320 11:48 29.09.2022
1616 Clear 12 1029 65 10000 1.34 42 07:26 29.09.2022
1617 Clear 13 1030 61 10000 5.66 120 02:55 29.09.2022
1618 Clear 13 1029 62 10000 6.71 102 00:28 29.09.2022
1619 Clear 13 1029 52 10000 8.49 109 23:19 28.09.2022
1620 Clear 13 1029 60 10000 8.23 130 21:30 28.09.2022
1621 Clear 13 1029 61 10000 8.05 118 20:31 28.09.2022
1622 Clear 13 1031 63 10000 6.69 120 18:42 28.09.2022
1623 Clear 13 1031 58 10000 6.17 120 15:46 28.09.2022
1624 Clear 12 1029 63 10000 7.72 140 13:28 28.09.2022
1625 Clear 12 1028 64 10000 6.26 119 11:34 28.09.2022
1626 Clear 12 1027 67 10000 7.15 121 09:25 28.09.2022
1627 Clouds 13 1027 73 10000 7.6 134 07:40 28.09.2022
1628 Clear 13 1027 68 10000 7.15 139 04:41 28.09.2022
1629 Clear 14 1025 65 10000 8.05 134 01:40 28.09.2022
1630 Clouds 15 1022 77 10000 8.05 171 23:30 27.09.2022
1631 Clouds 17 1020 66 10000 5.14 160 21:55 27.09.2022
1632 Clouds 17 1020 65 10000 5.66 190 20:56 27.09.2022
1633 Clouds 18 1020 65 10000 5.66 190 20:19 27.09.2022
1634 Clouds 20 1020 57 10000 7.2 190 19:36 27.09.2022
1635 Clouds 20 1019 51 10000 4.63 220 17:46 27.09.2022
1636 Clear 19 1019 60 10000 5.14 230 16:20 27.09.2022
1637 Clear 18 1019 62 10000 4.63 240 14:59 27.09.2022
1638 Mist 16 1018 81 5000 3.13 278 13:36 27.09.2022
1639 Fog 13 1017 88 200 3.13 307 12:23 27.09.2022
1640 Fog 13 1016 87 100 2.68 311 09:54 27.09.2022
1641 Rain 14 1015 86 50 1.54 310 07:41 27.09.2022
1642 Mist 15 1014 86 1500 1.34 80 03:51 27.09.2022
1643 Clouds 15 1013 85 10000 2.06 150 01:36 27.09.2022
1644 Clouds 16 1012 82 10000 4.63 190 23:45 26.09.2022
1645 Clouds 16 1012 81 10000 4.63 190 23:21 26.09.2022
1646 Clouds 18 1011 72 10000 5.14 210 20:58 26.09.2022
1647 Clouds 18 1011 73 10000 5.66 210 19:42 26.09.2022
1648 Clouds 18 1012 73 10000 4.12 180 18:39 26.09.2022
1649 Clouds 17 1013 77 10000 3.6 270 17:24 26.09.2022
1650 Clouds 17 1014 82 10000 3.6 320 14:57 26.09.2022
1651 Clouds 14 1013 83 10000 3.09 60 12:31 26.09.2022
1652 Clouds 14 1013 80 10000 2.24 61 10:42 26.09.2022
1653 Clouds 14 1013 80 10000 2.24 61 10:23 26.09.2022
1654 Clouds 14 1013 79 10000 2.06 50 09:57 26.09.2022
1655 Clouds 14 1013 78 10000 2.68 43 09:27 26.09.2022
1656 Clouds 14 1014 75 10000 3.13 39 08:59 26.09.2022
1657 Clear 14 1015 75 10000 5.36 52 05:30 26.09.2022
1658 Rain 15 1016 71 10000 6.26 60 01:57 26.09.2022
1659 Clear 15 1015 76 10000 5.66 110 23:23 25.09.2022
1660 Clear 14 1015 74 10000 7.2 120 21:44 25.09.2022
1661 Clear 14 1015 71 10000 7.2 120 20:59 25.09.2022
1662 Clear 15 1016 67 10000 7.2 130 20:34 25.09.2022
1663 Clear 15 1017 68 10000 6.71 128 18:49 25.09.2022
1664 Rain 15 1018 62 10000 5.36 121 18:24 25.09.2022
1665 Clear 15 1018 59 10000 5.36 128 17:22 25.09.2022
1666 Clear 15 1020 56 10000 3.6 50 15:50 25.09.2022
1667 Clear 15 1020 33 10000 5.14 30 14:35 25.09.2022
1668 Clear 15 1020 38 10000 5.14 30 13:58 25.09.2022
1669 Clear 12 1018 65 10000 3.6 40 10:38 25.09.2022
1670 Clear 12 1018 62 10000 4.02 13 09:37 25.09.2022
1671 Clear 14 1019 57 10000 4.02 29 06:53 25.09.2022
1672 Clear 15 1019 64 10000 3.6 100 05:19 25.09.2022
1673 Clear 16 1018 66 10000 4.63 120 23:36 24.09.2022
1674 Clear 17 1018 58 10000 5.14 160 21:19 24.09.2022
1675 Clear 17 1019 62 10000 4.63 140 19:34 24.09.2022
1676 Clear 18 1020 59 10000 3.13 181 18:57 24.09.2022
1677 Clear 18 1021 39 10000 5.14 350 16:50 24.09.2022
1678 Clear 17 1021 46 10000 5.14 340 15:23 24.09.2022
1679 Clear 15 1021 48 10000 4.63 360 14:36 24.09.2022
1680 Clear 13 1021 52 10000 4.12 10 13:18 24.09.2022
1681 Clear 11 1021 56 10000 4.12 20 12:22 24.09.2022
1682 Clear 7 1020 81 10000 2.06 20 09:58 24.09.2022
1683 Clear 7 1020 81 10000 3.09 20 08:56 24.09.2022
1684 Clear 9 1020 71 10000 2.06 40 07:41 24.09.2022
1685 Clear 12 1020 62 10000 3.09 70 04:52 24.09.2022
1686 Clear 13 1020 70 10000 2.24 36 03:48 24.09.2022
1687 Clouds 15 1019 56 10000 3.6 180 22:54 23.09.2022
1688 Clouds 16 1019 54 10000 3.6 190 21:33 23.09.2022
1689 Clouds 16 1019 57 10000 3.6 190 20:57 23.09.2022
1690 Clouds 16 1019 57 10000 4.63 180 20:37 23.09.2022
1691 Clouds 16 1019 61 10000 3.6 190 19:19 23.09.2022
1692 Clouds 15 1020 64 10000 1.79 195 15:31 23.09.2022
1693 Clear 10 1019 75 10000 2.24 292 12:39 23.09.2022
1694 Clouds 10 1017 66 10000 3.13 298 09:36 23.09.2022
1695 Clear 12 1018 64 8000 1.54 360 06:51 23.09.2022
1696 Smoke 13 1017 63 10000 1.54 100 00:44 23.09.2022
1697 Clouds 13 1016 64 10000 3.09 150 23:28 22.09.2022
1698 Clouds 13 1016 69 10000 5.14 170 22:27 22.09.2022
1699 Clouds 13 1017 66 10000 4.63 190 21:23 22.09.2022
1700 Clouds 14 1017 66 10000 4.63 230 19:58 22.09.2022
1701 Rain 14 1017 65 10000 4.63 210 17:41 22.09.2022
1702 Rain 11 1018 74 10000 2.06 330 13:38 22.09.2022
1703 Rain 10 1016 76 10000 2.57 160 10:37 22.09.2022
1704 Clear 10 1016 76 10000 2.57 160 10:18 22.09.2022
1705 Clear 12 1016 69 10000 4.47 176 07:36 22.09.2022
1706 Clear 12 1017 72 10000 3.58 62 04:37 22.09.2022
1707 Clear 12 1017 69 10000 4.63 110 23:46 21.09.2022
1708 Clear 13 1016 67 10000 6.17 110 22:26 21.09.2022
1709 Clear 13 1016 62 10000 6.69 110 20:54 21.09.2022
1710 Clear 13 1017 64 10000 6.69 110 18:30 21.09.2022
1711 Clear 13 1017 62 10000 7.2 100 17:22 21.09.2022
1712 Clear 13 1018 62 10000 6.17 100 15:29 21.09.2022
1713 Clear 12 1018 66 10000 5.66 140 13:39 21.09.2022
1714 Clear 12 1017 69 10000 4.47 131 11:34 21.09.2022
1715 Clear 12 1017 68 10000 4.92 135 10:52 21.09.2022
1716 Clear 12 1018 69 10000 2.68 138 09:38 21.09.2022
1717 Clear 12 1018 72 10000 3.6 170 08:23 21.09.2022
1718 Clouds 12 1017 72 10000 4.92 93 02:54 21.09.2022
1719 Clouds 12 1017 74 10000 3.13 104 02:34 21.09.2022
1720 Clouds 12 1017 72 10000 3.6 130 01:50 21.09.2022
1721 Clouds 12 1018 70 10000 2.06 120 23:58 20.09.2022
1722 Clouds 12 1017 70 10000 5.66 130 21:40 20.09.2022
1723 Clouds 12 1016 68 10000 4.63 160 20:26 20.09.2022
1724 Clouds 12 1016 73 10000 4.12 170 17:53 20.09.2022
1725 Clouds 13 1017 72 10000 4.63 190 15:33 20.09.2022
1726 Clouds 12 1017 74 10000 4.63 210 13:59 20.09.2022
1727 Clouds 13 1016 75 10000 5.66 210 11:28 20.09.2022
1728 Clouds 14 1015 83 10000 4.12 170 08:36 20.09.2022
1729 Clouds 14 1015 76 10000 4.63 210 07:32 20.09.2022
1730 Clouds 15 1014 82 10000 5.14 200 04:35 20.09.2022
1731 Clear 17 1013 73 10000 1.79 257 01:32 20.09.2022
1732 Clear 19 1012 67 10000 5.14 260 22:41 19.09.2022
1733 Clouds 20 1011 62 10000 5.66 270 21:28 19.09.2022
1734 Clouds 20 1012 66 10000 4.63 260 20:39 19.09.2022
1735 Clouds 19 1012 72 10000 5.66 270 18:43 19.09.2022
1736 Clouds 19 1012 72 10000 5.66 270 18:43 19.09.2022
1737 Rain 19 1013 68 10000 3.09 230 16:37 19.09.2022
1738 Clear 15 1013 79 10000 2.57 50 13:47 19.09.2022
1739 Clear 13 1012 90 10000 2.57 100 11:57 19.09.2022
1740 Fog 14 1013 83 10000 0.45 347 09:38 19.09.2022
1741 Clear 14 1012 80 10000 1.03 20 08:20 19.09.2022
1742 Rain 16 1013 73 9000 6.69 60 03:37 19.09.2022
1743 Rain 16 1012 77 10000 4.12 50 00:44 19.09.2022
1744 Clear 20 1012 60 10000 5.66 50 22:32 18.09.2022
1745 Clear 19 1012 62 10000 6.17 60 20:47 18.09.2022
1746 Clear 18 1012 63 10000 6.17 60 19:33 18.09.2022
1747 Clear 18 1014 64 10000 5.66 50 17:51 18.09.2022
1748 Clear 17 1015 66 10000 6.17 40 16:47 18.09.2022
1749 Clear 14 1016 79 10000 5.66 60 14:44 18.09.2022
1750 Clear 14 1016 79 10000 5.14 60 13:34 18.09.2022
1751 Clear 14 1017 81 10000 5.66 70 11:55 18.09.2022
1752 Clear 14 1017 77 10000 3.13 50 09:25 18.09.2022
1753 Clear 18 1017 63 10000 5.81 38 01:43 18.09.2022
1754 Clear 19 1017 61 10000 5.81 44 01:19 18.09.2022
1755 Clear 21 1016 54 10000 7.72 50 22:56 17.09.2022
1756 Clear 22 1016 48 10000 7.2 40 20:53 17.09.2022
1757 Clear 22 1017 48 10000 7.72 40 19:37 17.09.2022
1758 Clear 20 1019 53 10000 7.2 30 17:44 17.09.2022
1759 Clear 15 1021 69 10000 8.75 40 14:24 17.09.2022
1760 Clear 13 1022 74 10000 7.72 40 13:26 17.09.2022
1761 Clear 13 1021 73 10000 5.36 26 10:49 17.09.2022
1762 Clear 14 1022 71 10000 6.26 36 06:53 17.09.2022
1763 Clear 15 1022 69 10000 5.66 60 06:19 17.09.2022
1764 Clear 21 1020 49 10000 7.2 50 23:41 16.09.2022
1765 Clear 21 1020 48 10000 8.75 40 22:19 16.09.2022
1766 Clouds 21 1021 46 10000 7.2 30 20:53 16.09.2022
1767 Clouds 21 1023 47 10000 8.23 30 19:29 16.09.2022
1768 Clouds 18 1025 59 10000 9.26 20 16:22 16.09.2022
1769 Clear 17 1024 71 10000 7.2 40 14:52 16.09.2022
1770 Clear 13 1024 85 10000 7.2 40 13:21 16.09.2022
1771 Clear 12 1024 86 10000 4.02 63 10:24 16.09.2022
1772 Clear 13 1024 80 10000 3.6 50 07:23 16.09.2022
1773 Clear 13 1024 79 10000 3.6 60 06:48 16.09.2022
1774 Clear 14 1024 79 10000 4.63 80 05:55 16.09.2022
1775 Clear 15 1024 84 10000 3.6 90 02:30 16.09.2022
1776 Clear 15 1024 77 10000 6.17 120 21:44 15.09.2022
1777 Clear 15 1024 75 10000 5.14 120 20:37 15.09.2022
1778 Clear 15 1025 73 10000 4.12 120 19:24 15.09.2022
1779 Clear 14 1026 76 10000 4.63 30 17:41 15.09.2022
1780 Clear 14 1026 75 10000 4.63 30 17:22 15.09.2022
1781 Clear 14 1026 75 10000 3.13 98 15:38 15.09.2022
1782 Clear 10 1026 84 10000 3.09 50 12:50 15.09.2022
1783 Mist 8 1026 86 3000 2.24 32 11:48 15.09.2022
1784 Fog 9 1025 90 100 1.79 36 09:44 15.09.2022
1785 Mist 12 1025 86 3000 3.58 42 06:58 15.09.2022
1786 Clear 13 1026 78 10000 2.68 79 03:46 15.09.2022
1787 Clear 12 1024 78 10000 3.6 140 22:57 14.09.2022
1788 Clouds 13 1025 75 10000 4.12 180 20:37 14.09.2022
1789 Clouds 13 1025 74 10000 4.63 170 19:32 14.09.2022
1790 Clouds 13 1026 74 10000 4.63 190 17:47 14.09.2022
1791 Clouds 13 1026 74 10000 4.63 170 16:36 14.09.2022
1792 Clouds 13 1025 80 10000 3.6 170 14:56 14.09.2022
1793 Fog 11 1024 88 100 1.03 300 12:40 14.09.2022
1794 Fog 11 1023 85 300 1.03 350 09:52 14.09.2022
1795 Fog 12 1022 85 500 1.03 300 08:38 14.09.2022
1796 Mist 12 1023 82 2000 1.54 20 06:50 14.09.2022
1797 Mist 12 1023 82 2000 1.54 20 06:50 14.09.2022
1798 Mist 13 1023 81 5000 1.79 74 06:29 14.09.2022
1799 Clouds 13 1022 82 10000 3.13 112 02:43 14.09.2022
1800 Clouds 12 1021 94 10000 3.6 150 01:36 14.09.2022
1801 Clouds 12 1020 82 10000 3.09 140 00:53 14.09.2022
1802 Clouds 12 1020 82 10000 3.09 140 23:55 13.09.2022
1803 Clouds 14 1020 77 10000 4.63 170 23:36 13.09.2022
1804 Clouds 14 1020 77 10000 4.63 170 23:18 13.09.2022
1805 Clouds 15 1019 72 10000 5.14 190 22:29 13.09.2022
1806 Clouds 16 1019 67 10000 5.14 180 21:38 13.09.2022
1807 Clouds 17 1020 63 10000 5.14 160 18:56 13.09.2022
1808 Clouds 13 1020 79 10000 3.6 180 16:42 13.09.2022
1809 Clouds 13 1019 78 10000 3.09 120 15:19 13.09.2022
1810 Clouds 13 1019 87 10000 2.24 140 13:40 13.09.2022
1811 Clouds 13 1017 87 10000 3.13 168 10:30 13.09.2022
1812 Clouds 13 1017 86 10000 3.13 143 07:56 13.09.2022
1813 Clouds 13 1017 85 10000 4.47 172 02:22 13.09.2022
1814 Clouds 13 1017 82 10000 4.63 140 23:22 12.09.2022
1815 Clouds 13 1016 80 10000 5.14 140 22:40 12.09.2022
1816 Clouds 13 1016 79 10000 6.69 150 21:35 12.09.2022
1817 Clouds 13 1016 80 10000 5.14 130 20:22 12.09.2022
1818 Clouds 13 1017 78 10000 4.63 140 18:24 12.09.2022
1819 Clear 13 1019 71 10000 3.6 120 15:53 12.09.2022
1820 Clear 6 1019 93 10000 1.54 0 12:35 12.09.2022
1821 Clear 6 1020 93 10000 0 0 10:31 12.09.2022
1822 Clear 10 1019 71 10000 3.09 70 07:40 12.09.2022
1823 Clear 11 1021 62 10000 3.09 100 04:39 12.09.2022
1824 Clear 12 1020 71 10000 5.66 120 02:25 12.09.2022
1825 Clear 15 1020 41 10000 4.63 130 22:46 11.09.2022
1826 Clear 16 1020 41 10000 4.63 150 21:30 11.09.2022
1827 Clear 17 1020 45 10000 4.63 180 20:44 11.09.2022
1828 Clear 17 1021 45 10000 5.14 170 19:45 11.09.2022
1829 Clear 17 1021 45 10000 5.14 170 19:21 11.09.2022
1830 Clear 13 1022 53 10000 3.09 140 17:47 11.09.2022
1831 Clear 13 1023 52 10000 1.79 148 15:51 11.09.2022
1832 Clear 10 1023 60 10000 2.68 299 13:52 11.09.2022
1833 Fog 8 1023 64 10000 3.13 298 12:31 11.09.2022
1834 Clear 9 1023 59 9000 1.54 360 08:25 11.09.2022
1835 Clear 10 1023 67 7000 1.54 10 05:55 11.09.2022
1836 Clear 12 1022 57 10000 1.03 0 00:34 11.09.2022
1837 Clear 13 1021 49 10000 4.63 210 22:26 10.09.2022
1838 Clear 13 1022 47 10000 7.2 240 20:51 10.09.2022
1839 Clear 12 1022 60 10000 5.66 250 19:45 10.09.2022
1840 Clear 12 1022 60 10000 5.66 250 19:45 10.09.2022
1841 Clear 12 1022 59 10000 5.66 250 19:27 10.09.2022
1842 Clear 11 1023 61 10000 6.69 240 17:53 10.09.2022
1843 Clouds 10 1022 69 10000 6.69 240 15:45 10.09.2022
1844 Clouds 9 1022 69 10000 6.17 250 14:37 10.09.2022
1845 Clouds 9 1020 72 10000 4.47 232 12:52 10.09.2022
1846 Clouds 8 1019 68 10000 4.02 251 10:35 10.09.2022
1847 Clouds 9 1019 66 10000 7.2 220 08:43 10.09.2022
1848 Clouds 9 1020 64 10000 7.2 220 08:23 10.09.2022
1849 Clouds 10 1019 61 10000 8.23 230 05:25 10.09.2022
1850 Clouds 11 1016 60 10000 6.69 220 23:52 09.09.2022
1851 Clouds 11 1016 57 10000 6.69 220 23:29 09.09.2022
1852 Clouds 10 1015 62 10000 7.72 210 21:24 09.09.2022
1853 Clouds 10 1015 62 10000 7.72 220 20:28 09.09.2022
1854 Clouds 11 1015 63 10000 8.75 200 19:23 09.09.2022
1855 Clouds 10 1015 65 10000 8.23 190 18:33 09.09.2022
1856 Clouds 10 1014 72 10000 8.23 190 16:18 09.09.2022
1857 Clouds 10 1013 81 7000 9.26 190 13:47 09.09.2022
1858 Clouds 10 1011 86 8000 8.75 190 11:51 09.09.2022
1859 Clouds 12 1009 82 8000 10.73 176 09:21 09.09.2022
1860 Rain 13 1006 91 10000 5.14 150 03:48 09.09.2022
1861 Mist 15 1006 88 8000 7.2 180 00:40 09.09.2022
1862 Clouds 25 1005 44 10000 4.12 140 21:52 08.09.2022
1863 Clouds 25 1005 47 10000 3.6 360 20:50 08.09.2022
1864 Clouds 25 1005 47 10000 3.6 360 20:29 08.09.2022
1865 Clouds 25 1006 44 10000 4.63 340 19:39 08.09.2022
1866 Clear 24 1007 53 10000 5.14 10 17:40 08.09.2022
1867 Clear 22 1007 56 10000 5.66 10 16:19 08.09.2022
1868 Clear 14 1008 94 10000 4.63 20 13:56 08.09.2022
1869 Clear 13 1008 94 10000 4.12 40 12:51 08.09.2022
1870 Clear 13 1008 94 10000 4.12 20 11:36 08.09.2022
1871 Clear 13 1008 88 10000 2.57 10 09:58 08.09.2022
1872 Clear 15 1007 88 10000 3.09 30 07:45 08.09.2022
1873 Clear 15 1008 82 10000 2.57 20 05:30 08.09.2022
1874 Clear 18 1008 68 10000 3.09 40 02:36 08.09.2022
1875 Clear 18 1008 68 10000 3.09 40 02:18 08.09.2022
1876 Clear 18 1007 68 10000 3.09 30 00:22 08.09.2022
1877 Clear 23 1007 46 10000 6.17 10 22:19 07.09.2022
1878 Clear 23 1008 46 10000 6.17 20 21:39 07.09.2022
1879 Clear 22 1008 53 10000 5.14 360 20:31 07.09.2022
1880 Clouds 23 1009 49 10000 6.17 340 19:26 07.09.2022
1881 Clouds 21 1012 64 10000 6.69 350 17:22 07.09.2022
1882 Mist 13 1013 94 3000 5.66 30 12:41 07.09.2022
1883 Clear 12 1013 100 10000 3.09 40 10:45 07.09.2022
1884 Clear 13 1014 94 10000 3.09 40 08:33 07.09.2022
1885 Clear 14 1015 94 10000 2.57 40 06:50 07.09.2022
1886 Clouds 18 1017 68 10000 3.09 30 00:53 07.09.2022
1887 Clouds 20 1017 56 10000 5.66 10 22:28 06.09.2022
1888 Clouds 20 1017 56 10000 6.17 10 21:38 06.09.2022
1889 Clouds 19 1020 59 10000 5.14 20 19:57 06.09.2022
1890 Clouds 18 1021 63 10000 4.63 10 18:42 06.09.2022
1891 Clouds 17 1022 72 10000 5.14 30 17:51 06.09.2022
1892 Clouds 16 1023 77 10000 5.66 20 16:53 06.09.2022
1893 Clouds 16 1023 77 10000 5.66 20 16:26 06.09.2022
1894 Clear 12 1024 87 10000 5.14 50 14:54 06.09.2022
1895 Clear 10 1023 93 10000 4.63 50 13:44 06.09.2022
1896 Clear 10 1023 93 10000 4.63 50 13:44 06.09.2022
1897 Clear 10 1023 93 10000 4.63 50 13:20 06.09.2022
1898 Clear 8 1023 81 10000 2.06 50 10:57 06.09.2022
1899 Clear 8 1023 81 10000 1.54 40 09:56 06.09.2022
1900 Clear 9 1024 76 10000 1.03 40 08:29 06.09.2022
1901 Clear 12 1025 58 10000 2.57 30 06:58 06.09.2022
1902 Clear 13 1025 76 10000 3.09 90 01:23 06.09.2022
1903 Clear 18 1024 42 10000 2.57 160 23:19 05.09.2022
1904 Clear 21 1024 35 10000 3.09 180 21:50 05.09.2022
1905 Clear 20 1024 40 10000 3.6 160 20:32 05.09.2022
1906 Clear 19 1026 42 10000 3.6 260 18:59 05.09.2022
1907 Clear 19 1026 42 10000 3.6 260 18:38 05.09.2022
1908 Clear 19 1026 42 10000 3.6 260 18:19 05.09.2022
1909 Clear 18 1027 45 10000 3.6 300 16:25 05.09.2022
1910 Clear 15 1027 51 10000 3.09 310 15:23 05.09.2022
1911 Clear 7 1026 81 10000 3.09 350 13:21 05.09.2022
1912 Clear 6 1025 81 10000 2.06 350 11:53 05.09.2022
1913 Clear 7 1025 76 10000 2.06 350 08:58 05.09.2022
1914 Clear 8 1025 81 10000 3.09 360 06:38 05.09.2022
1915 Clear 14 1025 72 10000 1.54 20 01:56 05.09.2022
1916 Clear 18 1024 45 10000 3.6 250 22:39 04.09.2022
1917 Clear 18 1024 45 10000 3.6 250 22:19 04.09.2022
1918 Clear 19 1024 45 10000 4.12 250 20:37 04.09.2022
1919 Clear 19 1026 42 10000 4.63 320 18:55 04.09.2022
1920 Clear 17 1027 45 10000 4.63 330 17:43 04.09.2022
1921 Clear 15 1027 51 10000 4.63 320 16:28 04.09.2022
1922 Clear 8 1027 71 10000 3.6 330 14:26 04.09.2022
1923 Clear 3 1026 93 10000 3.09 350 12:57 04.09.2022
1924 Clear 5 1025 81 10000 2.57 350 11:51 04.09.2022
1925 Clear 5 1025 87 10000 2.57 360 09:50 04.09.2022
1926 Clear 7 1026 81 10000 2.57 20 06:51 04.09.2022
1927 Clear 8 1027 81 10000 1.54 30 03:31 04.09.2022
1928 Clear 13 1026 54 10000 1.54 280 23:33 03.09.2022
1929 Clear 14 1026 38 10000 3.09 280 22:20 03.09.2022
1930 Clear 15 1027 29 10000 3.09 260 21:22 03.09.2022
1931 Clear 14 1027 51 10000 5.14 200 18:58 03.09.2022
1932 Clear 13 1028 62 10000 2.57 230 17:25 03.09.2022
1933 Clouds 11 1028 76 10000 2.06 300 16:26 03.09.2022
1934 Clear 7 1028 93 10000 1.03 340 14:44 03.09.2022
1935 Clear 4 1028 93 10000 2.06 360 13:50 03.09.2022
1936 Clear 7 1026 81 10000 0 0 11:37 03.09.2022
1937 Clouds 8 1026 76 10000 4.12 170 09:51 03.09.2022
1938 Clear 8 1027 76 10000 4.12 200 07:57 03.09.2022
1939 Clear 9 1026 71 10000 4.12 200 04:57 03.09.2022
1940 Clear 9 1026 71 10000 3.6 210 03:57 03.09.2022
1941 Clear 10 1024 66 10000 7.2 190 23:49 02.09.2022
1942 Clear 11 1023 62 10000 7.2 190 22:39 02.09.2022
1943 Clouds 12 1022 58 10000 8.23 210 20:59 02.09.2022
1944 Clouds 12 1022 58 10000 8.23 210 20:27 02.09.2022
1945 Clouds 12 1022 71 10000 8.75 190 18:59 02.09.2022
1946 Clouds 12 1022 71 10000 8.75 190 18:27 02.09.2022
1947 Clouds 12 1021 76 10000 8.75 190 17:36 02.09.2022
1948 Clouds 12 1020 76 10000 8.23 190 16:45 02.09.2022
1949 Clouds 10 1018 87 10000 8.23 190 13:51 02.09.2022
1950 Clouds 10 1016 93 10000 7.2 190 11:47 02.09.2022
1951 Clouds 11 1015 87 10000 9.26 190 09:49 02.09.2022
1952 Clouds 11 1014 100 10000 8.75 180 08:55 02.09.2022
1953 Rain 12 1014 100 8000 7.72 190 07:24 02.09.2022
1954 Drizzle 13 1013 100 4000 5.66 210 06:35 02.09.2022
1955 Mist 14 1014 100 2000 1.03 190 02:37 02.09.2022
1956 Rain 16 1012 88 10000 0.51 0 22:26 01.09.2022
1957 Rain 15 1011 94 10000 1.54 30 21:40 01.09.2022
1958 Clouds 15 1011 94 10000 1.54 30 21:21 01.09.2022
1959 Mist 15 1011 94 10000 4.63 70 20:37 01.09.2022
1960 Rain 16 1012 88 10000 2.57 10 18:49 01.09.2022
1961 Rain 15 1013 88 10000 4.12 20 17:21 01.09.2022
1962 Rain 13 1014 94 6000 1.54 0 15:34 01.09.2022
1963 Rain 14 1013 88 10000 3.09 30 13:55 01.09.2022
1964 Rain 14 1013 88 10000 3.09 30 12:57 01.09.2022
1965 Rain 14 1013 88 10000 3.09 20 11:52 01.09.2022
1966 Clear 14 1013 88 10000 3.09 20 11:30 01.09.2022
1967 Clear 14 1013 88 10000 2.57 20 09:49 01.09.2022
1968 Clear 14 1014 88 10000 2.57 20 07:51 01.09.2022
1969 Clear 15 1014 88 10000 2.57 40 06:21 01.09.2022
1970 Clouds 15 1015 88 10000 2.06 130 01:31 01.09.2022
1971 Clouds 15 1015 88 10000 2.06 130 01:31 01.09.2022
1972 Clear 20 1014 64 10000 3.09 130 23:19 31.08.2022
1973 Clear 21 1015 60 10000 4.12 10 21:20 31.08.2022
1974 Clear 19 1017 63 10000 5.14 20 19:46 31.08.2022
1975 Clear 17 1019 72 10000 5.66 10 17:52 31.08.2022
1976 Clear 14 1021 77 10000 6.17 30 15:44 31.08.2022
1977 Clear 12 1021 87 10000 5.66 50 13:56 31.08.2022
1978 Clear 10 1021 93 10000 3.09 60 12:20 31.08.2022
1979 Clear 12 1021 82 10000 2.57 50 10:30 31.08.2022
1980 Clear 11 1021 87 10000 4.63 80 08:34 31.08.2022
1981 Clear 12 1024 76 10000 4.63 60 03:46 31.08.2022
1982 Clear 19 1024 39 10000 5.66 10 22:58 30.08.2022
1983 Clear 19 1024 39 10000 5.66 20 21:33 30.08.2022
1984 Clear 18 1025 45 10000 5.14 30 20:47 30.08.2022
1985 Clear 14 1028 54 10000 5.66 30 17:25 30.08.2022
1986 Clear 7 1030 87 10000 4.12 20 14:42 30.08.2022
1987 Clear 4 1030 93 9000 1.54 10 13:24 30.08.2022
1988 Clear 3 1030 100 10000 1.03 350 11:21 30.08.2022
1989 Clear 5 1029 93 10000 2.06 30 10:35 30.08.2022
1990 Clear 7 1031 87 10000 3.6 50 06:50 30.08.2022
1991 Clear 10 1031 76 10000 1.03 80 01:53 30.08.2022
1992 Clear 11 1031 68 10000 3.09 160 22:54 29.08.2022
1993 Clear 11 1031 68 10000 3.09 160 22:24 29.08.2022
1994 Clear 12 1031 65 10000 3.09 200 21:25 29.08.2022
1995 Clear 13 1032 57 10000 4.12 180 19:51 29.08.2022
1996 Clouds 12 1034 63 10000 2.68 250 17:50 29.08.2022
1997 Clouds 11 1034 63 10000 3.58 270 17:24 29.08.2022
1998 Clouds 12 1034 64 10000 4.12 280 16:22 29.08.2022
1999 Clear 9 1034 70 10000 3.58 289 14:44 29.08.2022
2000 Clear 6 1034 75 10000 2.68 304 12:52 29.08.2022
2001 Clear 6 1033 70 10000 2.68 306 10:56 29.08.2022
2002 Clear 7 1033 68 10000 2.24 304 09:45 29.08.2022
2003 Clear 7 1034 67 10000 2.24 304 08:28 29.08.2022
2004 Clouds 10 1033 56 10000 2.24 226 02:49 29.08.2022
2005 Clouds 9 1033 55 10000 4.12 210 23:55 28.08.2022
2006 Clouds 9 1032 52 10000 5.14 200 22:36 28.08.2022
2007 Clouds 10 1033 52 10000 6.69 200 21:43 28.08.2022
2008 Clouds 10 1032 52 10000 8.75 190 20:54 28.08.2022
2009 Clouds 10 1032 53 10000 8.23 190 19:20 28.08.2022
2010 Clouds 10 1033 51 10000 7.72 200 18:20 28.08.2022
2011 Clouds 9 1032 56 10000 9.26 200 16:57 28.08.2022
2012 Clouds 9 1032 59 10000 8.75 200 15:55 28.08.2022
2013 Clouds 9 1031 53 10000 7.2 190 14:21 28.08.2022
2014 Clouds 8 1028 59 10000 7.2 190 12:31 28.08.2022
2015 Clouds 8 1027 58 10000 7.6 209 10:42 28.08.2022
2016 Clouds 8 1026 57 10000 5.81 186 09:41 28.08.2022
2017 Clouds 9 1026 62 10000 6.26 203 08:37 28.08.2022
2018 Clouds 9 1026 61 10000 8.49 192 07:42 28.08.2022
2019 Clouds 11 1022 59 10000 9.39 200 02:31 28.08.2022
2020 Clouds 12 1019 72 10000 9.83 168 00:25 28.08.2022
2021 Clouds 13 1016 71 10000 7.72 200 22:34 27.08.2022
2022 Clear 13 1014 69 10000 7.72 200 21:28 27.08.2022
2023 Clouds 14 1012 74 10000 7.2 210 19:40 27.08.2022
2024 Clouds 17 1008 89 10000 7.2 10 16:48 27.08.2022
2025 Rain 17 1008 89 10000 8.23 20 15:53 27.08.2022
2026 Rain 16 1008 90 10000 8.23 20 15:24 27.08.2022
2027 Thunderstorm 16 1008 92 800 2.06 320 12:23 27.08.2022
2028 Thunderstorm 17 1008 91 2000 2.24 271 11:25 27.08.2022
2029 Thunderstorm 16 1007 90 4000 2.06 270 09:42 27.08.2022
2030 Thunderstorm 17 1006 83 10000 3.6 340 07:37 27.08.2022
2031 Clouds 15 1008 89 10000 2.57 60 02:34 27.08.2022
2032 Clouds 23 1010 68 10000 4.12 20 23:56 26.08.2022
2033 Clouds 24 1011 57 10000 6.17 10 22:37 26.08.2022
2034 Clouds 25 1012 50 10000 4.63 30 20:42 26.08.2022
2035 Clear 24 1013 57 10000 4.12 20 19:23 26.08.2022
2036 Fog 15 1017 100 50 3.6 350 16:46 26.08.2022
2037 Fog 14 1017 100 50 0.51 0 15:31 26.08.2022
2038 Fog 12 1017 100 50 0.51 0 14:29 26.08.2022
2039 Fog 11 1016 100 50 2.06 330 12:47 26.08.2022
2040 Fog 12 1016 100 200 2.06 330 11:27 26.08.2022
2041 Fog 13 1015 100 800 1.54 350 10:29 26.08.2022
2042 Fog 12 1017 100 900 2.06 360 07:28 26.08.2022
2043 Clear 15 1016 82 10000 1.34 45 01:41 26.08.2022
2044 Clouds 16 1016 85 6000 3.09 140 23:32 25.08.2022
2045 Clouds 16 1016 81 10000 2.57 130 21:36 25.08.2022
2046 Clouds 16 1015 81 10000 2.57 140 20:29 25.08.2022
2047 Clear 16 1015 77 10000 2.57 120 18:53 25.08.2022
2048 Clear 17 1016 76 10000 1.54 20 17:50 25.08.2022
2049 Clear 17 1016 77 10000 1.54 20 17:31 25.08.2022
2050 Clear 19 1017 69 10000 5.14 20 15:40 25.08.2022
2051 Clear 16 1017 76 10000 3.6 30 14:34 25.08.2022
2052 Clear 15 1017 78 10000 3.6 40 11:54 25.08.2022
2053 Clear 15 1016 77 10000 3.09 20 10:46 25.08.2022
2054 Clear 15 1016 74 10000 3.13 11 08:54 25.08.2022
2055 Rain 16 1018 77 10000 2.57 40 05:24 25.08.2022
2056 Rain 16 1018 73 10000 3.6 110 01:37 25.08.2022
2057 Clear 17 1017 76 10000 3.6 130 23:26 24.08.2022
2058 Clouds 18 1017 73 10000 4.63 180 22:22 24.08.2022
2059 Clouds 18 1016 69 10000 3.09 150 21:35 24.08.2022
2060 Clouds 17 1016 72 10000 3.6 170 20:32 24.08.2022
2061 Clouds 17 1018 73 10000 2.57 160 18:58 24.08.2022
2062 Clear 19 1020 68 10000 3.09 350 16:37 24.08.2022
2063 Clear 16 1020 77 10000 2.57 350 15:52 24.08.2022
2064 Mist 10 1019 100 8000 4.12 20 13:40 24.08.2022
2065 Clear 9 1019 93 10000 2.57 10 11:29 24.08.2022
2066 Fog 8 1018 100 5000 1.54 10 09:35 24.08.2022
2067 Fog 9 1019 93 3000 2.57 20 07:59 24.08.2022
2068 Fog 12 1019 94 8000 1.54 140 02:36 24.08.2022
2069 Clear 15 1018 72 10000 2.57 190 23:32 23.08.2022
2070 Clear 18 1018 52 10000 3.09 150 22:32 23.08.2022
2071 Clear 18 1018 52 10000 3.6 140 21:29 23.08.2022
2072 Clear 18 1019 55 10000 2.57 130 20:21 23.08.2022
2073 Clouds 16 1021 63 10000 3.6 360 18:46 23.08.2022
2074 Clouds 15 1022 67 10000 5.14 20 17:49 23.08.2022
2075 Clouds 14 1022 77 10000 5.66 30 16:54 23.08.2022
2076 Clouds 12 1023 87 10000 5.14 50 15:39 23.08.2022
2077 Mist 9 1023 100 1000 3.09 50 13:29 23.08.2022
2078 Mist 9 1023 100 5000 2.57 50 11:33 23.08.2022
2079 Mist 9 1022 100 3000 2.57 70 10:48 23.08.2022
2080 Mist 9 1022 100 3000 2.57 70 10:24 23.08.2022
2081 Fog 8 1023 100 500 3.09 50 08:52 23.08.2022
2082 Fog 8 1023 100 800 2.57 50 08:21 23.08.2022
2083 Mist 8 1024 100 5000 1.03 50 07:38 23.08.2022
2084 Clear 9 1024 93 10000 1.54 60 06:29 23.08.2022
2085 Clear 9 1024 93 10000 1.54 60 06:29 23.08.2022
2086 Clouds 10 1024 85 10000 4.32 41 04:45 23.08.2022
2087 Clear 10 1024 87 10000 5.14 120 00:28 23.08.2022
2088 Clear 10 1024 87 10000 5.14 120 23:54 22.08.2022
2089 Clear 13 1024 71 10000 5.66 110 22:45 22.08.2022
2090 Clear 14 1024 67 10000 5.14 110 21:45 22.08.2022
2091 Clear 16 1025 51 10000 4.63 130 19:49 22.08.2022
2092 Clear 16 1025 51 10000 4.63 130 19:18 22.08.2022
2093 Clouds 13 1027 62 10000 4.12 87 17:37 22.08.2022
2094 Clouds 10 1028 80 10000 2.68 98 15:39 22.08.2022
2095 Clouds 9 1028 80 10000 2.57 90 14:32 22.08.2022
2096 Clouds 9 1027 83 10000 3.13 132 10:49 22.08.2022
2097 Clouds 9 1027 84 10000 2.24 59 08:21 22.08.2022
2098 Clouds 10 1029 84 10000 3.13 161 04:30 22.08.2022
2099 Clear 11 1027 78 10000 3.13 165 00:49 22.08.2022
2100 Clear 11 1027 79 10000 2.57 190 00:26 22.08.2022
2101 Clear 13 1026 50 10000 2.06 240 22:54 21.08.2022
2102 Clear 15 1026 40 10000 3.09 220 21:36 21.08.2022
2103 Clear 15 1026 37 10000 3.09 240 20:57 21.08.2022
2104 Clear 14 1027 37 10000 3.13 257 19:27 21.08.2022
2105 Clear 14 1028 41 10000 3.58 269 17:39 21.08.2022
2106 Clear 13 1029 41 10000 3.09 330 15:58 21.08.2022
2107 Clear 12 1028 44 10000 3.09 330 15:22 21.08.2022
2108 Rain 10 1028 56 10000 2.57 10 13:54 21.08.2022
2109 Rain 10 1028 57 10000 2.57 10 13:34 21.08.2022
2110 Clear 9 1027 55 10000 1.79 315 11:55 21.08.2022
2111 Rain 10 1027 50 10000 2.06 360 09:32 21.08.2022
2112 Clear 10 1027 48 10000 2.06 20 08:56 21.08.2022
2113 Clear 10 1027 48 10000 2.06 20 08:38 21.08.2022
2114 Clear 10 1027 47 10000 2.24 331 07:27 21.08.2022
2115 Smoke 11 1027 51 4000 1.79 2 03:41 21.08.2022
2116 Clear 12 1027 67 10000 3.09 110 00:24 21.08.2022
2117 Clear 12 1027 64 10000 3.6 360 22:59 20.08.2022
2118 Clear 14 1026 49 10000 4.12 350 21:39 20.08.2022
2119 Clear 15 1027 41 10000 5.14 360 20:43 20.08.2022
2120 Clear 15 1027 29 10000 5.66 310 19:41 20.08.2022
2121 Clear 15 1028 31 10000 6.69 350 18:33 20.08.2022
2122 Clear 14 1028 35 10000 7.72 320 17:52 20.08.2022
2123 Clear 14 1029 34 10000 7.72 320 17:18 20.08.2022
2124 Clear 12 1030 39 10000 4.63 340 15:37 20.08.2022
2125 Clear 8 1029 51 10000 4.12 360 13:27 20.08.2022
2126 Clear 8 1029 47 10000 3.6 360 11:52 20.08.2022
2127 Clear 9 1028 44 10000 3.6 350 09:43 20.08.2022
2128 Clear 9 1027 44 10000 4.12 360 08:50 20.08.2022
2129 Clear 10 1028 44 10000 4.12 350 05:57 20.08.2022
2130 Clear 12 1028 38 10000 3.09 10 01:46 20.08.2022
2131 Clear 13 1028 38 10000 3.09 350 00:51 20.08.2022
2132 Clear 14 1027 34 10000 4.12 320 23:19 19.08.2022
2133 Clear 14 1028 33 10000 5.14 310 22:35 19.08.2022
2134 Clear 14 1027 26 10000 6.69 270 20:28 19.08.2022
2135 Clear 13 1028 33 10000 6.69 270 18:28 19.08.2022
2136 Clouds 10 1029 59 10000 4.63 300 15:21 19.08.2022
2137 Clear 6 1029 68 10000 2.57 350 13:26 19.08.2022
2138 Clear 7 1027 81 10000 2.06 350 10:55 19.08.2022
2139 Clear 7 1027 81 10000 2.06 350 10:26 19.08.2022
2140 Clouds 9 1026 58 10000 3.13 261 06:58 19.08.2022
2141 Clouds 9 1023 66 10000 9.26 210 00:58 19.08.2022
2142 Clouds 9 1023 66 10000 9.26 210 00:30 19.08.2022
2143 Clouds 10 1022 58 10000 6.69 230 23:44 18.08.2022
2144 Clouds 10 1021 55 10000 7.2 220 22:51 18.08.2022
2145 Clouds 10 1021 60 10000 9.26 220 21:57 18.08.2022
2146 Clouds 10 1020 58 10000 9.26 220 21:35 18.08.2022
2147 Clouds 10 1019 60 10000 8.75 230 20:25 18.08.2022
2148 Clouds 10 1019 63 10000 10.29 220 19:30 18.08.2022
2149 Clouds 9 1019 65 10000 8.75 220 17:50 18.08.2022
2150 Clouds 9 1019 68 10000 8.75 220 17:18 18.08.2022
2151 Clouds 9 1017 65 10000 7.72 230 14:57 18.08.2022
2152 Clouds 9 1017 65 10000 7.72 230 14:19 18.08.2022
2153 Clouds 9 1016 63 10000 5.14 230 13:29 18.08.2022
2154 Clouds 9 1015 59 10000 4.02 250 11:51 18.08.2022
2155 Clouds 8 1014 71 10000 3.09 240 09:43 18.08.2022
2156 Clouds 9 1014 66 10000 3.09 220 08:42 18.08.2022
2157 Clouds 9 1014 66 10000 3.6 200 07:19 18.08.2022
2158 Clear 11 1011 58 10000 5.66 240 04:37 18.08.2022
2159 Clouds 10 1009 75 10000 3.58 271 23:37 17.08.2022
2160 Clouds 10 1008 80 10000 7.2 220 21:53 17.08.2022
2161 Clouds 11 1006 84 10000 8.23 200 20:20 17.08.2022
2162 Clouds 12 1006 83 10000 7.72 230 19:31 17.08.2022
2163 Clouds 14 1006 56 10000 7.15 298 17:37 17.08.2022
2164 Rain 15 1006 53 10000 3.09 340 16:39 17.08.2022
2165 Clear 13 1006 61 10000 3.6 60 15:28 17.08.2022
2166 Clear 11 1007 69 10000 2.57 100 13:31 17.08.2022
2167 Clear 10 1007 69 10000 1.34 42 11:39 17.08.2022
2168 Clear 10 1006 61 10000 1.34 34 09:59 17.08.2022
2169 Clear 11 1007 64 10000 0.45 285 08:24 17.08.2022
2170 Clear 13 1007 49 10000 4.63 20 03:39 17.08.2022
2171 Clear 15 1007 40 10000 4.12 360 00:38 17.08.2022
2172 Clear 17 1007 36 10000 5.66 340 22:42 16.08.2022
2173 Clear 17 1006 28 10000 7.72 330 20:59 16.08.2022
2174 Clear 18 1006 26 10000 7.2 320 19:54 16.08.2022
2175 Clear 15 1007 27 10000 7.72 320 18:44 16.08.2022
2176 Clear 15 1008 28 10000 7.72 290 17:53 16.08.2022
2177 Clear 13 1009 42 10000 4.63 320 15:59 16.08.2022
2178 Clear 10 1009 45 10000 4.47 286 14:55 16.08.2022
2179 Clear 10 1009 45 10000 4.12 320 14:37 16.08.2022
2180 Clear 10 1009 41 10000 3.58 284 13:54 16.08.2022
2181 Clear 8 1008 58 10000 2.57 330 11:30 16.08.2022
2182 Clear 9 1008 56 10000 2.57 330 09:52 16.08.2022
2183 Clear 10 1008 51 10000 2.57 320 08:48 16.08.2022
2184 Clear 12 1008 50 10000 2.57 320 08:18 16.08.2022
2185 Clear 12 1007 43 10000 6.71 276 04:25 16.08.2022
2186 Clouds 13 1005 76 10000 6.17 250 22:55 15.08.2022
2187 Clouds 13 1005 75 10000 6.17 240 21:56 15.08.2022
2188 Clouds 13 1005 76 10000 6.17 240 21:35 15.08.2022
2189 Clouds 14 1005 74 10000 6.69 220 20:29 15.08.2022
2190 Clouds 14 1005 74 10000 6.69 220 20:29 15.08.2022
2191 Rain 13 1003 78 10000 7.2 240 18:46 15.08.2022
2192 Clouds 14 1002 74 10000 5.14 230 17:47 15.08.2022
2193 Clear 14 1003 75 10000 2.06 250 16:22 15.08.2022
2194 Clouds 13 1002 77 10000 6.17 110 14:31 15.08.2022
2195 Rain 12 1003 80 10000 8.75 150 12:54 15.08.2022
2196 Clear 18 999 76 10000 6.69 350 10:23 15.08.2022
2197 Clear 18 999 73 10000 5.66 10 08:52 15.08.2022
2198 Clear 19 1000 69 10000 8.23 20 06:34 15.08.2022
2199 Clear 19 1003 74 10000 5.66 40 03:34 15.08.2022
2200 Clear 21 1005 61 10000 6.17 50 23:24 14.08.2022
2201 Clear 24 1008 53 10000 7.2 40 21:43 14.08.2022
2202 Clear 24 1009 53 10000 6.69 30 20:41 14.08.2022
2203 Clear 19 1008 64 10000 6.17 30 19:36 14.08.2022
2204 Clear 22 1012 60 10000 6.69 50 18:21 14.08.2022
2205 Clear 20 1012 57 10000 6.69 50 17:31 14.08.2022
2206 Clear 20 1014 68 10000 6.69 40 16:23 14.08.2022
2207 Clear 16 1014 72 10000 4.47 40 14:55 14.08.2022
2208 Clear 14 1015 78 10000 5.14 50 13:51 14.08.2022
2209 Clear 14 1015 80 10000 5.14 50 13:31 14.08.2022
2210 Clear 14 1015 80 10000 5.14 50 13:31 14.08.2022
2211 Clear 13 1015 84 10000 5.14 50 12:35 14.08.2022
2212 Clear 13 1015 80 10000 3.6 60 11:22 14.08.2022
2213 Clear 14 1015 78 10000 3.58 3 08:56 14.08.2022
2214 Clear 14 1016 82 10000 3.58 17 06:27 14.08.2022
2215 Clear 14 1017 81 10000 3.6 80 04:47 14.08.2022
2216 Clear 14 1017 84 10000 3.58 59 01:36 14.08.2022
2217 Clear 16 1017 80 10000 3.6 100 22:56 13.08.2022
2218 Clouds 17 1017 75 10000 4.63 160 21:59 13.08.2022
2219 Clouds 17 1017 70 10000 4.63 140 20:49 13.08.2022
2220 Clouds 18 1017 70 10000 4.12 170 19:48 13.08.2022
2221 Clouds 18 1017 68 10000 4.12 170 19:18 13.08.2022
2222 Clear 20 1019 73 10000 2.06 260 17:21 13.08.2022
2223 Clear 16 1018 80 10000 2.68 302 14:42 13.08.2022
2224 Fog 15 1018 82 10000 3.09 10 13:49 13.08.2022
2225 Fog 15 1017 84 10000 3.09 10 13:25 13.08.2022
2226 Clouds 15 1016 80 10000 3.09 10 11:29 13.08.2022
2227 Clouds 15 1016 83 10000 3.09 360 09:23 13.08.2022
2228 Clouds 14 1017 87 3000 3.09 260 06:44 13.08.2022
2229 Clear 13 1016 87 10000 3.09 120 01:51 13.08.2022
2230 Clouds 13 1015 81 10000 1.54 340 23:32 12.08.2022
2231 Clouds 18 1015 58 10000 4.63 340 21:37 12.08.2022
2232 Clouds 18 1015 58 10000 5.14 20 19:48 12.08.2022
2233 Clouds 18 1016 56 10000 5.14 20 19:23 12.08.2022
2234 Clouds 18 1017 59 10000 6.17 20 18:26 12.08.2022
2235 Clouds 16 1019 67 10000 4.12 10 16:27 12.08.2022
2236 Clear 13 1020 76 10000 4.63 20 15:19 12.08.2022
2237 Clear 8 1020 93 10000 3.6 40 13:43 12.08.2022
2238 Clear 7 1020 93 10000 4.12 30 12:32 12.08.2022
2239 Clear 9 1020 81 10000 2.57 30 08:52 12.08.2022
2240 Clear 9 1021 81 10000 2.06 30 07:46 12.08.2022
2241 Clear 9 1021 81 10000 1.54 20 06:23 12.08.2022
2242 Clear 12 1021 66 10000 3.6 30 00:32 12.08.2022
2243 Clouds 14 1021 62 10000 3.6 10 23:59 11.08.2022
2244 Clouds 14 1021 62 10000 3.6 10 23:25 11.08.2022
2245 Clouds 17 1021 51 10000 6.69 320 21:53 11.08.2022
2246 Clouds 17 1021 51 10000 6.69 320 21:28 11.08.2022
2247 Clouds 16 1022 55 10000 6.17 360 20:31 11.08.2022
2248 Clouds 16 1022 55 10000 6.17 360 20:31 11.08.2022
2249 Clouds 16 1023 55 10000 5.14 360 19:33 11.08.2022
2250 Clouds 16 1023 55 10000 8.75 360 18:57 11.08.2022
2251 Clouds 15 1025 63 10000 5.14 10 17:22 11.08.2022
2252 Clear 11 1025 82 10000 4.63 20 15:48 11.08.2022
2253 Clear 9 1025 87 10000 4.63 30 14:46 11.08.2022
2254 Clear 6 1024 93 10000 3.09 40 11:59 11.08.2022
2255 Clear 8 1024 79 10000 3.13 12 09:22 11.08.2022
2256 Clear 8 1025 77 10000 3.6 60 06:52 11.08.2022
2257 Clear 11 1025 79 10000 3.6 80 02:49 11.08.2022
2258 Clear 12 1025 83 10000 4.12 100 00:19 11.08.2022
2259 Clear 12 1025 73 10000 5.14 110 21:56 10.08.2022
2260 Clear 12 1025 72 10000 5.14 110 21:19 10.08.2022
2261 Clear 12 1026 72 10000 5.14 130 20:42 10.08.2022
2262 Clouds 12 1026 73 10000 3.6 120 18:53 10.08.2022
2263 Clouds 11 1028 78 10000 4.12 110 17:28 10.08.2022
2264 Mist 9 1029 87 9000 0.51 0 15:26 10.08.2022
2265 Fog 2 1029 100 50 0.51 0 13:34 10.08.2022
2266 Fog 1 1029 100 50 0 0 11:47 10.08.2022
2267 Fog 4 1030 100 400 0 0 08:44 10.08.2022
2268 Fog 5 1031 100 200 0 0 07:36 10.08.2022
2269 Fog 5 1031 100 8000 0 0 05:46 10.08.2022
2270 Clouds 10 1031 77 10000 3.58 119 02:44 10.08.2022
2271 Clouds 11 1031 75 10000 4.02 125 23:33 09.08.2022
2272 Clouds 11 1030 73 10000 5.14 140 22:48 09.08.2022
2273 Clouds 12 1030 76 10000 5.14 140 21:34 09.08.2022
2274 Clouds 12 1030 73 10000 5.14 130 19:33 09.08.2022
2275 Clouds 12 1031 73 10000 5.14 140 17:59 09.08.2022
2276 Clouds 12 1031 73 10000 5.14 120 17:26 09.08.2022
2277 Clouds 12 1032 73 10000 7.72 110 16:40 09.08.2022
2278 Clouds 12 1032 75 10000 5.66 110 15:31 09.08.2022
2279 Clear 11 1030 84 10000 4.47 107 12:20 09.08.2022
2280 Clear 11 1029 81 10000 3.6 120 09:22 09.08.2022
2281 Clear 11 1029 82 10000 4.02 99 08:26 09.08.2022
2282 Clouds 11 1030 81 10000 4.12 110 07:18 09.08.2022
2283 Clouds 12 1029 79 10000 5.14 130 02:54 09.08.2022
2284 Clouds 12 1027 77 10000 6.26 133 23:26 08.08.2022
2285 Clear 12 1026 73 10000 6.26 134 22:53 08.08.2022
2286 Clouds 12 1026 76 10000 6.69 140 21:48 08.08.2022
2287 Clouds 12 1025 75 10000 7.15 125 20:52 08.08.2022
2288 Clouds 12 1026 75 10000 7.15 123 19:50 08.08.2022
2289 Clouds 12 1027 79 10000 6.69 140 18:19 08.08.2022
2290 Clouds 11 1028 80 10000 5.81 126 16:34 08.08.2022
2291 Clouds 11 1028 83 10000 6.26 126 15:38 08.08.2022
2292 Clouds 10 1027 85 10000 5.81 140 12:50 08.08.2022
2293 Clouds 10 1026 84 10000 5.36 149 11:48 08.08.2022
2294 Clouds 10 1025 76 10000 5.36 120 09:36 08.08.2022
2295 Clouds 10 1026 80 10000 6.26 113 05:37 08.08.2022
2296 Clouds 10 1025 78 10000 6.26 127 02:24 08.08.2022
2297 Clouds 9 1023 75 10000 6.71 134 22:25 07.08.2022
2298 Clouds 9 1023 76 10000 5.66 120 21:38 07.08.2022
2299 Clouds 9 1023 73 10000 6.71 133 20:25 07.08.2022
2300 Clouds 9 1023 73 10000 6.69 130 19:54 07.08.2022
2301 Clouds 9 1023 73 10000 6.69 150 19:33 07.08.2022
2302 Clouds 10 1024 74 10000 7.15 132 18:22 07.08.2022
2303 Clouds 10 1025 74 10000 6.71 117 16:54 07.08.2022
2304 Clouds 10 1025 75 10000 5.66 130 16:28 07.08.2022
2305 Clouds 10 1025 76 10000 6.26 144 15:19 07.08.2022
2306 Clouds 8 1024 93 10000 4.63 130 13:22 07.08.2022
2307 Clouds 9 1023 93 10000 4.12 130 10:59 07.08.2022
2308 Clouds 9 1023 93 10000 4.12 130 10:33 07.08.2022
2309 Clear 10 1023 81 10000 3.09 110 05:48 07.08.2022
2310 Rain 10 1023 81 10000 4.12 130 03:19 07.08.2022
2311 Clear 12 1022 50 10000 3.09 130 23:37 06.08.2022
2312 Clear 13 1021 47 10000 3.6 120 22:20 06.08.2022
2313 Clear 13 1021 62 10000 5.14 170 20:26 06.08.2022
2314 Clear 15 1020 51 10000 3.6 160 19:41 06.08.2022
2315 Clear 15 1020 51 10000 3.6 160 19:41 06.08.2022
2316 Clear 15 1021 51 10000 3.09 140 18:25 06.08.2022
2317 Clear 13 1022 67 10000 2.06 40 17:28 06.08.2022
2318 Clear 6 1023 93 10000 3.6 10 14:35 06.08.2022
2319 Mist 2 1022 93 6000 3.09 350 13:44 06.08.2022
2320 Mist 5 1021 100 2000 1.54 10 11:24 06.08.2022
2321 Fog 6 1020 100 50 0 0 09:51 06.08.2022
2322 Fog 6 1020 100 50 0 0 08:32 06.08.2022
2323 Fog 7 1020 100 500 0 0 03:51 06.08.2022
2324 Clouds 9 1019 93 10000 1.54 230 23:34 05.08.2022
2325 Clouds 11 1018 76 10000 3.09 220 22:22 05.08.2022
2326 Clouds 12 1019 71 10000 5.14 260 19:33 05.08.2022
2327 Clouds 12 1019 71 10000 4.12 270 18:44 05.08.2022
2328 Clouds 12 1019 82 6000 4.63 280 17:54 05.08.2022
2329 Mist 9 1019 100 2000 4.63 270 16:49 05.08.2022
2330 Mist 9 1019 100 2000 4.63 270 16:49 05.08.2022
2331 Fog 7 1018 100 100 2.57 310 15:22 05.08.2022
2332 Fog 4 1018 100 300 2.57 340 14:19 05.08.2022
2333 Fog 2 1018 100 10000 2.06 330 13:23 05.08.2022
2334 Fog 3 1017 100 10000 2.06 340 12:28 05.08.2022
2335 Fog 5 1017 100 10000 2.06 300 10:49 05.08.2022
2336 Clouds 7 1016 93 10000 1.03 280 08:25 05.08.2022
2337 Clouds 7 1016 87 10000 2.06 290 06:41 05.08.2022
2338 Drizzle 9 1014 87 10000 6.17 210 00:34 05.08.2022
2339 Clouds 9 1013 93 10000 7.2 210 22:31 04.08.2022
2340 Clouds 10 1013 87 10000 7.2 200 21:27 04.08.2022
2341 Clouds 10 1013 87 10000 7.72 200 20:43 04.08.2022
2342 Clouds 10 1013 87 10000 8.75 200 19:46 04.08.2022
2343 Clouds 10 1014 93 10000 7.72 190 18:37 04.08.2022
2344 Clouds 10 1014 93 10000 7.72 190 18:18 04.08.2022
2345 Clouds 11 1013 87 10000 6.69 170 14:23 04.08.2022
2346 Clouds 11 1012 93 10000 7.2 180 12:57 04.08.2022
2347 Clouds 11 1012 93 10000 6.17 180 11:18 04.08.2022
2348 Clouds 10 1013 100 10000 6.17 180 07:54 04.08.2022
2349 Clouds 11 1014 93 10000 4.63 180 06:40 04.08.2022
2350 Clouds 11 1015 93 10000 3.6 160 02:33 04.08.2022
2351 Fog 11 1014 100 600 5.66 160 23:45 03.08.2022
2352 Fog 12 1014 94 500 4.12 170 22:55 03.08.2022
2353 Fog 13 1014 94 800 3.6 170 20:50 03.08.2022
2354 Mist 12 1014 100 1600 2.57 170 19:46 03.08.2022
2355 Fog 12 1015 94 500 3.6 190 18:37 03.08.2022
2356 Mist 13 1016 100 2000 1.03 0 16:26 03.08.2022
2357 Fog 12 1015 100 500 2.06 150 15:45 03.08.2022
2358 Fog 11 1015 100 50 2.06 60 12:44 03.08.2022
2359 Clear 12 1015 94 10000 0.51 0 09:46 03.08.2022
2360 Clear 13 1016 100 10000 1.54 120 04:51 03.08.2022
2361 Clear 13 1016 100 10000 2.57 120 03:52 03.08.2022
2362 Clear 13 1016 100 10000 2.06 120 02:25 03.08.2022
2363 Clear 16 1015 82 10000 4.63 110 23:41 02.08.2022
2364 Clouds 18 1015 72 10000 5.66 120 21:59 02.08.2022
2365 Clouds 18 1015 72 10000 5.66 120 21:40 02.08.2022
2366 Clouds 18 1016 72 10000 5.14 120 20:20 02.08.2022
2367 Clouds 14 1019 88 10000 4.12 80 16:49 02.08.2022
2368 Fog 11 1019 100 800 5.14 110 13:40 02.08.2022
2369 Clouds 12 1019 94 10000 2.06 140 10:34 02.08.2022
2370 Clouds 11 1019 93 10000 3.6 70 08:29 02.08.2022
2371 Clouds 9 1019 100 10000 0 0 07:50 02.08.2022
2372 Clear 11 1019 93 10000 1.54 80 04:56 02.08.2022
2373 Clear 12 1019 87 10000 3.6 100 02:20 02.08.2022
2374 Clear 13 1017 67 10000 4.12 110 23:23 01.08.2022
2375 Clear 12 1017 73 10000 3.6 160 21:37 01.08.2022
2376 Clear 12 1017 71 10000 2.57 30 19:45 01.08.2022
2377 Clear 12 1017 74 10000 3.09 40 18:55 01.08.2022
2378 Clear 12 1019 77 10000 3.09 30 16:56 01.08.2022
2379 Clear 12 1019 76 10000 3.09 30 16:33 01.08.2022
2380 Clear 13 1019 69 10000 3.09 40 15:44 01.08.2022
2381 Clear 12 1019 73 10000 3.09 30 14:45 01.08.2022
2382 Clear 10 1019 83 10000 2.24 342 13:32 01.08.2022
2383 Clear 9 1018 76 10000 1.34 35 10:48 01.08.2022
2384 Clear 10 1018 72 10000 0.89 9 08:55 01.08.2022
2385 Clear 10 1019 75 10000 0.51 10 07:23 01.08.2022
2386 Clear 12 1018 67 10000 4.12 50 04:32 01.08.2022
2387 Clear 13 1018 76 10000 3.09 110 01:23 01.08.2022
2388 Clear 13 1017 74 10000 2.57 60 22:47 31.07.2022
2389 Clear 14 1017 73 10000 2.57 60 22:29 31.07.2022
2390 Clear 14 1017 74 10000 5.14 80 20:39 31.07.2022
2391 Clear 14 1018 68 10000 1.54 0 18:40 31.07.2022
2392 Clear 13 1020 71 10000 1.54 0 17:29 31.07.2022
2393 Clouds 12 1019 76 10000 1.34 59 14:43 31.07.2022
2394 Clear 11 1020 76 10000 0.89 307 12:59 31.07.2022
2395 Clear 11 1018 78 10000 0.45 213 11:39 31.07.2022
2396 Clear 11 1017 69 10000 2.24 325 08:47 31.07.2022
2397 Clouds 12 1018 75 6000 0.89 65 05:38 31.07.2022
2398 Clear 13 1017 63 10000 0.89 67 02:29 31.07.2022
2399 Clear 14 1016 59 10000 2.57 230 22:49 30.07.2022
2400 Clear 15 1017 49 10000 2.57 240 21:52 30.07.2022
2401 Clear 16 1017 50 10000 2.57 240 21:33 30.07.2022
2402 Clear 16 1016 56 10000 3.6 290 20:38 30.07.2022
2403 Clear 16 1016 56 10000 3.6 290 20:38 30.07.2022
2404 Clear 18 1018 42 10000 3.09 320 19:50 30.07.2022
2405 Clear 17 1018 48 10000 3.6 310 18:19 30.07.2022
2406 Clear 15 1018 52 10000 3.09 310 16:40 30.07.2022
2407 Clear 13 1018 54 10000 3.58 292 15:33 30.07.2022
2408 Clear 11 1018 59 10000 3.58 288 14:23 30.07.2022
2409 Clear 10 1017 62 10000 4.02 328 12:32 30.07.2022
2410 Clear 10 1017 57 10000 4.47 322 11:53 30.07.2022
2411 Clear 10 1016 58 10000 4.47 298 10:20 30.07.2022
2412 Clear 10 1016 56 10000 4.47 329 09:32 30.07.2022
2413 Rain 10 1017 53 10000 4.02 304 07:44 30.07.2022
2414 Clear 12 1017 54 10000 2.06 360 02:33 30.07.2022
2415 Clear 11 1016 57 10000 2.06 350 00:32 30.07.2022
2416 Clear 13 1016 50 10000 4.12 270 21:38 29.07.2022
2417 Clear 12 1015 67 10000 3.6 260 20:51 29.07.2022
2418 Clear 12 1015 66 10000 4.63 290 19:47 29.07.2022
2419 Clouds 10 1017 72 10000 4.12 250 17:39 29.07.2022
2420 Clouds 10 1017 76 10000 3.6 230 14:51 29.07.2022
2421 Clouds 10 1015 78 10000 4.63 240 12:55 29.07.2022
2422 Clouds 10 1015 85 10000 7.2 200 09:34 29.07.2022
2423 Clouds 10 1015 83 10000 5.14 230 08:41 29.07.2022
2424 Clouds 12 1014 79 10000 7.72 220 06:40 29.07.2022
2425 Clouds 12 1012 76 10000 6.17 220 01:46 29.07.2022
2426 Clouds 10 1010 81 10000 7.2 240 21:54 28.07.2022
2427 Clouds 10 1010 81 10000 7.2 230 20:54 28.07.2022
2428 Clouds 10 1010 81 10000 7.2 230 20:21 28.07.2022
2429 Clouds 10 1010 87 10000 7.72 230 19:40 28.07.2022
2430 Drizzle 10 1011 87 10000 9.26 230 18:25 28.07.2022
2431 Drizzle 10 1011 100 10000 8.23 240 17:42 28.07.2022
2432 Mist 10 1011 100 2500 7.72 220 16:41 28.07.2022
2433 Fog 11 1010 100 1000 5.14 220 14:50 28.07.2022
2434 Mist 12 1009 100 1500 4.63 200 12:41 28.07.2022
2435 Fog 13 1008 100 800 3.09 210 09:34 28.07.2022
2436 Mist 13 1008 100 4000 5.14 160 05:45 28.07.2022
2437 Mist 15 1008 100 3000 1.54 240 05:24 28.07.2022
2438 Thunderstorm 15 1009 94 8000 7.2 110 00:29 28.07.2022
2439 Thunderstorm 15 1010 94 6000 6.69 160 22:26 27.07.2022
2440 Clear 17 1011 88 10000 4.63 110 20:20 27.07.2022
2441 Rain 18 1012 82 10000 5.66 120 19:34 27.07.2022
2442 Rain 15 1015 85 10000 5.14 70 16:54 27.07.2022
2443 Clear 14 1015 90 10000 7.72 90 15:51 27.07.2022
2444 Clouds 16 1015 86 10000 7.72 110 14:46 27.07.2022
2445 Rain 17 1015 83 10000 8.49 59 14:27 27.07.2022
2446 Thunderstorm 15 1016 91 8000 7.15 68 12:48 27.07.2022
2447 Clouds 14 1017 92 10000 4.12 100 07:53 27.07.2022
2448 Rain 14 1017 91 10000 4.63 130 06:18 27.07.2022
2449 Drizzle 20 1016 88 8000 2.06 90 00:46 27.07.2022
2450 Thunderstorm 19 1015 81 10000 2.57 30 22:24 26.07.2022
2451 Clouds 21 1015 78 10000 3.09 30 21:19 26.07.2022
2452 Clouds 22 1016 73 10000 4.63 30 19:40 26.07.2022
2453 Clouds 21 1017 78 10000 5.14 20 18:41 26.07.2022
2454 Clouds 21 1017 78 10000 5.14 20 17:57 26.07.2022
2455 Clouds 14 1018 91 10000 5.14 50 15:50 26.07.2022
2456 Rain 14 1018 91 10000 7.2 60 14:49 26.07.2022
2457 Clouds 13 1017 91 5000 7.72 50 12:50 26.07.2022
2458 Clouds 14 1016 88 10000 3.58 36 10:58 26.07.2022
2459 Thunderstorm 16 1017 85 10000 3.6 30 08:43 26.07.2022
2460 Clouds 15 1016 89 10000 4.63 60 05:30 26.07.2022
2461 Mist 14 1017 95 10000 4.92 56 00:27 26.07.2022
2462 Mist 14 1017 96 10000 6.17 50 22:51 25.07.2022
2463 Rain 14 1017 96 10000 6.17 50 22:22 25.07.2022
2464 Thunderstorm 14 1017 96 8000 5.14 50 21:38 25.07.2022
2465 Rain 13 1018 96 1000 3.13 48 20:40 25.07.2022
2466 Rain 12 1018 96 800 4.92 39 19:27 25.07.2022
2467 Rain 12 1019 96 1500 5.36 104 18:18 25.07.2022
2468 Mist 12 1019 95 1500 6.17 110 17:27 25.07.2022
2469 Thunderstorm 12 1021 99 2000 7.2 110 14:32 25.07.2022
2470 Fog 12 1019 94 600 6.17 130 11:50 25.07.2022
2471 Clouds 12 1018 94 10000 4.02 133 09:18 25.07.2022
2472 Clouds 12 1018 91 10000 3.13 82 03:23 25.07.2022
2473 Fog 12 1016 92 800 6.69 120 23:54 24.07.2022
2474 Mist 12 1016 93 1500 6.17 120 22:59 24.07.2022
2475 Mist 12 1016 93 1500 8.05 113 22:29 24.07.2022
2476 Mist 12 1015 92 2500 6.17 110 21:19 24.07.2022
2477 Mist 12 1015 93 2500 6.17 120 20:50 24.07.2022
2478 Mist 13 1015 100 2500 6.17 120 20:19 24.07.2022
2479 Fog 12 1016 95 300 6.71 152 18:46 24.07.2022
2480 Fog 12 1017 93 1000 2.57 90 16:29 24.07.2022
2481 Fog 12 1016 94 8000 3.6 120 15:50 24.07.2022
2482 Fog 13 1016 94 300 3.09 100 14:29 24.07.2022
2483 Fog 13 1015 94 50 2.06 100 12:54 24.07.2022
2484 Fog 13 1014 92 200 0 0 11:40 24.07.2022
2485 Fog 13 1014 92 200 0 0 11:18 24.07.2022
2486 Fog 13 1014 91 800 1.03 340 08:33 24.07.2022
2487 Mist 13 1014 91 5000 2.06 360 07:52 24.07.2022
2488 Clear 14 1014 85 10000 3.6 10 05:49 24.07.2022
2489 Clear 17 1012 83 10000 3.6 40 01:27 24.07.2022
2490 Clear 19 1011 75 10000 4.63 10 22:21 23.07.2022
2491 Clouds 19 1012 75 10000 6.17 10 20:28 23.07.2022
2492 Clouds 17 1012 81 10000 6.69 40 18:50 23.07.2022
2493 Mist 12 1014 91 5000 5.14 60 17:29 23.07.2022
2494 Mist 12 1014 92 1600 3.6 70 16:36 23.07.2022
2495 Mist 12 1015 92 1200 3.6 80 15:32 23.07.2022
2496 Mist 12 1015 92 1200 4.63 120 14:59 23.07.2022
2497 Mist 12 1015 92 1200 4.63 100 14:30 23.07.2022
2498 Mist 12 1015 91 1500 3.6 90 13:36 23.07.2022
2499 Mist 11 1014 92 4000 4.12 130 11:18 23.07.2022
2500 Fog 10 1015 92 600 2.57 100 10:22 23.07.2022
2501 Fog 10 1015 91 1500 2.06 100 08:50 23.07.2022
2502 Fog 12 1016 88 5000 1.34 72 03:40 23.07.2022
2503 Clear 12 1015 88 10000 4.63 120 01:33 23.07.2022
2504 Clear 12 1015 86 8000 4.12 130 23:19 22.07.2022
2505 Clear 12 1014 82 10000 4.63 120 20:57 22.07.2022
2506 Clouds 12 1014 82 10000 4.12 140 19:46 22.07.2022
2507 Clear 12 1015 84 10000 2.24 109 18:28 22.07.2022
2508 Clear 12 1015 84 10000 3.13 82 17:28 22.07.2022
2509 Clouds 11 1016 85 7000 4.12 110 14:57 22.07.2022
2510 Clear 10 1015 87 10000 2.24 82 11:49 22.07.2022
2511 Clear 10 1014 86 10000 1.79 68 09:27 22.07.2022
2512 Clear 10 1014 84 10000 3.13 60 08:43 22.07.2022
2513 Clear 11 1015 84 10000 3.09 120 07:20 22.07.2022
2514 Clear 11 1014 82 10000 3.6 110 03:43 22.07.2022
2515 Clear 12 1014 80 10000 6.69 130 22:53 21.07.2022
2516 Clear 12 1015 80 10000 5.66 130 21:34 21.07.2022
2517 Clear 12 1013 77 10000 5.14 170 19:30 21.07.2022
2518 Clear 13 1014 75 10000 5.66 170 18:28 21.07.2022
2519 Clear 13 1014 75 10000 5.14 180 17:19 21.07.2022
2520 Mist 14 1013 80 5000 5.66 230 15:39 21.07.2022
2521 Mist 14 1012 83 2000 3.58 285 14:39 21.07.2022
2522 Fog 14 1010 88 50 3.58 263 12:46 21.07.2022
2523 Clouds 14 1010 85 7000 3.6 280 11:23 21.07.2022
2524 Clear 14 1010 88 10000 2.57 320 09:42 21.07.2022
2525 Clear 14 1010 88 10000 2.57 300 08:52 21.07.2022
2526 Clear 14 1010 88 10000 3.6 320 07:50 21.07.2022
2527 Clear 15 1009 79 10000 3.6 340 06:25 21.07.2022
2528 Clear 17 1010 72 10000 2.68 22 01:42 21.07.2022
2529 Clear 18 1010 59 10000 5.14 20 22:22 20.07.2022
2530 Clear 18 1010 59 10000 5.14 20 22:22 20.07.2022
2531 Clear 18 1010 57 10000 5.66 10 21:42 20.07.2022
2532 Rain 18 1011 55 10000 5.14 20 20:39 20.07.2022
2533 Clear 17 1012 56 10000 4.63 360 19:43 20.07.2022
2534 Clear 17 1013 60 10000 7.72 10 18:52 20.07.2022
2535 Rain 15 1014 62 10000 7.72 10 18:29 20.07.2022
2536 Clear 12 1017 82 10000 7.2 10 16:46 20.07.2022
2537 Clear 9 1018 87 10000 5.66 10 15:32 20.07.2022
2538 Clear 7 1018 87 10000 6.17 30 14:32 20.07.2022
2539 Fog 5 1018 100 10000 4.12 20 12:41 20.07.2022
2540 Clear 6 1019 93 10000 2.57 30 10:28 20.07.2022
2541 Clear 8 1022 81 10000 3.6 20 05:44 20.07.2022
2542 Clear 11 1022 62 10000 3.09 60 00:54 20.07.2022
2543 Clear 11 1022 62 10000 3.09 60 00:36 20.07.2022
2544 Clear 14 1023 51 10000 4.63 20 22:34 19.07.2022
2545 Clear 15 1023 44 10000 5.66 20 21:53 19.07.2022
2546 Clear 15 1024 44 10000 4.12 40 20:49 19.07.2022
2547 Clear 14 1025 47 10000 3.6 40 19:22 19.07.2022
2548 Clear 14 1026 47 10000 4.63 40 18:35 19.07.2022
2549 Clear 13 1027 62 10000 3.6 50 17:51 19.07.2022
2550 Mist 8 1028 100 9000 2.57 50 15:26 19.07.2022
2551 Fog 4 1027 100 50 2.57 80 12:44 19.07.2022
2552 Fog 2 1027 100 50 0 0 11:32 19.07.2022
2553 Fog 1 1027 100 50 0 0 09:51 19.07.2022
2554 Fog 3 1027 100 50 0 0 08:46 19.07.2022
2555 Fog 6 1027 100 50 0 0 07:19 19.07.2022
2556 Fog 6 1026 100 500 0 0 06:27 19.07.2022
2557 Fog 6 1026 100 900 0 0 05:18 19.07.2022
2558 Mist 8 1025 93 4000 0 0 02:37 19.07.2022
2559 Clear 10 1024 81 10000 2.06 270 23:52 18.07.2022
2560 Clear 12 1023 69 10000 2.06 270 23:19 18.07.2022
2561 Clear 12 1023 66 10000 4.12 260 22:26 18.07.2022
2562 Clear 13 1022 63 10000 4.63 260 21:20 18.07.2022
2563 Clear 13 1022 62 10000 6.17 280 20:22 18.07.2022
2564 Clear 12 1022 64 10000 8.75 270 18:31 18.07.2022
2565 Clear 10 1022 67 10000 5.66 330 16:34 18.07.2022
2566 Clear 9 1023 70 10000 5.66 330 15:28 18.07.2022
2567 Clear 7 1021 77 10000 5.14 350 13:32 18.07.2022
2568 Clear 7 1020 78 10000 3.6 330 11:43 18.07.2022
2569 Clear 7 1019 77 10000 5.66 350 09:55 18.07.2022
2570 Clear 7 1019 77 10000 5.66 350 09:55 18.07.2022
2571 Clear 7 1019 73 10000 4.63 350 07:59 18.07.2022
2572 Clear 9 1020 68 10000 4.12 360 05:25 18.07.2022
2573 Clear 12 1017 47 10000 4.63 320 22:57 17.07.2022
2574 Clear 12 1017 47 10000 4.63 320 22:32 17.07.2022
2575 Clear 13 1017 45 10000 6.69 320 21:40 17.07.2022
2576 Clear 12 1017 44 10000 7.72 290 20:46 17.07.2022
2577 Clear 12 1017 43 10000 8.23 310 19:50 17.07.2022
2578 Clear 12 1017 45 10000 8.23 310 19:24 17.07.2022
2579 Clear 10 1018 54 10000 10.29 310 17:55 17.07.2022
2580 Clear 10 1019 55 10000 10.29 310 17:36 17.07.2022
2581 Clouds 9 1019 69 10000 6.69 310 16:45 17.07.2022
2582 Clouds 9 1019 71 10000 6.69 310 16:22 17.07.2022
2583 Clear 8 1018 71 10000 3.09 340 13:58 17.07.2022
2584 Clear 8 1017 69 10000 2.57 310 12:56 17.07.2022
2585 Clouds 7 1016 66 10000 4.47 230 10:23 17.07.2022
2586 Clouds 8 1015 64 10000 7.2 240 07:55 17.07.2022
2587 Clouds 9 1011 72 10000 6.17 240 02:36 17.07.2022
2588 Drizzle 9 1009 77 10000 7.72 210 00:33 17.07.2022
2589 Drizzle 8 1008 89 2000 9.26 200 22:43 16.07.2022
2590 Drizzle 9 1007 89 4000 9.39 197 20:53 16.07.2022
2591 Drizzle 9 1007 88 1000 8.05 176 18:59 16.07.2022
2592 Drizzle 9 1008 89 1500 6.71 186 17:48 16.07.2022
2593 Drizzle 9 1008 90 1500 6.26 210 16:23 16.07.2022
2594 Drizzle 9 1007 89 8000 6.26 205 13:36 16.07.2022
2595 Drizzle 10 1007 86 7000 7.72 210 10:35 16.07.2022
2596 Clouds 10 1007 90 10000 6.69 210 09:29 16.07.2022
2597 Drizzle 10 1009 91 7000 5.66 220 08:42 16.07.2022
2598 Drizzle 10 1010 91 3000 2.68 222 07:41 16.07.2022
2599 Mist 10 1008 90 3000 5.66 210 03:39 16.07.2022
2600 Fog 10 1008 92 800 5.14 220 01:39 16.07.2022
2601 Mist 11 1006 93 600 4.63 190 23:21 15.07.2022
2602 Mist 11 1007 92 1500 3.09 140 22:37 15.07.2022
2603 Fog 11 1006 93 700 5.14 200 21:18 15.07.2022
2604 Mist 11 1006 92 2000 5.66 190 19:51 15.07.2022
2605 Mist 11 1007 91 10000 5.14 170 18:32 15.07.2022
2606 Clouds 12 1007 91 7000 5.14 100 17:25 15.07.2022
2607 Fog 12 1007 94 300 5.14 190 14:35 15.07.2022
2608 Fog 13 1007 93 100 3.09 210 12:43 15.07.2022
2609 Mist 12 1006 91 1500 2.06 50 10:53 15.07.2022
2610 Mist 13 1008 92 3000 0 0 08:42 15.07.2022
2611 Drizzle 12 1008 90 1000 0 0 05:55 15.07.2022
2612 Clouds 15 1007 80 8000 5.14 70 00:51 15.07.2022
2613 Clouds 15 1007 82 8000 5.14 70 23:35 14.07.2022
2614 Clouds 13 1007 86 10000 5.66 80 22:42 14.07.2022
2615 Clouds 13 1007 86 10000 4.12 80 21:43 14.07.2022
2616 Clouds 13 1007 86 10000 4.12 80 21:24 14.07.2022
2617 Rain 13 1008 85 8000 4.63 70 20:43 14.07.2022
2618 Rain 13 1007 84 10000 5.66 50 20:19 14.07.2022
2619 Clouds 15 1009 74 10000 7.72 60 18:42 14.07.2022
2620 Clear 12 1013 80 10000 6.69 60 16:22 14.07.2022
2621 Clear 12 1013 79 10000 6.69 70 15:29 14.07.2022
2622 Clear 10 1013 82 10000 4.12 90 13:53 14.07.2022
2623 Clear 9 1013 80 10000 4.63 80 12:48 14.07.2022
2624 Clear 10 1013 79 10000 3.13 61 11:43 14.07.2022
2625 Clear 10 1013 79 10000 3.58 39 11:22 14.07.2022
2626 Clear 9 1014 80 10000 3.09 100 09:49 14.07.2022
2627 Clear 9 1017 77 10000 3.58 62 06:54 14.07.2022
2628 Clear 11 1016 64 10000 3.13 44 01:24 14.07.2022
2629 Clear 11 1016 59 10000 4.12 50 00:53 14.07.2022
2630 Clear 13 1016 51 10000 4.63 30 22:33 13.07.2022
2631 Clear 14 1016 49 10000 5.14 10 21:56 13.07.2022
2632 Clear 14 1017 49 10000 5.14 10 20:53 13.07.2022
2633 Clear 13 1018 54 10000 5.66 10 19:30 13.07.2022
2634 Clear 12 1019 62 10000 7.2 350 17:51 13.07.2022
2635 Clear 10 1020 68 10000 6.69 10 16:43 13.07.2022
2636 Clear 8 1020 70 10000 6.17 360 15:24 13.07.2022
2637 Clear 5 1019 78 10000 5.14 30 12:56 13.07.2022
2638 Clear 5 1018 74 10000 3.09 30 10:46 13.07.2022
2639 Clear 5 1018 74 10000 3.13 30 10:24 13.07.2022
2640 Clear 5 1019 75 10000 1.79 21 09:25 13.07.2022
2641 Clear 7 1019 71 10000 3.6 10 06:46 13.07.2022
2642 Clear 8 1019 64 10000 2.06 20 02:38 13.07.2022
2643 Clear 8 1019 68 10000 2.57 290 23:52 12.07.2022
2644 Clear 8 1018 64 10000 3.6 290 22:18 12.07.2022
2645 Clouds 9 1018 63 10000 4.12 280 21:35 12.07.2022
2646 Clouds 8 1018 64 10000 4.12 280 20:42 12.07.2022
2647 Clouds 8 1018 64 10000 3.6 260 19:37 12.07.2022
2648 Clouds 8 1019 69 10000 5.14 230 17:55 12.07.2022
2649 Clouds 8 1019 73 10000 6.17 220 16:20 12.07.2022
2650 Clouds 8 1019 67 10000 5.14 220 14:31 12.07.2022
2651 Clouds 8 1018 67 10000 6.17 230 13:21 12.07.2022
2652 Clouds 8 1016 69 10000 7.72 220 11:42 12.07.2022
2653 Rain 8 1015 70 10000 6.69 220 10:18 12.07.2022
2654 Clouds 8 1015 71 10000 7.72 220 08:38 12.07.2022
2655 Clouds 8 1015 73 10000 6.71 186 07:38 12.07.2022
2656 Drizzle 8 1014 83 10000 6.71 186 05:44 12.07.2022
2657 Clouds 9 1013 78 10000 7.2 200 03:50 12.07.2022
2658 Clouds 10 1011 79 10000 8.75 180 23:43 11.07.2022
2659 Clouds 10 1011 79 10000 8.23 190 22:37 11.07.2022
2660 Rain 10 1009 80 10000 8.49 194 20:54 11.07.2022
2661 Rain 10 1009 78 10000 8.94 181 20:29 11.07.2022
2662 Rain 10 1008 85 8000 8.05 176 18:39 11.07.2022
2663 Rain 10 1009 85 8000 6.69 160 17:57 11.07.2022
2664 Rain 11 1010 82 10000 6.17 140 16:26 11.07.2022
2665 Clouds 11 1010 84 10000 7.6 205 14:58 11.07.2022
2666 Rain 11 1008 84 10000 6.17 150 12:38 11.07.2022
2667 Thunderstorm 11 1009 87 8000 4.12 190 10:56 11.07.2022
2668 Thunderstorm 11 1007 87 8000 7.72 200 09:54 11.07.2022
2669 Thunderstorm 12 1006 88 10000 7.72 200 09:21 11.07.2022
2670 Clouds 12 1007 87 10000 4.47 176 07:52 11.07.2022
2671 Clouds 12 1006 87 8000 4.12 180 00:54 11.07.2022
2672 Clouds 13 1005 89 8000 4.12 150 23:53 10.07.2022
2673 Clouds 13 1004 86 10000 6.69 210 22:37 10.07.2022
2674 Clouds 18 1002 71 10000 5.66 310 20:55 10.07.2022
2675 Clouds 19 1002 67 10000 5.66 310 20:24 10.07.2022
2676 Clear 25 1003 57 10000 6.17 320 19:28 10.07.2022
2677 Clouds 24 1004 60 10000 9.26 350 17:59 10.07.2022
2678 Clear 23 1004 60 10000 7.72 360 16:59 10.07.2022
2679 Clear 23 1004 60 10000 7.72 360 16:20 10.07.2022
2680 Clouds 19 1004 77 10000 7.72 10 14:44 10.07.2022
2681 Clouds 19 1004 77 10000 7.72 10 13:18 10.07.2022
2682 Clear 19 1004 72 10000 5.66 30 11:39 10.07.2022
2683 Clear 18 1005 77 10000 5.66 20 09:45 10.07.2022
2684 Clear 18 1005 77 10000 5.14 10 08:43 10.07.2022
2685 Clear 19 1006 77 10000 8.23 20 06:39 10.07.2022
2686 Clear 19 1006 77 10000 6.17 30 23:47 09.07.2022
2687 Clear 19 1006 77 10000 7.2 20 22:26 09.07.2022
2688 Clear 20 1007 73 10000 8.75 10 21:41 09.07.2022
2689 Clouds 19 1009 77 10000 8.75 30 19:44 09.07.2022
2690 Clouds 19 1009 77 10000 8.75 30 19:44 09.07.2022
2691 Clouds 17 1010 82 10000 8.23 20 18:26 09.07.2022
2692 Clouds 17 1010 82 10000 8.23 20 18:26 09.07.2022
2693 Clouds 17 1012 77 10000 8.23 20 17:32 09.07.2022
2694 Clouds 15 1013 88 10000 7.72 30 16:34 09.07.2022
2695 Clear 14 1013 88 10000 6.17 30 15:39 09.07.2022
2696 Clouds 13 1014 94 10000 5.66 30 14:23 09.07.2022
2697 Clouds 12 1013 94 10000 6.69 40 13:48 09.07.2022
2698 Clouds 12 1013 94 10000 5.14 40 12:22 09.07.2022
2699 Clouds 13 1013 89 10000 4.12 60 10:27 09.07.2022
2700 Clouds 13 1014 89 10000 4.12 90 09:57 09.07.2022
2701 Thunderstorm 11 1016 85 10000 5.36 51 07:44 09.07.2022
2702 Thunderstorm 12 1020 49 10000 8.75 60 04:49 09.07.2022
2703 Rain 11 1019 67 10000 6.71 60 00:38 09.07.2022
2704 Clear 11 1020 69 10000 5.81 70 22:41 08.07.2022
2705 Clear 11 1020 64 10000 6.17 100 21:27 08.07.2022
2706 Clear 11 1020 65 10000 6.17 100 20:40 08.07.2022
2707 Clear 11 1021 61 10000 5.66 100 19:48 08.07.2022
2708 Clear 12 1023 41 10000 6.26 55 17:57 08.07.2022
2709 Clear 10 1023 54 10000 4.12 80 16:37 08.07.2022
2710 Fog 8 1024 67 10000 2.57 50 14:51 08.07.2022
2711 Clear 6 1024 78 10000 2.06 10 12:42 08.07.2022
2712 Clear 8 1023 69 10000 1.54 10 11:25 08.07.2022
2713 Clear 8 1023 67 10000 2.06 350 10:26 08.07.2022
2714 Clear 8 1023 65 10000 1.34 311 08:24 08.07.2022
2715 Clear 8 1023 69 10000 2.24 318 06:47 08.07.2022
2716 Clear 9 1020 66 10000 2.24 316 01:19 08.07.2022
2717 Clear 10 1018 58 10000 6.69 280 22:57 07.07.2022
2718 Clear 10 1018 55 10000 6.69 280 22:27 07.07.2022
2719 Clear 11 1017 58 10000 7.2 270 19:53 07.07.2022
2720 Clear 11 1017 62 10000 5.66 260 18:18 07.07.2022
2721 Clear 10 1016 66 10000 6.69 260 16:43 07.07.2022
2722 Clear 9 1014 71 10000 7.2 250 14:32 07.07.2022
2723 Clear 9 1012 87 10000 5.14 260 12:53 07.07.2022
2724 Clear 9 1012 87 10000 5.14 260 12:23 07.07.2022
2725 Clouds 10 1010 93 10000 4.12 260 11:35 07.07.2022
2726 Clouds 11 1010 93 10000 5.14 250 10:47 07.07.2022
2727 Clouds 11 1010 93 10000 5.14 250 10:29 07.07.2022
2728 Clouds 11 1008 100 10000 5.66 250 09:52 07.07.2022
2729 Drizzle 12 1005 88 8000 8.23 270 06:32 07.07.2022
2730 Clouds 15 1003 88 10000 2.24 27 00:31 07.07.2022
2731 Clouds 15 1004 86 10000 2.68 42 23:36 06.07.2022
2732 Clouds 15 1004 86 10000 2.24 44 23:18 06.07.2022
2733 Clouds 15 1004 86 10000 4.63 40 22:52 06.07.2022
2734 Rain 15 1004 86 10000 4.63 40 22:33 06.07.2022
2735 Rain 15 1004 86 10000 4.63 40 22:33 06.07.2022
2736 Clouds 12 1005 87 10000 4.63 40 20:30 06.07.2022
2737 Clouds 12 1005 87 10000 4.63 40 20:30 06.07.2022
2738 Clouds 12 1006 87 10000 5.14 40 19:32 06.07.2022
2739 Rain 12 1010 85 10000 6.69 50 17:22 06.07.2022
2740 Clouds 13 1012 79 10000 6.17 50 15:58 06.07.2022
2741 Drizzle 12 1014 85 10000 4.63 50 12:57 06.07.2022
2742 Drizzle 11 1014 86 10000 4.63 50 12:28 06.07.2022
2743 Clouds 11 1014 85 10000 3.58 34 11:44 06.07.2022
2744 Clouds 10 1015 84 10000 2.24 34 09:50 06.07.2022
2745 Clouds 9 1016 85 10000 3.6 60 07:44 06.07.2022
2746 Clear 9 1016 83 10000 3.6 80 06:49 06.07.2022
2747 Mist 10 1018 93 1500 4.63 120 00:38 06.07.2022
2748 Fog 13 1017 76 10000 3.6 120 22:43 05.07.2022
2749 Clouds 14 1017 77 10000 3.09 160 20:49 05.07.2022
2750 Clouds 14 1017 77 10000 3.09 160 20:31 05.07.2022
2751 Clouds 14 1017 77 10000 3.09 180 19:38 05.07.2022
2752 Clouds 13 1018 88 8000 2.06 60 17:51 05.07.2022
2753 Clouds 13 1018 88 8000 2.06 60 17:25 05.07.2022
2754 Mist 12 1018 94 3000 2.57 160 16:32 05.07.2022
2755 Fog 9 1018 100 500 0.51 0 14:54 05.07.2022
2756 Fog 6 1017 100 200 1.54 30 13:36 05.07.2022
2757 Fog 8 1017 100 10000 3.09 180 12:26 05.07.2022
2758 Clouds 9 1016 100 10000 2.57 160 10:46 05.07.2022
2759 Clouds 10 1017 100 10000 3.09 110 09:58 05.07.2022
2760 Clouds 10 1017 100 10000 4.63 130 08:23 05.07.2022
2761 Drizzle 11 1016 100 1000 5.66 160 06:59 05.07.2022
2762 Fog 11 1015 100 50 2.06 260 04:37 05.07.2022
2763 Fog 12 1014 92 500 0 0 01:33 05.07.2022
2764 Drizzle 11 1014 91 100 1.54 210 23:38 04.07.2022
2765 Fog 11 1013 92 200 1.54 190 22:57 04.07.2022
2766 Drizzle 12 1013 92 200 1.03 0 22:19 04.07.2022
2767 Fog 12 1013 100 800 2.06 170 20:57 04.07.2022
2768 Drizzle 13 1013 100 1200 2.06 150 20:36 04.07.2022
2769 Drizzle 13 1013 94 1500 2.06 150 19:57 04.07.2022
2770 Drizzle 13 1013 94 1500 0.51 0 19:37 04.07.2022
2771 Clouds 13 1015 88 8000 2.57 80 18:52 04.07.2022
2772 Clouds 11 1017 87 10000 3.6 70 16:54 04.07.2022
2773 Clouds 11 1016 82 10000 6.17 90 15:35 04.07.2022
2774 Clouds 10 1017 81 10000 4.12 100 14:19 04.07.2022
2775 Clear 9 1017 87 10000 5.14 100 12:55 04.07.2022
2776 Clear 9 1019 76 10000 2.57 110 10:57 04.07.2022
2777 Clear 9 1019 76 10000 2.57 110 10:27 04.07.2022
2778 Clear 7 1019 76 10000 3.09 100 09:21 04.07.2022
2779 Rain 7 1021 81 10000 4.63 60 06:27 04.07.2022
2780 Clear 9 1022 87 10000 3.6 110 01:49 04.07.2022
2781 Clear 10 1022 71 10000 4.12 120 23:39 03.07.2022
2782 Clear 13 1022 44 10000 5.14 120 22:29 03.07.2022
2783 Clear 14 1022 44 10000 3.09 130 20:45 03.07.2022
2784 Clear 13 1023 44 10000 2.57 90 19:52 03.07.2022
2785 Clear 13 1023 44 10000 2.57 90 19:24 03.07.2022
2786 Clear 11 1023 62 10000 4.63 50 18:27 03.07.2022
2787 Clear 10 1024 66 10000 3.6 30 17:38 03.07.2022
2788 Clear 4 1024 93 10000 3.6 20 15:27 03.07.2022
2789 Clear 3 1023 93 10000 3.09 20 14:53 03.07.2022
2790 Fog 1 1022 93 10000 2.06 30 13:50 03.07.2022
2791 Fog 2 1022 93 10000 2.57 10 12:44 03.07.2022
2792 Fog 2 1022 93 10000 2.57 10 12:18 03.07.2022
2793 Fog 1 1022 100 800 1.54 350 10:54 03.07.2022
2794 Fog 1 1022 100 800 1.54 350 10:35 03.07.2022
2795 Fog 3 1021 100 800 1.03 0 07:38 03.07.2022
2796 Fog 4 1020 100 3000 2.06 350 06:34 03.07.2022
2797 Clear 7 1017 93 10000 1.54 280 00:38 03.07.2022
2798 Clear 8 1017 87 10000 2.06 260 23:36 02.07.2022
2799 Clear 10 1016 76 10000 3.6 280 22:31 02.07.2022
2800 Clouds 11 1015 71 10000 5.14 240 20:28 02.07.2022
2801 Clouds 11 1015 71 10000 5.66 240 19:49 02.07.2022
2802 Clouds 11 1014 71 10000 5.66 230 18:24 02.07.2022
2803 Clouds 11 1014 76 10000 5.66 240 17:38 02.07.2022
2804 Clouds 10 1013 87 10000 4.63 250 15:56 02.07.2022
2805 Mist 8 1011 100 1000 4.12 280 13:35 02.07.2022
2806 Clouds 9 1009 100 10000 4.63 270 11:48 02.07.2022
2807 Clear 9 1008 100 10000 3.09 280 10:50 02.07.2022
2808 Clear 9 1008 100 10000 3.09 280 10:21 02.07.2022
2809 Clear 9 1008 100 10000 2.57 290 08:37 02.07.2022
2810 Clear 9 1008 100 10000 2.57 290 08:19 02.07.2022
2811 Rain 10 1008 100 7000 2.57 20 02:59 02.07.2022
2812 Rain 9 1007 100 3000 5.14 40 00:28 02.07.2022
2813 Rain 10 1007 87 3000 5.14 60 23:21 01.07.2022
2814 Rain 11 1007 76 2000 6.17 50 22:33 01.07.2022
2815 Rain 13 1008 62 10000 5.14 50 21:38 01.07.2022
2816 Clouds 13 1008 62 10000 6.69 40 20:58 01.07.2022
2817 Clear 13 1009 54 10000 7.2 60 20:32 01.07.2022
2818 Clear 13 1009 44 10000 9.26 40 19:36 01.07.2022
2819 Clear 10 1012 60 10000 8.23 60 16:42 01.07.2022
2820 Clear 6 1015 65 10000 6.69 60 14:32 01.07.2022
2821 Clear 5 1016 60 10000 6.69 40 13:51 01.07.2022
2822 Clear 3 1016 60 10000 2.57 50 11:22 01.07.2022
2823 Clear 4 1016 60 10000 3.6 50 10:19 01.07.2022
2824 Clear 6 1018 56 10000 3.09 60 07:32 01.07.2022
2825 Mist 7 1020 70 5000 0 0 02:43 01.07.2022
2826 Clear 9 1019 81 10000 0 0 00:21 01.07.2022
2827 Clear 12 1018 47 10000 2.57 180 22:52 30.06.2022
2828 Clear 12 1018 47 10000 2.57 180 22:32 30.06.2022
2829 Clear 12 1018 47 10000 2.57 180 22:32 30.06.2022
2830 Clear 12 1018 47 10000 2.57 180 22:32 30.06.2022
2831 Clear 12 1018 47 10000 3.09 200 21:54 30.06.2022
2832 Clear 13 1019 50 10000 3.6 210 20:53 30.06.2022
2833 Clear 13 1018 50 10000 3.6 190 20:21 30.06.2022
2834 Clear 13 1019 58 10000 5.66 200 19:48 30.06.2022
2835 Clear 13 1019 58 10000 5.66 200 18:56 30.06.2022
2836 Clear 15 1018 41 10000 3.6 200 18:34 30.06.2022
2837 Clear 14 1019 58 10000 4.12 190 17:36 30.06.2022
2838 Clear 13 1019 71 10000 4.63 190 16:22 30.06.2022
2839 Clear 7 1017 93 10000 2.57 300 14:20 30.06.2022
2840 Clear 6 1017 93 10000 3.09 280 13:29 30.06.2022
2841 Clear 5 1015 100 10000 2.57 320 12:34 30.06.2022
2842 Clear 7 1014 93 10000 3.09 350 11:21 30.06.2022
2843 Clear 9 1015 87 10000 3.09 310 09:52 30.06.2022
2844 Clear 9 1015 87 10000 3.09 310 09:29 30.06.2022
2845 Clear 9 1014 87 10000 3.09 330 07:41 30.06.2022
2846 Clear 11 1014 76 10000 3.6 340 05:46 30.06.2022
2847 Clear 13 1012 58 10000 5.14 340 00:27 30.06.2022
2848 Clear 17 1012 45 10000 5.14 330 22:58 29.06.2022
2849 Clear 17 1012 45 10000 5.14 330 22:37 29.06.2022
2850 Clear 18 1012 42 10000 6.17 320 21:31 29.06.2022
2851 Clear 18 1013 42 10000 7.2 320 20:33 29.06.2022
2852 Clear 18 1013 45 10000 6.69 320 19:36 29.06.2022
2853 Clear 16 1015 67 10000 9.77 300 17:42 29.06.2022
2854 Clear 12 1016 71 10000 5.14 300 16:35 29.06.2022
2855 Clear 6 1016 87 10000 3.09 340 14:50 29.06.2022
2856 Clear 4 1015 93 10000 2.57 350 12:39 29.06.2022
2857 Clear 4 1015 100 10000 2.57 360 10:37 29.06.2022
2858 Clear 5 1015 93 10000 2.06 340 09:32 29.06.2022
2859 Clear 6 1016 100 10000 2.06 340 07:36 29.06.2022
2860 Fog 5 1016 100 800 2.57 310 04:50 29.06.2022
2861 Clear 8 1015 93 10000 2.06 280 00:56 29.06.2022
2862 Clear 8 1015 93 10000 2.06 280 00:35 29.06.2022
2863 Clear 10 1015 87 10000 2.06 290 22:53 28.06.2022
2864 Clear 10 1015 87 10000 2.06 290 22:23 28.06.2022
2865 Clear 11 1015 76 10000 2.57 280 21:53 28.06.2022
2866 Clear 11 1015 76 10000 2.57 280 21:31 28.06.2022
2867 Clouds 11 1015 82 10000 3.09 250 20:34 28.06.2022
2868 Clouds 11 1015 76 10000 3.6 260 19:33 28.06.2022
2869 Clouds 11 1015 76 10000 3.6 260 19:33 28.06.2022
2870 Rain 12 1016 76 10000 3.6 260 18:45 28.06.2022
2871 Rain 12 1016 76 10000 3.6 260 18:45 28.06.2022
2872 Rain 10 1017 93 10000 3.09 250 17:39 28.06.2022
2873 Clouds 10 1017 93 8000 3.09 250 15:57 28.06.2022
2874 Mist 9 1016 93 8000 2.06 270 15:36 28.06.2022
2875 Mist 8 1016 93 5000 1.54 290 14:20 28.06.2022
2876 Mist 7 1016 100 5000 1.54 330 13:51 28.06.2022
2877 Fog 7 1017 100 1000 2.57 310 12:55 28.06.2022
2878 Rain 7 1016 100 7000 2.06 20 11:18 28.06.2022
2879 Fog 7 1016 100 7000 1.54 320 09:28 28.06.2022
2880 Fog 7 1016 100 4000 1.54 250 08:43 28.06.2022
2881 Mist 7 1017 100 5000 2.06 340 07:42 28.06.2022
2882 Mist 8 1017 100 4000 1.54 320 06:20 28.06.2022
2883 Rain 9 1015 87 10000 1.03 0 00:56 28.06.2022
2884 Clear 9 1015 93 10000 2.06 330 23:37 27.06.2022
2885 Clear 10 1015 87 10000 2.06 310 22:52 27.06.2022
2886 Rain 10 1015 87 10000 2.06 290 21:37 27.06.2022
2887 Rain 10 1016 87 10000 2.57 330 20:52 27.06.2022
2888 Rain 10 1016 87 10000 3.09 320 19:31 27.06.2022
2889 Clear 10 1017 87 10000 2.06 320 18:25 27.06.2022
2890 Rain 9 1018 87 10000 3.6 10 16:20 27.06.2022
2891 Rain 9 1019 87 10000 2.57 360 15:22 27.06.2022
2892 Rain 8 1018 93 8000 3.09 30 13:36 27.06.2022
2893 Rain 8 1018 93 8000 3.09 30 12:56 27.06.2022
2894 Clear 8 1018 93 10000 2.06 20 10:34 27.06.2022
2895 Rain 8 1019 93 10000 2.06 20 09:18 27.06.2022
2896 Rain 8 1020 87 10000 2.57 30 08:29 27.06.2022
2897 Rain 8 1021 81 10000 2.06 80 06:38 27.06.2022
2898 Rain 8 1022 76 10000 2.06 90 03:24 27.06.2022
2899 Rain 8 1024 71 9000 2.57 100 23:56 26.06.2022
2900 Mist 9 1023 66 5000 2.57 100 21:59 26.06.2022
2901 Rain 9 1023 66 5000 4.12 110 20:44 26.06.2022
2902 Mist 9 1024 75 5000 3.09 110 19:40 26.06.2022
2903 Mist 9 1025 78 4000 1.79 203 18:31 26.06.2022
2904 Mist 9 1027 69 3500 1.03 0 16:45 26.06.2022
2905 Fog 8 1026 78 800 1.34 342 14:42 26.06.2022
2906 Fog 8 1026 77 800 2.06 90 13:38 26.06.2022
2907 Fog 8 1026 77 800 2.06 90 13:18 26.06.2022
2908 Clouds 8 1026 73 10000 3.13 108 11:26 26.06.2022
2909 Mist 8 1027 75 2000 2.68 142 10:26 26.06.2022
2910 Mist 8 1028 75 2000 0.89 176 09:22 26.06.2022
2911 Mist 8 1029 73 2500 1.79 171 07:44 26.06.2022
2912 Clouds 9 1030 70 10000 1.34 205 01:55 26.06.2022
2913 Clouds 9 1030 75 10000 1.54 210 00:21 26.06.2022
2914 Clouds 9 1030 74 10000 2.06 200 23:49 25.06.2022
2915 Clouds 9 1030 74 10000 2.24 202 23:20 25.06.2022
2916 Clouds 9 1029 74 10000 4.12 180 22:27 25.06.2022
2917 Rain 9 1029 74 10000 5.14 200 21:40 25.06.2022
2918 Clouds 9 1029 74 10000 5.14 200 21:18 25.06.2022
2919 Clouds 9 1030 75 10000 5.14 200 20:27 25.06.2022
2920 Clouds 10 1030 74 10000 5.14 210 19:21 25.06.2022
2921 Clouds 10 1031 76 10000 3.6 210 17:57 25.06.2022
2922 Rain 10 1031 76 10000 3.6 210 17:22 25.06.2022
2923 Clouds 9 1031 80 10000 3.09 210 15:36 25.06.2022
2924 Clouds 9 1031 81 10000 2.68 204 13:34 25.06.2022
2925 Rain 9 1030 80 10000 3.58 201 12:38 25.06.2022
2926 Clouds 9 1029 75 10000 4.47 186 10:35 25.06.2022
2927 Clouds 9 1029 75 10000 4.02 192 08:59 25.06.2022
2928 Clouds 9 1029 75 10000 4.92 186 08:37 25.06.2022
2929 Clouds 9 1029 77 10000 4.02 186 08:18 25.06.2022
2930 Clouds 9 1029 75 10000 4.92 176 03:34 25.06.2022
2931 Clouds 9 1027 74 10000 4.02 186 00:35 25.06.2022
2932 Clouds 9 1026 75 10000 4.63 170 22:54 24.06.2022
2933 Clouds 10 1025 76 10000 4.63 180 21:42 24.06.2022
2934 Clouds 11 1024 76 10000 4.12 150 20:48 24.06.2022
2935 Clouds 11 1024 76 10000 4.12 150 20:19 24.06.2022
2936 Clouds 10 1024 81 10000 4.12 140 19:21 24.06.2022
2937 Clouds 10 1024 81 10000 4.12 110 18:49 24.06.2022
2938 Clouds 10 1024 81 10000 4.12 110 18:30 24.06.2022
2939 Clouds 10 1024 81 10000 4.63 120 17:20 24.06.2022
2940 Drizzle 9 1024 93 10000 4.63 120 15:47 24.06.2022
2941 Drizzle 9 1024 87 10000 4.12 140 14:28 24.06.2022
2942 Clouds 9 1023 87 10000 3.6 150 13:55 24.06.2022
2943 Clouds 9 1022 93 10000 3.09 150 11:44 24.06.2022
2944 Clouds 9 1022 93 10000 3.09 150 11:18 24.06.2022
2945 Rain 10 1022 76 10000 2.57 150 09:55 24.06.2022
2946 Clouds 10 1022 76 10000 2.57 150 09:29 24.06.2022
2947 Clouds 10 1022 76 10000 2.06 130 08:52 24.06.2022
2948 Clouds 10 1022 76 10000 2.57 140 06:48 24.06.2022
2949 Clouds 10 1022 76 10000 2.57 140 06:30 24.06.2022
2950 Clouds 10 1021 76 10000 3.6 130 05:52 24.06.2022
2951 Clouds 10 1021 76 10000 3.6 140 01:28 24.06.2022
2952 Clouds 9 1020 81 10000 4.12 170 22:45 23.06.2022
2953 Clouds 9 1020 81 10000 4.12 170 22:18 23.06.2022
2954 Clouds 10 1020 81 10000 4.12 170 20:54 23.06.2022
2955 Clouds 10 1020 81 10000 4.12 170 20:32 23.06.2022
2956 Clouds 9 1021 87 10000 5.66 170 18:49 23.06.2022
2957 Clouds 9 1021 87 10000 6.17 160 17:50 23.06.2022
2958 Drizzle 8 1022 93 2000 5.66 160 16:42 23.06.2022
2959 Drizzle 8 1022 93 2000 5.14 170 15:43 23.06.2022
2960 Drizzle 8 1022 93 2000 4.63 170 15:23 23.06.2022
2961 Mist 7 1020 93 9000 3.09 150 12:43 23.06.2022
2962 Drizzle 8 1020 93 5000 2.06 160 11:20 23.06.2022
2963 Rain 8 1020 87 10000 2.57 150 09:46 23.06.2022
2964 Rain 8 1020 87 10000 3.6 150 08:18 23.06.2022
2965 Rain 9 1020 71 10000 7.2 150 02:19 23.06.2022
2966 Clouds 8 1019 76 10000 7.2 160 00:25 23.06.2022
2967 Clouds 8 1018 76 10000 6.17 160 23:27 22.06.2022
2968 Clouds 9 1018 66 10000 6.69 160 22:24 22.06.2022
2969 Clouds 9 1019 61 10000 6.17 130 20:57 22.06.2022
2970 Clouds 9 1019 61 10000 6.17 130 20:21 22.06.2022
2971 Clouds 9 1019 61 10000 6.69 140 19:48 22.06.2022
2972 Clouds 9 1019 66 10000 6.69 140 18:21 22.06.2022
2973 Clouds 9 1020 61 10000 6.69 150 17:24 22.06.2022
2974 Clouds 9 1020 61 10000 7.2 130 16:18 22.06.2022
2975 Clouds 8 1020 66 10000 6.17 150 15:25 22.06.2022
2976 Clouds 7 1020 70 10000 6.17 150 13:52 22.06.2022
2977 Clouds 7 1020 70 10000 6.17 150 13:26 22.06.2022
2978 Clear 7 1020 70 10000 5.66 150 12:56 22.06.2022
2979 Clouds 8 1020 61 10000 6.17 160 11:47 22.06.2022
2980 Clouds 8 1019 71 10000 7.2 160 10:54 22.06.2022
2981 Clouds 9 1019 71 10000 8.23 160 09:54 22.06.2022
2982 Clouds 9 1021 70 10000 7.87 150 07:56 22.06.2022
2983 Clouds 9 1019 71 10000 8.75 160 03:30 22.06.2022
2984 Clouds 10 1017 71 10000 6.69 170 01:22 22.06.2022
2985 Clouds 11 1015 87 10000 8.23 170 23:41 21.06.2022
2986 Clouds 12 1015 82 10000 7.2 140 21:32 21.06.2022
2987 Clouds 13 1014 76 10000 9.26 150 19:47 21.06.2022
2988 Clouds 13 1014 71 10000 8.75 150 18:32 21.06.2022
2989 Clouds 12 1014 82 10000 7.72 160 17:25 21.06.2022
2990 Fog 7 1014 93 10000 2.57 130 13:33 21.06.2022
2991 Clear 10 1013 84 10000 2.24 126 11:31 21.06.2022
2992 Clear 8 1015 81 10000 1.03 180 09:48 21.06.2022
2993 Clear 9 1015 71 10000 1.03 220 08:37 21.06.2022
2994 Clear 9 1015 68 10000 1.79 53 06:35 21.06.2022
2995 Mist 11 1016 88 4000 3.6 100 00:44 21.06.2022
2996 Mist 11 1016 84 5000 4.63 110 23:18 20.06.2022
2997 Clear 11 1015 74 10000 5.14 120 21:52 20.06.2022
2998 Clear 11 1015 71 10000 3.6 20 20:47 20.06.2022
2999 Clear 11 1016 69 10000 2.68 55 19:39 20.06.2022
3000 Clear 11 1017 71 10000 2.57 30 18:45 20.06.2022
3001 Clear 12 1017 68 10000 2.57 30 17:52 20.06.2022
3002 Clear 12 1018 60 10000 2.57 30 17:32 20.06.2022
3003 Clouds 9 1019 65 8000 2.06 40 15:56 20.06.2022
3004 Clear 7 1018 74 10000 2.06 30 12:54 20.06.2022
3005 Clear 8 1018 74 10000 1.03 0 10:58 20.06.2022
3006 Clouds 9 1018 77 8000 0.51 0 09:41 20.06.2022
3007 Clouds 9 1018 78 7000 0.51 0 08:44 20.06.2022
3008 Mist 9 1019 77 4000 1.03 0 06:37 20.06.2022
3009 Clear 11 1018 66 10000 1.54 240 02:56 20.06.2022
3010 Clear 13 1017 53 10000 2.06 310 00:32 20.06.2022
3011 Clear 14 1016 47 10000 3.09 290 23:18 19.06.2022
3012 Clear 15 1015 44 10000 7.2 300 21:59 19.06.2022
3013 Clear 14 1015 45 10000 7.2 300 21:40 19.06.2022
3014 Clear 15 1015 36 10000 6.17 310 20:44 19.06.2022
3015 Clear 16 1016 36 10000 7.72 320 19:48 19.06.2022
3016 Clear 16 1015 35 10000 7.72 320 19:20 19.06.2022
3017 Clear 16 1016 34 10000 8.75 300 18:30 19.06.2022
3018 Clear 15 1017 36 10000 7.72 310 17:34 19.06.2022
3019 Clear 13 1017 46 10000 6.69 330 16:38 19.06.2022
3020 Clear 11 1017 50 10000 5.14 350 15:44 19.06.2022
3021 Clear 10 1017 50 10000 5.14 350 15:25 19.06.2022
3022 Clear 8 1017 58 10000 5.14 360 14:20 19.06.2022
3023 Clear 8 1017 60 10000 5.14 360 13:43 19.06.2022
3024 Clear 8 1016 58 10000 4.63 350 11:52 19.06.2022
3025 Clear 8 1016 59 10000 4.92 327 10:49 19.06.2022
3026 Clear 9 1016 57 10000 5.14 340 08:54 19.06.2022
3027 Clear 9 1016 57 10000 5.14 340 08:30 19.06.2022
3028 Clear 10 1016 52 10000 5.14 340 06:41 19.06.2022
3029 Clear 10 1016 48 10000 3.6 340 03:19 19.06.2022
3030 Clear 12 1016 42 10000 4.12 340 00:27 19.06.2022
3031 Clear 13 1016 39 10000 3.6 320 23:37 18.06.2022
3032 Clear 13 1016 37 10000 3.6 320 23:19 18.06.2022
3033 Clear 14 1015 32 10000 7.72 300 21:54 18.06.2022
3034 Clear 14 1015 32 10000 7.72 300 20:50 18.06.2022
3035 Clear 13 1016 32 10000 6.69 290 19:50 18.06.2022
3036 Clear 12 1016 32 10000 6.17 300 18:54 18.06.2022
3037 Clear 12 1017 33 10000 6.17 300 18:30 18.06.2022
3038 Clear 11 1017 43 10000 6.69 300 17:28 18.06.2022
3039 Clear 9 1018 66 10000 3.09 300 15:39 18.06.2022
3040 Clear 7 1018 68 10000 3.13 346 14:50 18.06.2022
3041 Clear 7 1017 63 10000 2.57 330 13:58 18.06.2022
3042 Clear 8 1016 58 10000 2.68 271 12:28 18.06.2022
3043 Clear 8 1015 56 10000 3.13 293 10:59 18.06.2022
3044 Clear 8 1015 59 10000 3.6 240 09:31 18.06.2022
3045 Clear 8 1015 58 10000 4.63 240 08:40 18.06.2022
3046 Clouds 8 1015 59 10000 5.66 220 07:34 18.06.2022
3047 Clouds 8 1014 59 10000 7.2 240 05:20 18.06.2022
3048 Clouds 10 1012 54 10000 7.2 240 01:47 18.06.2022
3049 Clouds 10 1012 54 10000 7.2 240 01:21 18.06.2022
3050 Clouds 10 1011 54 10000 8.23 250 00:23 18.06.2022
3051 Clouds 10 1010 54 10000 7.2 240 23:36 17.06.2022
3052 Clouds 10 1009 54 10000 8.23 240 22:27 17.06.2022
3053 Clouds 11 1008 59 10000 8.23 270 20:29 17.06.2022
3054 Clouds 10 1008 62 10000 8.75 260 19:24 17.06.2022
3055 Clouds 10 1008 62 10000 8.75 260 19:24 17.06.2022
3056 Clear 11 1008 67 10000 9.26 260 17:56 17.06.2022
3057 Clear 11 1008 68 10000 6.17 280 16:44 17.06.2022
3058 Clear 11 1008 69 10000 6.17 280 16:25 17.06.2022
3059 Clouds 10 1009 74 10000 4.63 300 15:40 17.06.2022
3060 Clouds 9 1008 85 8000 4.02 288 14:23 17.06.2022
3061 Mist 9 1008 84 4000 3.09 270 13:58 17.06.2022
3062 Mist 9 1008 84 4000 3.09 270 13:58 17.06.2022
3063 Mist 9 1008 85 4000 3.09 270 13:38 17.06.2022
3064 Drizzle 9 1008 92 1200 7.72 220 12:24 17.06.2022
3065 Clouds 9 1008 93 10000 4.47 263 11:55 17.06.2022
3066 Clouds 10 1008 93 10000 3.13 277 11:33 17.06.2022
3067 Fog 10 1008 93 200 1.54 220 08:58 17.06.2022
3068 Fog 10 1008 93 200 1.54 220 08:25 17.06.2022
3069 Fog 10 1010 94 700 2.06 180 06:44 17.06.2022
3070 Mist 10 1010 91 3000 2.24 194 03:59 17.06.2022
3071 Mist 12 1009 86 5000 1.34 40 01:56 17.06.2022
3072 Clear 12 1009 84 10000 0.51 0 23:47 16.06.2022
3073 Clear 13 1010 79 10000 2.06 20 22:42 16.06.2022
3074 Clear 13 1010 78 10000 1.54 120 21:22 16.06.2022
3075 Clear 13 1011 76 10000 1.54 0 20:52 16.06.2022
3076 Clear 13 1011 77 10000 1.54 0 20:33 16.06.2022
3077 Clear 14 1011 71 10000 1.03 0 19:32 16.06.2022
3078 Clear 14 1012 79 10000 1.54 30 18:24 16.06.2022
3079 Clear 14 1013 76 10000 1.03 0 17:42 16.06.2022
3080 Clear 14 1014 78 10000 2.06 330 16:33 16.06.2022
3081 Clear 13 1015 81 10000 2.57 340 15:22 16.06.2022
3082 Clear 13 1015 82 10000 2.24 294 14:37 16.06.2022
3083 Fog 12 1015 84 10000 2.57 10 13:20 16.06.2022
3084 Fog 12 1014 84 10000 4.63 20 12:36 16.06.2022
3085 Fog 12 1014 82 4000 2.68 336 11:49 16.06.2022
3086 Mist 13 1014 80 2000 1.79 314 10:55 16.06.2022
3087 Mist 13 1014 80 2000 2.24 315 09:53 16.06.2022
3088 Fog 13 1014 80 5000 1.79 343 09:21 16.06.2022
3089 Fog 13 1014 80 8000 2.24 321 08:28 16.06.2022
3090 Clear 13 1015 79 10000 2.57 20 07:24 16.06.2022
3091 Clouds 14 1015 74 8000 2.06 30 04:42 16.06.2022
3092 Clear 14 1015 71 10000 2.06 20 02:20 16.06.2022
3093 Clear 14 1015 74 10000 3.6 50 01:35 16.06.2022
3094 Clear 14 1015 74 10000 3.6 60 00:39 16.06.2022
3095 Clear 15 1014 70 10000 2.57 90 23:43 15.06.2022
3096 Clear 14 1014 72 10000 2.57 60 22:35 15.06.2022
3097 Clouds 14 1014 73 10000 2.57 160 21:22 15.06.2022
3098 Clouds 14 1015 74 10000 1.54 20 20:42 15.06.2022
3099 Clouds 15 1015 74 10000 1.54 20 20:23 15.06.2022
3100 Clouds 16 1015 71 10000 3.09 360 19:29 15.06.2022
3101 Clear 17 1016 65 10000 3.09 10 17:56 15.06.2022
3102 Clear 15 1016 69 10000 3.09 10 17:25 15.06.2022
3103 Clear 13 1017 75 10000 4.12 10 15:37 15.06.2022
3104 Clear 11 1017 84 10000 3.09 10 14:18 15.06.2022
3105 Clear 11 1017 84 10000 2.24 5 12:54 15.06.2022
3106 Clear 12 1017 80 10000 2.06 20 11:58 15.06.2022
3107 Clouds 12 1017 78 10000 2.24 1 10:24 15.06.2022
3108 Clouds 13 1017 76 10000 1.79 352 09:43 15.06.2022
3109 Clouds 13 1017 76 10000 2.68 348 08:40 15.06.2022
3110 Clouds 13 1017 78 10000 2.68 26 06:34 15.06.2022
3111 Clouds 12 1017 81 10000 1.34 3 04:34 15.06.2022
3112 Clear 13 1016 76 10000 2.06 60 01:54 15.06.2022
3113 Clear 13 1016 74 10000 3.09 30 00:50 15.06.2022
3114 Clear 15 1016 70 10000 2.57 50 23:39 14.06.2022
3115 Clear 15 1016 70 10000 2.57 50 23:21 14.06.2022
3116 Clear 16 1016 63 10000 2.57 20 22:23 14.06.2022
3117 Clear 17 1016 60 10000 4.63 30 21:38 14.06.2022
3118 Clear 17 1016 60 10000 4.12 10 20:54 14.06.2022
3119 Clear 17 1016 60 10000 4.12 10 20:31 14.06.2022
3120 Clear 17 1017 59 10000 5.14 10 19:20 14.06.2022
3121 Clear 16 1017 62 10000 6.17 360 18:20 14.06.2022
3122 Clear 14 1018 67 10000 7.72 10 16:47 14.06.2022
3123 Clear 13 1019 75 10000 6.69 20 15:50 14.06.2022
3124 Clear 12 1019 77 10000 6.69 20 15:28 14.06.2022
3125 Clear 10 1019 82 10000 5.14 20 14:37 14.06.2022
3126 Clear 9 1019 86 10000 6.17 30 13:46 14.06.2022
3127 Fog 9 1019 87 10000 4.63 30 12:45 14.06.2022
3128 Clouds 8 1018 86 10000 1.79 44 11:41 14.06.2022
3129 Clouds 8 1019 85 10000 2.24 48 10:48 14.06.2022
3130 Clouds 9 1019 83 10000 1.79 38 10:22 14.06.2022
3131 Clouds 9 1019 80 10000 2.68 13 08:49 14.06.2022
3132 Clouds 9 1019 78 10000 3.13 11 07:49 14.06.2022
3133 Clouds 10 1020 72 10000 3.13 30 05:46 14.06.2022
3134 Clouds 12 1020 52 10000 3.58 29 03:20 14.06.2022
3135 Clear 11 1021 72 10000 3.6 50 00:54 14.06.2022
3136 Clear 12 1021 71 10000 3.09 40 23:48 13.06.2022
3137 Clear 13 1021 69 10000 3.09 30 22:26 13.06.2022
3138 Clear 13 1021 68 10000 3.09 10 21:54 13.06.2022
3139 Clear 12 1021 72 10000 4.63 360 20:42 13.06.2022
3140 Clear 17 1022 31 10000 4.12 340 19:35 13.06.2022
3141 Clear 16 1022 39 10000 3.09 360 18:36 13.06.2022
3142 Clear 16 1023 40 10000 3.6 340 17:48 13.06.2022
3143 Clear 14 1024 48 10000 3.09 360 16:54 13.06.2022
3144 Clear 12 1024 53 10000 2.68 331 15:41 13.06.2022
3145 Clear 11 1024 56 10000 3.09 10 14:47 13.06.2022
3146 Clear 10 1024 61 10000 2.57 20 13:55 13.06.2022
3147 Clear 9 1024 56 10000 3.09 20 12:59 13.06.2022
3148 Mist 8 1023 57 2000 2.24 324 11:38 13.06.2022
3149 Mist 8 1023 72 1500 2.06 20 10:34 13.06.2022
3150 Fog 8 1023 63 100 2.06 360 09:42 13.06.2022
3151 Fog 7 1024 68 100 2.06 10 08:27 13.06.2022
3152 Rain 8 1024 76 1000 1.03 330 06:34 13.06.2022
3153 Mist 8 1024 65 3000 0.89 353 04:18 13.06.2022
3154 Clear 9 1024 65 8000 0 0 01:39 13.06.2022
3155 Clear 9 1024 64 10000 0.51 0 00:59 13.06.2022
3156 Clear 10 1023 64 10000 1.54 190 23:33 12.06.2022
3157 Clear 12 1023 55 10000 3.09 160 22:23 12.06.2022
3158 Clear 12 1022 50 10000 2.68 263 21:41 12.06.2022
3159 Clear 13 1022 52 10000 2.57 250 20:43 12.06.2022
3160 Clear 12 1022 53 10000 3.6 230 19:42 12.06.2022
3161 Clear 12 1023 59 10000 3.09 200 18:46 12.06.2022
3162 Clear 12 1023 68 10000 2.06 260 16:57 12.06.2022
3163 Clear 11 1023 74 10000 1.54 0 15:33 12.06.2022
3164 Clear 11 1023 76 10000 1.54 330 14:48 12.06.2022
3165 Clear 10 1023 79 10000 1.54 330 14:18 12.06.2022
3166 Fog 10 1022 80 8000 3.6 300 13:43 12.06.2022
3167 Fog 9 1022 83 10000 0.89 242 11:58 12.06.2022
3168 Clear 9 1021 79 10000 0.89 255 10:46 12.06.2022
3169 Clear 9 1021 78 10000 1.03 330 09:36 12.06.2022
3170 Clear 10 1021 72 10000 2.68 284 08:50 12.06.2022
3171 Clear 10 1021 73 10000 3.09 260 07:51 12.06.2022
3172 Clear 10 1020 68 10000 4.12 260 06:27 12.06.2022
3173 Clear 11 1021 63 10000 3.58 304 03:44 12.06.2022
3174 Clear 11 1021 66 10000 3.13 259 01:49 12.06.2022
3175 Clear 11 1021 65 10000 3.13 265 01:29 12.06.2022
3176 Clear 11 1020 62 10000 3.09 280 00:44 12.06.2022
3177 Clear 11 1020 61 10000 3.09 280 00:18 12.06.2022
3178 Clear 10 1020 58 10000 4.12 270 23:18 11.06.2022
3179 Clear 10 1020 51 10000 5.66 280 22:35 11.06.2022
3180 Clear 10 1019 52 10000 7.2 260 21:18 11.06.2022
3181 Clear 10 1019 52 10000 7.2 260 21:18 11.06.2022
3182 Clear 11 1020 54 10000 7.2 260 20:26 11.06.2022
3183 Clear 10 1020 56 10000 7.2 260 19:33 11.06.2022
3184 Clear 9 1020 60 10000 6.17 260 18:43 11.06.2022
3185 Clear 9 1021 60 10000 6.26 287 18:25 11.06.2022
3186 Clear 9 1021 60 10000 6.69 250 17:47 11.06.2022
3187 Clear 9 1021 60 10000 6.69 250 17:25 11.06.2022
3188 Clear 9 1022 62 10000 6.69 240 16:42 11.06.2022
3189 Clear 9 1022 62 10000 7.72 230 15:57 11.06.2022
3190 Clear 9 1022 63 10000 5.66 230 14:43 11.06.2022
3191 Clear 9 1022 63 10000 6.17 240 13:50 11.06.2022
3192 Clouds 8 1021 54 10000 8.23 230 11:46 11.06.2022
3193 Clouds 8 1020 57 10000 6.69 230 10:30 11.06.2022
3194 Clear 8 1020 57 10000 6.69 230 09:41 11.06.2022
3195 Clear 8 1021 58 10000 6.17 250 08:37 11.06.2022
3196 Clear 8 1021 62 10000 6.69 240 06:33 11.06.2022
3197 Clear 8 1021 60 10000 6.69 240 05:26 11.06.2022
3198 Clear 9 1022 49 10000 7.2 240 02:55 11.06.2022
3199 Clear 9 1022 43 10000 6.71 257 01:41 11.06.2022
3200 Clear 9 1022 45 10000 6.17 250 00:54 11.06.2022
3201 Clear 9 1022 46 10000 7.2 250 23:25 10.06.2022
3202 Clear 9 1022 39 10000 7.72 260 22:20 10.06.2022
3203 Clouds 9 1022 44 10000 8.23 250 21:22 10.06.2022
3204 Clouds 9 1022 47 10000 7.72 250 20:37 10.06.2022
3205 Clouds 9 1022 49 10000 7.72 250 20:19 10.06.2022
3206 Clouds 9 1022 53 10000 8.75 220 19:19 10.06.2022
3207 Clouds 9 1022 61 10000 8.23 240 18:29 10.06.2022
3208 Clouds 9 1023 61 10000 9.77 240 17:43 10.06.2022
3209 Clouds 8 1023 65 10000 9.77 240 17:21 10.06.2022
3210 Clouds 9 1024 67 10000 7.72 240 16:25 10.06.2022
3211 Clouds 8 1024 65 10000 8.23 220 15:37 10.06.2022
3212 Clouds 8 1023 70 10000 7.72 220 13:57 10.06.2022
3213 Clouds 8 1023 70 10000 7.72 220 12:50 10.06.2022
3214 Clouds 8 1023 68 10000 7.72 220 11:53 10.06.2022
3215 Clouds 9 1022 70 10000 8.23 220 10:45 10.06.2022
3216 Clouds 9 1021 70 10000 7.2 220 09:54 10.06.2022
3217 Clouds 10 1021 68 10000 6.69 220 08:42 10.06.2022
3218 Clouds 10 1021 69 10000 6.69 220 07:26 10.06.2022
3219 Clouds 10 1021 71 10000 7.2 210 06:44 10.06.2022
3220 Clouds 10 1021 72 10000 7.2 210 06:25 10.06.2022
3221 Clouds 10 1020 83 10000 4.02 266 03:56 10.06.2022
3222 Clouds 10 1020 81 10000 6.69 220 01:42 10.06.2022
3223 Clouds 11 1019 84 10000 3.6 230 00:32 10.06.2022
3224 Mist 11 1019 84 3000 2.57 270 23:47 09.06.2022
3225 Mist 12 1018 84 2000 5.14 260 22:18 09.06.2022
3226 Mist 12 1017 83 2000 4.63 270 21:33 09.06.2022
3227 Mist 12 1017 87 2000 4.63 270 20:54 09.06.2022
3228 Clouds 12 1017 85 7000 5.14 270 20:21 09.06.2022
3229 Clouds 13 1017 77 10000 5.66 270 19:29 09.06.2022
3230 Clouds 13 1017 79 10000 3.6 280 18:34 09.06.2022
3231 Mist 13 1018 87 2000 2.68 326 16:56 09.06.2022
3232 Fog 12 1019 94 200 2.57 290 15:49 09.06.2022
3233 Fog 11 1019 94 300 3.09 310 14:38 09.06.2022
3234 Fog 12 1018 94 300 5.14 360 13:55 09.06.2022
3235 Fog 11 1018 93 300 5.14 360 13:28 09.06.2022
3236 Fog 10 1017 93 300 2.68 2 11:54 09.06.2022
3237 Fog 10 1016 93 700 2.06 10 11:19 09.06.2022
3238 Fog 9 1017 91 100 1.79 342 09:50 09.06.2022
3239 Fog 9 1017 92 100 1.79 11 09:31 09.06.2022
3240 Fog 9 1017 90 50 0.45 20 07:56 09.06.2022
3241 Fog 9 1017 90 300 2.24 47 06:41 09.06.2022
3242 Fog 10 1017 88 300 0 0 03:19 09.06.2022
3243 Clouds 11 1017 85 10000 2.06 60 23:49 08.06.2022
3244 Clouds 11 1016 83 10000 1.54 140 22:58 08.06.2022
3245 Clouds 11 1017 82 10000 1.54 140 22:27 08.06.2022
3246 Clouds 11 1016 82 9000 1.54 340 21:56 08.06.2022
3247 Clouds 11 1016 81 9000 1.54 340 21:23 08.06.2022
3248 Clouds 12 1017 85 9000 2.06 280 20:22 08.06.2022
3249 Clouds 12 1017 82 9000 3.09 300 19:39 08.06.2022
3250 Clouds 12 1017 86 9000 2.57 300 18:47 08.06.2022
3251 Mist 11 1018 94 5000 2.57 350 17:25 08.06.2022
3252 Mist 10 1018 100 1500 3.09 300 15:48 08.06.2022
3253 Mist 9 1017 95 2000 2.57 20 13:58 08.06.2022
3254 Mist 9 1017 100 8000 1.03 0 12:22 08.06.2022
3255 Mist 8 1016 100 4000 1.03 0 11:33 08.06.2022
3256 Mist 8 1016 100 3000 1.54 240 10:20 08.06.2022
3257 Mist 8 1016 97 5000 0.51 0 09:22 08.06.2022
3258 Mist 8 1017 97 3000 1.54 50 08:43 08.06.2022
3259 Clouds 9 1017 95 6000 1.03 0 06:35 08.06.2022
3260 Clouds 11 1015 91 8000 0.51 0 03:58 08.06.2022
3261 Mist 10 1015 93 5000 3.6 10 00:49 08.06.2022
3262 Mist 10 1015 93 5000 5.14 10 23:30 07.06.2022
3263 Mist 10 1015 93 5000 4.12 20 22:48 07.06.2022
3264 Mist 10 1015 93 5000 4.12 20 22:30 07.06.2022
3265 Mist 10 1014 93 5000 3.09 30 21:35 07.06.2022
3266 Mist 10 1014 93 5000 4.63 10 20:59 07.06.2022
3267 Mist 10 1014 93 5000 4.63 10 20:33 07.06.2022
3268 Mist 10 1015 93 5000 4.12 10 19:45 07.06.2022
3269 Mist 9 1016 100 4000 3.09 20 18:24 07.06.2022
3270 Mist 10 1016 87 1200 3.6 30 17:27 07.06.2022
3271 Fog 8 1017 100 300 4.12 10 16:43 07.06.2022
3272 Fog 7 1017 93 200 4.12 20 15:56 07.06.2022
3273 Fog 7 1017 93 200 4.12 20 15:26 07.06.2022
3274 Fog 6 1017 100 100 2.57 360 14:52 07.06.2022
3275 Fog 6 1017 100 100 2.57 360 14:32 07.06.2022
3276 Fog 6 1017 99 100 2.57 350 13:32 07.06.2022
3277 Fog 6 1016 100 50 2.06 330 12:52 07.06.2022
3278 Fog 7 1016 97 400 1.54 340 11:47 07.06.2022
3279 Fog 7 1016 97 500 1.03 340 10:27 07.06.2022
3280 Fog 7 1016 97 500 3.09 330 08:50 07.06.2022
3281 Fog 7 1016 97 200 2.06 320 07:34 07.06.2022
3282 Mist 8 1017 97 2500 2.06 320 06:22 07.06.2022
3283 Mist 8 1017 99 5000 1.54 40 03:32 07.06.2022
3284 Clouds 10 1017 97 6000 0 0 01:27 07.06.2022
3285 Fog 9 1017 99 200 2.06 210 23:46 06.06.2022
3286 Fog 9 1017 98 600 3.09 190 22:54 06.06.2022
3287 Fog 9 1017 97 600 4.12 200 22:28 06.06.2022
3288 Mist 11 1016 91 7000 2.57 220 20:42 06.06.2022
3289 Mist 12 1016 85 2000 2.57 210 19:24 06.06.2022
3290 Clouds 13 1017 82 8000 3.6 230 18:48 06.06.2022
3291 Clouds 13 1017 80 8000 3.09 190 17:59 06.06.2022
3292 Clouds 13 1017 89 6000 2.57 160 16:57 06.06.2022
3293 Clouds 12 1016 94 6000 2.57 150 15:57 06.06.2022
3294 Mist 11 1016 100 2000 2.57 150 14:59 06.06.2022
3295 Mist 10 1016 100 2000 2 0 14:26 06.06.2022
3296 Mist 10 1016 95 1000 0.51 0 13:21 06.06.2022
3297 Fog 9 1015 100 400 2 0 12:35 06.06.2022
3298 Clouds 11 1015 99 6000 1.54 230 11:50 06.06.2022
3299 Mist 11 1015 99 2000 0 0 10:21 06.06.2022
3300 Mist 11 1015 99 2000 0 0 09:23 06.06.2022
3301 Mist 11 1014 100 1000 0 0 08:31 06.06.2022
3302 Fog 11 1014 100 100 0 0 07:28 06.06.2022
3303 Fog 10 1015 100 100 0 0 04:42 06.06.2022
3304 Fog 10 1015 96 500 0 0 02:27 06.06.2022
3305 Mist 11 1015 93 10000 1.54 0 00:57 06.06.2022
3306 Mist 11 1015 93 10000 1.54 0 00:35 06.06.2022
3307 Clouds 11 1015 91 10000 2.06 190 23:28 05.06.2022
3308 Clouds 13 1015 85 10000 2.57 190 22:33 05.06.2022
3309 Clouds 14 1015 76 10000 3.6 170 20:40 05.06.2022
3310 Clouds 15 1015 72 10000 3.09 180 19:26 05.06.2022
3311 Clouds 16 1015 63 10000 2.57 190 18:26 05.06.2022
3312 Clouds 15 1016 67 10000 2.06 190 17:50 05.06.2022
3313 Clouds 15 1016 67 10000 2.06 190 17:23 05.06.2022
3314 Clouds 15 1017 77 10000 2.06 260 16:49 05.06.2022
3315 Clear 13 1017 82 10000 2.06 280 15:50 05.06.2022
3316 Clouds 9 1017 100 10000 1.54 0 14:22 05.06.2022
3317 Clear 9 1016 93 10000 3.09 30 12:43 05.06.2022
3318 Clouds 9 1016 93 10000 3.09 20 11:35 05.06.2022
3319 Clouds 11 1016 86 10000 2.06 30 10:25 05.06.2022
3320 Clouds 11 1016 86 10000 2.06 10 09:59 05.06.2022
3321 Clouds 11 1016 84 10000 3.09 40 08:28 05.06.2022
3322 Clear 12 1017 83 10000 3.09 40 07:41 05.06.2022
3323 Clear 12 1018 79 10000 2.57 70 05:21 05.06.2022
3324 Clear 12 1019 76 10000 2.57 120 03:43 05.06.2022
3325 Clear 12 1018 76 10000 3.6 70 01:32 05.06.2022
3326 Clear 13 1018 72 10000 3.09 90 00:29 05.06.2022
3327 Clear 15 1018 63 10000 5.14 50 21:58 04.06.2022
3328 Clear 14 1019 62 10000 6.17 60 20:21 04.06.2022
3329 Clear 14 1020 65 10000 7.2 40 18:18 04.06.2022
3330 Clear 13 1022 71 10000 8.75 40 16:43 04.06.2022
3331 Clear 13 1022 71 10000 8.75 40 16:18 04.06.2022
3332 Clear 7 1022 93 10000 5.14 60 14:47 04.06.2022
3333 Fog 5 1023 100 500 4.12 60 12:35 04.06.2022
3334 Clear 6 1023 100 10000 3.09 60 11:18 04.06.2022
3335 Clear 6 1024 100 10000 0 0 10:43 04.06.2022
3336 Clear 6 1025 97 10000 0 0 09:42 04.06.2022
3337 Clear 6 1025 94 10000 1.03 50 08:41 04.06.2022
3338 Clear 7 1025 93 10000 1.03 50 07:40 04.06.2022
3339 Clear 8 1025 81 10000 3.6 70 04:57 04.06.2022
3340 Clear 8 1025 81 10000 3.6 100 01:27 04.06.2022
3341 Clear 9 1025 75 10000 4.12 100 23:59 03.06.2022
3342 Clear 11 1025 52 10000 3.6 60 22:40 03.06.2022
3343 Clouds 12 1025 47 10000 4.12 20 21:30 03.06.2022
3344 Clouds 12 1026 50 10000 3.09 360 20:37 03.06.2022
3345 Clouds 12 1026 60 10000 3.6 130 18:28 03.06.2022
3346 Clouds 10 1028 66 10000 2.57 90 16:47 03.06.2022
3347 Clouds 10 1028 74 10000 0.51 0 15:23 03.06.2022
3348 Clear 1 1027 93 10000 2.06 160 13:22 03.06.2022
3349 Clouds 5 1026 91 8000 0 0 11:40 03.06.2022
3350 Clouds 7 1027 70 8000 0 0 09:45 03.06.2022
3351 Clear 8 1027 70 10000 2.81 153 09:24 03.06.2022
3352 Clouds 5 1026 85 6000 0 0 07:27 03.06.2022
3353 Clouds 5 1027 83 6000 0 0 06:39 03.06.2022
3354 Clouds 7 1027 84 6000 0 0 06:20 03.06.2022
3355 Clouds 7 1025 78 10000 2.57 180 00:41 03.06.2022
3356 Clouds 10 1024 66 10000 4.63 210 22:48 02.06.2022
3357 Clouds 11 1024 62 10000 4.63 200 21:51 02.06.2022
3358 Clouds 11 1024 62 10000 5.66 200 20:22 02.06.2022
3359 Clouds 11 1024 62 10000 5.66 200 20:22 02.06.2022
3360 Clouds 12 1024 58 10000 5.66 190 19:50 02.06.2022
3361 Clouds 12 1024 58 10000 5.66 190 19:32 02.06.2022
3362 Clouds 11 1024 64 10000 5.14 210 17:35 02.06.2022
3363 Clouds 10 1024 73 10000 4.12 210 16:28 02.06.2022
3364 Fog 4 1024 93 10000 1.03 0 14:22 02.06.2022
3365 Mist 1 1023 93 10000 2.57 320 13:30 02.06.2022
3366 Mist 1 1023 93 10000 2.57 320 13:30 02.06.2022
3367 Clouds 1 1023 93 10000 2.06 310 12:21 02.06.2022
3368 Clouds 4 1021 75 10000 2.06 340 10:20 02.06.2022
3369 Clouds 4 1021 81 8000 1.03 290 09:28 02.06.2022
3370 Clouds 6 1021 78 7000 2.06 350 08:28 02.06.2022
3371 Clear 2 1021 87 7000 2.06 350 07:34 02.06.2022
3372 Clear 4 1022 81 7000 1.54 350 05:29 02.06.2022
3373 Mist 4 1022 81 5000 2.06 320 03:45 02.06.2022
3374 Clear 8 1021 73 10000 2.06 270 23:52 01.06.2022
3375 Clear 9 1021 69 10000 2.06 280 22:54 01.06.2022
3376 Clear 10 1021 53 10000 4.12 250 21:39 01.06.2022
3377 Clear 10 1021 53 10000 4.12 250 21:20 01.06.2022
3378 Clear 12 1021 49 10000 4.63 260 20:37 01.06.2022
3379 Clear 11 1021 54 10000 4.12 260 19:48 01.06.2022
3380 Clear 11 1022 55 10000 5.14 240 17:57 01.06.2022
3381 Clear 10 1022 61 10000 3.09 230 16:41 01.06.2022
3382 Clear 6 1022 75 10000 2.06 300 15:37 01.06.2022
3383 Clear 0 1022 93 10000 1.54 0 13:57 01.06.2022
3384 Clear 0 1021 100 10000 2.57 360 12:29 01.06.2022
3385 Clear 2 1021 80 10000 1.54 350 10:37 01.06.2022
3386 Clear 1 1021 86 10000 2.06 360 09:25 01.06.2022
3387 Clear 3 1021 75 10000 2.06 350 07:25 01.06.2022
3388 Clouds 2 1021 80 10000 1.54 340 06:40 01.06.2022
3389 Clear 5 1021 65 10000 2.06 360 01:30 01.06.2022
3390 Clouds 7 1021 65 10000 2.06 260 23:41 31.05.2022
3391 Clouds 9 1020 57 10000 3.09 250 22:37 31.05.2022
3392 Clouds 10 1020 53 10000 5.66 250 21:46 31.05.2022
3393 Clouds 10 1020 53 10000 5.66 230 20:52 31.05.2022
3394 Clouds 10 1020 53 10000 5.66 230 20:31 31.05.2022
3395 Clouds 10 1022 66 10000 5.14 250 18:54 31.05.2022
3396 Clouds 9 1022 76 10000 6.69 250 17:51 31.05.2022
3397 Clouds 9 1022 76 10000 6.69 250 17:20 31.05.2022
3398 Clouds 8 1023 87 10000 2.57 310 15:42 31.05.2022
3399 Clouds 7 1022 81 10000 2.06 300 14:34 31.05.2022
3400 Clouds 6 1021 77 10000 2.57 310 12:22 31.05.2022
3401 Clouds 7 1021 56 10000 2.06 320 11:42 31.05.2022
3402 Clouds 8 1020 55 10000 0 0 09:49 31.05.2022
3403 Clouds 7 1021 60 10000 3.09 220 07:41 31.05.2022
3404 Clouds 7 1021 60 10000 3.09 220 07:41 31.05.2022
3405 Clouds 8 1021 64 10000 3.6 230 05:24 31.05.2022
3406 Clouds 8 1020 64 10000 2.57 220 02:33 31.05.2022
3407 Clouds 7 1019 78 10000 6.17 200 23:29 30.05.2022
3408 Clouds 10 1019 55 10000 5.66 240 22:59 30.05.2022
3409 Clouds 10 1019 53 10000 5.66 240 22:24 30.05.2022
3410 Clouds 10 1018 58 10000 6.17 230 21:35 30.05.2022
3411 Clouds 10 1018 63 10000 7.72 230 20:22 30.05.2022
3412 Clouds 11 1017 62 10000 8.75 210 19:26 30.05.2022
3413 Clouds 9 1017 68 10000 9.26 230 17:43 30.05.2022
3414 Clouds 9 1017 62 10000 9.26 250 16:54 30.05.2022
3415 Clear 9 1016 54 10000 8.23 250 15:43 30.05.2022
3416 Clear 7 1015 57 10000 5.66 260 12:44 30.05.2022
3417 Clouds 8 1014 53 10000 5.14 250 10:57 30.05.2022
3418 Clouds 8 1014 53 10000 5.14 240 09:39 30.05.2022
3419 Clouds 8 1015 56 10000 2.57 280 07:24 30.05.2022
3420 Clouds 8 1015 58 10000 2.57 330 05:50 30.05.2022
3421 Clouds 7 1015 61 10000 2.06 320 02:35 30.05.2022
3422 Clouds 7 1014 74 10000 3.09 250 23:28 29.05.2022
3423 Clouds 9 1013 69 10000 4.63 250 22:39 29.05.2022
3424 Clouds 10 1013 68 10000 5.14 250 21:31 29.05.2022
3425 Clouds 10 1013 65 10000 6.17 220 19:48 29.05.2022
3426 Clouds 11 1013 64 10000 6.17 220 19:27 29.05.2022
3427 Clouds 11 1013 69 10000 7.2 210 17:41 29.05.2022
3428 Clouds 10 1014 68 10000 6.69 210 15:49 29.05.2022
3429 Clouds 11 1014 66 10000 6.69 210 15:28 29.05.2022
3430 Clear 10 1013 74 10000 6.17 210 14:23 29.05.2022
3431 Clouds 11 1012 90 10000 2.57 240 11:55 29.05.2022
3432 Clear 10 1011 91 10000 2.06 330 10:44 29.05.2022
3433 Rain 9 1011 92 10000 1.54 330 09:52 29.05.2022
3434 Clear 11 1011 86 10000 1.54 220 06:57 29.05.2022
3435 Clear 11 1012 89 10000 1.54 290 04:49 29.05.2022
3436 Clear 11 1012 88 10000 1.54 290 04:24 29.05.2022
3437 Clear 11 1011 82 10000 2.06 120 23:59 28.05.2022
3438 Clear 11 1011 82 10000 2.06 120 23:39 28.05.2022
3439 Clear 11 1011 81 10000 3.09 110 22:46 28.05.2022
3440 Clear 12 1012 75 10000 1.03 0 21:42 28.05.2022
3441 Clouds 12 1013 75 10000 2.57 90 19:52 28.05.2022
3442 Clouds 12 1013 74 10000 2.57 90 19:18 28.05.2022
3443 Clouds 13 1015 74 10000 1.54 110 17:48 28.05.2022
3444 Fog 12 1016 74 10000 0.51 0 16:53 28.05.2022
3445 Mist 11 1017 84 10000 0.51 0 15:44 28.05.2022
3446 Fog 9 1017 88 8000 1.03 0 14:37 28.05.2022
3447 Mist 8 1016 91 7000 0.51 0 13:21 28.05.2022
3448 Mist 8 1016 92 4000 1.54 200 12:40 28.05.2022
3449 Clear 9 1016 95 8000 0.51 0 11:27 28.05.2022
3450 Mist 7 1016 96 5000 0.51 0 10:25 28.05.2022
3451 Mist 6 1016 93 5000 1.03 350 09:30 28.05.2022
3452 Fog 8 1017 92 7000 1.03 310 07:53 28.05.2022
3453 Fog 8 1017 91 8000 1.03 330 06:32 28.05.2022
3454 Clouds 8 1017 86 10000 0.51 0 04:21 28.05.2022
3455 Clear 9 1017 76 10000 3.6 180 00:50 28.05.2022
3456 Clear 10 1017 76 10000 3.09 180 23:53 27.05.2022
3457 Clear 12 1016 66 10000 4.12 180 22:24 27.05.2022
3458 Clouds 14 1016 62 10000 6.17 170 20:59 27.05.2022
3459 Clouds 14 1016 62 10000 6.17 170 20:40 27.05.2022
3460 Clouds 14 1016 62 10000 5.14 170 19:56 27.05.2022
3461 Clouds 14 1016 62 10000 5.14 170 19:34 27.05.2022
3462 Clouds 14 1018 67 10000 5.14 170 18:41 27.05.2022
3463 Clouds 13 1019 82 10000 5.66 170 16:42 27.05.2022
3464 Drizzle 12 1019 94 600 5.14 170 15:46 27.05.2022
3465 Fog 12 1018 94 800 4.12 160 14:45 27.05.2022
3466 Mist 12 1018 94 3000 5.14 160 13:35 27.05.2022
3467 Drizzle 12 1017 94 8000 5.14 150 11:48 27.05.2022
3468 Drizzle 12 1017 94 6000 5.66 150 11:26 27.05.2022
3469 Drizzle 13 1018 88 8000 4.63 150 10:35 27.05.2022
3470 Drizzle 12 1018 96 8000 4.63 140 09:42 27.05.2022
3471 Clouds 12 1019 94 10000 3.6 160 08:48 27.05.2022
3472 Clouds 12 1020 90 10000 3.09 130 06:58 27.05.2022
3473 Clouds 12 1022 82 10000 5.66 110 02:57 27.05.2022
3474 Clear 10 1022 73 10000 4.63 110 00:54 27.05.2022
3475 Clear 12 1022 71 10000 5.14 120 22:53 26.05.2022
3476 Clouds 12 1023 71 10000 5.14 120 21:45 26.05.2022
3477 Clouds 12 1023 66 10000 6.17 110 20:59 26.05.2022
3478 Clouds 14 1024 59 10000 5.66 110 19:30 26.05.2022
3479 Clouds 14 1024 60 10000 6.17 120 18:24 26.05.2022
3480 Clouds 13 1025 62 10000 5.14 110 16:59 26.05.2022
3481 Clouds 13 1026 65 10000 5.66 140 15:52 26.05.2022
3482 Clouds 12 1026 66 10000 5.66 140 15:18 26.05.2022
3483 Clouds 11 1025 74 10000 4.63 150 13:46 26.05.2022
3484 Clouds 11 1024 75 10000 5.14 150 11:47 26.05.2022
3485 Clouds 11 1024 78 10000 5.66 150 10:39 26.05.2022
3486 Clouds 12 1024 81 10000 7.2 150 09:37 26.05.2022
3487 Clouds 12 1024 82 10000 6.69 160 08:38 26.05.2022
3488 Clouds 12 1024 97 10000 6.17 170 05:25 26.05.2022
3489 Drizzle 12 1022 97 5000 7.2 160 02:19 26.05.2022
3490 Clouds 11 1020 89 3000 7.72 150 23:41 25.05.2022
3491 Rain 11 1019 90 10000 7.72 150 22:51 25.05.2022
3492 Clouds 11 1018 94 1000 10.8 150 21:39 25.05.2022
3493 Clouds 10 1018 99 1000 10.29 160 20:43 25.05.2022
3494 Clouds 12 1018 93 10000 9.26 160 19:32 25.05.2022
3495 Clouds 12 1017 95 7000 9.77 150 18:36 25.05.2022
3496 Clouds 12 1016 95 2000 10.29 130 16:53 25.05.2022
3497 Clouds 12 1018 99 800 9.26 160 16:25 25.05.2022
3498 Clouds 13 1018 100 800 7.72 150 15:36 25.05.2022
3499 Rain 15 1017 96 800 5.66 130 14:42 25.05.2022
3500 Clouds 15 1017 96 800 5.66 130 14:24 25.05.2022
3501 Clouds 14 1017 100 800 4.63 120 13:21 25.05.2022
3502 Rain 15 1017 96 8310 3.83 62 11:32 25.05.2022
3503 Clouds 15 1016 96 10000 5.66 100 10:23 25.05.2022
3504 Clouds 15 1016 96 10000 4.63 100 09:29 25.05.2022
3505 Clouds 15 1017 97 10000 4.78 108 07:26 25.05.2022
3506 Clear 14 1017 95 10000 2.57 160 05:41 25.05.2022
3507 Clouds 16 1017 84 10000 2.11 168 01:51 25.05.2022
3508 Clear 18 1015 76 10000 2.57 10 23:48 24.05.2022
3509 Clear 19 1014 72 10000 3.6 20 22:58 24.05.2022
3510 Clear 19 1013 61 10000 3.09 350 21:47 24.05.2022
3511 Clear 19 1013 61 10000 3.09 350 21:23 24.05.2022
3512 Clear 19 1013 61 10000 4.12 340 20:59 24.05.2022
3513 Clear 18 1013 61 10000 4.63 320 19:23 24.05.2022
3514 Clear 18 1013 62 10000 4.63 20 18:29 24.05.2022
3515 Clear 18 1014 63 10000 4.12 340 16:39 24.05.2022
3516 Clear 17 1014 66 10000 4.12 350 15:31 24.05.2022
3517 Clear 16 1014 66 10000 3.6 20 14:38 24.05.2022
3518 Clear 11 1015 93 10000 2.06 350 13:46 24.05.2022
3519 Clear 11 1014 92 10000 3.6 10 12:24 24.05.2022
3520 Clear 12 1013 90 10000 3.09 30 09:52 24.05.2022
3521 Clear 13 1014 91 10000 3.09 30 08:52 24.05.2022
3522 Clear 12 1015 91 10000 2.06 20 07:56 24.05.2022
3523 Clouds 13 1015 91 8000 2.57 30 06:39 24.05.2022
3524 Fog 14 1015 94 200 0 0 03:38 24.05.2022
3525 Clouds 13 1015 90 9000 3.09 100 01:46 24.05.2022
3526 Clouds 13 1015 87 10000 3.09 110 00:30 24.05.2022
3527 Clouds 18 1014 59 10000 3.09 170 22:24 23.05.2022
3528 Clouds 18 1014 58 10000 3.09 170 21:53 23.05.2022
3529 Clouds 18 1014 60 10000 3.6 10 20:49 23.05.2022
3530 Clouds 18 1014 60 10000 4.12 330 19:55 23.05.2022
3531 Clouds 17 1014 60 10000 4.12 330 19:24 23.05.2022
3532 Clouds 17 1015 60 10000 4.12 350 18:41 23.05.2022
3533 Clouds 17 1015 60 10000 4.12 350 18:41 23.05.2022
3534 Clear 17 1016 63 10000 4.12 10 17:56 23.05.2022
3535 Clear 17 1017 61 10000 3.6 360 16:29 23.05.2022
3536 Clear 11 1019 89 10000 4.63 20 14:18 23.05.2022
3537 Clouds 11 1018 96 10000 2.57 30 11:53 23.05.2022
3538 Clear 10 1017 96 10000 1.54 10 10:58 23.05.2022
3539 Clear 10 1018 95 10000 1.03 0 09:48 23.05.2022
3540 Clear 10 1017 95 10000 3.09 30 08:47 23.05.2022
3541 Clear 11 1018 94 10000 0 0 07:37 23.05.2022
3542 Clear 11 1018 92 10000 2.57 50 06:41 23.05.2022
3543 Clear 12 1018 89 10000 2.06 30 03:52 23.05.2022
3544 Clear 13 1018 83 10000 1.54 20 02:18 23.05.2022
3545 Clear 13 1017 82 10000 2.06 50 01:33 23.05.2022
3546 Clear 17 1018 66 10000 3.09 40 23:22 22.05.2022
3547 Clear 18 1018 59 10000 4.12 360 22:33 22.05.2022
3548 Clear 19 1018 59 10000 4.63 20 21:53 22.05.2022
3549 Clear 19 1018 59 10000 3.6 20 20:51 22.05.2022
3550 Clear 19 1018 59 10000 3.6 20 20:23 22.05.2022
3551 Clear 19 1019 59 10000 3.6 360 19:42 22.05.2022
3552 Clear 18 1020 72 10000 2.06 360 18:53 22.05.2022
3553 Clear 18 1020 72 10000 2.06 360 18:22 22.05.2022
3554 Clear 17 1021 77 10000 2.06 360 17:28 22.05.2022
3555 Clear 13 1021 92 8000 2.06 360 15:59 22.05.2022
3556 Mist 10 1021 99 8000 2.57 10 14:48 22.05.2022
3557 Fog 7 1021 99 6000 3.09 20 13:27 22.05.2022
3558 Fog 7 1021 100 200 2.06 360 12:50 22.05.2022
3559 Fog 7 1020 97 6000 2.06 10 11:32 22.05.2022
3560 Mist 8 1020 99 5000 2.06 350 09:41 22.05.2022
3561 Fog 9 1020 100 5000 2.06 360 08:31 22.05.2022
3562 Fog 9 1021 100 4000 2.06 340 07:21 22.05.2022
3563 Mist 10 1020 87 5000 2.06 340 05:22 22.05.2022
3564 Rain 13 1020 76 8000 1.54 350 01:26 22.05.2022
3565 Rain 14 1020 77 10000 2.57 310 00:43 22.05.2022
3566 Clear 15 1019 77 10000 2.06 310 23:52 21.05.2022
3567 Clear 17 1019 67 10000 3.09 290 22:28 21.05.2022
3568 Clear 18 1019 68 10000 5.14 310 21:42 21.05.2022
3569 Clouds 17 1019 70 10000 5.66 290 20:51 21.05.2022
3570 Clouds 18 1019 68 10000 5.66 290 20:22 21.05.2022
3571 Clear 18 1019 66 10000 4.12 300 19:27 21.05.2022
3572 Clear 16 1020 77 10000 4.12 280 17:48 21.05.2022
3573 Clear 12 1020 85 10000 3.09 330 15:54 21.05.2022
3574 Clear 10 1020 95 10000 2.57 350 14:37 21.05.2022
3575 Clear 8 1020 95 10000 3.09 350 13:42 21.05.2022
3576 Rain 8 1019 100 10000 2.06 10 12:49 21.05.2022
3577 Clear 8 1019 100 10000 2.06 10 12:25 21.05.2022
3578 Clear 7 1019 100 10000 3.09 350 10:24 21.05.2022
3579 Clear 8 1018 93 10000 2.06 20 09:43 21.05.2022
3580 Clear 8 1018 93 10000 2.06 20 08:57 21.05.2022
3581 Clear 8 1018 93 10000 2.06 340 07:53 21.05.2022
3582 Clear 9 1018 93 10000 2.06 360 03:58 21.05.2022
3583 Clear 13 1016 88 10000 1.54 280 23:53 20.05.2022
3584 Clear 15 1016 67 10000 3.6 280 22:57 20.05.2022
3585 Clear 15 1016 67 10000 3.6 280 22:23 20.05.2022
3586 Clear 16 1016 67 10000 3.6 280 21:43 20.05.2022
3587 Clear 17 1016 63 10000 3.09 270 20:56 20.05.2022
3588 Clouds 17 1017 59 10000 5.14 310 19:59 20.05.2022
3589 Clouds 17 1017 59 10000 5.14 310 19:26 20.05.2022
3590 Clouds 17 1017 63 10000 7.2 310 18:44 20.05.2022
3591 Clear 15 1018 67 10000 7.2 320 17:24 20.05.2022
3592 Clear 13 1018 76 10000 6.17 310 16:19 20.05.2022
3593 Clear 10 1019 87 10000 3.6 320 15:47 20.05.2022
3594 Clear 7 1019 93 10000 3.09 330 14:30 20.05.2022
3595 Clear 4 1019 93 10000 2.06 330 13:55 20.05.2022
3596 Clouds 4 1018 100 8000 2.06 350 11:34 20.05.2022
3597 Clouds 5 1018 93 6000 2.06 350 10:19 20.05.2022
3598 Mist 5 1019 100 3000 2.06 340 08:45 20.05.2022
3599 Clear 6 1020 93 6000 2.06 20 07:18 20.05.2022
3600 Mist 7 1020 87 5000 2.06 10 06:32 20.05.2022
3601 Mist 7 1020 87 3000 0 0 04:42 20.05.2022
3602 Clear 9 1019 81 10000 0.51 0 00:48 20.05.2022
3603 Clear 12 1018 77 10000 3.09 240 22:48 19.05.2022
3604 Clear 13 1018 74 10000 3.09 240 22:20 19.05.2022
3605 Clear 13 1019 74 10000 4.12 200 21:48 19.05.2022
3606 Clear 14 1019 74 10000 4.12 200 21:22 19.05.2022
3607 Clouds 14 1019 72 10000 4.12 170 20:34 19.05.2022
3608 Clouds 14 1019 71 10000 3.6 170 19:52 19.05.2022
3609 Clouds 15 1019 69 10000 2.57 300 18:31 19.05.2022
3610 Clouds 14 1020 71 10000 1.54 0 16:51 19.05.2022
3611 Clouds 14 1021 74 10000 1.54 0 15:21 19.05.2022
3612 Clear 9 1022 93 10000 1.54 300 14:26 19.05.2022
3613 Clear 6 1022 100 10000 1.03 0 13:47 19.05.2022
3614 Clear 11 1021 69 10000 1.78 193 11:41 19.05.2022
3615 Clouds 9 1021 87 10000 2.06 300 09:29 19.05.2022
3616 Clouds 10 1022 75 10000 2.06 300 07:52 19.05.2022
3617 Clouds 12 1022 70 10000 2.06 270 06:18 19.05.2022
3618 Clouds 13 1022 67 10000 3.6 190 02:27 19.05.2022
3619 Clouds 12 1023 71 10000 4.63 200 00:40 19.05.2022
3620 Clouds 13 1021 79 10000 5.66 190 22:51 18.05.2022
3621 Clouds 13 1021 79 10000 5.66 190 22:24 18.05.2022
3622 Clouds 14 1021 79 10000 6.69 200 21:30 18.05.2022
3623 Clouds 14 1021 79 10000 8.23 190 20:50 18.05.2022
3624 Clouds 14 1021 78 10000 8.23 190 20:18 18.05.2022
3625 Clouds 14 1021 78 10000 8.23 190 20:18 18.05.2022
3626 Clouds 14 1022 80 10000 9.26 190 18:33 18.05.2022
3627 Clouds 14 1022 81 10000 9.77 190 17:41 18.05.2022
3628 Clouds 14 1022 81 10000 9.77 190 17:23 18.05.2022
3629 Clouds 14 1022 82 10000 9.26 180 16:34 18.05.2022
3630 Clouds 14 1022 81 10000 8.23 170 15:42 18.05.2022
3631 Clouds 14 1021 84 10000 9.26 180 14:35 18.05.2022
3632 Clouds 13 1022 82 10000 9.26 180 13:41 18.05.2022
3633 Clouds 13 1021 82 8000 8.75 180 12:48 18.05.2022
3634 Clouds 13 1020 82 10000 8.75 180 11:36 18.05.2022
3635 Clouds 13 1020 82 10000 8.75 180 11:18 18.05.2022
3636 Clouds 13 1019 82 10000 9.77 190 09:50 18.05.2022
3637 Clouds 14 1019 77 10000 10.29 180 07:51 18.05.2022
3638 Clouds 14 1019 77 10000 11.32 180 06:41 18.05.2022
3639 Clouds 13 1017 82 10000 13.38 200 01:53 18.05.2022
3640 Drizzle 13 1017 88 8000 11.32 200 00:23 18.05.2022
3641 Clouds 14 1014 86 10000 11.32 180 21:57 17.05.2022
3642 Clouds 14 1014 87 8000 11.32 200 21:20 17.05.2022
3643 Clouds 14 1014 87 8000 11.32 200 21:20 17.05.2022
3644 Clouds 14 1014 88 10000 10.29 180 20:22 17.05.2022
3645 Clouds 14 1013 90 7000 14.4 190 19:28 17.05.2022
3646 Clouds 14 1013 92 6000 11.83 190 17:52 17.05.2022
3647 Clouds 15 1013 91 6000 11.83 190 16:59 17.05.2022
3648 Clouds 15 1013 89 6000 10.29 190 16:30 17.05.2022
3649 Rain 14 1012 92 3000 10.29 180 15:32 17.05.2022
3650 Rain 12 1013 100 3000 11.83 200 14:30 17.05.2022
3651 Rain 12 1013 94 5000 10.8 200 13:35 17.05.2022
3652 Rain 13 1013 88 10000 10.8 200 11:46 17.05.2022
3653 Clouds 13 1013 82 10000 6.69 230 09:35 17.05.2022
3654 Clouds 13 1014 82 10000 9.77 200 08:33 17.05.2022
3655 Clouds 12 1015 94 10000 7.2 210 06:50 17.05.2022
3656 Clouds 11 1016 93 7000 10.29 220 03:45 17.05.2022
3657 Drizzle 11 1016 93 8000 10.29 200 00:45 17.05.2022
3658 Drizzle 12 1015 87 10000 9.26 200 22:44 16.05.2022
3659 Drizzle 13 1016 88 4000 8.23 200 21:45 16.05.2022
3660 Clouds 14 1015 72 10000 10.29 210 20:47 16.05.2022
3661 Clouds 14 1016 77 10000 10.29 200 19:49 16.05.2022
3662 Clouds 14 1016 77 10000 10.29 210 18:21 16.05.2022
3663 Drizzle 12 1016 94 10000 8.75 220 15:53 16.05.2022
3664 Drizzle 11 1016 87 10000 7.72 240 14:26 16.05.2022
3665 Drizzle 11 1016 87 10000 8.75 240 13:23 16.05.2022
3666 Drizzle 11 1014 87 8000 9.26 260 11:31 16.05.2022
3667 Drizzle 11 1015 82 8000 5.66 250 09:47 16.05.2022
3668 Clouds 12 1016 76 10000 8.23 220 06:58 16.05.2022
3669 Clouds 13 1017 62 10000 7.72 270 03:58 16.05.2022
3670 Clouds 12 1018 54 10000 4.63 260 23:44 15.05.2022
3671 Clouds 13 1018 50 10000 6.17 270 22:32 15.05.2022
3672 Clouds 13 1018 54 10000 6.17 260 21:47 15.05.2022
3673 Clouds 13 1018 54 10000 6.17 260 20:59 15.05.2022
3674 Clouds 14 1019 58 10000 6.17 250 19:53 15.05.2022
3675 Clouds 14 1020 58 10000 5.14 240 17:52 15.05.2022
3676 Clouds 14 1020 62 10000 5.66 230 16:31 15.05.2022
3677 Clear 9 1019 81 10000 5.14 220 13:59 15.05.2022
3678 Clear 9 1019 81 10000 5.14 220 13:23 15.05.2022
3679 Clouds 12 1018 66 10000 4.12 220 11:41 15.05.2022
3680 Clouds 12 1018 66 10000 3.09 220 10:35 15.05.2022
3681 Clouds 13 1018 62 10000 2.06 200 08:47 15.05.2022
3682 Clouds 13 1019 62 10000 4.12 180 06:59 15.05.2022
3683 Clear 12 1019 62 10000 2.57 200 05:57 15.05.2022
3684 Clouds 13 1018 88 10000 3.6 210 00:57 15.05.2022
3685 Clouds 15 1018 88 10000 4.12 210 23:52 14.05.2022
3686 Clouds 15 1018 88 10000 4.12 210 23:33 14.05.2022
3687 Clouds 17 1017 77 10000 4.12 220 21:43 14.05.2022
3688 Clouds 17 1017 77 10000 4.12 220 21:18 14.05.2022
3689 Clouds 17 1018 67 10000 3.09 220 19:40 14.05.2022
3690 Clouds 17 1018 67 10000 3.09 220 19:20 14.05.2022
3691 Clouds 17 1018 67 10000 4.12 210 18:47 14.05.2022
3692 Clouds 18 1018 63 10000 2.06 0 17:28 14.05.2022
3693 Clear 15 1019 77 10000 2.57 360 15:34 14.05.2022
3694 Clear 12 1019 87 10000 2.06 20 14:36 14.05.2022
3695 Clear 11 1019 82 10000 2.57 20 12:49 14.05.2022
3696 Clear 10 1018 87 10000 2.06 30 11:37 14.05.2022
3697 Clear 11 1019 82 10000 2.06 10 10:23 14.05.2022
3698 Clear 11 1019 87 10000 2.57 30 09:54 14.05.2022
3699 Clear 10 1019 87 10000 2.57 20 08:56 14.05.2022
3700 Clear 11 1019 82 10000 2.06 10 06:52 14.05.2022
3701 Clear 13 1019 71 10000 1.54 10 03:27 14.05.2022
3702 Clear 18 1017 57 10000 2.06 10 23:45 13.05.2022
3703 Clear 18 1017 57 10000 2.06 10 23:22 13.05.2022
3704 Clear 18 1017 52 10000 4.12 10 22:51 13.05.2022
3705 Clear 19 1016 55 10000 4.12 10 22:19 13.05.2022
3706 Clouds 20 1017 55 10000 4.63 10 20:49 13.05.2022
3707 Clouds 19 1018 55 10000 4.63 10 20:27 13.05.2022
3708 Clouds 19 1018 52 10000 4.63 10 19:34 13.05.2022
3709 Clouds 17 1020 59 10000 5.66 10 17:53 13.05.2022
3710 Clouds 18 1019 51 10000 5.66 10 17:29 13.05.2022
3711 Clear 16 1018 71 10000 5.66 30 16:23 13.05.2022
3712 Clear 16 1018 72 10000 5.66 30 15:39 13.05.2022
3713 Clear 10 1020 93 10000 4.12 40 13:57 13.05.2022
3714 Clear 10 1019 81 10000 3.09 50 12:33 13.05.2022
3715 Clear 9 1018 87 10000 2.57 40 11:29 13.05.2022
3716 Clear 9 1018 87 10000 2.57 30 09:43 13.05.2022
3717 Clear 9 1019 93 10000 2.57 40 08:50 13.05.2022
3718 Clear 8 1019 93 10000 2.06 30 07:49 13.05.2022
3719 Clear 8 1020 87 10000 1.54 320 06:35 13.05.2022
3720 Clear 11 1019 76 10000 2.06 70 04:22 13.05.2022
3721 Clear 12 1018 71 10000 3.09 120 00:39 13.05.2022
3722 Clear 15 1017 58 10000 3.6 130 22:46 12.05.2022
3723 Clear 16 1017 58 10000 3.6 130 21:58 12.05.2022
3724 Clouds 16 1019 59 10000 4.12 180 20:38 12.05.2022
3725 Clouds 16 1019 59 10000 2.57 150 19:18 12.05.2022
3726 Clouds 16 1021 59 10000 2.57 140 17:27 12.05.2022
3727 Clouds 15 1021 63 10000 3.09 150 16:23 12.05.2022
3728 Clouds 11 1021 87 10000 1.54 0 14:47 12.05.2022
3729 Clouds 7 1021 93 10000 1.54 310 13:47 12.05.2022
3730 Clouds 8 1020 81 10000 1.03 290 11:23 12.05.2022
3731 Clouds 12 1020 71 10000 2.57 180 09:31 12.05.2022
3732 Clouds 13 1021 67 10000 2.57 190 08:51 12.05.2022
3733 Clouds 13 1021 71 10000 3.09 190 07:41 12.05.2022
3734 Clouds 13 1021 67 10000 3.6 170 06:39 12.05.2022
3735 Clouds 14 1021 67 10000 4.63 170 02:59 12.05.2022
3736 Clear 13 1020 67 10000 5.66 170 00:39 12.05.2022
3737 Clear 14 1020 67 10000 7.2 170 22:41 11.05.2022
3738 Clear 14 1020 67 10000 6.69 160 21:55 11.05.2022
3739 Clear 15 1020 63 10000 7.72 160 21:24 11.05.2022
3740 Clouds 16 1019 72 10000 7.72 150 19:36 11.05.2022
3741 Clouds 17 1019 77 10000 8.75 150 16:59 11.05.2022
3742 Clouds 16 1019 72 10000 6.17 180 15:50 11.05.2022
3743 Clouds 14 1019 82 10000 5.66 180 14:39 11.05.2022
3744 Clouds 14 1019 82 10000 5.66 180 14:19 11.05.2022
3745 Clouds 14 1017 77 10000 4.63 200 11:55 11.05.2022
3746 Clouds 14 1017 77 10000 4.63 200 11:30 11.05.2022
3747 Clouds 15 1017 82 10000 4.12 200 08:55 11.05.2022
3748 Clouds 15 1017 94 10000 5.14 200 05:45 11.05.2022
3749 Rain 16 1017 72 10000 2.57 150 01:28 11.05.2022
3750 Clouds 16 1017 82 10000 3.6 170 22:53 10.05.2022
3751 Clouds 16 1017 82 10000 3.6 170 22:19 10.05.2022
3752 Clouds 18 1016 77 10000 5.14 170 20:59 10.05.2022
3753 Clouds 18 1016 77 10000 5.14 170 20:21 10.05.2022
3754 Clouds 18 1017 77 10000 4.63 130 18:35 10.05.2022
3755 Clouds 17 1017 94 10000 4.63 170 17:37 10.05.2022
3756 Fog 15 1018 94 6000 1.03 0 15:49 10.05.2022
3757 Mist 10 1017 100 4000 2.57 180 12:48 10.05.2022
3758 Clouds 9 1017 100 8000 1.54 340 11:53 10.05.2022
3759 Clouds 9 1017 100 8000 1.54 340 11:21 10.05.2022
3760 Clear 13 1016 94 10000 2.06 60 10:55 10.05.2022
3761 Clear 14 1017 100 10000 1.54 130 09:27 10.05.2022
3762 Fog 12 1018 100 800 0 0 07:47 10.05.2022
3763 Clouds 15 1018 94 8000 1.03 300 04:35 10.05.2022
3764 Clear 16 1019 88 10000 2.57 150 01:36 10.05.2022
3765 Clear 18 1018 72 10000 2.57 120 23:42 09.05.2022
3766 Clear 18 1018 72 10000 2.57 120 23:42 09.05.2022
3767 Clear 19 1018 77 10000 2.57 150 22:30 09.05.2022
3768 Clouds 20 1018 64 10000 3.6 190 21:25 09.05.2022
3769 Clouds 21 1020 64 10000 3.09 170 19:52 09.05.2022
3770 Clouds 20 1021 73 10000 3.09 190 17:59 09.05.2022
3771 Clear 20 1021 73 10000 1.03 0 16:55 09.05.2022
3772 Clear 20 1021 73 10000 1.03 0 16:55 09.05.2022
3773 Clear 20 1021 73 10000 1.03 0 15:54 09.05.2022
3774 Rain 18 1021 77 10000 1.03 0 15:34 09.05.2022
3775 Clear 14 1021 88 10000 2.06 20 14:33 09.05.2022
3776 Fog 12 1021 94 10000 2.57 30 13:51 09.05.2022
3777 Clear 10 1020 93 10000 2.06 20 12:32 09.05.2022
3778 Clear 10 1019 93 10000 2.06 20 11:52 09.05.2022
3779 Clear 10 1019 93 10000 1.54 10 10:46 09.05.2022
3780 Clear 9 1019 93 10000 1.03 340 09:59 09.05.2022
3781 Clear 12 1020 87 10000 1.54 20 07:56 09.05.2022
3782 Rain 12 1020 87 10000 1.54 10 04:33 09.05.2022
3783 Rain 12 1020 87 10000 1.54 10 04:33 09.05.2022
3784 Clear 16 1018 82 10000 1.54 0 00:22 09.05.2022
3785 Clear 21 1018 60 10000 2.57 320 22:58 08.05.2022
3786 Clear 22 1018 53 10000 3.09 350 22:29 08.05.2022
3787 Clear 23 1018 49 10000 4.12 350 20:53 08.05.2022
3788 Clear 23 1018 49 10000 4.12 350 20:18 08.05.2022
3789 Clear 23 1018 53 10000 5.66 340 19:27 08.05.2022
3790 Clear 23 1018 53 10000 5.66 340 19:27 08.05.2022
3791 Clear 22 1019 60 10000 5.14 340 18:35 08.05.2022
3792 Clear 20 1020 68 10000 5.66 10 17:22 08.05.2022
3793 Clear 17 1020 77 10000 5.66 360 15:44 08.05.2022
3794 Clear 17 1020 77 10000 5.66 360 15:20 08.05.2022
3795 Clear 11 1019 93 10000 3.6 10 12:46 08.05.2022
3796 Clear 12 1019 94 10000 3.09 20 10:56 08.05.2022
3797 Clear 12 1019 94 10000 3.09 20 10:22 08.05.2022
3798 Clear 13 1019 88 10000 3.09 20 09:51 08.05.2022
3799 Clear 13 1020 88 10000 2.57 20 07:41 08.05.2022
3800 Fog 14 1021 94 5000 3.09 10 04:56 08.05.2022
3801 Fog 14 1021 94 200 0 0 03:20 08.05.2022
3802 Clear 17 1021 88 10000 2.06 110 00:31 08.05.2022
3803 Clear 17 1021 88 10000 2.06 110 23:54 07.05.2022
3804 Clouds 20 1021 73 10000 2.06 250 22:58 07.05.2022
3805 Clouds 20 1021 73 10000 2.06 250 22:34 07.05.2022
3806 Clouds 23 1021 68 10000 2.57 250 21:55 07.05.2022
3807 Clouds 23 1021 68 10000 2.57 250 21:20 07.05.2022
3808 Clouds 23 1021 64 10000 2.57 360 19:59 07.05.2022
3809 Clouds 23 1022 64 10000 3.09 320 18:38 07.05.2022
3810 Clear 20 1024 83 10000 3.6 320 16:19 07.05.2022
3811 Clear 14 1024 94 10000 2.57 20 14:46 07.05.2022
3812 Clear 12 1023 94 8000 0 0 11:19 07.05.2022
3813 Clear 12 1023 94 8000 1.54 360 09:39 07.05.2022
3814 Clear 12 1023 94 8000 2.06 10 08:28 07.05.2022
3815 Fog 12 1023 94 8000 0 0 06:44 07.05.2022
3816 Fog 13 1023 94 10000 1.54 20 05:41 07.05.2022
3817 Clear 14 1023 94 10000 1.54 30 03:54 07.05.2022
3818 Clear 18 1022 82 10000 1.54 290 23:39 06.05.2022
3819 Clouds 20 1022 73 10000 3.09 280 22:33 06.05.2022
3820 Clouds 21 1022 64 10000 4.12 280 21:47 06.05.2022
3821 Clouds 21 1022 68 10000 4.63 270 20:37 06.05.2022
3822 Clouds 21 1021 73 10000 4.12 270 19:43 06.05.2022
3823 Clouds 21 1021 73 10000 4.12 270 19:19 06.05.2022
3824 Clouds 22 1022 60 10000 4.12 320 18:25 06.05.2022
3825 Clouds 20 1023 68 10000 3.6 310 17:27 06.05.2022
3826 Clear 15 1023 82 10000 3.6 330 15:49 06.05.2022
3827 Clear 15 1023 82 10000 3.6 330 14:58 06.05.2022
3828 Clear 10 1022 93 10000 3.09 10 13:38 06.05.2022
3829 Clear 10 1021 93 10000 2.57 10 12:42 06.05.2022
3830 Fog 10 1021 93 10000 2.06 360 11:58 06.05.2022
3831 Clear 10 1020 93 10000 2.06 10 10:36 06.05.2022
3832 Clear 10 1020 93 10000 2.57 350 09:46 06.05.2022
3833 Clear 11 1021 87 10000 3.6 10 08:52 06.05.2022
3834 Clear 12 1021 87 10000 3.09 10 07:27 06.05.2022
3835 Clear 12 1021 87 10000 3.6 10 06:24 06.05.2022
3836 Fog 15 1020 82 10000 1.03 40 02:54 06.05.2022
3837 Clear 15 1020 83 10000 1.03 70 01:57 06.05.2022
3838 Clouds 20 1020 64 10000 2.57 160 22:45 05.05.2022
3839 Clouds 21 1020 56 10000 2.57 350 21:45 05.05.2022
3840 Clouds 20 1020 64 10000 3.6 340 20:27 05.05.2022
3841 Clouds 20 1021 58 10000 4.63 320 18:36 05.05.2022
3842 Clear 19 1022 66 10000 2.57 360 16:40 05.05.2022
3843 Clear 13 1021 81 10000 2.57 360 14:53 05.05.2022
3844 Clear 9 1021 95 10000 3.6 30 13:25 05.05.2022
3845 Clear 10 1020 95 10000 2.57 20 12:53 05.05.2022
3846 Clear 10 1020 99 10000 2.06 10 10:53 05.05.2022
3847 Clear 10 1020 99 10000 1.54 360 09:40 05.05.2022
3848 Rain 10 1020 99 8000 2.57 40 07:45 05.05.2022
3849 Fog 12 1020 97 100 1.03 360 05:42 05.05.2022
3850 Clear 13 1020 90 8000 0 0 02:18 05.05.2022
3851 Clear 13 1020 88 10000 1.03 120 01:32 05.05.2022
3852 Clear 15 1019 75 10000 2.06 160 23:53 04.05.2022
3853 Clear 18 1019 63 10000 2.57 170 22:50 04.05.2022
3854 Clear 19 1019 55 10000 3.09 170 21:54 04.05.2022
3855 Clear 19 1019 55 10000 3.09 170 21:29 04.05.2022
3856 Clouds 20 1019 52 10000 3.09 170 20:30 04.05.2022
3857 Clear 19 1020 48 10000 3.09 310 19:55 04.05.2022
3858 Clear 19 1020 48 10000 3.09 310 19:24 04.05.2022
3859 Clouds 19 1021 55 10000 3.09 10 18:22 04.05.2022
3860 Clouds 19 1021 55 10000 3.6 340 17:58 04.05.2022
3861 Clear 15 1022 79 10000 3.09 350 15:42 04.05.2022
3862 Clear 14 1022 81 10000 3.09 350 15:24 04.05.2022
3863 Clear 11 1022 95 10000 3.09 10 14:21 04.05.2022
3864 Fog 8 1021 100 10000 2.06 10 13:49 04.05.2022
3865 Fog 7 1021 100 10000 2.06 20 12:34 04.05.2022
3866 Mist 10 1020 99 5000 1.54 350 10:57 04.05.2022
3867 Mist 10 1021 99 5000 1.03 0 09:45 04.05.2022
3868 Mist 10 1021 100 5000 1.54 360 08:49 04.05.2022
3869 Mist 11 1022 97 1500 1.54 350 07:33 04.05.2022
3870 Mist 13 1022 91 5000 1.03 0 02:59 04.05.2022
3871 Clouds 12 1021 90 10000 1.54 170 01:24 04.05.2022
3872 Clouds 16 1021 67 10000 3.6 180 22:50 03.05.2022
3873 Clouds 16 1021 72 10000 4.12 160 21:47 03.05.2022
3874 Clouds 17 1021 71 10000 4.12 160 21:20 03.05.2022
3875 Clouds 17 1021 70 10000 4.63 170 20:31 03.05.2022
3876 Clouds 18 1022 65 10000 3.6 190 18:54 03.05.2022
3877 Clouds 18 1022 65 10000 3.6 190 18:34 03.05.2022
3878 Clouds 18 1022 59 10000 3.09 140 17:19 03.05.2022
3879 Clouds 16 1023 77 10000 2.57 100 15:43 03.05.2022
3880 Clear 12 1023 94 10000 2.57 160 13:32 03.05.2022
3881 Clear 11 1022 93 10000 2.57 160 12:30 03.05.2022
3882 Clear 12 1022 91 10000 2.57 220 11:23 03.05.2022
3883 Clouds 13 1022 89 10000 2.57 180 09:58 03.05.2022
3884 Clouds 13 1023 91 10000 0 0 07:59 03.05.2022
3885 Clouds 13 1022 88 10000 2.06 170 06:45 03.05.2022
3886 Clouds 13 1022 78 10000 3.09 160 01:53 03.05.2022
3887 Clouds 14 1022 66 10000 4.12 130 22:47 02.05.2022
3888 Clouds 14 1022 66 10000 4.12 130 22:25 02.05.2022
3889 Clouds 14 1021 65 10000 5.14 130 21:26 02.05.2022
3890 Clouds 15 1022 55 10000 4.63 160 18:57 02.05.2022
3891 Clouds 15 1022 55 10000 4.12 160 18:25 02.05.2022
3892 Clouds 16 1023 53 10000 4.63 110 17:38 02.05.2022
3893 Clouds 15 1023 53 10000 5.14 120 16:25 02.05.2022
3894 Clouds 14 1023 57 10000 6.17 130 15:41 02.05.2022
3895 Clouds 13 1022 65 10000 6.17 150 14:20 02.05.2022
3896 Clear 13 1021 67 10000 6.17 150 12:52 02.05.2022
3897 Clouds 13 1021 72 10000 5.14 140 11:24 02.05.2022
3898 Clouds 12 1020 78 10000 4.63 140 09:32 02.05.2022
3899 Clouds 12 1020 75 10000 6.17 150 07:57 02.05.2022
3900 Clouds 13 1020 71 10000 6.17 160 05:59 02.05.2022
3901 Clouds 12 1017 77 10000 4.12 190 00:40 02.05.2022
3902 Clouds 12 1017 76 10000 4.12 190 00:21 02.05.2022
3903 Clouds 15 1017 66 10000 4.63 190 22:53 01.05.2022
3904 Clouds 16 1016 59 10000 5.66 210 21:41 01.05.2022
3905 Clear 17 1016 62 10000 5.66 210 20:29 01.05.2022
3906 Clear 16 1016 63 10000 5.14 220 19:21 01.05.2022
3907 Clear 16 1016 55 10000 5.14 220 18:52 01.05.2022
3908 Clear 16 1017 59 10000 6.17 220 17:49 01.05.2022
3909 Clear 16 1017 62 10000 5.66 220 16:29 01.05.2022
3910 Clear 15 1017 64 10000 4.63 230 15:45 01.05.2022
3911 Clear 12 1016 83 10000 1.54 330 14:45 01.05.2022
3912 Mist 8 1016 93 10000 1.54 340 12:24 01.05.2022
3913 Mist 10 1015 89 3000 1.54 330 10:22 01.05.2022
3914 Fog 10 1015 90 3000 1.54 340 08:49 01.05.2022
3915 Mist 10 1016 86 5000 1.03 240 06:31 01.05.2022
3916 Clear 12 1017 78 10000 1.03 120 01:56 01.05.2022
3917 Clear 13 1018 69 10000 2.57 180 22:18 30.04.2022
3918 Clear 14 1019 65 10000 3.09 200 21:32 30.04.2022
3919 Clouds 16 1020 51 10000 2.06 80 19:54 30.04.2022
3920 Clouds 15 1021 58 10000 2.06 50 18:53 30.04.2022
3921 Clouds 14 1022 62 10000 2.06 350 17:31 30.04.2022
3922 Clear 11 1022 76 10000 2.57 40 15:51 30.04.2022
3923 Clear 11 1022 76 10000 2.57 40 15:51 30.04.2022
3924 Clear 11 1022 76 10000 2.57 40 15:18 30.04.2022
3925 Fog 7 1023 94 9000 1.54 360 13:52 30.04.2022
3926 Clouds 4 1022 87 8000 1.03 350 11:48 30.04.2022
3927 Clouds 4 1022 87 8000 1.03 350 11:26 30.04.2022
3928 Clouds 5 1023 87 7000 1.03 10 09:57 30.04.2022
3929 Clouds 5 1024 87 7000 1.54 350 07:47 30.04.2022
3930 Clear 7 1026 81 9000 1.54 340 03:58 30.04.2022
3931 Clouds 9 1025 68 10000 2.06 210 23:55 29.04.2022
3932 Clouds 12 1026 62 10000 4.12 230 22:51 29.04.2022
3933 Clouds 12 1026 62 10000 4.63 210 21:56 29.04.2022
3934 Clouds 14 1026 57 10000 4.63 210 21:24 29.04.2022
3935 Clouds 14 1026 56 10000 4.12 240 20:18 29.04.2022
3936 Clouds 14 1026 59 10000 4.12 230 19:27 29.04.2022
3937 Clouds 14 1027 55 10000 5.14 230 17:34 29.04.2022
3938 Clouds 14 1027 56 10000 4.63 220 16:36 29.04.2022
3939 Clouds 12 1026 64 10000 3.09 220 14:36 29.04.2022
3940 Clouds 8 1025 69 10000 2.06 290 13:36 29.04.2022
3941 Clouds 9 1025 69 10000 2.57 220 12:36 29.04.2022
3942 Clouds 10 1025 58 10000 3.09 250 10:29 29.04.2022
3943 Clouds 11 1024 59 10000 2.57 240 07:54 29.04.2022
3944 Clouds 11 1024 60 10000 3.09 250 07:25 29.04.2022
3945 Clouds 11 1024 58 10000 4.12 240 06:30 29.04.2022
3946 Clear 13 1022 46 10000 5.14 230 01:47 29.04.2022
3947 Clear 12 1021 48 10000 3.6 240 23:55 28.04.2022
3948 Clear 13 1021 47 10000 5.14 250 23:25 28.04.2022
3949 Clear 16 1020 42 10000 6.17 240 22:24 28.04.2022
3950 Clear 16 1020 48 10000 6.17 230 21:41 28.04.2022
3951 Clear 16 1019 50 10000 6.69 230 20:45 28.04.2022
3952 Clear 17 1019 46 10000 6.69 220 19:52 28.04.2022
3953 Clear 17 1019 47 10000 6.69 220 19:24 28.04.2022
3954 Clear 17 1019 52 10000 6.17 220 18:51 28.04.2022
3955 Clear 17 1019 51 10000 5.66 210 17:53 28.04.2022
3956 Clear 19 1018 48 10000 4.63 200 16:52 28.04.2022
3957 Clear 18 1018 47 10000 4.63 200 16:20 28.04.2022
3958 Clear 18 1017 46 10000 3.6 160 15:48 28.04.2022
3959 Clear 15 1017 60 10000 6.17 190 14:58 28.04.2022
3960 Clear 13 1015 77 10000 8.23 180 13:37 28.04.2022
3961 Clear 10 1014 93 10000 1.03 160 12:29 28.04.2022
3962 Clear 10 1013 87 10000 2.06 10 10:59 28.04.2022
3963 Clear 10 1013 87 10000 2.06 10 10:26 28.04.2022
3964 Clear 10 1012 93 10000 2.06 240 09:50 28.04.2022
3965 Clouds 11 1012 89 8000 0 0 07:41 28.04.2022
3966 Clear 11 1012 91 10000 1.54 350 06:43 28.04.2022
3967 Clear 11 1012 88 10000 1.03 40 05:52 28.04.2022
3968 Clear 11 1011 84 10000 0 0 04:42 28.04.2022
3969 Clear 12 1010 79 10000 1.03 330 01:53 28.04.2022
3970 Clear 15 1010 72 10000 2.57 240 23:32 27.04.2022
3971 Clear 18 1010 59 10000 3.09 250 22:20 27.04.2022
3972 Clear 19 1009 55 10000 3.09 250 21:43 27.04.2022
3973 Clear 19 1009 59 10000 2.06 260 20:45 27.04.2022
3974 Clear 19 1009 55 10000 2.06 220 19:55 27.04.2022
3975 Clear 19 1009 55 10000 2.06 220 19:34 27.04.2022
3976 Clouds 19 1009 53 10000 5.14 210 18:39 27.04.2022
3977 Clouds 19 1007 60 10000 7.72 230 17:55 27.04.2022
3978 Clouds 19 1006 80 10000 7.72 240 16:18 27.04.2022
3979 Clouds 16 1002 100 3000 1.54 70 13:18 27.04.2022
3980 Rain 17 999 88 10000 3.09 210 11:25 27.04.2022
3981 Thunderstorm 17 999 88 10000 7.2 220 10:45 27.04.2022
3982 Clouds 24 995 83 10000 9.77 340 08:22 27.04.2022
3983 Clouds 23 996 88 10000 9.26 10 06:41 27.04.2022
3984 Clouds 23 998 85 10000 7.72 40 02:31 27.04.2022
3985 Clouds 22 1000 84 10000 6.17 40 01:23 27.04.2022
3986 Clouds 22 1000 83 10000 7.72 50 00:27 27.04.2022
3987 Clouds 24 1001 78 10000 6.69 40 23:24 26.04.2022
3988 Clear 25 1002 73 10000 7.2 40 22:45 26.04.2022
3989 Clear 25 1002 73 10000 7.2 40 22:19 26.04.2022
3990 Clear 26 1003 65 10000 7.2 30 21:24 26.04.2022
3991 Clouds 26 1004 65 10000 7.2 30 20:38 26.04.2022
3992 Clouds 25 1005 65 10000 6.69 40 19:45 26.04.2022
3993 Clouds 25 1005 65 10000 6.69 40 19:26 26.04.2022
3994 Clear 24 1007 69 10000 5.66 40 18:39 26.04.2022
3995 Clouds 21 1008 78 10000 8.23 40 17:41 26.04.2022
3996 Clouds 23 1010 74 10000 4.63 30 15:41 26.04.2022
3997 Clouds 19 1010 95 10000 3.09 50 13:51 26.04.2022
3998 Clouds 19 1010 95 10000 3.09 50 13:28 26.04.2022
3999 Clouds 20 1009 97 10000 3.09 60 11:24 26.04.2022
4000 Clouds 20 1009 96 10000 3.6 80 10:30 26.04.2022
4001 Clouds 19 1010 97 10000 3.6 110 08:34 26.04.2022
4002 Mist 19 1009 100 4000 2.57 140 04:59 26.04.2022
4003 Mist 19 1009 100 4000 2.57 140 04:22 26.04.2022
4004 Clouds 20 1008 94 8000 2.57 150 00:51 26.04.2022
4005 Clouds 21 1007 94 10000 3.09 110 23:50 25.04.2022
4006 Clouds 21 1007 94 10000 1.54 120 21:57 25.04.2022
4007 Clouds 21 1007 88 10000 1.54 90 21:26 25.04.2022
4008 Clouds 21 1006 88 10000 3.09 90 19:58 25.04.2022
4009 Drizzle 20 1007 94 8000 3.09 50 18:48 25.04.2022
4010 Clouds 20 1007 94 7000 3.09 130 17:40 25.04.2022
4011 Mist 19 1006 100 4000 1.54 40 16:44 25.04.2022
4012 Mist 19 1006 100 3000 5.14 130 15:23 25.04.2022
4013 Mist 19 1006 100 3000 2.06 130 14:34 25.04.2022
4014 Rain 19 1004 94 8000 5.66 340 12:49 25.04.2022
4015 Thunderstorm 20 1003 94 5000 5.14 330 10:44 25.04.2022
4016 Thunderstorm 20 1004 94 500 9.77 280 09:42 25.04.2022
4017 Thunderstorm 20 1005 56 10000 9.31 6 07:49 25.04.2022
4018 Thunderstorm 19 1006 55 10000 4.12 20 05:54 25.04.2022
4019 Clear 20 1007 37 10000 3.6 30 01:30 25.04.2022
4020 Clear 20 1007 45 10000 5.14 30 23:56 24.04.2022
4021 Clear 23 1007 38 10000 5.14 30 23:25 24.04.2022
4022 Clear 25 1008 23 10000 6.17 10 22:39 24.04.2022
4023 Clear 25 1008 25 10000 7.72 20 21:56 24.04.2022
4024 Clear 25 1008 25 10000 7.72 20 21:22 24.04.2022
4025 Clear 25 1008 27 10000 7.72 20 20:46 24.04.2022
4026 Clear 25 1008 27 10000 7.72 20 20:21 24.04.2022
4027 Clear 23 1010 40 10000 7.2 20 18:44 24.04.2022
4028 Clear 20 1012 52 10000 7.2 10 17:49 24.04.2022
4029 Clear 20 1012 52 10000 7.2 10 17:21 24.04.2022
4030 Clear 20 1012 52 10000 7.2 10 17:21 24.04.2022
4031 Clear 19 1012 55 10000 5.66 350 16:51 24.04.2022
4032 Clear 19 1012 55 10000 5.66 350 16:25 24.04.2022
4033 Clear 17 1012 59 10000 5.66 360 15:43 24.04.2022
4034 Clear 14 1012 72 10000 5.14 360 14:33 24.04.2022
4035 Clear 11 1011 82 10000 4.63 20 13:27 24.04.2022
4036 Clear 10 1011 87 10000 3.6 340 12:56 24.04.2022
4037 Clear 11 1010 76 10000 4.12 350 11:50 24.04.2022
4038 Clear 11 1009 82 10000 4.63 350 10:47 24.04.2022
4039 Clear 11 1009 82 10000 3.09 340 09:47 24.04.2022
4040 Clear 12 1009 82 10000 4.63 10 07:55 24.04.2022
4041 Clear 12 1009 76 10000 4.12 360 05:45 24.04.2022
4042 Clear 15 1008 63 10000 5.66 340 02:30 24.04.2022
4043 Clear 16 1007 59 10000 4.63 350 00:45 24.04.2022
4044 Clear 18 1006 52 10000 5.14 360 23:46 23.04.2022
4045 Clear 18 1006 52 10000 5.14 360 23:25 23.04.2022
4046 Clear 21 1006 40 10000 6.17 310 21:59 23.04.2022
4047 Clear 21 1006 40 10000 6.17 310 21:38 23.04.2022
4048 Clear 21 1005 39 10000 8.23 330 20:59 23.04.2022
4049 Clear 21 1006 41 10000 7.72 300 19:56 23.04.2022
4050 Clear 20 1006 42 10000 7.72 300 19:20 23.04.2022
4051 Clear 19 1007 45 10000 5.66 300 18:54 23.04.2022
4052 Clear 19 1007 45 10000 5.66 300 18:31 23.04.2022
4053 Clear 18 1007 59 10000 7.2 310 17:44 23.04.2022
4054 Clear 17 1007 62 10000 7.72 320 16:45 23.04.2022
4055 Clear 16 1007 75 10000 3.6 310 15:36 23.04.2022
4056 Clear 11 1006 78 10000 2.57 330 13:24 23.04.2022
4057 Clouds 12 1005 70 10000 1.54 340 11:29 23.04.2022
4058 Clouds 13 1005 67 10000 2.57 240 09:39 23.04.2022
4059 Clouds 14 1005 68 10000 3.6 230 07:52 23.04.2022
4060 Clouds 16 1006 66 10000 7.72 236 03:56 23.04.2022
4061 Clouds 16 1004 71 10000 2.57 280 02:34 23.04.2022
4062 Clouds 14 1004 84 10000 3.6 290 23:34 22.04.2022
4063 Clouds 15 1004 88 8000 5.66 270 22:40 22.04.2022
4064 Clouds 15 1004 94 6000 6.17 300 21:55 22.04.2022
4065 Clouds 15 1004 94 6000 6.17 300 21:37 22.04.2022
4066 Rain 15 1004 92 6000 4.63 310 20:29 22.04.2022
4067 Rain 15 1004 88 9000 4.12 320 19:23 22.04.2022
4068 Clouds 15 1005 76 9000 3.6 320 18:53 22.04.2022
4069 Rain 15 1005 75 9000 3.6 320 18:20 22.04.2022
4070 Rain 15 1005 72 10000 5.14 350 16:53 22.04.2022
4071 Rain 15 1006 72 10000 3.6 330 15:57 22.04.2022
4072 Rain 15 1006 72 10000 3.6 330 15:23 22.04.2022
4073 Rain 14 1006 76 10000 2.57 300 14:21 22.04.2022
4074 Rain 14 1005 81 10000 1.54 360 13:41 22.04.2022
4075 Rain 12 1005 88 10000 3.09 330 12:30 22.04.2022
4076 Rain 13 1006 89 10000 3.09 350 11:23 22.04.2022
4077 Clear 13 1006 92 10000 3.09 360 10:53 22.04.2022
4078 Rain 13 1006 92 10000 3.09 360 10:32 22.04.2022
4079 Rain 12 1006 94 10000 2.57 20 09:54 22.04.2022
4080 Clear 11 1007 93 10000 5.14 50 08:56 22.04.2022
4081 Clear 12 1007 92 10000 5.14 50 08:29 22.04.2022
4082 Clear 13 1009 74 10000 2.06 30 05:31 22.04.2022
4083 Clear 14 1009 77 10000 1.54 350 00:53 22.04.2022
4084 Clear 17 1009 65 10000 1.54 300 23:29 21.04.2022
4085 Clear 18 1010 59 10000 3.6 290 22:34 21.04.2022
4086 Clear 19 1010 59 10000 3.6 260 21:23 21.04.2022
4087 Clear 20 1010 53 10000 4.63 280 20:27 21.04.2022
4088 Clear 20 1011 48 10000 4.12 240 18:49 21.04.2022
4089 Clear 20 1011 47 10000 4.12 240 18:19 21.04.2022
4090 Clouds 19 1013 64 10000 4.63 250 16:56 21.04.2022
4091 Clouds 17 1014 82 10000 6.69 240 15:24 21.04.2022
4092 Clouds 17 1014 84 10000 4.63 260 14:51 21.04.2022
4093 Clear 16 1013 96 10000 2.06 250 13:59 21.04.2022
4094 Clear 16 1013 97 10000 2.06 250 13:21 21.04.2022
4095 Clear 17 1011 93 10000 3.09 350 11:46 21.04.2022
4096 Rain 17 1012 95 10000 3.6 30 09:24 21.04.2022
4097 Rain 17 1013 95 10000 2.06 30 08:29 21.04.2022
4098 Rain 18 1014 93 5000 5.14 300 06:36 21.04.2022
4099 Clear 21 1014 72 10000 3.6 50 03:39 21.04.2022
4100 Clear 21 1014 72 10000 3.6 50 03:39 21.04.2022
4101 Clear 20 1014 71 10000 3.6 50 03:18 21.04.2022
4102 Clear 21 1014 67 10000 3.09 50 02:43 21.04.2022
4103 Clouds 23 1014 56 10000 2.57 40 00:27 21.04.2022
4104 Clouds 25 1013 50 10000 3.09 20 23:25 20.04.2022
4105 Clouds 26 1013 44 10000 4.63 10 22:59 20.04.2022
4106 Clouds 26 1013 44 10000 4.63 10 22:59 20.04.2022
4107 Clouds 26 1013 44 10000 4.63 10 22:33 20.04.2022
4108 Clouds 27 1014 41 10000 4.63 10 21:36 20.04.2022
4109 Clouds 27 1014 44 10000 3.09 360 20:44 20.04.2022
4110 Clouds 26 1014 47 10000 3.09 360 20:21 20.04.2022
4111 Clouds 25 1015 50 10000 4.12 360 19:39 20.04.2022
4112 Clouds 25 1016 57 10000 4.63 30 18:45 20.04.2022
4113 Clouds 24 1017 57 10000 4.12 20 17:18 20.04.2022
4114 Clouds 22 1017 64 10000 5.14 20 16:39 20.04.2022
4115 Clouds 19 1017 76 10000 5.66 40 14:55 20.04.2022
4116 Clear 15 1016 97 10000 4.63 40 12:22 20.04.2022
4117 Clear 16 1016 91 10000 3.09 30 11:40 20.04.2022
4118 Clear 16 1016 87 10000 3.6 30 10:39 20.04.2022
4119 Clear 17 1016 81 10000 2.57 50 09:28 20.04.2022
4120 Clear 17 1017 82 10000 3.09 30 08:27 20.04.2022
4121 Clear 17 1017 83 10000 2.57 50 07:44 20.04.2022
4122 Clear 18 1017 79 10000 3.6 40 05:29 20.04.2022
4123 Clouds 18 1016 93 10000 2.06 110 01:35 20.04.2022
4124 Clear 19 1016 87 10000 4.12 120 00:21 20.04.2022
4125 Clouds 22 1016 73 10000 4.12 140 22:53 19.04.2022
4126 Clouds 22 1016 73 10000 4.63 130 22:23 19.04.2022
4127 Clouds 22 1016 78 10000 4.12 140 21:48 19.04.2022
4128 Clouds 24 1016 66 10000 4.63 140 20:57 19.04.2022
4129 Clouds 24 1016 66 10000 4.63 140 20:37 19.04.2022
4130 Clouds 25 1017 53 10000 3.6 140 19:32 19.04.2022
4131 Clouds 23 1017 64 10000 3.09 20 18:30 19.04.2022
4132 Clear 21 1018 73 10000 2.57 360 16:50 19.04.2022
4133 Clear 21 1018 73 10000 2.57 360 16:25 19.04.2022
4134 Clear 19 1018 82 10000 4.12 30 15:59 19.04.2022
4135 Clouds 18 1018 82 10000 4.63 40 14:46 19.04.2022
4136 Fog 16 1017 95 10000 3.6 60 12:53 19.04.2022
4137 Fog 16 1017 95 10000 3.6 60 12:34 19.04.2022
4138 Clear 16 1017 97 10000 0 0 11:34 19.04.2022
4139 Clear 16 1017 95 10000 0 0 09:35 19.04.2022
4140 Clear 15 1018 93 10000 2.06 40 07:43 19.04.2022
4141 Clear 16 1019 90 10000 4.12 70 04:25 19.04.2022
4142 Clear 18 1018 89 10000 3.09 100 01:42 19.04.2022
4143 Clouds 19 1018 77 10000 5.14 130 23:51 18.04.2022
4144 Clouds 22 1018 65 10000 6.17 120 22:53 18.04.2022
4145 Clouds 20 1019 73 10000 5.14 120 21:26 18.04.2022
4146 Clouds 21 1019 73 10000 5.14 190 20:39 18.04.2022
4147 Clouds 21 1019 71 10000 5.14 190 20:19 18.04.2022
4148 Clouds 23 1019 57 10000 5.14 130 19:33 18.04.2022
4149 Clouds 22 1020 64 10000 3.6 50 18:45 18.04.2022
4150 Clouds 22 1021 62 10000 5.66 40 17:49 18.04.2022
4151 Clouds 22 1021 64 10000 5.66 40 17:19 18.04.2022
4152 Clouds 21 1021 70 10000 5.14 50 16:39 18.04.2022
4153 Clear 19 1022 78 10000 5.66 80 15:32 18.04.2022
4154 Clear 16 1022 88 10000 4.12 90 14:27 18.04.2022
4155 Clear 15 1022 95 10000 3.09 100 13:24 18.04.2022
4156 Fog 14 1021 95 10000 3.09 90 12:27 18.04.2022
4157 Clouds 15 1021 95 10000 3.71 51 10:58 18.04.2022
4158 Clouds 15 1021 95 10000 3.73 51 10:18 18.04.2022
4159 Clear 15 1021 94 10000 1.54 80 09:30 18.04.2022
4160 Clear 17 1022 91 10000 3.09 80 07:29 18.04.2022
4161 Rain 18 1023 80 10000 5.14 100 03:51 18.04.2022
4162 Clouds 18 1022 77 10000 5.14 120 23:30 17.04.2022
4163 Clouds 20 1021 64 10000 5.66 120 22:37 17.04.2022
4164 Clouds 20 1022 56 10000 5.66 120 21:34 17.04.2022
4165 Clouds 21 1022 54 10000 4.12 120 20:53 17.04.2022
4166 Clouds 21 1022 55 10000 4.12 120 20:25 17.04.2022
4167 Clouds 21 1023 61 10000 3.09 110 19:20 17.04.2022
4168 Clouds 21 1024 60 10000 4.63 110 17:34 17.04.2022
4169 Rain 19 1024 68 10000 3.09 70 15:37 17.04.2022
4170 Clouds 19 1024 68 10000 3.09 70 14:53 17.04.2022
4171 Clouds 16 1024 87 10000 2.06 80 13:41 17.04.2022
4172 Clouds 15 1024 89 10000 2.57 80 12:52 17.04.2022
4173 Clouds 16 1023 89 10000 0 0 11:22 17.04.2022
4174 Rain 16 1023 89 10000 1.54 70 10:30 17.04.2022
4175 Rain 15 1023 89 10000 1.54 110 09:57 17.04.2022
4176 Clouds 15 1023 87 10000 1.54 110 09:23 17.04.2022
4177 Clouds 16 1023 84 10000 0 0 08:41 17.04.2022
4178 Clouds 17 1024 77 10000 1.54 80 06:52 17.04.2022
4179 Clouds 18 1024 79 10000 5.14 120 02:56 17.04.2022
4180 Clouds 17 1023 77 10000 3.09 140 00:43 17.04.2022
4181 Clouds 18 1023 76 10000 4.63 110 23:41 16.04.2022
4182 Clouds 20 1022 68 10000 5.14 130 21:55 16.04.2022
4183 Clouds 19 1022 69 10000 5.14 130 21:23 16.04.2022
4184 Clouds 21 1023 60 10000 4.63 130 19:33 16.04.2022
4185 Clouds 22 1023 53 10000 4.12 10 18:45 16.04.2022
4186 Clouds 20 1024 56 10000 3.09 10 17:38 16.04.2022
4187 Clouds 18 1025 72 10000 3.09 40 16:31 16.04.2022
4188 Clouds 17 1025 82 10000 3.09 50 15:23 16.04.2022
4189 Fog 15 1025 88 10000 2.06 50 14:43 16.04.2022
4190 Fog 13 1024 90 9000 1.54 60 13:55 16.04.2022
4191 Fog 13 1024 90 9000 1.54 60 13:25 16.04.2022
4192 Fog 11 1023 100 800 0 0 11:58 16.04.2022
4193 Fog 12 1022 100 600 0 0 10:37 16.04.2022
4194 Fog 11 1022 97 100 1.54 330 09:39 16.04.2022
4195 Fog 12 1022 95 10000 1.54 330 08:54 16.04.2022
4196 Clear 14 1022 95 10000 3.09 70 07:31 16.04.2022
4197 Clear 14 1022 93 10000 2.57 90 06:18 16.04.2022
4198 Clouds 16 1022 87 10000 4.12 130 01:53 16.04.2022
4199 Clouds 16 1022 81 10000 4.63 130 00:19 16.04.2022
4200 Clouds 19 1022 68 10000 5.14 110 22:52 15.04.2022
4201 Clouds 19 1022 68 10000 5.14 110 22:31 15.04.2022
4202 Clouds 20 1022 60 10000 4.63 140 21:35 15.04.2022
4203 Clouds 19 1021 91 10000 4.12 140 20:44 15.04.2022
4204 Clouds 19 1021 94 10000 4.02 144 19:52 15.04.2022
4205 Clouds 18 1022 94 10000 3.6 140 19:33 15.04.2022
4206 Clouds 18 1022 94 10000 5 60 18:45 15.04.2022
4207 Clouds 18 1022 94 10000 5 60 18:23 15.04.2022
4208 Clouds 17 1023 94 10000 5 20 17:29 15.04.2022
4209 Clouds 17 1023 93 10000 4 100 16:25 15.04.2022
4210 Clouds 17 1023 95 10000 6 100 15:54 15.04.2022
4211 Clouds 15 1023 82 10000 2 170 14:22 15.04.2022
4212 Clear 11 1022 90 10000 1.03 260 12:53 15.04.2022
4213 Clear 11 1022 90 10000 1.03 260 12:28 15.04.2022
4214 Clouds 12 1022 81 10000 4.63 150 11:54 15.04.2022
4215 Clouds 13 1022 75 10000 2.06 170 10:49 15.04.2022
4216 Clouds 14 1022 73 10000 2.06 170 10:21 15.04.2022
4217 Clouds 15 1022 73 10000 2.57 150 09:24 15.04.2022
4218 Clouds 15 1022 72 10000 2.57 170 08:57 15.04.2022
4219 Clouds 15 1022 73 10000 4.12 140 06:55 15.04.2022
4220 Clouds 15 1022 73 10000 3.09 150 05:56 15.04.2022
4221 Clouds 15 1022 73 10000 3.6 160 01:33 15.04.2022
4222 Clouds 16 1022 64 10000 6.17 180 23:30 14.04.2022
4223 Clouds 17 1022 58 10000 6.17 180 22:46 14.04.2022
4224 Clouds 17 1021 65 10000 6.17 180 22:27 14.04.2022
4225 Clouds 17 1021 65 10000 6.17 180 22:27 14.04.2022
4226 Clouds 17 1021 65 10000 6.69 200 21:53 14.04.2022
4227 Clouds 18 1021 62 10000 6.17 200 20:35 14.04.2022
4228 Clouds 18 1022 53 10000 6.69 200 19:22 14.04.2022
4229 Clouds 18 1022 55 10000 6.69 190 17:58 14.04.2022
4230 Clouds 18 1022 56 10000 6.69 190 17:28 14.04.2022
4231 Clouds 18 1022 63 10000 6.17 200 16:33 14.04.2022
4232 Clouds 18 1021 73 10000 5.36 216 14:27 14.04.2022
4233 Clouds 17 1021 81 10000 3.58 186 13:39 14.04.2022
4234 Clouds 9 1020 89 10000 1.54 270 12:51 14.04.2022
4235 Clouds 9 1020 89 10000 1.54 270 12:30 14.04.2022
4236 Clouds 13 1020 73 10000 1.03 200 11:23 14.04.2022
4237 Clear 13 1019 74 10000 2.06 330 10:36 14.04.2022
4238 Clear 9 1019 81 10000 2.06 330 09:56 14.04.2022
4239 Clear 9 1019 87 10000 2.06 310 08:44 14.04.2022
4240 Clear 9 1019 87 10000 0 0 06:51 14.04.2022
4241 Clear 12 1018 76 10000 0 0 02:53 14.04.2022
4242 Clear 16 1017 67 10000 3.6 240 22:56 13.04.2022
4243 Clouds 17 1017 61 10000 4.63 220 22:19 13.04.2022
4244 Clouds 17 1016 60 10000 5.66 220 21:34 13.04.2022
4245 Clouds 17 1016 66 10000 6.17 220 20:22 13.04.2022
4246 Clouds 18 1016 66 10000 5.66 220 19:32 13.04.2022
4247 Clouds 17 1016 66 10000 5.66 230 18:20 13.04.2022
4248 Clouds 17 1016 68 10000 5.14 220 17:24 13.04.2022
4249 Clouds 17 1016 69 10000 5.14 210 16:34 13.04.2022
4250 Clouds 16 1016 73 10000 4.63 250 15:38 13.04.2022
4251 Clouds 16 1016 75 10000 3.6 250 14:51 13.04.2022
4252 Clouds 16 1016 73 10000 3.6 250 14:26 13.04.2022
4253 Clouds 12 1016 82 10000 2.57 250 13:28 13.04.2022
4254 Clear 12 1012 82 10000 3.6 250 12:25 13.04.2022
4255 Clear 12 1012 82 10000 3.6 250 12:25 13.04.2022
4256 Clear 14 1014 69 10000 2.06 350 10:54 13.04.2022
4257 Clear 14 1014 62 10000 2.57 270 09:44 13.04.2022
4258 Clear 15 1014 63 10000 2.06 260 08:43 13.04.2022
4259 Clouds 17 1014 61 10000 1.54 320 06:52 13.04.2022
4260 Clouds 17 1014 51 10000 1.54 320 06:26 13.04.2022
4261 Clear 17 1014 58 10000 1.54 310 05:36 13.04.2022
4262 Clear 16 1012 71 10000 2.57 320 00:22 13.04.2022
4263 Clear 18 1011 57 10000 3.6 280 23:45 12.04.2022
4264 Clear 20 1009 45 10000 4.12 280 22:19 12.04.2022
4265 Clear 19 1009 48 10000 5.66 270 21:29 12.04.2022
4266 Clear 19 1008 51 10000 5.14 260 20:41 12.04.2022
4267 Clear 19 1009 46 10000 5.14 270 19:50 12.04.2022
4268 Clear 20 1009 45 10000 5.14 270 19:31 12.04.2022
4269 Clouds 20 1009 46 10000 5.66 270 18:31 12.04.2022
4270 Clouds 19 1010 52 10000 5.66 270 17:30 12.04.2022
4271 Clouds 19 1010 54 10000 5.14 270 16:23 12.04.2022
4272 Clouds 19 1010 56 10000 4.12 280 15:33 12.04.2022
4273 Clear 18 1010 64 10000 4.47 285 14:29 12.04.2022
4274 Clear 18 1010 62 10000 4.02 279 13:37 12.04.2022
4275 Clear 13 1010 82 10000 2.06 0 12:53 12.04.2022
4276 Clear 14 1009 76 10000 1.54 290 11:47 12.04.2022
4277 Clear 15 1009 74 10000 1.54 290 11:20 12.04.2022
4278 Clear 16 1009 82 10000 3.09 250 09:24 12.04.2022
4279 Clear 16 1009 87 10000 3.6 240 07:59 12.04.2022
4280 Clouds 16 1009 90 10000 4.12 250 06:32 12.04.2022
4281 Clouds 16 1009 90 10000 4.12 250 06:32 12.04.2022
4282 Clouds 17 1009 88 10000 5.66 250 05:34 12.04.2022
4283 Clouds 19 1006 100 10000 3.6 280 00:46 12.04.2022
4284 Clouds 22 1004 71 10000 5.66 280 22:53 11.04.2022
4285 Clouds 22 1004 74 10000 7.2 300 21:49 11.04.2022
4286 Clouds 22 1004 73 10000 4.12 280 20:59 11.04.2022
4287 Clouds 22 1003 74 10000 4.12 280 20:29 11.04.2022
4288 Clouds 22 1003 80 10000 5.14 270 19:56 11.04.2022
4289 Clouds 22 1002 82 10000 5.14 270 19:21 11.04.2022
4290 Clouds 22 1003 85 10000 5.66 290 18:48 11.04.2022
4291 Clouds 20 1004 92 8000 5.66 280 17:57 11.04.2022
4292 Rain 19 1005 97 8000 6.17 320 16:57 11.04.2022
4293 Rain 21 1005 94 10000 6.69 340 16:20 11.04.2022
4294 Drizzle 19 1006 100 2000 3.09 40 14:35 11.04.2022
4295 Rain 20 1006 100 5000 4.63 30 12:53 11.04.2022
4296 Rain 19 1006 100 1000 4.63 30 12:35 11.04.2022
4297 Rain 20 1006 94 10000 2.57 50 11:37 11.04.2022
4298 Rain 20 1006 94 10000 3.6 80 10:31 11.04.2022
4299 Rain 20 1007 88 10000 2.06 30 09:22 11.04.2022
4300 Clouds 20 1009 88 10000 2.57 80 06:51 11.04.2022
4301 Clouds 21 1010 77 10000 2.57 80 02:30 11.04.2022
4302 Clouds 22 1010 81 10000 6.69 40 22:39 10.04.2022
4303 Clouds 27 1011 46 10000 7.72 60 21:55 10.04.2022
4304 Clouds 27 1011 46 10000 7.72 60 21:33 10.04.2022
4305 Clouds 28 1011 47 10000 6.17 50 20:31 10.04.2022
4306 Clouds 27 1012 52 10000 5.66 60 19:45 10.04.2022
4307 Clouds 22 1011 75 10000 5.66 60 19:23 10.04.2022
4308 Clouds 22 1011 75 10000 5.14 40 18:45 10.04.2022
4309 Clouds 24 1012 71 10000 5.14 40 17:55 10.04.2022
4310 Clouds 24 1012 71 10000 5.14 40 17:35 10.04.2022
4311 Clear 23 1013 75 10000 6.17 30 16:25 10.04.2022
4312 Clear 23 1014 74 10000 6.17 20 15:20 10.04.2022
4313 Clouds 20 1015 83 10000 6.17 30 14:25 10.04.2022
4314 Clouds 18 1013 94 10000 5.14 40 12:35 10.04.2022
4315 Clear 18 1014 95 10000 3.09 30 11:49 10.04.2022
4316 Clear 18 1014 94 10000 3.09 30 11:29 10.04.2022
4317 Clear 18 1013 94 10000 3.09 40 10:54 10.04.2022
4318 Clear 18 1013 94 10000 3.09 40 10:54 10.04.2022
4319 Clear 18 1013 94 10000 3.09 40 09:58 10.04.2022
4320 Clear 18 1013 94 10000 2.57 20 09:37 10.04.2022
4321 Clouds 18 1013 95 10000 3.6 40 08:22 10.04.2022
4322 Clouds 18 1013 96 10000 2.57 40 07:27 10.04.2022
4323 Clear 18 1014 95 10000 0 0 05:46 10.04.2022
4324 Clear 19 1014 94 10000 2.06 120 02:25 10.04.2022
4325 Clouds 20 1014 79 10000 3.09 140 00:28 10.04.2022
4326 Clouds 20 1014 87 10000 4.12 130 23:48 09.04.2022
4327 Clouds 21 1014 86 10000 5.14 120 22:47 09.04.2022
4328 Clouds 21 1014 86 10000 4.63 140 21:35 09.04.2022
4329 Clouds 21 1014 87 10000 4.63 130 20:49 09.04.2022
4330 Clouds 20 1014 86 10000 4.63 130 20:26 09.04.2022
4331 Clouds 21 1015 87 7000 4.63 170 19:42 09.04.2022
4332 Clouds 21 1015 88 7000 5.14 170 18:58 09.04.2022
4333 Clouds 20 1015 88 10000 3.6 170 18:20 09.04.2022
4334 Clouds 19 1016 88 10000 3.13 186 17:39 09.04.2022
4335 Clouds 19 1016 88 10000 3.13 186 17:39 09.04.2022
4336 Clouds 21 1016 88 10000 2.68 196 16:50 09.04.2022
4337 Clouds 20 1016 88 10000 2.24 201 15:55 09.04.2022
4338 Clouds 20 1016 90 10000 3.09 360 15:30 09.04.2022
4339 Clouds 18 1016 100 7000 3.6 360 14:44 09.04.2022
4340 Clouds 18 1016 100 7000 3.6 360 14:22 09.04.2022
4341 Mist 18 1016 94 5000 2.06 360 13:18 09.04.2022
4342 Mist 18 1016 100 5000 2.57 350 12:41 09.04.2022
4343 Clouds 17 1016 100 10000 0 0 11:22 09.04.2022
4344 Clouds 18 1015 96 10000 0 0 10:21 09.04.2022
4345 Clear 18 1015 96 10000 1.03 50 09:38 09.04.2022
4346 Clouds 18 1015 95 10000 1.54 60 08:53 09.04.2022
4347 Clear 20 1016 95 10000 0 0 06:56 09.04.2022
4348 Clouds 20 1015 91 10000 5.14 120 01:32 09.04.2022
4349 Clouds 21 1015 76 10000 5.14 130 23:30 08.04.2022
4350 Clouds 22 1015 68 10000 4.63 140 21:58 08.04.2022
4351 Clouds 23 1015 66 10000 5.14 150 21:29 08.04.2022
4352 Clouds 20 1015 81 10000 5.14 150 20:38 08.04.2022
4353 Clouds 20 1015 80 10000 4.12 140 19:20 08.04.2022
4354 Clouds 20 1016 79 10000 5.14 180 18:29 08.04.2022
4355 Clouds 20 1016 79 10000 5.66 150 17:49 08.04.2022
4356 Clouds 20 1016 79 10000 5.66 150 17:25 08.04.2022
4357 Clouds 20 1016 79 10000 3.13 109 16:47 08.04.2022
4358 Clouds 19 1016 83 8000 3.13 80 15:57 08.04.2022
4359 Clouds 19 1016 83 8000 3.09 80 15:26 08.04.2022
4360 Mist 18 1016 95 4000 3.09 80 14:27 08.04.2022
4361 Mist 17 1016 100 3000 2.57 80 13:46 08.04.2022
4362 Fog 18 1016 100 200 2.57 70 13:27 08.04.2022
4363 Clouds 17 1016 97 10000 1.54 90 11:56 08.04.2022
4364 Clouds 17 1015 97 10000 2.57 130 10:33 08.04.2022
4365 Clouds 17 1015 96 10000 2.57 140 09:38 08.04.2022
4366 Clouds 18 1015 95 10000 2.57 130 08:44 08.04.2022
4367 Clouds 18 1016 96 10000 3.6 130 06:55 08.04.2022
4368 Clouds 18 1016 96 10000 3.6 130 05:18 08.04.2022
4369 Clear 20 1015 88 10000 4.12 140 01:27 08.04.2022
4370 Clear 21 1015 80 10000 3.6 140 00:25 08.04.2022
4371 Clear 21 1015 80 10000 3.6 140 00:25 08.04.2022
4372 Clear 21 1014 81 10000 3.09 130 22:59 07.04.2022
4373 Rain 21 1014 81 10000 3.09 130 22:39 07.04.2022
4374 Clear 21 1014 81 10000 3.09 130 22:21 07.04.2022
4375 Clouds 21 1014 80 10000 3.6 130 21:51 07.04.2022
4376 Rain 21 1014 79 10000 3.6 130 21:19 07.04.2022
4377 Clouds 22 1014 79 10000 4.12 120 20:31 07.04.2022
4378 Clouds 22 1014 80 10000 3.09 140 18:35 07.04.2022
4379 Clear 22 1015 81 10000 2.06 180 17:27 07.04.2022
4380 Clouds 22 1015 79 10000 1.03 0 16:44 07.04.2022
4381 Clouds 22 1015 78 10000 1.03 0 16:22 07.04.2022
4382 Clouds 22 1015 78 10000 1.03 0 16:22 07.04.2022
4383 Clouds 20 1016 83 10000 1.54 360 14:50 07.04.2022
4384 Clouds 19 1015 86 10000 1.54 0 13:43 07.04.2022
4385 Clouds 16 1015 97 10000 1.03 0 12:50 07.04.2022
4386 Clouds 17 1014 90 10000 2.06 360 11:34 07.04.2022
4387 Clouds 18 1014 91 10000 2.57 20 09:37 07.04.2022
4388 Clouds 17 1014 90 10000 3.09 30 08:38 07.04.2022
4389 Clear 18 1014 91 10000 1.54 20 06:43 07.04.2022
4390 Clear 20 1014 76 10000 2.57 110 02:54 07.04.2022
4391 Clear 20 1014 74 10000 2.57 110 02:27 07.04.2022
4392 Clouds 20 1013 72 10000 3.09 130 00:28 07.04.2022
4393 Clouds 22 1012 79 10000 3.6 160 22:52 06.04.2022
4394 Clouds 22 1013 78 10000 3.6 160 22:27 06.04.2022
4395 Clouds 22 1013 76 10000 4.12 10 21:45 06.04.2022
4396 Clouds 22 1013 75 10000 4.63 10 20:40 06.04.2022
4397 Clouds 22 1013 73 10000 4.63 360 19:57 06.04.2022
4398 Clouds 24 1014 62 10000 3.6 330 18:52 06.04.2022
4399 Clouds 25 1014 59 10000 3.6 330 18:33 06.04.2022
4400 Clouds 24 1015 61 10000 4.63 20 17:35 06.04.2022
4401 Clear 23 1015 68 10000 4.12 350 16:39 06.04.2022
4402 Clear 22 1015 72 10000 4.63 10 15:49 06.04.2022
4403 Clear 20 1016 73 10000 4.63 10 15:21 06.04.2022
4404 Clear 15 1016 95 10000 4.12 20 13:28 06.04.2022
4405 Clear 13 1016 95 10000 4.12 10 12:27 06.04.2022
4406 Clear 12 1015 95 10000 2.57 350 10:54 06.04.2022
4407 Clear 12 1015 95 10000 2.57 360 10:31 06.04.2022
4408 Clear 12 1015 94 10000 2.06 10 09:42 06.04.2022
4409 Clear 13 1015 93 10000 2.06 10 08:36 06.04.2022
4410 Clear 13 1015 93 10000 2.06 10 07:55 06.04.2022
4411 Clear 15 1016 81 10000 3.09 10 04:42 06.04.2022
4412 Clear 20 1014 71 10000 2.57 30 23:57 05.04.2022
4413 Clear 21 1014 70 10000 3.09 10 23:22 05.04.2022
4414 Clear 21 1015 59 10000 3.09 340 21:31 05.04.2022
4415 Clear 21 1015 60 10000 3.6 360 20:44 05.04.2022
4416 Clear 21 1015 54 10000 3.6 360 20:19 05.04.2022
4417 Clear 22 1016 40 10000 3.6 20 18:26 05.04.2022
4418 Clear 20 1017 46 10000 3.6 20 17:20 05.04.2022
4419 Clear 20 1018 46 10000 4.12 350 16:41 05.04.2022
4420 Clear 19 1018 53 10000 3.6 10 15:49 05.04.2022
4421 Clear 18 1018 58 10000 3.6 10 15:29 05.04.2022
4422 Clear 15 1018 64 10000 3.6 10 13:45 05.04.2022
4423 Clear 8 1017 89 10000 2.57 10 11:51 05.04.2022
4424 Rain 8 1017 89 10000 2.57 10 11:33 05.04.2022
4425 Rain 8 1017 81 10000 2.57 10 10:57 05.04.2022
4426 Clear 9 1017 76 10000 2.57 10 09:31 05.04.2022
4427 Rain 8 1018 81 10000 1.54 360 08:22 05.04.2022
4428 Clear 12 1017 60 10000 1.54 20 02:58 05.04.2022
4429 Clear 17 1016 50 10000 2.06 150 23:22 04.04.2022
4430 Clear 18 1016 49 10000 2.06 190 22:32 04.04.2022
4431 Clear 18 1016 48 10000 2.06 190 21:46 04.04.2022
4432 Clear 18 1016 51 10000 2.06 190 21:18 04.04.2022
4433 Clear 18 1016 52 10000 3.09 160 20:47 04.04.2022
4434 Clear 18 1016 54 10000 3.09 220 19:28 04.04.2022
4435 Clear 19 1017 51 10000 4.12 230 18:40 04.04.2022
4436 Clear 18 1017 46 10000 5.14 180 17:19 04.04.2022
4437 Clear 18 1017 47 10000 3.6 210 16:28 04.04.2022
4438 Clear 18 1017 51 10000 3.6 200 15:33 04.04.2022
4439 Clear 17 1016 52 10000 4.12 210 14:46 04.04.2022
4440 Clear 17 1016 54 10000 4.12 210 13:59 04.04.2022
4441 Clear 13 1016 63 10000 3.09 200 12:58 04.04.2022
4442 Clouds 16 1016 51 10000 6.17 200 11:29 04.04.2022
4443 Clouds 16 1015 60 10000 6.69 190 10:29 04.04.2022
4444 Clouds 18 1014 97 10000 4.12 270 05:34 04.04.2022
4445 Clouds 18 1014 95 10000 1.54 260 02:59 04.04.2022
4446 Clouds 20 1012 83 10000 2.06 330 23:19 03.04.2022
4447 Clouds 20 1012 83 10000 1.34 80 22:00 03.04.2022
4448 Clouds 21 1012 78 10000 3.09 180 21:31 03.04.2022
4449 Clouds 21 1012 76 10000 3.6 360 20:32 03.04.2022
4450 Clouds 23 1012 70 10000 3.09 10 18:47 03.04.2022
4451 Clouds 22 1013 72 10000 5.14 10 17:56 03.04.2022
4452 Clouds 22 1013 73 10000 5.14 10 17:36 03.04.2022
4453 Clouds 21 1013 76 10000 6.17 20 16:50 03.04.2022
4454 Clear 20 1014 78 10000 6.17 20 15:56 03.04.2022
4455 Clear 18 1015 85 10000 6.17 40 14:25 03.04.2022
4456 Clear 16 1015 93 10000 4.12 40 13:28 03.04.2022
4457 Clear 15 1015 95 10000 3.6 40 11:50 03.04.2022
4458 Clear 15 1016 93 10000 3.09 30 09:59 03.04.2022
4459 Clear 16 1016 93 10000 3.09 30 09:18 03.04.2022
4460 Clear 15 1017 82 10000 2.06 50 06:28 03.04.2022
4461 Clear 16 1018 66 10000 3.6 70 02:55 03.04.2022
4462 Clear 20 1017 52 10000 5.14 40 23:50 02.04.2022
4463 Clouds 19 1017 68 10000 5.66 40 22:51 02.04.2022
4464 Clouds 19 1018 68 10000 5.81 123 21:56 02.04.2022
4465 Clouds 19 1018 70 10000 5.14 40 21:21 02.04.2022
4466 Clouds 19 1019 61 10000 6.17 40 20:36 02.04.2022
4467 Clouds 18 1021 65 10000 5.66 50 18:49 02.04.2022
4468 Clouds 18 1021 65 10000 5.66 50 18:20 02.04.2022
4469 Clear 18 1023 68 10000 4.12 60 17:23 02.04.2022
4470 Clear 18 1024 65 10000 3.6 30 15:55 02.04.2022
4471 Clear 17 1024 70 10000 3.13 15 15:20 02.04.2022
4472 Clear 15 1024 74 10000 4.63 40 14:32 02.04.2022
4473 Clear 13 1025 78 10000 3.6 30 13:34 02.04.2022
4474 Fog 11 1024 91 10000 3.6 30 12:32 02.04.2022
4475 Clear 11 1024 97 10000 1.54 30 10:46 02.04.2022
4476 Clear 11 1025 95 10000 3.09 30 08:33 02.04.2022
4477 Clear 12 1026 91 10000 2.06 70 05:58 02.04.2022
4478 Clear 14 1026 86 10000 4.12 80 03:28 02.04.2022
4479 Clear 17 1024 71 10000 2.68 144 23:55 01.04.2022
4480 Clouds 18 1025 72 10000 3.6 150 22:51 01.04.2022
4481 Clouds 18 1025 70 10000 4.12 180 21:27 01.04.2022
4482 Clouds 18 1025 70 10000 4.63 210 20:49 01.04.2022
4483 Clouds 18 1025 71 10000 2.57 210 19:51 01.04.2022
4484 Clouds 18 1026 72 10000 2.57 210 19:27 01.04.2022
4485 Clouds 17 1026 70 10000 2.57 210 18:42 01.04.2022
4486 Clouds 17 1026 69 10000 2.06 330 17:45 01.04.2022
4487 Clouds 18 1027 66 10000 2.57 330 16:34 01.04.2022
4488 Clouds 17 1027 66 10000 3.09 340 15:19 01.04.2022
4489 Clouds 15 1027 65 10000 2.57 360 14:18 01.04.2022
4490 Clouds 12 1027 74 10000 2.06 10 13:32 01.04.2022
4491 Clouds 10 1027 71 10000 2.06 350 12:32 01.04.2022
4492 Clouds 10 1026 91 10000 2.06 340 11:18 01.04.2022
4493 Clear 10 1026 91 10000 1.54 340 09:53 01.04.2022
4494 Clear 10 1026 91 10000 2.06 320 07:50 01.04.2022
4495 Clouds 10 1026 92 10000 1.54 330 06:30 01.04.2022
4496 Clouds 10 1025 87 10000 1.54 10 04:45 01.04.2022
4497 Clouds 11 1025 76 10000 1.03 350 03:41 01.04.2022
4498 Clouds 11 1024 77 10000 0 0 01:53 01.04.2022
4499 Clouds 17 1023 62 10000 4.12 220 22:56 31.03.2022
4500 Clouds 17 1023 63 10000 4.63 230 21:49 31.03.2022
4501 Clouds 17 1023 63 10000 4.63 230 21:31 31.03.2022
4502 Clouds 17 1023 64 10000 5.14 230 20:28 31.03.2022
4503 Clouds 17 1023 65 10000 6.69 220 19:46 31.03.2022
4504 Clouds 17 1023 66 10000 6.17 230 18:38 31.03.2022
4505 Clouds 16 1023 68 10000 6.69 230 17:33 31.03.2022
4506 Clouds 15 1023 71 10000 6.17 240 16:18 31.03.2022
4507 Clouds 15 1023 73 10000 7.2 230 15:33 31.03.2022
4508 Clouds 15 1022 73 10000 7.2 230 14:54 31.03.2022
4509 Clouds 14 1023 70 10000 6.17 240 14:20 31.03.2022
4510 Clouds 12 1020 73 10000 4.12 260 11:34 31.03.2022
4511 Clouds 13 1020 71 10000 4.63 240 10:41 31.03.2022
4512 Clouds 13 1019 76 10000 5.14 240 09:44 31.03.2022
4513 Clouds 13 1019 70 10000 3.6 260 07:53 31.03.2022
4514 Clouds 13 1019 62 10000 5.66 240 04:42 31.03.2022
4515 Clouds 11 1017 82 8000 6.69 240 23:34 30.03.2022
4516 Clouds 15 1015 58 10000 6.17 260 22:23 30.03.2022
4517 Clouds 15 1015 55 10000 8.75 270 21:33 30.03.2022
4518 Clouds 15 1015 58 10000 7.72 260 20:44 30.03.2022
4519 Clouds 15 1015 58 10000 7.72 260 19:59 30.03.2022
4520 Clouds 15 1014 63 10000 8.75 250 18:50 30.03.2022
4521 Clouds 14 1014 66 10000 8.23 260 17:53 30.03.2022
4522 Clouds 14 1014 66 10000 8.23 260 17:34 30.03.2022
4523 Clouds 14 1013 69 10000 7.72 240 16:51 30.03.2022
4524 Clouds 14 1013 69 10000 7.72 240 16:30 30.03.2022
4525 Clouds 13 1012 74 10000 7.2 240 14:55 30.03.2022
4526 Clouds 13 1011 75 10000 7.72 230 13:34 30.03.2022
4527 Clouds 11 1012 76 10000 7.72 240 12:41 30.03.2022
4528 Clouds 13 1009 58 10000 9.77 230 10:54 30.03.2022
4529 Clouds 14 1009 58 10000 7.72 250 09:58 30.03.2022
4530 Clouds 15 1009 51 10000 6.17 230 08:29 30.03.2022
4531 Clouds 16 1009 55 10000 7.2 230 07:31 30.03.2022
4532 Clouds 17 1008 72 10000 4.63 250 05:40 30.03.2022
4533 Clear 18 1008 68 10000 4.63 230 03:21 30.03.2022
4534 Thunderstorm 18 1005 94 3000 7.2 230 23:32 29.03.2022
4535 Rain 26 1002 61 10000 4.63 290 22:19 29.03.2022
4536 Clouds 29 1002 51 10000 5.66 300 21:41 29.03.2022
4537 Clouds 29 1003 48 10000 7.2 320 20:44 29.03.2022
4538 Clouds 29 1004 48 10000 6.69 340 19:45 29.03.2022
4539 Clouds 27 1005 54 10000 7.2 350 18:54 29.03.2022
4540 Clouds 27 1005 54 10000 7.2 350 18:18 29.03.2022
4541 Clouds 26 1006 57 10000 7.72 360 17:20 29.03.2022
4542 Clouds 26 1006 57 10000 7.72 360 16:55 29.03.2022
4543 Clear 22 1008 68 10000 7.2 10 15:47 29.03.2022
4544 Clear 19 1008 72 10000 6.69 90 14:44 29.03.2022
4545 Clear 16 1008 88 10000 6.69 20 13:52 29.03.2022
4546 Clear 15 1009 94 10000 5.14 360 12:46 29.03.2022
4547 Clear 15 1009 88 10000 4.12 340 11:28 29.03.2022
4548 Clear 16 1010 88 10000 4.12 10 10:23 29.03.2022
4549 Clear 16 1010 88 10000 4.12 10 09:20 29.03.2022
4550 Clear 18 1011 77 10000 6.17 20 06:54 29.03.2022
4551 Clear 21 1012 56 10000 2.57 30 03:47 29.03.2022
4552 Clear 22 1011 79 10000 5.14 30 23:49 28.03.2022
4553 Clear 22 1011 78 10000 5.14 30 22:58 28.03.2022
4554 Clear 23 1011 73 10000 6.69 30 22:39 28.03.2022
4555 Clear 23 1011 73 10000 6.69 30 22:19 28.03.2022
4556 Clear 23 1012 72 10000 5.66 20 20:47 28.03.2022
4557 Clear 26 1013 55 10000 4.92 40 19:59 28.03.2022
4558 Clear 26 1014 53 10000 4.63 10 19:40 28.03.2022
4559 Clear 27 1014 53 10000 5.14 20 18:51 28.03.2022
4560 Clear 26 1014 52 10000 5.14 20 18:18 28.03.2022
4561 Clear 25 1015 60 10000 4.12 20 17:30 28.03.2022
4562 Clear 23 1017 77 10000 3.09 30 15:48 28.03.2022
4563 Clear 19 1017 83 10000 3.6 40 14:24 28.03.2022
4564 Clear 18 1017 83 10000 3.6 80 13:33 28.03.2022
4565 Clear 15 1017 96 8000 3.09 90 11:54 28.03.2022
4566 Clear 16 1016 95 10000 1.03 0 10:39 28.03.2022
4567 Clear 16 1016 94 10000 0 0 09:38 28.03.2022
4568 Clear 16 1016 93 10000 1.03 0 08:46 28.03.2022
4569 Clear 16 1016 93 10000 1.03 0 08:21 28.03.2022
4570 Clear 16 1016 91 10000 2.06 140 07:26 28.03.2022
4571 Clear 17 1014 78 10000 2.57 310 02:46 28.03.2022
4572 Clear 25 1011 44 10000 5.14 300 22:57 27.03.2022
4573 Clear 25 1011 43 10000 6.17 290 21:55 27.03.2022
4574 Clear 26 1011 44 10000 6.17 290 21:37 27.03.2022
4575 Clear 25 1011 47 10000 6.17 280 20:42 27.03.2022
4576 Clear 24 1011 50 10000 6.17 270 19:44 27.03.2022
4577 Clear 23 1011 52 10000 6.69 280 18:47 27.03.2022
4578 Clear 23 1012 54 10000 6.69 280 18:25 27.03.2022
4579 Clear 23 1012 59 10000 6.17 280 17:37 27.03.2022
4580 Clouds 20 1012 83 10000 5.14 310 15:55 27.03.2022
4581 Fog 17 1012 93 300 4.12 320 13:59 27.03.2022
4582 Fog 15 1012 100 300 2.57 320 13:33 27.03.2022
4583 Clear 13 1010 97 10000 2.06 350 11:41 27.03.2022
4584 Clear 16 1009 94 10000 2.06 320 09:49 27.03.2022
4585 Clouds 17 1008 91 10000 2.06 300 07:47 27.03.2022
4586 Clouds 18 1008 86 10000 4.12 260 05:18 27.03.2022
4587 Clouds 20 1006 85 10000 3.09 310 00:30 27.03.2022
4588 Clouds 20 1005 83 10000 6.17 280 22:53 26.03.2022
4589 Clouds 20 1005 83 10000 6.17 280 22:25 26.03.2022
4590 Clouds 20 1004 83 10000 4.92 267 21:31 26.03.2022
4591 Drizzle 19 1004 86 10000 6.17 270 19:39 26.03.2022
4592 Drizzle 19 1004 87 8000 7.2 270 18:44 26.03.2022
4593 Drizzle 18 1006 91 3000 6.69 260 17:44 26.03.2022
4594 Drizzle 18 1005 93 3500 6.69 270 16:47 26.03.2022
4595 Drizzle 19 1005 85 2000 6.69 250 15:43 26.03.2022
4596 Drizzle 18 1000 88 10000 7.72 260 14:18 26.03.2022
4597 Clouds 18 1004 87 10000 7.2 250 13:47 26.03.2022
4598 Clouds 17 1003 93 8000 6.69 260 12:31 26.03.2022
4599 Drizzle 17 1002 95 3000 6.17 280 10:56 26.03.2022
4600 Clouds 17 1002 96 8000 4.63 270 09:21 26.03.2022
4601 Drizzle 17 1002 96 5000 3.6 310 07:34 26.03.2022
4602 Clear 14 1003 95 10000 2.06 330 05:52 26.03.2022
4603 Clouds 15 1003 100 10000 3.6 220 03:22 26.03.2022
4604 Mist 15 998 96 500 6.17 120 22:50 25.03.2022
4605 Mist 15 998 92 1000 4.63 30 20:58 25.03.2022
4606 Mist 15 998 91 2000 6.17 30 20:26 25.03.2022
4607 Mist 15 1000 86 2000 6.17 10 19:20 25.03.2022
4608 Drizzle 15 1000 83 2000 7.72 330 18:37 25.03.2022
4609 Clouds 17 1000 76 5000 7.72 320 17:34 25.03.2022
4610 Clouds 17 1001 68 10000 7.2 290 16:29 25.03.2022
4611 Clouds 16 1002 70 10000 7.72 270 15:37 25.03.2022
4612 Drizzle 15 1001 93 10000 3.6 280 13:32 25.03.2022
4613 Clouds 11 1000 94 10000 3.09 320 11:38 25.03.2022
4614 Clouds 12 1000 97 10000 3.09 20 09:43 25.03.2022
4615 Clouds 12 1000 100 10000 3.09 20 08:56 25.03.2022
4616 Rain 12 1001 96 10000 5.66 20 07:46 25.03.2022
4617 Rain 12 1001 95 10000 5.66 20 07:19 25.03.2022
4618 Rain 12 1003 92 10000 2.06 10 03:45 25.03.2022
4619 Clouds 16 1003 61 10000 5.66 320 23:49 24.03.2022
4620 Clouds 19 1002 54 10000 8.23 310 22:24 24.03.2022
4621 Clouds 21 1001 49 10000 7.72 300 20:58 24.03.2022
4622 Clouds 22 1001 44 10000 6.69 340 19:49 24.03.2022
4623 Clouds 22 1002 58 10000 6.69 350 18:45 24.03.2022
4624 Clouds 19 1002 72 10000 7.2 320 17:36 24.03.2022
4625 Clouds 19 1003 77 10000 7.2 320 16:33 24.03.2022
4626 Drizzle 18 1003 83 8000 7.72 310 14:53 24.03.2022
4627 Clouds 18 1003 84 10000 7.72 320 14:22 24.03.2022
4628 Clouds 19 1002 83 10000 8.23 330 13:36 24.03.2022
4629 Clouds 19 1001 78 10000 9.26 330 12:29 24.03.2022
4630 Clouds 20 1000 89 10000 6.17 320 11:27 24.03.2022
4631 Thunderstorm 22 1001 84 10000 4.12 20 09:28 24.03.2022
4632 Clear 22 1001 86 10000 3.6 20 08:38 24.03.2022
4633 Clouds 23 1002 86 10000 5.14 60 05:36 24.03.2022
4634 Clouds 23 1004 85 10000 3.6 110 00:38 24.03.2022
4635 Clouds 23 1004 85 10000 6.17 110 22:21 23.03.2022
4636 Clouds 23 1004 84 10000 6.17 110 21:24 23.03.2022
4637 Clouds 23 1005 85 10000 5.66 110 20:36 23.03.2022
4638 Clouds 23 1005 83 10000 4.63 120 19:28 23.03.2022
4639 Clouds 23 1006 83 10000 4.12 140 18:18 23.03.2022
4640 Clouds 23 1007 85 10000 3.09 130 17:25 23.03.2022
4641 Clouds 23 1008 82 10000 2.06 20 15:56 23.03.2022
4642 Clouds 23 1009 82 10000 3.09 360 14:48 23.03.2022
4643 Clear 22 1009 89 10000 4.12 30 13:34 23.03.2022
4644 Clouds 19 1010 95 10000 3.6 20 11:33 23.03.2022
4645 Clouds 18 1010 96 10000 4.12 20 08:41 23.03.2022
4646 Clouds 20 1010 94 10000 2.57 40 05:50 23.03.2022
4647 Clouds 21 1012 90 10000 1.03 0 02:50 23.03.2022
4648 Clouds 21 1011 87 10000 1.54 20 00:27 23.03.2022
4649 Clouds 24 1010 76 10000 5.14 10 21:52 22.03.2022
4650 Clouds 24 1010 76 10000 5.14 10 21:23 22.03.2022
4651 Clouds 24 1011 75 10000 3.6 360 20:29 22.03.2022
4652 Clouds 24 1011 72 10000 4.63 350 19:27 22.03.2022
4653 Clouds 24 1011 75 10000 4.63 350 18:49 22.03.2022
4654 Rain 23 1012 78 10000 6.17 10 17:44 22.03.2022
4655 Clouds 22 1012 78 10000 8.23 10 16:58 22.03.2022
4656 Rain 22 1014 80 10000 7.2 30 15:43 22.03.2022
4657 Rain 21 1014 82 10000 7.2 30 15:20 22.03.2022
4658 Clouds 20 1014 85 10000 7.2 30 14:44 22.03.2022
4659 Clear 20 1014 87 10000 7.2 40 13:52 22.03.2022
4660 Clear 17 1016 94 10000 5.66 40 12:34 22.03.2022
4661 Clear 17 1015 95 10000 7.2 60 11:24 22.03.2022
4662 Rain 17 1017 93 10000 3.6 90 09:42 22.03.2022
4663 Rain 18 1018 86 10000 3.6 80 07:35 22.03.2022
4664 Clear 20 1018 70 10000 6.69 80 03:58 22.03.2022
4665 Clear 21 1018 59 10000 6.17 80 01:27 22.03.2022
4666 Clouds 23 1017 57 10000 4.92 58 22:57 21.03.2022
4667 Clouds 23 1017 55 10000 5.66 60 21:39 21.03.2022
4668 Clouds 23 1018 53 10000 6.69 60 20:44 21.03.2022
4669 Clouds 23 1018 51 10000 6.71 50 20:23 21.03.2022
4670 Clouds 23 1018 53 10000 7.72 50 19:47 21.03.2022
4671 Clouds 23 1019 52 10000 7.72 50 18:59 21.03.2022
4672 Clouds 22 1020 56 10000 8.05 35 17:36 21.03.2022
4673 Clear 21 1021 59 10000 8.23 50 16:59 21.03.2022
4674 Clear 20 1021 58 10000 8.23 50 16:33 21.03.2022
4675 Clear 20 1022 58 10000 8.23 60 15:44 21.03.2022
4676 Clear 19 1023 59 10000 8.05 56 14:45 21.03.2022
4677 Clear 18 1024 63 10000 6.71 57 13:20 21.03.2022
4678 Clear 14 1024 73 10000 4.12 80 11:59 21.03.2022
4679 Clear 12 1025 82 10000 3.6 90 11:28 21.03.2022
4680 Clear 13 1024 85 10000 5.66 80 09:51 21.03.2022
4681 Clear 13 1025 90 10000 3.6 80 07:53 21.03.2022
4682 Clear 12 1025 89 10000 2.57 60 06:29 21.03.2022
4683 Clear 13 1027 75 10000 4.63 80 02:23 21.03.2022
4684 Clear 17 1025 62 10000 5.81 70 23:26 20.03.2022
4685 Clear 17 1025 61 10000 5.81 86 22:36 20.03.2022
4686 Clear 17 1025 62 10000 6.17 120 21:40 20.03.2022
4687 Clouds 17 1025 63 10000 6.17 120 20:58 20.03.2022
4688 Clouds 17 1025 60 10000 6.17 120 20:36 20.03.2022
4689 Clouds 17 1026 62 10000 6.69 120 19:55 20.03.2022
4690 Clouds 17 1026 63 10000 6.69 120 19:24 20.03.2022
4691 Clouds 17 1027 65 10000 6.17 130 17:49 20.03.2022
4692 Clouds 17 1027 66 10000 6.17 130 17:27 20.03.2022
4693 Clouds 17 1027 65 10000 6.17 140 16:40 20.03.2022
4694 Clouds 17 1027 67 10000 5.14 100 14:53 20.03.2022
4695 Clouds 17 1027 71 10000 5.36 125 13:39 20.03.2022
4696 Clouds 15 1027 85 10000 4.12 130 12:20 20.03.2022
4697 Clouds 13 1026 93 10000 2.06 150 10:28 20.03.2022
4698 Clouds 13 1025 82 10000 1.03 250 08:35 20.03.2022
4699 Clouds 11 1025 82 10000 1.54 330 06:40 20.03.2022
4700 Clear 12 1025 81 10000 0 0 03:27 20.03.2022
4701 Clear 13 1024 71 10000 1.54 200 00:54 20.03.2022
4702 Clear 13 1024 71 10000 1.54 200 00:54 20.03.2022
4703 Clear 13 1024 71 10000 1.54 200 00:34 20.03.2022
4704 Clear 18 1023 63 10000 3.58 176 22:42 19.03.2022
4705 Clouds 18 1023 57 10000 2.57 190 21:27 19.03.2022
4706 Clouds 19 1023 54 10000 4.63 180 19:42 19.03.2022
4707 Clouds 19 1023 52 10000 4.63 180 18:44 19.03.2022
4708 Clouds 18 1023 54 10000 4.63 180 17:55 19.03.2022
4709 Clouds 18 1023 54 10000 5.66 190 17:33 19.03.2022
4710 Clouds 17 1024 55 10000 5.14 160 15:41 19.03.2022
4711 Clouds 17 1023 60 10000 6.17 160 14:21 19.03.2022
4712 Clouds 17 1022 59 10000 6.26 176 12:56 19.03.2022
4713 Clouds 16 1023 49 10000 4.63 170 12:37 19.03.2022
4714 Clouds 14 1022 56 10000 5.66 180 11:47 19.03.2022
4715 Clouds 15 1021 56 10000 6.69 180 09:55 19.03.2022
4716 Clouds 16 1020 54 10000 6.17 180 05:59 19.03.2022
4717 Clouds 16 1020 64 10000 6.17 170 02:37 19.03.2022
4718 Clouds 16 1020 62 10000 6.17 190 01:32 19.03.2022
4719 Clouds 15 1019 71 10000 8.75 170 23:22 18.03.2022
4720 Clouds 18 1017 79 10000 10.73 169 22:23 18.03.2022
4721 Rain 17 1016 82 10000 8.94 159 20:48 18.03.2022
4722 Rain 17 1017 82 7000 9.39 181 19:49 18.03.2022
4723 Rain 17 1017 81 7000 9.83 181 19:19 18.03.2022
4724 Rain 17 1017 83 4000 8.49 192 17:27 18.03.2022
4725 Rain 17 1017 81 3500 9.39 171 16:45 18.03.2022
4726 Clouds 17 1015 84 4000 9.26 150 14:37 18.03.2022
4727 Clouds 17 1015 86 4000 8.75 150 14:18 18.03.2022
4728 Rain 18 1014 80 7000 7.72 140 12:19 18.03.2022
4729 Rain 18 1013 82 7000 7.72 170 10:38 18.03.2022
4730 Clouds 20 1011 80 10000 7.72 170 09:21 18.03.2022
4731 Rain 21 1010 88 10000 7.72 160 07:45 18.03.2022
4732 Rain 23 1009 91 10000 0 0 05:46 18.03.2022
4733 Rain 23 1009 86 10000 1.54 150 02:50 18.03.2022
4734 Clouds 25 1008 81 10000 2.06 100 00:22 18.03.2022
4735 Clouds 26 1007 80 10000 2.57 100 22:56 17.03.2022
4736 Clouds 27 1008 60 10000 3.09 180 22:22 17.03.2022
4737 Clouds 27 1008 61 10000 3.6 230 21:47 17.03.2022
4738 Clouds 27 1008 61 10000 3.6 230 21:19 17.03.2022
4739 Clouds 28 1007 70 10000 3.6 250 20:32 17.03.2022
4740 Clouds 28 1007 70 10000 1.54 0 19:41 17.03.2022
4741 Clouds 28 1007 67 10000 3.6 280 18:57 17.03.2022
4742 Clouds 29 1009 63 10000 3.6 330 17:56 17.03.2022
4743 Clouds 27 1010 69 10000 3.6 340 16:43 17.03.2022
4744 Clouds 27 1010 68 10000 5.14 360 15:44 17.03.2022
4745 Clouds 26 1010 69 10000 5.14 360 15:22 17.03.2022
4746 Clouds 25 1009 78 10000 5.14 10 13:49 17.03.2022
4747 Clouds 22 1010 84 10000 5.14 20 12:49 17.03.2022
4748 Clouds 22 1010 87 10000 5.14 20 12:21 17.03.2022
4749 Clouds 21 1009 90 10000 5.14 20 11:25 17.03.2022
4750 Clouds 21 1009 94 10000 2.57 40 09:48 17.03.2022
4751 Clouds 20 1009 93 10000 1.54 50 08:34 17.03.2022
4752 Clouds 20 1009 93 10000 1.54 50 08:34 17.03.2022
4753 Clear 21 1010 92 10000 1.54 40 07:32 17.03.2022
4754 Clear 22 1010 89 10000 3.09 40 05:47 17.03.2022
4755 Clear 23 1011 83 10000 3.09 110 00:46 17.03.2022
4756 Clear 24 1010 71 10000 5.36 65 23:39 16.03.2022
4757 Clear 25 1010 70 10000 6.17 110 22:44 16.03.2022
4758 Clear 25 1010 70 10000 6.17 110 22:21 16.03.2022
4759 Clear 28 1010 48 10000 5.14 20 21:34 16.03.2022
4760 Clouds 28 1011 46 10000 5.14 30 19:40 16.03.2022
4761 Clouds 28 1011 50 10000 5.14 30 19:19 16.03.2022
4762 Clouds 27 1012 53 10000 4.63 360 18:35 16.03.2022
4763 Clouds 27 1013 53 10000 5.14 360 17:41 16.03.2022
4764 Clear 27 1014 56 10000 6.17 360 16:50 16.03.2022
4765 Clear 26 1014 59 10000 6.17 360 15:53 16.03.2022
4766 Clear 24 1015 67 10000 5.14 360 14:25 16.03.2022
4767 Clear 23 1015 70 10000 4.63 350 13:24 16.03.2022
4768 Clouds 17 1015 88 10000 3.09 20 11:53 16.03.2022
4769 Clouds 17 1015 88 10000 3.09 20 11:20 16.03.2022
4770 Clear 17 1015 82 10000 3.09 20 10:18 16.03.2022
4771 Clear 18 1015 77 10000 3.6 30 08:38 16.03.2022
4772 Mist 20 1016 94 4000 2.57 50 04:35 16.03.2022
4773 Clear 21 1015 88 10000 2.57 130 00:42 16.03.2022
4774 Clear 23 1014 80 10000 4.12 190 22:37 15.03.2022
4775 Clear 25 1014 73 10000 4.12 210 21:52 15.03.2022
4776 Clear 25 1014 65 10000 5.14 230 19:53 15.03.2022
4777 Clouds 25 1014 64 10000 5.14 270 18:45 15.03.2022
4778 Clouds 24 1015 63 10000 6.69 280 16:53 15.03.2022
4779 Clouds 25 1015 59 10000 6.69 280 16:20 15.03.2022
4780 Clear 25 1015 60 10000 4.63 270 14:57 15.03.2022
4781 Clear 25 1015 61 10000 4.63 300 14:34 15.03.2022
4782 Clear 23 1015 65 10000 3.6 300 13:27 15.03.2022
4783 Clear 14 1015 94 10000 2.57 10 11:57 15.03.2022
4784 Clear 14 1015 94 10000 2.57 10 11:28 15.03.2022
4785 Clear 15 1013 82 10000 2.06 340 09:39 15.03.2022
4786 Clear 15 1013 82 10000 2.06 350 08:32 15.03.2022
4787 Clear 15 1013 82 10000 1.54 350 07:50 15.03.2022
4788 Clear 16 1014 77 10000 1.54 360 06:51 15.03.2022
4789 Clear 17 1014 67 10000 0 0 02:38 15.03.2022
4790 Clear 23 1012 56 10000 1.54 150 23:38 14.03.2022
4791 Clear 23 1012 56 10000 1.54 150 23:20 14.03.2022
4792 Clear 24 1012 55 10000 2.06 150 22:19 14.03.2022
4793 Clear 24 1012 56 10000 3.09 160 21:22 14.03.2022
4794 Clouds 24 1013 57 10000 3.6 250 20:35 14.03.2022
4795 Clouds 24 1013 55 10000 3.6 170 19:59 14.03.2022
4796 Clear 23 1014 65 10000 3.6 170 18:31 14.03.2022
4797 Clouds 23 1014 61 10000 4.12 180 17:44 14.03.2022
4798 Clear 23 1014 62 10000 2.68 262 16:57 14.03.2022
4799 Clear 22 1015 67 10000 2.57 340 15:34 14.03.2022
4800 Clear 20 1016 73 10000 2.57 340 14:33 14.03.2022
4801 Fog 12 1016 94 10000 2.57 30 11:53 14.03.2022
4802 Clear 13 1015 88 10000 1.54 40 10:36 14.03.2022
4803 Clear 13 1015 88 10000 1.54 20 09:39 14.03.2022
4804 Rain 13 1015 88 10000 1.54 20 09:20 14.03.2022
4805 Clear 12 1015 87 10000 0 0 08:49 14.03.2022
4806 Clear 12 1015 87 10000 0 0 07:21 14.03.2022
4807 Clear 15 1016 77 10000 1.54 40 05:22 14.03.2022
4808 Clear 19 1017 63 10000 0 0 01:52 14.03.2022
4809 Clear 19 1017 63 10000 2.57 140 00:40 14.03.2022
4810 Clear 20 1016 67 10000 3.09 180 22:42 13.03.2022
4811 Clouds 20 1016 68 10000 4.63 190 21:28 13.03.2022
4812 Clouds 20 1016 70 10000 4.63 190 20:55 13.03.2022
4813 Clouds 20 1016 69 10000 5.66 180 20:29 13.03.2022
4814 Clouds 20 1017 68 10000 5.14 170 19:48 13.03.2022
4815 Clouds 21 1017 66 10000 5.14 170 19:25 13.03.2022
4816 Clouds 22 1018 56 10000 5.14 160 18:50 13.03.2022
4817 Clouds 20 1018 66 10000 5.14 160 18:30 13.03.2022
4818 Clouds 20 1018 66 10000 4.12 150 17:40 13.03.2022
4819 Clouds 20 1019 66 10000 3.6 160 16:49 13.03.2022
4820 Clouds 20 1019 67 10000 3.6 160 16:27 13.03.2022
4821 Clouds 19 1019 68 10000 2.57 80 15:44 13.03.2022
4822 Clear 20 1020 71 10000 2.06 340 14:50 13.03.2022
4823 Clear 20 1020 71 10000 2.06 340 14:50 13.03.2022
4824 Clear 18 1020 75 10000 2.57 350 13:30 13.03.2022
4825 Clear 14 1020 77 10000 1.54 0 12:37 13.03.2022
4826 Clear 12 1020 87 10000 2.06 40 11:51 13.03.2022
4827 Clear 12 1020 87 10000 2.06 40 11:30 13.03.2022
4828 Clouds 13 1019 88 10000 1.54 60 10:46 13.03.2022
4829 Clouds 13 1019 88 10000 1.03 20 09:53 13.03.2022
4830 Clouds 13 1019 88 10000 1.03 20 09:29 13.03.2022
4831 Clouds 14 1019 82 10000 2.57 40 08:40 13.03.2022
4832 Clouds 13 1019 88 10000 2.57 30 07:37 13.03.2022
4833 Clouds 14 1020 88 10000 2.57 40 05:40 13.03.2022
4834 Clouds 16 1019 72 10000 1.03 30 02:27 13.03.2022
4835 Clear 19 1018 65 10000 2.57 170 23:31 12.03.2022
4836 Clear 20 1018 61 10000 4.12 180 21:49 12.03.2022
4837 Clouds 21 1018 58 10000 5.14 180 20:29 12.03.2022
4838 Clouds 21 1018 59 10000 7.72 170 19:47 12.03.2022
4839 Clouds 21 1018 58 10000 7.72 170 18:55 12.03.2022
4840 Clouds 21 1018 58 10000 5.14 180 18:21 12.03.2022
4841 Clouds 21 1018 60 10000 5.14 200 17:23 12.03.2022
4842 Clouds 20 1018 61 10000 4.63 250 16:23 12.03.2022
4843 Clouds 20 1019 62 10000 4.12 200 15:22 12.03.2022
4844 Clouds 20 1019 66 10000 3.6 240 13:55 12.03.2022
4845 Clouds 14 1019 94 10000 1.54 240 12:35 12.03.2022
4846 Clouds 11 1019 100 10000 2.06 20 11:56 12.03.2022
4847 Clouds 11 1019 100 10000 2.06 20 11:34 12.03.2022
4848 Clouds 14 1018 82 10000 1.03 0 10:44 12.03.2022
4849 Clouds 14 1018 82 10000 1.03 0 09:44 12.03.2022
4850 Clouds 15 1018 72 10000 1.54 320 08:41 12.03.2022
4851 Clouds 17 1018 67 10000 4.63 160 06:53 12.03.2022
4852 Clouds 19 1017 68 10000 3.09 160 01:44 12.03.2022
4853 Clouds 21 1016 64 10000 4.47 192 23:51 11.03.2022
4854 Clouds 21 1016 63 10000 6.69 210 22:45 11.03.2022
4855 Clouds 22 1015 64 10000 6.17 210 21:35 11.03.2022
4856 Clouds 22 1015 66 10000 7.2 210 20:54 11.03.2022
4857 Clouds 22 1015 65 10000 7.2 210 20:28 11.03.2022
4858 Clouds 22 1015 69 10000 7.2 240 19:36 11.03.2022
4859 Clouds 22 1015 71 10000 5.66 250 18:51 11.03.2022
4860 Clouds 21 1015 67 10000 5.66 270 17:28 11.03.2022
4861 Clouds 21 1016 63 10000 6.17 270 16:27 11.03.2022
4862 Clouds 21 1016 60 10000 4.63 270 15:52 11.03.2022
4863 Clear 20 1016 57 10000 3.6 300 14:18 11.03.2022
4864 Clear 14 1017 82 10000 1.54 320 12:43 11.03.2022
4865 Clear 14 1017 82 10000 1.54 320 12:20 11.03.2022
4866 Clear 9 1016 93 10000 3 360 11:40 11.03.2022
4867 Clear 11 1015 82 10000 0 0 09:37 11.03.2022
4868 Clear 11 1015 82 10000 0 0 08:40 11.03.2022
4869 Clear 14 1015 58 10000 0 0 07:49 11.03.2022
4870 Clear 17 1015 45 10000 2.57 130 06:59 11.03.2022
4871 Clear 18 1015 42 10000 3.6 160 05:20 11.03.2022
4872 Clear 18 1015 52 10000 4.63 160 02:45 11.03.2022
4873 Clear 20 1014 62 10000 6.17 150 22:51 10.03.2022
4874 Clear 20 1013 61 10000 6.26 161 22:27 10.03.2022
4875 Clear 20 1013 63 10000 6.71 176 21:26 10.03.2022
4876 Clouds 21 1013 66 10000 6.71 181 20:39 10.03.2022
4877 Clouds 21 1013 69 10000 7.6 181 19:22 10.03.2022
4878 Clouds 21 1013 73 10000 7.2 150 18:30 10.03.2022
4879 Clouds 20 1013 82 10000 6.69 150 16:53 10.03.2022
4880 Clouds 20 1013 86 10000 8.49 149 15:36 10.03.2022
4881 Clouds 21 1013 88 10000 9.83 172 14:19 10.03.2022
4882 Clouds 21 1012 83 10000 5.14 180 12:46 10.03.2022
4883 Clouds 20 1011 94 10000 5.66 180 11:37 10.03.2022
4884 Clouds 21 1010 78 10000 6.17 180 10:19 10.03.2022
4885 Clouds 21 1011 83 10000 5.14 180 08:40 10.03.2022
4886 Clear 21 1013 88 10000 3.09 180 05:50 10.03.2022
4887 Rain 20 1013 88 10000 3.6 180 03:33 10.03.2022
4888 Rain 19 1013 94 4500 3.09 200 00:23 10.03.2022
4889 Rain 21 1012 87 10000 2.57 320 22:43 09.03.2022
4890 Clouds 21 1012 86 7000 2.57 80 21:48 09.03.2022
4891 Rain 20 1012 85 7000 3.13 52 20:59 09.03.2022
4892 Rain 21 1015 81 10000 2.68 305 19:28 09.03.2022
4893 Rain 22 1014 80 10000 2.57 150 17:57 09.03.2022
4894 Rain 22 1014 80 10000 2.57 150 17:23 09.03.2022
4895 Rain 22 1015 77 10000 3.6 10 15:42 09.03.2022
4896 Rain 21 1015 75 10000 1.54 0 14:27 09.03.2022
4897 Rain 21 1015 75 10000 1.54 0 14:27 09.03.2022
4898 Clouds 22 1016 75 10000 2.06 360 13:51 09.03.2022
4899 Clear 19 1017 72 10000 2.57 310 12:27 09.03.2022
4900 Clear 17 1016 82 10000 1.03 0 11:48 09.03.2022
4901 Clouds 17 1016 77 10000 1.03 20 10:59 09.03.2022
4902 Clear 17 1013 77 10000 4.12 40 09:40 09.03.2022
4903 Clear 17 1012 77 10000 3.6 50 08:45 09.03.2022
4904 Clear 18 1014 68 10000 3.09 50 06:27 09.03.2022
4905 Clear 22 1014 49 10000 2.06 120 01:53 09.03.2022
4906 Clear 22 1014 49 10000 2.06 150 00:22 09.03.2022
4907 Clear 24 1013 60 10000 3.6 160 22:46 08.03.2022
4908 Clear 24 1013 58 10000 3.09 210 21:51 08.03.2022
4909 Clear 24 1013 60 10000 3.09 210 21:21 08.03.2022
4910 Clear 24 1013 60 10000 3.09 170 20:22 08.03.2022
4911 Clear 24 1013 58 10000 2.57 180 19:21 08.03.2022
4912 Clouds 23 1014 64 10000 2.57 290 18:22 08.03.2022
4913 Clouds 24 1014 63 10000 3.09 220 16:44 08.03.2022
4914 Clear 24 1014 65 10000 3.6 200 14:57 08.03.2022
4915 Clear 23 1014 72 10000 3.6 240 13:45 08.03.2022
4916 Clear 19 1014 77 10000 1.03 0 12:20 08.03.2022
4917 Clear 16 1013 87 10000 1.54 350 11:42 08.03.2022
4918 Clear 19 1012 82 10000 1.54 350 10:28 08.03.2022
4919 Clear 20 1011 76 10000 1.54 340 08:57 08.03.2022
4920 Clear 20 1011 70 10000 3.09 270 06:30 08.03.2022
4921 Clear 22 1010 63 10000 5.66 270 02:37 08.03.2022
4922 Clouds 24 1006 67 10000 6.69 270 22:48 07.03.2022
4923 Clouds 24 1005 65 10000 8.23 270 21:45 07.03.2022
4924 Clouds 24 1005 64 10000 8.23 270 21:22 07.03.2022
4925 Clouds 24 1005 70 10000 9.26 280 20:33 07.03.2022
4926 Clouds 24 1004 74 10000 8.23 290 19:49 07.03.2022
4927 Clouds 24 1004 79 10000 8.23 290 18:57 07.03.2022
4928 Clouds 23 1004 80 10000 8.23 280 18:29 07.03.2022
4929 Clouds 23 1004 81 10000 9.77 290 17:31 07.03.2022
4930 Clouds 22 1003 86 10000 8.23 270 16:43 07.03.2022
4931 Clouds 20 1001 97 10000 7.2 320 14:51 07.03.2022
4932 Rain 22 1001 95 10000 7.72 350 12:34 07.03.2022
4933 Clouds 22 1002 95 3000 5.66 360 11:34 07.03.2022
4934 Thunderstorm 22 1001 96 10000 6.69 20 10:31 07.03.2022
4935 Clouds 21 1002 93 5000 3.09 50 08:34 07.03.2022
4936 Clouds 21 1002 93 5000 3.09 50 08:34 07.03.2022
4937 Clouds 22 1007 91 10000 5.66 90 02:50 07.03.2022
4938 Clouds 22 1007 89 10000 5.14 110 00:20 07.03.2022
4939 Clouds 23 1007 87 10000 6.69 110 23:23 06.03.2022
4940 Clouds 23 1007 85 10000 6.69 100 22:29 06.03.2022
4941 Clouds 23 1007 86 10000 7.2 110 21:37 06.03.2022
4942 Clouds 24 1008 88 10000 6.17 120 20:29 06.03.2022
4943 Clouds 24 1009 82 10000 4.92 92 19:43 06.03.2022
4944 Clouds 24 1009 82 10000 5.14 140 18:50 06.03.2022
4945 Clouds 24 1010 81 10000 5.14 160 17:49 06.03.2022
4946 Clouds 23 1010 83 10000 5.14 160 17:20 06.03.2022
4947 Clouds 23 1010 84 10000 4.47 146 16:39 06.03.2022
4948 Clouds 24 1010 85 10000 4.12 160 15:31 06.03.2022
4949 Clouds 24 1011 88 10000 2.57 140 14:42 06.03.2022
4950 Clouds 23 1010 92 8000 1.54 0 13:49 06.03.2022
4951 Mist 23 1010 94 3000 1.54 120 12:40 06.03.2022
4952 Fog 18 1010 99 400 2.06 170 11:46 06.03.2022
4953 Fog 20 1009 97 100 0 0 10:40 06.03.2022
4954 Clear 20 1009 96 10000 1.54 60 09:21 06.03.2022
4955 Clouds 21 1009 95 10000 2.57 70 08:28 06.03.2022
4956 Clouds 21 1009 94 10000 3.09 120 07:26 06.03.2022
4957 Clouds 21 1009 90 10000 2.57 30 02:45 06.03.2022
4958 Rain 22 1009 86 10000 5.14 80 00:36 06.03.2022
4959 Rain 23 1009 85 10000 5.14 80 00:18 06.03.2022
4960 Clouds 23 1008 88 10000 4.92 73 23:19 05.03.2022
4961 Clouds 23 1008 88 10000 4.92 73 22:35 05.03.2022
4962 Rain 24 1008 87 10000 4.63 140 21:30 05.03.2022
4963 Rain 23 1007 88 10000 4.12 100 20:38 05.03.2022
4964 Rain 24 1008 86 10000 3.6 110 19:22 05.03.2022
4965 Rain 24 1008 86 10000 4.63 120 18:48 05.03.2022
4966 Rain 24 1009 84 10000 5.66 140 17:35 05.03.2022
4967 Rain 24 1009 84 10000 5.66 120 16:19 05.03.2022
4968 Clouds 24 1009 86 10000 5.66 120 15:20 05.03.2022
4969 Clouds 24 1009 88 10000 5.14 120 14:36 05.03.2022
4970 Clouds 24 1009 90 10000 3.58 91 13:46 05.03.2022
4971 Clear 23 1010 94 10000 3.6 110 12:46 05.03.2022
4972 Clouds 21 1009 94 7000 4.12 110 11:21 05.03.2022
4973 Clear 21 1009 94 10000 3.09 120 10:53 05.03.2022
4974 Clear 21 1009 93 10000 2.06 120 09:37 05.03.2022
4975 Clear 21 1009 93 10000 0 160 08:31 05.03.2022
4976 Clear 22 1009 91 10000 0 0 07:23 05.03.2022
4977 Clear 22 1009 91 10000 0 0 07:23 05.03.2022
4978 Clear 23 1010 92 10000 0 0 05:39 05.03.2022
4979 Clouds 25 1010 83 10000 2.57 110 00:51 05.03.2022
4980 Clouds 25 1009 82 10000 2.57 130 23:21 04.03.2022
4981 Clouds 26 1009 81 10000 2.57 150 22:39 04.03.2022
4982 Clouds 25 1009 80 10000 2.57 160 21:43 04.03.2022
4983 Clouds 26 1009 75 10000 3.6 180 20:48 04.03.2022
4984 Clear 26 1010 78 10000 2.06 180 19:39 04.03.2022
4985 Clear 26 1010 74 10000 2.06 180 18:59 04.03.2022
4986 Clear 26 1010 74 10000 2.06 350 18:36 04.03.2022
4987 Clear 27 1011 71 10000 2.24 186 17:29 04.03.2022
4988 Rain 27 1011 68 10000 4.12 330 16:36 04.03.2022
4989 Rain 26 1012 74 10000 3.6 340 15:27 04.03.2022
4990 Rain 26 1012 74 10000 3.6 340 15:27 04.03.2022
4991 Clear 24 1011 80 10000 5.14 20 13:38 04.03.2022
4992 Clear 21 1011 83 10000 4.63 30 12:51 04.03.2022
4993 Clear 19 1011 87 10000 4.63 40 11:38 04.03.2022
4994 Clear 18 1011 92 10000 4.12 40 10:42 04.03.2022
4995 Clear 18 1011 92 10000 3.09 30 09:28 04.03.2022
4996 Clear 18 1011 82 10000 3.6 30 08:20 04.03.2022
4997 Clear 18 1012 82 10000 3.6 30 06:55 04.03.2022
4998 Clear 20 1012 81 10000 5.14 80 03:28 04.03.2022
4999 Clear 21 1012 78 10000 5.66 120 00:19 04.03.2022
5000 Clear 22 1012 77 10000 6.17 120 22:19 03.03.2022
5001 Clear 22 1012 77 10000 6.69 120 21:37 03.03.2022
5002 Clear 22 1012 77 10000 6.69 120 20:56 03.03.2022
5003 Clear 22 1012 72 10000 6.69 120 19:42 03.03.2022
5004 Clear 22 1013 75 10000 5.14 120 18:49 03.03.2022
5005 Clear 21 1013 69 10000 5.36 108 17:46 03.03.2022
5006 Clear 21 1014 69 10000 5.14 120 17:26 03.03.2022
5007 Clear 21 1014 71 10000 5.36 78 15:47 03.03.2022
5008 Clear 21 1015 72 10000 5.14 100 14:53 03.03.2022
5009 Clear 20 1015 72 10000 5.36 66 14:32 03.03.2022
5010 Clear 18 1015 74 10000 3.09 80 12:52 03.03.2022
5011 Clear 16 1015 81 10000 3.09 60 11:39 03.03.2022
5012 Clear 15 1015 88 10000 2.57 30 10:40 03.03.2022
5013 Clear 17 1014 76 10000 5.14 120 08:45 03.03.2022
5014 Clear 18 1014 71 10000 5.66 120 07:25 03.03.2022
5015 Clear 18 1014 70 10000 5.14 120 06:33 03.03.2022
5016 Clear 21 1011 72 10000 6.69 150 01:44 03.03.2022
5017 Clear 25 1008 66 10000 3.6 260 23:29 02.03.2022
5018 Clear 26 1008 57 10000 4.63 270 22:50 02.03.2022
5019 Clear 26 1008 57 10000 4.63 270 22:50 02.03.2022
5020 Clear 28 1008 53 10000 5.14 280 21:29 02.03.2022
5021 Clear 28 1008 50 10000 6.17 280 20:44 02.03.2022
5022 Clear 28 1008 52 10000 6.17 280 20:22 02.03.2022
5023 Clear 27 1008 54 10000 7.2 260 19:34 02.03.2022
5024 Clear 27 1008 55 10000 10.29 290 18:44 02.03.2022
5025 Clear 27 1009 54 10000 10.29 280 17:59 02.03.2022
5026 Clear 27 1008 51 10000 10.29 280 17:23 02.03.2022
5027 Clear 27 1008 43 10000 10.29 290 16:45 02.03.2022
5028 Clear 25 1009 56 10000 7.72 310 14:44 02.03.2022
5029 Clear 22 1010 59 10000 7.72 330 13:24 02.03.2022
5030 Clear 19 1010 69 10000 5.66 340 12:42 02.03.2022
5031 Clear 18 1009 77 10000 6.17 360 11:47 02.03.2022
5032 Clear 17 1009 79 10000 6.17 360 11:24 02.03.2022
5033 Clear 17 1009 83 10000 5.14 360 09:42 02.03.2022
5034 Clear 17 1009 81 10000 5.14 360 08:55 02.03.2022
5035 Clear 17 1010 81 10000 4.12 360 07:39 02.03.2022
5036 Clear 16 1010 81 10000 4.63 360 06:51 02.03.2022
5037 Clear 17 1011 69 10000 3.09 10 02:35 02.03.2022
5038 Clear 22 1010 48 10000 3.6 350 23:55 01.03.2022
5039 Clear 24 1010 39 10000 5.14 350 22:46 01.03.2022
5040 Clear 25 1010 37 10000 5.14 350 22:20 01.03.2022
5041 Clear 25 1010 44 10000 8.23 360 21:25 01.03.2022
5042 Clear 25 1010 43 10000 6.69 330 20:32 01.03.2022
5043 Clear 25 1011 43 10000 7.72 360 19:44 01.03.2022
5044 Clear 25 1012 41 10000 5.14 340 18:50 01.03.2022
5045 Clear 24 1012 43 10000 5.14 340 18:21 01.03.2022
5046 Clear 24 1013 45 10000 5.14 330 17:30 01.03.2022
5047 Clear 23 1013 48 10000 6.17 360 16:34 01.03.2022
5048 Clear 22 1014 51 10000 5.14 350 15:41 01.03.2022
5049 Clear 21 1015 57 10000 4.63 360 14:40 01.03.2022
5050 Clear 20 1015 60 10000 4.63 10 13:58 01.03.2022
5051 Clear 20 1014 59 10000 4.63 10 13:25 01.03.2022
5052 Clear 16 1015 66 10000 2.57 360 12:33 01.03.2022
5053 Clear 14 1014 62 10000 2.57 30 10:37 01.03.2022
5054 Clear 14 1014 62 10000 2.57 30 10:37 01.03.2022
5055 Clear 15 1014 59 10000 2.57 110 09:18 01.03.2022
5056 Clear 17 1015 48 10000 3.6 150 07:54 01.03.2022
5057 Clouds 18 1015 48 10000 4.12 170 06:26 01.03.2022
5058 Clouds 20 1014 68 10000 8.23 180 02:45 01.03.2022
5059 Clear 22 1012 49 10000 3.6 240 00:39 01.03.2022
5060 Clear 25 1010 59 10000 7.2 240 23:33 28.02.2022
5061 Clear 26 1009 54 10000 6.69 250 22:24 28.02.2022
5062 Clear 26 1008 60 10000 7.2 260 21:41 28.02.2022
5063 Clear 27 1008 59 10000 8.75 280 20:28 28.02.2022
5064 Clouds 26 1008 61 10000 8.75 250 19:41 28.02.2022
5065 Clouds 26 1008 72 10000 6.17 280 18:49 28.02.2022
5066 Clouds 25 1008 74 10000 5.14 280 17:33 28.02.2022
5067 Clouds 25 1008 74 10000 4.12 280 16:54 28.02.2022
5068 Clouds 25 1008 75 10000 2.57 300 15:58 28.02.2022
5069 Clouds 24 1008 77 10000 1.03 0 14:32 28.02.2022
5070 Clouds 24 1008 78 10000 4.12 120 13:48 28.02.2022
5071 Clouds 24 1007 80 10000 4.12 120 13:18 28.02.2022
5072 Fog 20 1007 99 10000 2.57 150 11:59 28.02.2022
5073 Fog 20 1007 99 10000 2.57 150 11:19 28.02.2022
5074 Clouds 20 1007 96 10000 0 0 10:22 28.02.2022
5075 Clouds 21 1007 96 10000 0 0 09:43 28.02.2022
5076 Clouds 21 1006 96 10000 1.54 350 08:52 28.02.2022
5077 Clouds 21 1007 95 10000 2.06 350 07:58 28.02.2022
5078 Rain 21 1007 95 10000 2.06 10 05:53 28.02.2022
5079 Clouds 21 1006 94 10000 2.06 280 04:30 28.02.2022
5080 Clouds 22 1006 91 10000 1.54 30 00:52 28.02.2022
5081 Clouds 24 1005 80 10000 4.12 320 22:44 27.02.2022
5082 Rain 24 1005 79 10000 4.12 320 22:26 27.02.2022
5083 Clouds 24 1006 78 10000 5.14 300 21:37 27.02.2022
5084 Clouds 25 1005 74 10000 5.14 310 20:43 27.02.2022
5085 Clouds 25 1005 74 10000 5.14 310 20:18 27.02.2022
5086 Rain 25 1005 74 10000 6.69 360 19:48 27.02.2022
5087 Rain 25 1005 74 10000 6.69 360 19:21 27.02.2022
5088 Clouds 24 1003 80 10000 6.26 30 18:24 27.02.2022
5089 Rain 24 1005 83 3500 6.17 350 17:45 27.02.2022
5090 Clouds 24 1006 85 10000 5.14 350 16:23 27.02.2022
5091 Rain 21 1007 94 5000 6.17 30 14:29 27.02.2022
5092 Rain 22 1007 88 8000 6.17 30 12:36 27.02.2022
5093 Rain 22 1008 94 5000 2.06 350 11:51 27.02.2022
5094 Rain 22 1007 94 10000 5.66 20 10:37 27.02.2022
5095 Rain 22 1007 94 10000 5.66 20 09:58 27.02.2022
5096 Rain 22 1008 100 10000 2.57 340 09:23 27.02.2022
5097 Rain 22 1009 100 10000 5.14 300 08:45 27.02.2022
5098 Rain 22 1009 100 10000 5.14 300 08:45 27.02.2022
5099 Thunderstorm 23 1010 94 10000 1.03 0 06:26 27.02.2022
5100 Thunderstorm 25 1008 83 10000 4.12 70 03:44 27.02.2022
5101 Clouds 26 1010 53 10000 3.09 40 23:57 26.02.2022
5102 Clouds 26 1009 84 10000 2.06 40 22:43 26.02.2022
5103 Rain 25 1010 86 10000 4.63 10 21:29 26.02.2022
5104 Thunderstorm 24 1010 88 10000 2.68 50 20:43 26.02.2022
5105 Thunderstorm 25 1011 86 10000 2.06 360 19:57 26.02.2022
5106 Rain 25 1011 81 8000 4.12 340 19:33 26.02.2022
5107 Rain 25 1011 81 8000 4.12 340 19:33 26.02.2022
5108 Clear 25 1012 80 10000 5.14 350 18:33 26.02.2022
5109 Clear 29 1013 58 10000 5.66 20 17:37 26.02.2022
5110 Clouds 27 1013 71 10000 7.2 20 16:39 26.02.2022
5111 Clouds 26 1014 70 10000 5.66 40 15:42 26.02.2022
5112 Rain 26 1014 70 10000 5.66 40 15:19 26.02.2022
5113 Clear 25 1014 69 10000 5.66 30 14:44 26.02.2022
5114 Clear 25 1015 66 10000 5.66 30 14:20 26.02.2022
5115 Clear 21 1016 73 10000 3.6 40 12:53 26.02.2022
5116 Clear 18 1015 82 10000 3.6 60 11:53 26.02.2022
5117 Clear 18 1015 82 10000 3.6 60 11:26 26.02.2022
5118 Clear 19 1015 63 10000 3.09 40 10:22 26.02.2022
5119 Clear 18 1014 72 10000 2.06 50 08:35 26.02.2022
5120 Clear 19 1015 72 10000 3.09 10 06:46 26.02.2022
5121 Clear 24 1015 50 10000 1.54 110 00:26 26.02.2022
5122 Clear 26 1013 58 10000 2.57 150 22:44 25.02.2022
5123 Clear 26 1014 57 10000 2.57 130 21:33 25.02.2022
5124 Clear 26 1014 56 10000 2.57 160 20:57 25.02.2022
5125 Clear 27 1014 52 10000 2.57 160 20:28 25.02.2022
5126 Clear 27 1014 60 10000 4.63 180 18:18 25.02.2022
5127 Clear 26 1015 59 10000 1.79 212 17:20 25.02.2022
5128 Clear 25 1015 59 10000 3.09 200 16:19 25.02.2022
5129 Clear 24 1015 65 10000 3.09 250 15:36 25.02.2022
5130 Clear 24 1015 67 10000 3.09 250 15:18 25.02.2022
5131 Clear 24 1015 69 10000 3.09 250 14:39 25.02.2022
5132 Clear 22 1016 78 10000 4.12 240 13:30 25.02.2022
5133 Clouds 19 1016 94 10000 1.54 290 12:42 25.02.2022
5134 Fog 17 1015 100 800 2.06 310 11:23 25.02.2022
5135 Fog 18 1014 100 100 2.57 290 10:28 25.02.2022
5136 Fog 18 1013 100 300 2.06 290 09:52 25.02.2022
5137 Fog 19 1013 94 300 1.54 290 08:44 25.02.2022
5138 Fog 19 1013 94 10000 1.03 290 07:36 25.02.2022
5139 Clouds 21 1013 88 10000 0.51 320 05:47 25.02.2022
5140 Clouds 22 1012 83 10000 2.06 350 02:58 25.02.2022
5141 Clouds 24 1009 82 10000 6.17 20 22:56 24.02.2022
5142 Clouds 24 1009 84 10000 8.75 40 21:54 24.02.2022
5143 Clouds 23 1008 84 10000 8.75 40 21:31 24.02.2022
5144 Clouds 23 1009 86 10000 8.75 40 20:57 24.02.2022
5145 Rain 22 1010 92 10000 6.71 58 19:38 24.02.2022
5146 Rain 20 1014 100 6000 4.12 20 18:38 24.02.2022
5147 Rain 20 1014 100 6000 4.12 20 18:18 24.02.2022
5148 Rain 20 1014 100 6000 3.09 10 17:33 24.02.2022
5149 Rain 21 1014 94 8000 1.54 340 16:45 24.02.2022
5150 Rain 21 1014 94 8000 1.54 340 16:21 24.02.2022
5151 Rain 21 1015 88 6000 5.14 300 14:53 24.02.2022
5152 Rain 22 1014 83 10000 6.17 50 14:26 24.02.2022
5153 Clouds 22 1010 83 10000 8.23 60 13:39 24.02.2022
5154 Clouds 22 1010 83 10000 8.23 60 13:39 24.02.2022
5155 Clouds 20 1011 88 10000 6.69 50 12:49 24.02.2022
5156 Clouds 19 1011 88 10000 6.69 70 10:40 24.02.2022
5157 Clouds 18 1012 88 10000 5.14 90 08:59 24.02.2022
5158 Clouds 18 1013 94 10000 4.12 80 08:40 24.02.2022
5159 Clouds 20 1014 83 10000 3.6 80 05:52 24.02.2022
5160 Clouds 21 1014 83 10000 7.2 110 01:56 24.02.2022
5161 Clouds 21 1014 83 10000 7.2 110 01:56 24.02.2022
5162 Clouds 23 1013 81 10000 6.17 120 22:56 23.02.2022
5163 Clouds 23 1013 81 10000 6.17 120 21:40 23.02.2022
5164 Clouds 23 1013 81 10000 5.66 130 20:31 23.02.2022
5165 Clouds 23 1014 80 10000 5.66 130 19:46 23.02.2022
5166 Clouds 24 1015 69 10000 5.66 130 18:32 23.02.2022
5167 Clouds 24 1016 64 10000 5.14 140 17:36 23.02.2022
5168 Clouds 23 1017 82 10000 3.6 170 14:42 23.02.2022
5169 Clouds 20 1017 94 10000 3.09 180 12:45 23.02.2022
5170 Clouds 18 1016 94 10000 4.12 160 11:34 23.02.2022
5171 Clouds 20 1016 83 10000 3.6 180 10:31 23.02.2022
5172 Clouds 20 1016 83 10000 2.06 190 08:59 23.02.2022
5173 Clouds 20 1016 83 10000 2.06 190 08:23 23.02.2022
5174 Clouds 21 1017 73 10000 3.6 180 03:49 23.02.2022
5175 Clouds 22 1016 82 10000 3.09 200 00:28 23.02.2022
5176 Clouds 22 1016 81 10000 3.6 200 23:36 22.02.2022
5177 Clouds 23 1015 79 10000 4.63 190 22:31 22.02.2022
5178 Clouds 23 1015 77 10000 5.66 190 21:49 22.02.2022
5179 Clouds 23 1015 79 10000 5.66 190 21:30 22.02.2022
5180 Clouds 23 1016 78 10000 6.69 210 20:55 22.02.2022
5181 Clouds 23 1016 79 10000 6.69 210 20:30 22.02.2022
5182 Clouds 24 1016 77 10000 6.17 210 19:42 22.02.2022
5183 Clouds 24 1016 77 10000 4.02 207 19:19 22.02.2022
5184 Clouds 24 1017 76 10000 5.66 200 17:49 22.02.2022
5185 Clouds 24 1017 75 10000 5.66 200 17:23 22.02.2022
5186 Clouds 24 1017 76 10000 4.12 200 16:37 22.02.2022
5187 Clouds 24 1017 77 10000 4.63 200 15:44 22.02.2022
5188 Clouds 24 1017 77 10000 4.63 200 15:44 22.02.2022
5189 Clouds 23 1017 80 10000 5.14 190 14:44 22.02.2022
5190 Clouds 21 1017 83 10000 6.17 190 12:31 22.02.2022
5191 Clouds 20 1016 88 10000 4.63 200 10:52 22.02.2022
5192 Clouds 21 1015 83 10000 3.6 170 08:41 22.02.2022
5193 Clouds 21 1015 83 10000 4.63 200 07:26 22.02.2022
5194 Clouds 20 1016 83 10000 3.09 210 04:59 22.02.2022
5195 Clouds 21 1016 83 10000 2.57 200 02:45 22.02.2022
5196 Clouds 22 1013 77 10000 5.14 210 22:46 21.02.2022
5197 Clouds 23 1013 77 10000 6.69 210 21:42 21.02.2022
5198 Clouds 23 1013 80 10000 7.2 210 20:35 21.02.2022
5199 Clouds 23 1013 82 8000 7.72 210 18:46 21.02.2022
5200 Drizzle 23 1013 83 10000 8.23 200 17:36 21.02.2022
5201 Clouds 23 1012 86 10000 8.75 210 15:22 21.02.2022
5202 Clouds 22 1011 89 10000 8.75 210 14:21 21.02.2022
5203 Clouds 22 1011 89 10000 8.75 210 14:21 21.02.2022
5204 Clouds 21 1010 92 10000 6.69 210 13:22 21.02.2022
5205 Clouds 22 1010 91 800 6.17 200 12:23 21.02.2022
5206 Clouds 20 1009 94 800 6.69 200 11:19 21.02.2022
5207 Clouds 21 1007 88 10000 4.63 170 09:34 21.02.2022
5208 Clouds 20 1007 94 10000 4.63 180 05:35 21.02.2022
5209 Thunderstorm 22 1005 83 2500 6.69 130 23:44 20.02.2022
5210 Rain 24 1004 86 9000 7.2 120 22:25 20.02.2022
5211 Thunderstorm 23 1004 84 10000 6.71 120 21:42 20.02.2022
5212 Rain 23 1005 83 10000 5.66 120 20:53 20.02.2022
5213 Clouds 24 1005 84 10000 5.66 120 20:35 20.02.2022
5214 Clouds 23 1005 85 10000 5.66 120 19:32 20.02.2022
5215 Clouds 23 1006 86 10000 6.26 117 18:50 20.02.2022
5216 Clouds 23 1006 86 10000 5.66 120 18:31 20.02.2022
5217 Clouds 23 1006 86 10000 4.47 114 18:31 20.02.2022
5218 Clouds 24 1007 78 10000 4.12 270 17:48 20.02.2022
5219 Clouds 24 1007 81 10000 5.14 120 15:37 20.02.2022
5220 Clouds 23 1007 83 10000 4.63 30 14:42 20.02.2022
5221 Clouds 24 1007 82 10000 3.6 30 13:23 20.02.2022
5222 Clouds 21 1007 88 10000 3.09 40 12:28 20.02.2022
5223 Rain 20 1006 88 10000 3.09 40 10:38 20.02.2022
5224 Rain 20 1006 88 10000 3.09 40 10:19 20.02.2022
5225 Clear 20 1007 88 10000 3.09 40 08:50 20.02.2022
5226 Clear 22 1008 78 10000 6.17 120 00:54 20.02.2022
5227 Clear 22 1008 78 10000 6.17 120 00:54 20.02.2022
5228 Clear 23 1008 83 10000 6.26 55 00:30 20.02.2022
5229 Clouds 23 1007 81 10000 7.2 120 22:47 19.02.2022
5230 Clouds 23 1007 80 10000 7.2 120 22:22 19.02.2022
5231 Clouds 23 1008 80 10000 7.72 140 20:51 19.02.2022
5232 Clouds 23 1008 84 10000 8.23 130 19:53 19.02.2022
5233 Clouds 23 1008 84 10000 8.23 130 19:28 19.02.2022
5234 Clouds 23 1009 79 10000 7.2 140 18:33 19.02.2022
5235 Clouds 23 1009 80 10000 6.69 120 17:35 19.02.2022
5236 Clouds 23 1010 81 10000 4.12 140 16:28 19.02.2022
5237 Clouds 22 1010 84 10000 3.6 120 14:56 19.02.2022
5238 Clouds 23 1010 84 10000 3.6 120 14:37 19.02.2022
5239 Clouds 22 1010 86 10000 3.6 70 13:22 19.02.2022
5240 Clouds 18 1010 94 10000 3.09 80 11:37 19.02.2022
5241 Clouds 18 1010 88 10000 1.54 80 09:45 19.02.2022
5242 Clear 19 1011 77 10000 2.57 80 06:54 19.02.2022
5243 Clear 21 1012 73 10000 5.14 90 03:38 19.02.2022
5244 Clear 23 1010 81 10000 8.75 120 23:29 18.02.2022
5245 Clouds 23 1011 78 10000 8.75 120 21:49 18.02.2022
5246 Clouds 23 1011 79 10000 8.23 130 20:42 18.02.2022
5247 Clouds 23 1011 78 10000 7.2 130 19:53 18.02.2022
5248 Clouds 23 1012 74 10000 6.17 120 18:50 18.02.2022
5249 Clouds 23 1012 74 10000 6.17 120 18:22 18.02.2022
5250 Clouds 23 1013 74 10000 5.66 130 17:50 18.02.2022
5251 Clouds 22 1014 73 10000 5.14 110 14:50 18.02.2022
5252 Clouds 22 1014 73 10000 5.14 110 13:55 18.02.2022
5253 Clouds 22 1014 76 10000 4.92 127 12:53 18.02.2022
5254 Clouds 19 1015 77 10000 4.12 110 12:32 18.02.2022
5255 Clouds 17 1015 82 10000 3.6 120 11:22 18.02.2022
5256 Clouds 20 1014 64 10000 5.66 110 09:52 18.02.2022
5257 Clouds 20 1015 73 10000 3.6 120 06:56 18.02.2022
5258 Clouds 19 1016 77 10000 5.66 140 05:39 18.02.2022
5259 Clouds 20 1015 76 10000 6.26 144 23:24 17.02.2022
5260 Clouds 20 1015 74 10000 7.6 131 21:44 17.02.2022
5261 Clouds 20 1015 75 10000 7.15 157 21:19 17.02.2022
5262 Clouds 21 1015 74 10000 7.2 150 20:36 17.02.2022
5263 Clouds 21 1015 75 10000 7.2 140 19:48 17.02.2022
5264 Clouds 20 1016 76 10000 8.75 150 18:41 17.02.2022
5265 Clouds 20 1016 77 10000 7.72 140 17:50 17.02.2022
5266 Clouds 21 1016 80 10000 8.49 146 16:25 17.02.2022
5267 Clouds 20 1016 82 10000 8.75 140 15:32 17.02.2022
5268 Clouds 20 1016 84 10000 9.39 138 14:26 17.02.2022
5269 Clouds 20 1015 77 10000 8.23 160 12:35 17.02.2022
5270 Clouds 20 1015 83 10000 9.26 150 11:21 17.02.2022
5271 Clouds 21 1014 88 10000 7.72 160 08:52 17.02.2022
5272 Clear 26 1012 65 10000 2.06 70 01:45 17.02.2022
5273 Clouds 27 1011 78 10000 3.09 120 23:19 16.02.2022
5274 Clouds 28 1011 71 10000 4.12 180 21:31 16.02.2022
5275 Clouds 30 1011 63 10000 3.09 290 19:46 16.02.2022
5276 Clouds 32 1012 43 10000 3.09 280 18:38 16.02.2022
5277 Clear 31 1012 53 10000 3.6 350 17:53 16.02.2022
5278 Clear 29 1013 57 10000 5.14 360 15:38 16.02.2022
5279 Clear 28 1013 60 10000 6.69 360 14:59 16.02.2022
5280 Clear 21 1014 73 10000 5.14 30 12:59 16.02.2022
5281 Clear 19 1014 82 10000 5.14 30 11:58 16.02.2022
5282 Clear 19 1014 82 10000 5.14 30 11:24 16.02.2022
5283 Clear 18 1013 82 10000 3.09 20 10:33 16.02.2022
5284 Clear 20 1013 73 10000 3.6 20 07:54 16.02.2022
5285 Clear 21 1013 64 10000 1.54 20 05:20 16.02.2022
5286 Clear 26 1011 71 10000 3.6 140 23:45 15.02.2022
5287 Clear 26 1011 72 10000 3.6 360 22:29 15.02.2022
5288 Clear 27 1011 72 10000 4.12 340 21:47 15.02.2022
5289 Clear 27 1011 72 10000 4.12 340 21:27 15.02.2022
5290 Clear 27 1011 72 10000 4.12 340 20:56 15.02.2022
5291 Clear 27 1012 69 10000 3.6 350 19:57 15.02.2022
5292 Clear 27 1012 64 10000 4.63 330 18:56 15.02.2022
5293 Clear 27 1013 66 10000 5.14 320 18:22 15.02.2022
5294 Clear 27 1013 64 10000 4.63 350 17:50 15.02.2022
5295 Clear 28 1013 53 10000 4.12 340 16:50 15.02.2022
5296 Clear 28 1014 47 10000 3.6 320 15:28 15.02.2022
5297 Clear 23 1014 68 10000 3.09 340 13:27 15.02.2022
5298 Clear 20 1014 68 10000 2.57 350 12:37 15.02.2022
5299 Clear 18 1013 70 10000 2.57 10 11:40 15.02.2022
5300 Clear 17 1012 63 10000 2.06 10 09:31 15.02.2022
5301 Clear 17 1012 73 10000 2.06 10 06:58 15.02.2022
5302 Clear 21 1012 54 10000 2.06 10 04:54 15.02.2022
5303 Clear 26 1010 48 10000 2.06 250 23:33 14.02.2022
5304 Clear 28 1009 44 10000 4.63 240 21:47 14.02.2022
5305 Clear 28 1011 39 10000 5.14 270 20:40 14.02.2022
5306 Clear 27 1010 47 10000 5.14 270 19:44 14.02.2022
5307 Clear 27 1010 47 10000 5.14 270 19:25 14.02.2022
5308 Clear 25 1010 50 10000 5.66 270 18:23 14.02.2022
5309 Clear 25 1010 55 10000 6.17 280 17:26 14.02.2022
5310 Clear 24 1011 56 10000 7.72 270 16:25 14.02.2022
5311 Clear 24 1011 64 10000 6.17 260 14:31 14.02.2022
5312 Clear 22 1011 64 10000 4.12 250 13:33 14.02.2022
5313 Clear 22 1011 64 10000 4.12 250 13:33 14.02.2022
5314 Clear 22 1011 63 10000 2.57 270 12:55 14.02.2022
5315 Clear 21 1010 69 10000 1.54 330 11:55 14.02.2022
5316 Clear 20 1009 76 10000 1.54 330 10:58 14.02.2022
5317 Clear 20 1008 77 10000 1.54 330 08:46 14.02.2022
5318 Clear 18 1009 86 10000 2.06 330 07:32 14.02.2022
5319 Clear 15 1009 82 10000 1.54 310 05:56 14.02.2022
5320 Clouds 21 1008 62 10000 4.12 270 22:43 13.02.2022
5321 Clouds 22 1008 60 10000 4.12 270 22:25 13.02.2022
5322 Clouds 21 1009 57 10000 5.66 250 21:36 13.02.2022
5323 Clouds 22 1009 57 10000 5.66 250 20:42 13.02.2022
5324 Clouds 21 1010 56 10000 7.2 240 19:51 13.02.2022
5325 Clouds 21 1010 54 10000 7.2 240 18:54 13.02.2022
5326 Clouds 21 1011 51 10000 7.2 240 18:35 13.02.2022
5327 Clouds 20 1012 65 10000 7.2 240 16:38 13.02.2022
5328 Clouds 19 1012 68 10000 8.75 230 15:27 13.02.2022
5329 Clouds 19 1013 69 10000 8.23 230 14:37 13.02.2022
5330 Clouds 17 1014 59 10000 6.17 230 12:52 13.02.2022
5331 Clouds 17 1014 59 10000 6.17 230 12:18 13.02.2022
5332 Clouds 16 1013 63 10000 3.6 240 10:38 13.02.2022
5333 Clouds 16 1013 62 10000 3.09 220 09:49 13.02.2022
5334 Clouds 16 1013 64 10000 4.12 230 07:53 13.02.2022
5335 Clouds 18 1015 73 10000 7.72 160 00:49 13.02.2022
5336 Clouds 18 1015 72 10000 7.72 160 00:20 13.02.2022
5337 Drizzle 19 1015 82 3000 8.94 186 22:34 12.02.2022
5338 Clouds 19 1015 84 10000 8.94 186 21:40 12.02.2022
5339 Clouds 19 1015 83 10000 8.49 186 20:52 12.02.2022
5340 Clouds 19 1015 85 10000 10.73 202 19:56 12.02.2022
5341 Clouds 20 1015 84 10000 12.07 193 18:54 12.02.2022
5342 Clouds 20 1015 84 10000 12.07 193 18:53 12.02.2022
5343 Clouds 20 1015 84 10000 10.73 193 18:35 12.02.2022
5344 Drizzle 20 1015 86 7000 12.07 171 17:38 12.02.2022
5345 Clouds 19 1015 93 800 11.62 190 16:44 12.02.2022
5346 Clouds 17 1016 98 800 9.77 170 15:52 12.02.2022
5347 Clouds 17 1016 98 800 9.77 170 15:20 12.02.2022
5348 Drizzle 18 1016 89 3000 8.75 170 14:25 12.02.2022
5349 Rain 18 1015 94 800 7.2 170 11:26 12.02.2022
5350 Rain 18 1015 94 3000 7.72 160 10:30 12.02.2022
5351 Rain 19 1015 88 2000 7.72 180 09:37 12.02.2022
5352 Rain 19 1014 94 2000 7.72 160 08:46 12.02.2022
5353 Rain 19 1015 88 10000 7.2 170 06:52 12.02.2022
5354 Clouds 19 1016 94 6000 7.72 170 04:44 12.02.2022
5355 Rain 21 1015 83 10000 7.72 160 02:19 12.02.2022
5356 Clouds 23 1012 86 10000 9.83 181 23:21 11.02.2022
5357 Rain 24 1012 81 10000 8.75 180 22:21 11.02.2022
5358 Clouds 24 1012 81 10000 7.2 160 21:32 11.02.2022
5359 Clouds 24 1012 81 10000 8.23 180 20:26 11.02.2022
5360 Clouds 25 1011 79 10000 7.72 180 19:28 11.02.2022
5361 Rain 24 1012 78 10000 6.17 190 18:29 11.02.2022
5362 Clouds 24 1012 79 10000 5.66 180 17:27 11.02.2022
5363 Clouds 25 1012 79 10000 4.92 172 16:39 11.02.2022
5364 Clouds 25 1012 78 10000 4.47 163 15:19 11.02.2022
5365 Clear 27 1011 71 10000 3.09 60 14:37 11.02.2022
5366 Clear 27 1011 71 10000 3.09 60 14:19 11.02.2022
5367 Clouds 25 1011 75 10000 4.12 40 13:40 11.02.2022
5368 Clear 25 1011 76 10000 4.12 40 13:21 11.02.2022
5369 Clouds 20 1012 88 10000 3.6 40 10:55 11.02.2022
5370 Clear 19 1011 94 10000 3.6 30 09:32 11.02.2022
5371 Clear 20 1011 83 10000 3.09 30 08:33 11.02.2022
5372 Clear 20 1011 83 10000 4.12 40 07:45 11.02.2022
5373 Clear 20 1011 83 10000 4.12 50 06:22 11.02.2022
5374 Clear 23 1011 56 10000 4.63 70 02:21 11.02.2022
5375 Clear 27 1008 61 10000 4.63 50 23:45 10.02.2022
5376 Clouds 25 1008 77 10000 4.63 40 22:26 10.02.2022
5377 Clouds 26 1008 72 10000 5.66 120 21:41 10.02.2022
5378 Clouds 25 1009 71 10000 6.17 70 20:50 10.02.2022
5379 Clouds 26 1009 71 10000 5.66 80 19:51 10.02.2022
5380 Clouds 26 1009 62 10000 5.66 80 19:22 10.02.2022
5381 Clouds 27 1010 50 10000 5.66 20 18:22 10.02.2022
5382 Clouds 27 1011 53 10000 5.14 30 17:21 10.02.2022
5383 Clear 26 1011 56 10000 6.17 40 16:43 10.02.2022
5384 Clear 25 1012 60 10000 6.69 20 15:40 10.02.2022
5385 Clear 25 1012 60 10000 6.69 20 15:21 10.02.2022
5386 Clear 23 1013 64 10000 6.69 40 14:35 10.02.2022
5387 Clear 20 1013 77 10000 7.2 30 13:40 10.02.2022
5388 Clear 20 1013 77 10000 7.2 30 13:19 10.02.2022
5389 Clear 19 1013 82 10000 4.63 50 11:52 10.02.2022
5390 Clear 19 1013 82 10000 4.63 50 11:30 10.02.2022
5391 Clear 18 1012 82 10000 3.6 30 10:23 10.02.2022
5392 Clear 18 1012 82 10000 4.12 40 09:44 10.02.2022
5393 Clear 18 1012 82 10000 3.09 50 08:25 10.02.2022
5394 Clear 19 1012 77 10000 5.14 60 06:32 10.02.2022
5395 Clear 22 1013 68 10000 4.12 110 02:43 10.02.2022
5396 Clear 22 1013 68 10000 5.14 110 00:53 10.02.2022
5397 Clear 23 1012 77 10000 5.14 110 00:30 10.02.2022
5398 Clouds 23 1012 76 10000 6.17 110 23:58 09.02.2022
5399 Clouds 23 1012 73 10000 6.17 120 22:54 09.02.2022
5400 Clouds 23 1012 73 10000 6.17 120 22:30 09.02.2022
5401 Clouds 23 1012 73 10000 5.14 150 21:47 09.02.2022
5402 Clouds 23 1013 73 10000 5.14 150 21:27 09.02.2022
5403 Clouds 23 1013 73 10000 5.14 190 20:43 09.02.2022
5404 Clouds 23 1013 72 10000 5.14 190 20:22 09.02.2022
5405 Clouds 23 1013 74 10000 4.63 170 19:41 09.02.2022
5406 Clouds 23 1014 71 10000 3.6 160 18:38 09.02.2022
5407 Clouds 22 1015 73 10000 3.6 320 16:55 09.02.2022
5408 Clouds 24 1015 61 10000 3.6 360 15:59 09.02.2022
5409 Clouds 24 1015 60 10000 3.6 360 15:22 09.02.2022
5410 Clear 18 1017 77 10000 2.06 90 12:43 09.02.2022
5411 Fog 16 1017 82 10000 3.09 80 11:23 09.02.2022
5412 Clear 14 1017 88 10000 0 0 10:33 09.02.2022
5413 Clear 14 1016 88 10000 1.03 330 09:47 09.02.2022
5414 Clear 14 1016 88 10000 1.03 330 09:21 09.02.2022
5415 Clear 14 1016 88 10000 1.03 350 08:43 09.02.2022
5416 Clear 17 1016 77 10000 2.57 50 05:55 09.02.2022
5417 Clear 19 1017 68 10000 1.54 100 03:51 09.02.2022
5418 Clouds 20 1017 64 10000 3.09 130 01:55 09.02.2022
5419 Clouds 22 1016 71 10000 4.12 150 23:45 08.02.2022
5420 Clouds 22 1016 70 10000 4.12 150 23:18 08.02.2022
5421 Clouds 22 1016 70 10000 4.02 135 22:38 08.02.2022
5422 Clouds 22 1016 71 10000 4.02 145 22:18 08.02.2022
5423 Clouds 22 1016 70 10000 4.63 160 21:22 08.02.2022
5424 Clouds 22 1016 70 10000 4.63 160 21:22 08.02.2022
5425 Clouds 22 1016 69 10000 4.47 164 20:57 08.02.2022
5426 Clouds 22 1016 71 10000 4.12 180 20:34 08.02.2022
5427 Clouds 22 1017 71 10000 5.14 180 19:18 08.02.2022
5428 Clouds 22 1017 71 10000 4.92 135 17:58 08.02.2022
5429 Clouds 22 1017 69 10000 5.14 180 16:55 08.02.2022
5430 Clouds 22 1018 67 10000 5.66 180 15:46 08.02.2022
5431 Clouds 21 1018 69 10000 4.12 160 14:58 08.02.2022
5432 Clouds 21 1017 70 10000 4.63 160 13:48 08.02.2022
5433 Clouds 20 1017 60 10000 2.57 150 12:24 08.02.2022
5434 Clouds 19 1016 63 10000 3.6 170 10:48 08.02.2022
5435 Clouds 19 1016 68 10000 2.06 170 09:47 08.02.2022
5436 Clouds 19 1016 68 10000 3.09 160 08:38 08.02.2022
5437 Clouds 19 1016 63 10000 3.09 140 06:24 08.02.2022
5438 Clouds 20 1017 60 10000 3.09 140 04:40 08.02.2022
5439 Clouds 20 1017 60 10000 3.09 140 04:22 08.02.2022
5440 Clouds 20 1017 60 10000 3.6 150 03:36 08.02.2022
5441 Clouds 20 1017 60 10000 3.6 150 03:18 08.02.2022
5442 Clouds 20 1017 56 10000 4.63 150 02:59 08.02.2022
5443 Clouds 20 1017 56 10000 4.63 150 02:36 08.02.2022
5444 Clouds 20 1017 56 10000 4.63 150 02:18 08.02.2022
5445 Clouds 20 1017 64 10000 5.14 170 01:44 08.02.2022
5446 Clouds 20 1017 64 10000 5.14 170 01:25 08.02.2022
5447 Clouds 19 1017 63 10000 6.69 180 00:55 08.02.2022
5448 Clouds 21 1016 74 10000 6.71 176 00:19 08.02.2022
5449 Clouds 21 1016 72 10000 6.71 176 23:43 07.02.2022
5450 Clouds 21 1016 74 10000 7.15 196 23:18 07.02.2022
5451 Clouds 21 1016 74 10000 7.15 176 22:59 07.02.2022
5452 Clouds 21 1016 72 10000 7.6 176 22:18 07.02.2022
5453 Clouds 21 1016 70 10000 7.6 181 21:50 07.02.2022
5454 Clouds 22 1016 69 10000 7.15 181 21:27 07.02.2022
5455 Clouds 22 1016 69 10000 7.15 193 20:43 07.02.2022
5456 Clouds 22 1016 67 10000 6.69 190 20:24 07.02.2022
5457 Clouds 22 1017 65 10000 6.69 200 19:47 07.02.2022
5458 Clouds 22 1017 61 10000 6.69 200 18:34 07.02.2022
5459 Clouds 22 1016 64 10000 7.72 180 16:53 07.02.2022
5460 Clouds 22 1016 64 10000 7.72 180 16:24 07.02.2022
5461 Clouds 21 1016 66 10000 7.2 190 15:48 07.02.2022
5462 Clouds 21 1016 69 10000 8.05 219 13:39 07.02.2022
5463 Clouds 21 1016 69 10000 7.72 180 13:21 07.02.2022
5464 Clouds 19 1015 66 10000 3.6 190 11:58 07.02.2022
5465 Clouds 19 1015 66 10000 3.6 190 11:38 07.02.2022
5466 Clouds 18 1015 68 10000 5.66 200 10:54 07.02.2022
5467 Clouds 18 1014 68 10000 5.66 210 10:36 07.02.2022
5468 Clouds 19 1013 65 10000 7.2 200 09:53 07.02.2022
5469 Clouds 20 1013 65 10000 7.2 200 09:18 07.02.2022
5470 Clouds 20 1013 71 10000 6.69 190 08:44 07.02.2022
5471 Clouds 20 1013 72 10000 7.2 200 07:34 07.02.2022
5472 Clouds 20 1013 73 10000 7.72 200 06:34 07.02.2022
5473 Clouds 18 1013 91 10000 7.72 190 04:22 07.02.2022
5474 Clouds 18 1012 93 10000 3.09 230 01:29 07.02.2022
5475 Rain 21 1010 73 10000 3.58 288 23:50 06.02.2022
5476 Rain 21 1010 73 10000 5.36 277 23:19 06.02.2022
5477 Clouds 20 1010 74 10000 4.92 268 22:39 06.02.2022
5478 Clouds 20 1011 76 10000 5.81 274 21:37 06.02.2022
5479 Clouds 20 1010 76 10000 6.26 261 21:18 06.02.2022
5480 Clouds 20 1010 73 10000 6.71 273 20:48 06.02.2022
5481 Clouds 20 1011 73 10000 5.36 271 20:21 06.02.2022
5482 Clouds 20 1011 67 10000 4.47 274 18:54 06.02.2022
5483 Clouds 20 1011 67 10000 5.81 260 18:27 06.02.2022
5484 Clouds 20 1011 67 10000 5.36 261 17:29 06.02.2022
5485 Clouds 19 1012 67 10000 5.81 275 16:50 06.02.2022
5486 Clouds 19 1012 64 10000 5.81 279 15:51 06.02.2022
5487 Clouds 19 1012 67 10000 4.92 298 15:28 06.02.2022
5488 Clouds 18 1012 68 10000 4.47 254 14:59 06.02.2022
5489 Clouds 18 1012 73 10000 4.47 274 13:59 06.02.2022
5490 Clouds 19 1012 73 10000 4.02 286 13:20 06.02.2022
5491 Clouds 16 1012 81 10000 6.17 250 12:19 06.02.2022
5492 Clouds 17 1010 75 10000 7.2 230 10:33 06.02.2022
5493 Rain 17 1010 74 10000 6.69 230 09:36 06.02.2022
5494 Rain 18 1010 78 8000 6.69 220 08:41 06.02.2022
5495 Rain 18 1009 82 5000 7.72 210 06:34 06.02.2022
5496 Clouds 19 1009 85 10000 9.26 210 05:28 06.02.2022
5497 Clouds 19 1009 85 10000 9.26 210 05:28 06.02.2022
5498 Clouds 18 1008 94 10000 7.72 200 02:25 06.02.2022
5499 Clouds 19 1008 88 10000 6.69 230 00:32 06.02.2022
5500 Clouds 21 1006 81 7000 6.26 181 23:38 05.02.2022
5501 Clouds 22 1005 82 10000 3.58 211 21:47 05.02.2022
5502 Clouds 19 1005 90 3000 4.92 186 20:41 05.02.2022
5503 Clouds 19 1005 90 3000 4.92 186 20:20 05.02.2022
5504 Rain 23 1005 82 5000 4.47 181 19:42 05.02.2022
5505 Rain 23 1005 79 10000 5.36 186 18:30 05.02.2022
5506 Clouds 24 1005 74 10000 4.02 194 17:35 05.02.2022
5507 Clouds 24 1005 77 10000 3.13 221 16:20 05.02.2022
5508 Clouds 24 1005 76 10000 2.24 215 15:31 05.02.2022
5509 Clouds 20 1006 89 10000 1.54 260 13:38 05.02.2022
5510 Rain 19 1005 91 10000 2.57 60 12:46 05.02.2022
5511 Thunderstorm 22 1005 83 10000 4.47 255 11:45 05.02.2022
5512 Mist 21 1005 94 3000 1.54 10 10:43 05.02.2022
5513 Clouds 19 1004 95 10000 2.57 20 09:50 05.02.2022
5514 Clouds 20 1005 95 10000 1.54 290 08:47 05.02.2022
5515 Clouds 20 1006 93 10000 0 0 06:59 05.02.2022
5516 Clouds 20 1006 93 10000 0 0 06:35 05.02.2022
5517 Clouds 20 1006 91 10000 1.54 150 02:40 05.02.2022
5518 Clouds 21 1005 87 10000 2.06 140 01:18 05.02.2022
5519 Clouds 21 1005 84 10000 2.57 160 00:36 05.02.2022
5520 Clouds 23 1005 80 10000 1.79 144 23:33 04.02.2022
5521 Clouds 23 1005 82 10000 3.13 165 22:39 04.02.2022
5522 Clouds 23 1005 81 10000 4.47 190 21:36 04.02.2022
5523 Clouds 23 1005 81 10000 4.47 190 21:18 04.02.2022
5524 Clouds 24 1006 79 10000 4.02 169 20:36 04.02.2022
5525 Clouds 24 1007 78 10000 4.02 170 19:18 04.02.2022
5526 Clouds 24 1007 84 10000 5.81 181 16:22 04.02.2022
5527 Clouds 24 1007 86 10000 4.92 181 15:19 04.02.2022
5528 Clouds 23 1007 89 10000 4.92 172 14:40 04.02.2022
5529 Mist 23 1008 91 5000 3.6 120 12:43 04.02.2022
5530 Mist 22 1007 94 4000 2.57 100 11:45 04.02.2022
5531 Drizzle 21 1007 96 8000 4.12 160 10:55 04.02.2022
5532 Clouds 21 1007 96 10000 0 0 09:56 04.02.2022
5533 Clouds 21 1007 95 10000 0 0 07:56 04.02.2022
5534 Clouds 21 1008 95 10000 2.57 90 03:31 04.02.2022
5535 Clouds 21 1008 95 10000 3.09 90 02:36 04.02.2022
5536 Rain 24 1007 88 7000 1.34 109 23:40 03.02.2022
5537 Rain 24 1007 87 7000 1.79 99 22:50 03.02.2022
5538 Mist 23 1008 87 6000 0.45 158 21:51 03.02.2022
5539 Rain 24 1008 88 6000 1.79 113 21:22 03.02.2022
5540 Clouds 23 1008 89 10000 3.58 155 20:21 03.02.2022
5541 Rain 23 1009 86 9000 2.24 157 19:42 03.02.2022
5542 Rain 24 1009 86 10000 1.79 186 18:56 03.02.2022
5543 Rain 24 1009 85 10000 4.02 163 17:55 03.02.2022
5544 Rain 25 1009 80 10000 3.58 194 16:48 03.02.2022
5545 Clouds 26 1010 77 10000 2.68 208 14:59 03.02.2022
5546 Clouds 25 1010 82 10000 2.24 249 13:45 03.02.2022
5547 Rain 21 1012 100 10000 4.12 280 11:47 03.02.2022
5548 Rain 22 1009 87 10000 5.14 20 08:55 03.02.2022
5549 Clear 22 1010 87 10000 1.54 40 07:41 03.02.2022
5550 Rain 25 1010 73 10000 2.06 140 00:47 03.02.2022
5551 Rain 25 1009 84 10000 2.24 99 00:22 03.02.2022
5552 Clear 26 1009 78 10000 2.68 105 22:38 02.02.2022
5553 Clear 26 1010 71 10000 4.47 119 21:45 02.02.2022
5554 Clear 26 1010 71 10000 3.58 125 21:27 02.02.2022
5555 Clear 26 1010 69 10000 4.02 117 20:20 02.02.2022
5556 Clear 26 1010 69 10000 4.92 74 19:46 02.02.2022
5557 Clear 26 1010 69 10000 4.02 136 18:55 02.02.2022
5558 Clear 26 1010 65 10000 3.13 86 18:24 02.02.2022
5559 Clear 26 1011 70 10000 3.58 145 17:20 02.02.2022
5560 Clear 26 1011 69 10000 4.47 134 16:54 02.02.2022
5561 Clear 26 1012 61 10000 3.13 33 14:42 02.02.2022
5562 Clear 20 1013 77 10000 4.12 30 12:29 02.02.2022
5563 Rain 18 1013 82 10000 3.6 30 11:44 02.02.2022
5564 Clear 19 1013 82 10000 3.6 30 11:24 02.02.2022
5565 Clear 18 1011 73 10000 3.09 20 08:29 02.02.2022
5566 Clear 21 1011 67 10000 2.57 120 01:46 02.02.2022
5567 Clear 23 1010 58 10000 1.79 115 22:29 01.02.2022
5568 Clear 23 1010 54 10000 2.24 144 20:50 01.02.2022
5569 Clear 23 1011 54 10000 2.68 203 19:23 01.02.2022
5570 Clear 24 1012 43 10000 2.24 324 16:57 01.02.2022
5571 Clear 23 1013 46 10000 2.68 327 16:19 01.02.2022
5572 Clear 17 1014 67 10000 3.6 30 12:57 01.02.2022
5573 Clear 15 1014 74 10000 2.57 20 11:57 01.02.2022
5574 Clear 12 1013 85 10000 2.06 10 08:51 01.02.2022
5575 Clouds 17 1013 59 10000 3.09 150 02:20 01.02.2022
5576 Clouds 21 1011 57 10000 4.92 163 23:37 31.01.2022
5577 Clouds 22 1011 49 10000 3.58 195 22:33 31.01.2022
5578 Clouds 22 1011 54 10000 4.02 176 21:35 31.01.2022
5579 Clouds 22 1011 54 10000 4.02 176 21:35 31.01.2022
5580 Clouds 22 1011 50 10000 2.68 199 20:34 31.01.2022
5581 Clouds 22 1011 51 10000 4.92 204 19:57 31.01.2022
5582 Clouds 22 1012 54 10000 4.47 196 18:32 31.01.2022
5583 Clouds 23 1012 57 10000 4.92 203 17:57 31.01.2022
5584 Clouds 23 1011 55 10000 5.81 196 17:18 31.01.2022
5585 Clouds 22 1011 60 10000 4.92 192 16:21 31.01.2022
5586 Clouds 22 1010 58 10000 7.15 186 14:53 31.01.2022
5587 Clouds 22 1010 66 10000 6.26 186 13:31 31.01.2022
5588 Clouds 20 1010 76 10000 8.23 160 12:37 31.01.2022
5589 Clouds 20 1009 87 10000 7.72 170 11:20 31.01.2022
5590 Clouds 21 1008 83 10000 8.23 180 10:47 31.01.2022
5591 Clear 21 1005 89 10000 3.6 240 09:36 31.01.2022
5592 Clear 20 1005 75 10000 2.06 330 08:56 31.01.2022
5593 Clear 20 1005 76 10000 2.06 330 08:20 31.01.2022
5594 Clear 20 1005 73 10000 2.57 20 07:40 31.01.2022
5595 Clear 20 1006 72 10000 2.06 40 05:24 31.01.2022
5596 Clear 28 1005 48 10000 1.79 41 00:24 31.01.2022
5597 Clouds 29 1005 45 10000 2.24 13 22:33 30.01.2022
5598 Clouds 29 1005 46 10000 3.58 41 21:46 30.01.2022
5599 Clouds 29 1005 46 10000 3.13 2 21:24 30.01.2022
5600 Clouds 28 1006 47 10000 4.02 12 20:53 30.01.2022
5601 Clouds 28 1006 47 10000 4.02 23 20:31 30.01.2022
5602 Clouds 28 1007 48 10000 4.02 11 19:56 30.01.2022
5603 Clouds 28 1007 51 10000 4.02 358 18:51 30.01.2022
5604 Clouds 28 1008 51 10000 2.68 23 18:22 30.01.2022
5605 Clouds 27 1009 54 10000 1.79 346 17:31 30.01.2022
5606 Clouds 27 1010 56 10000 2.24 25 16:42 30.01.2022
5607 Clouds 27 1010 58 10000 2.68 302 16:23 30.01.2022
5608 Clouds 26 1010 59 10000 2.68 328 15:54 30.01.2022
5609 Clouds 26 1010 59 10000 2.68 338 15:33 30.01.2022
5610 Clear 25 1011 60 10000 4.02 22 14:47 30.01.2022
5611 Clear 24 1011 68 10000 4.47 40 13:47 30.01.2022
5612 Clear 21 1012 72 10000 6.17 20 12:46 30.01.2022
5613 Clear 19 1012 82 10000 4.63 30 11:23 30.01.2022
5614 Clear 18 1012 89 10000 3.6 30 10:26 30.01.2022
5615 Clear 18 1012 88 10000 3.6 20 09:23 30.01.2022
5616 Clouds 20 1012 86 10000 5.71 11 08:00 30.01.2022
5617 Clear 21 1012 82 10000 3.6 80 02:44 30.01.2022
5618 Clear 22 1012 79 10000 3.6 100 01:54 30.01.2022
5619 Clear 24 1011 73 10000 5.81 82 23:49 29.01.2022
5620 Clouds 24 1011 72 10000 6.26 75 22:57 29.01.2022
5621 Clouds 25 1011 69 10000 6.26 81 21:35 29.01.2022
5622 Clouds 25 1012 68 10000 5.81 105 20:57 29.01.2022
5623 Clouds 25 1012 66 10000 5.36 82 20:20 29.01.2022
5624 Clouds 26 1012 66 10000 4.47 67 19:33 29.01.2022
5625 Clouds 25 1013 66 10000 4.92 96 18:44 29.01.2022
5626 Clouds 25 1013 66 10000 4.02 118 17:55 29.01.2022
5627 Clouds 26 1014 56 10000 2.24 47 16:59 29.01.2022
5628 Clouds 25 1014 61 10000 2.24 82 15:35 29.01.2022
5629 Clear 22 1016 68 10000 4.63 30 13:58 29.01.2022
5630 Clear 22 1016 68 10000 4.63 30 13:28 29.01.2022
5631 Clear 20 1016 77 10000 4.63 30 12:59 29.01.2022
5632 Clear 18 1015 82 10000 2.57 30 11:39 29.01.2022
5633 Clear 18 1015 82 10000 2.57 30 11:39 29.01.2022
5634 Clear 17 1015 94 10000 2.06 10 10:33 29.01.2022
5635 Clouds 17 1014 89 10000 2.06 30 08:20 29.01.2022
5636 Clouds 20 1015 80 10000 5.14 100 02:48 29.01.2022
5637 Clouds 22 1014 79 10000 4.47 112 00:32 29.01.2022
5638 Clear 22 1014 76 10000 4.92 115 23:31 28.01.2022
5639 Clouds 22 1014 75 10000 4.47 105 22:47 28.01.2022
5640 Clouds 22 1014 74 10000 5.36 132 22:19 28.01.2022
5641 Clouds 22 1014 72 10000 4.47 113 20:41 28.01.2022
5642 Clouds 22 1015 68 10000 4.02 147 19:57 28.01.2022
5643 Clouds 22 1015 69 10000 4.02 125 18:52 28.01.2022
5644 Clouds 22 1016 70 10000 4.02 121 17:53 28.01.2022
5645 Clouds 21 1017 70 10000 3.13 123 15:52 28.01.2022
5646 Clouds 22 1018 60 10000 3.09 130 14:54 28.01.2022
5647 Clouds 19 1018 68 10000 2.06 140 12:42 28.01.2022
5648 Clouds 16 1018 82 10000 1.03 0 11:49 28.01.2022
5649 Clouds 13 1018 85 10000 0 0 10:27 28.01.2022
5650 Clouds 13 1018 77 10000 0 0 09:46 28.01.2022
5651 Clouds 16 1018 73 10000 1.54 30 07:41 28.01.2022
5652 Clouds 15 1019 74 10000 2.06 140 05:31 28.01.2022
5653 Clouds 16 1020 70 10000 2.57 140 03:51 28.01.2022
5654 Clouds 18 1020 62 10000 2.57 150 02:27 28.01.2022
5655 Clouds 18 1019 62 10000 3.09 140 01:37 28.01.2022
5656 Clouds 18 1019 62 10000 3.09 140 01:37 28.01.2022
5657 Clouds 18 1019 62 10000 3.6 150 00:42 28.01.2022
5658 Clouds 20 1019 67 10000 4.47 135 22:20 27.01.2022
5659 Clouds 20 1019 66 10000 5.81 169 21:37 27.01.2022
5660 Clouds 21 1019 50 10000 6.17 150 20:59 27.01.2022
5661 Clouds 21 1019 50 10000 6.17 150 20:59 27.01.2022
5662 Clouds 20 1019 62 10000 6.71 159 19:38 27.01.2022
5663 Clouds 20 1019 65 10000 7.15 176 18:19 27.01.2022
5664 Clouds 20 1020 66 10000 8.49 176 16:55 27.01.2022
5665 Clouds 20 1019 70 10000 7.6 163 13:58 27.01.2022
5666 Clouds 18 1019 100 10000 7.2 180 12:49 27.01.2022
5667 Clouds 18 1018 59 10000 8.23 170 11:54 27.01.2022
5668 Clouds 18 1018 64 10000 7.2 170 09:48 27.01.2022
5669 Clouds 18 1017 64 10000 8.23 170 08:40 27.01.2022
5670 Clouds 18 1017 68 10000 7.72 170 07:52 27.01.2022
5671 Clouds 19 1016 68 10000 9.77 160 03:34 27.01.2022
5672 Clouds 21 1013 76 10000 10.29 160 00:24 27.01.2022
5673 Clouds 22 1011 91 3500 8.23 160 22:28 26.01.2022
5674 Clouds 24 1010 91 4000 12.96 168 21:44 26.01.2022
5675 Clouds 25 1010 85 2000 9.77 170 20:52 26.01.2022
5676 Clouds 25 1010 85 10000 9.77 170 20:32 26.01.2022
5677 Clouds 26 1009 76 10000 8.23 160 19:49 26.01.2022
5678 Clouds 25 1009 81 10000 8.23 170 18:48 26.01.2022
5679 Clouds 26 1009 80 10000 8.23 170 18:24 26.01.2022
5680 Clouds 26 1009 79 10000 4.63 150 17:33 26.01.2022
5681 Clouds 26 1008 85 10000 4.63 170 16:49 26.01.2022
5682 Rain 26 1008 83 10000 4.63 170 16:23 26.01.2022
5683 Mist 25 1007 97 10000 1.54 200 14:54 26.01.2022
5684 Clouds 24 1008 95 8000 2.06 270 12:22 26.01.2022
5685 Rain 23 1007 95 10000 0 0 10:52 26.01.2022
5686 Clouds 23 1007 95 10000 2.06 320 09:55 26.01.2022
5687 Clouds 23 1007 95 10000 2.06 320 09:36 26.01.2022
5688 Rain 23 1008 94 7000 1.54 290 06:42 26.01.2022
5689 Rain 26 1007 94 8000 2.57 350 00:26 26.01.2022
5690 Mist 26 1008 94 4000 2.06 50 23:43 25.01.2022
5691 Thunderstorm 26 1008 94 5000 5.14 100 22:49 25.01.2022
5692 Rain 26 1008 94 5000 5.14 100 22:19 25.01.2022
5693 Rain 26 1009 94 3000 2.57 190 21:27 25.01.2022
5694 Thunderstorm 28 1009 83 5000 3.09 160 20:45 25.01.2022
5695 Rain 29 1009 79 5000 3.09 190 19:57 25.01.2022
5696 Rain 31 1009 70 10000 3.6 220 19:28 25.01.2022
5697 Rain 31 1010 66 10000 3.09 30 17:56 25.01.2022
5698 Clouds 31 1010 66 10000 3.09 30 17:37 25.01.2022
5699 Rain 30 1010 70 10000 3.6 30 16:35 25.01.2022
5700 Clouds 29 1010 74 10000 3.6 20 15:39 25.01.2022
5701 Clouds 29 1010 74 10000 3.6 20 15:19 25.01.2022
5702 Clouds 29 1010 74 10000 3.6 20 14:56 25.01.2022
5703 Clear 25 1010 88 10000 3.6 100 12:22 25.01.2022
5704 Clouds 24 1009 83 10000 2.06 110 09:35 25.01.2022
5705 Clear 24 1009 83 10000 1.03 80 08:21 25.01.2022
5706 Clear 24 1009 78 10000 2.06 100 07:27 25.01.2022
5707 Clouds 24 1010 83 10000 1.03 360 05:26 25.01.2022
5708 Clear 24 1010 88 10000 4.63 120 00:35 25.01.2022
5709 Clear 26 1010 83 10000 5.14 110 23:36 24.01.2022
5710 Clear 26 1010 83 10000 5.14 110 23:18 24.01.2022
5711 Clear 26 1010 78 10000 4.63 160 22:42 24.01.2022
5712 Clear 26 1010 78 10000 4.63 160 22:23 24.01.2022
5713 Clear 27 1011 74 10000 5.14 170 21:42 24.01.2022
5714 Rain 27 1011 74 10000 5.14 170 21:24 24.01.2022
5715 Clouds 27 1011 74 10000 6.17 170 20:27 24.01.2022
5716 Rain 29 1011 70 10000 6.17 190 19:38 24.01.2022
5717 Clouds 30 1011 66 10000 1.54 0 18:50 24.01.2022
5718 Clouds 29 1012 70 10000 2.06 100 17:39 24.01.2022
5719 Clouds 29 1012 70 10000 2.06 100 17:21 24.01.2022
5720 Clouds 27 1012 78 10000 4.63 110 16:31 24.01.2022
5721 Clouds 27 1012 74 10000 4.63 130 15:35 24.01.2022
5722 Clouds 26 1012 83 10000 3.09 170 13:59 24.01.2022
5723 Clear 26 1012 78 10000 1.03 70 12:34 24.01.2022
5724 Clear 22 1012 94 10000 1.54 90 11:41 24.01.2022
5725 Fog 22 1011 94 5000 1.54 70 10:19 24.01.2022
5726 Fog 22 1011 94 8000 0 0 09:45 24.01.2022
5727 Clouds 22 1011 94 10000 0 0 08:18 24.01.2022
5728 Clouds 24 1012 83 10000 3.09 130 02:26 24.01.2022
5729 Clouds 24 1011 83 10000 2.57 130 01:26 24.01.2022
5730 Clouds 24 1011 88 10000 2.06 170 00:31 24.01.2022
5731 Rain 25 1011 78 10000 2.06 210 23:40 23.01.2022
5732 Clouds 25 1010 78 10000 2.57 210 22:20 23.01.2022
5733 Rain 26 1010 73 10000 3.09 210 21:40 23.01.2022
5734 Rain 26 1010 73 10000 3.09 210 21:20 23.01.2022
5735 Rain 26 1011 73 10000 3.6 220 20:22 23.01.2022
5736 Rain 28 1011 65 10000 3.09 240 18:56 23.01.2022
5737 Clouds 28 1011 65 10000 3.09 240 18:24 23.01.2022
5738 Clouds 26 1011 78 10000 5.14 180 16:56 23.01.2022
5739 Clouds 25 1010 88 10000 3.6 120 15:59 23.01.2022
5740 Clouds 24 1010 94 8000 3.6 120 14:52 23.01.2022
5741 Rain 24 1010 94 8000 3.6 120 14:18 23.01.2022
5742 Rain 23 1010 94 10000 3.6 300 12:46 23.01.2022
5743 Clouds 23 1010 94 10000 3.6 300 12:20 23.01.2022
5744 Rain 22 1009 94 10000 3.6 10 11:26 23.01.2022
5745 Clouds 22 1008 94 10000 4.63 300 10:58 23.01.2022
5746 Rain 22 1008 94 10000 4.63 300 10:25 23.01.2022
5747 Rain 22 1007 94 10000 2.57 330 09:32 23.01.2022
5748 Clouds 23 1006 94 10000 2.57 340 08:50 23.01.2022
5749 Rain 23 1010 94 7000 3.09 130 03:59 23.01.2022
5750 Thunderstorm 22 1008 94 7000 3.09 120 01:40 23.01.2022
5751 Thunderstorm 24 1006 83 1000 11.32 40 00:47 23.01.2022
5752 Thunderstorm 25 1006 78 10000 6.69 140 00:18 23.01.2022
5753 Rain 28 1005 65 10000 6.69 140 22:55 22.01.2022
5754 Rain 28 1005 65 10000 6.69 140 22:33 22.01.2022
5755 Clouds 30 1006 62 10000 4.12 170 20:47 22.01.2022
5756 Clear 31 1005 62 10000 4.63 90 19:46 22.01.2022
5757 Clear 30 1006 62 10000 4.12 70 18:41 22.01.2022
5758 Clouds 27 1008 69 10000 4.12 70 17:49 22.01.2022
5759 Clouds 27 1008 69 10000 4.12 70 17:31 22.01.2022
5760 Clouds 24 1008 88 10000 4.12 100 16:54 22.01.2022
5761 Rain 24 1009 88 4000 1.54 0 15:45 22.01.2022
5762 Rain 23 1010 94 10000 2.57 270 14:56 22.01.2022
5763 Rain 23 1009 94 10000 4.63 350 13:36 22.01.2022
5764 Rain 24 1010 83 10000 6.69 10 12:40 22.01.2022
5765 Rain 24 1009 83 10000 5.14 30 12:22 22.01.2022
5766 Rain 24 1007 88 10000 1.54 320 10:55 22.01.2022
5767 Rain 24 1007 88 10000 1.54 320 10:27 22.01.2022
5768 Rain 25 1007 83 10000 4.12 30 09:43 22.01.2022
5769 Rain 23 1006 88 10000 2.06 10 08:51 22.01.2022
5770 Rain 23 1006 83 10000 2.57 350 07:27 22.01.2022
5771 Rain 25 1008 83 10000 4.63 60 04:50 22.01.2022
5772 Thunderstorm 23 1010 83 10000 6.17 180 00:57 22.01.2022
5773 Rain 25 1008 94 10000 8.75 180 23:21 21.01.2022
5774 Clear 28 1007 78 10000 8.23 170 22:19 21.01.2022
5775 Clear 27 1008 83 10000 8.23 170 19:55 21.01.2022
5776 Rain 28 1009 78 10000 6.17 190 18:23 21.01.2022
5777 Rain 30 1009 62 10000 2.57 10 16:58 21.01.2022
5778 Clear 30 1010 66 10000 4.12 20 15:26 21.01.2022
5779 Clear 27 1010 78 10000 6.17 40 13:18 21.01.2022
5780 Rain 25 1010 88 10000 6.69 40 12:26 21.01.2022
5781 Clear 25 1010 88 10000 5.66 40 11:26 21.01.2022
5782 Clear 24 1010 94 10000 3.09 80 09:34 21.01.2022
5783 Clouds 24 1010 94 10000 3.6 80 08:22 21.01.2022
5784 Clear 25 1013 83 10000 3.6 50 04:37 21.01.2022
5785 Mist 26 1012 83 10000 6.17 120 23:20 20.01.2022
5786 Rain 26 1013 83 10000 5.66 160 21:50 20.01.2022
5787 Clouds 26 1013 83 10000 5.66 160 21:32 20.01.2022
5788 Rain 28 1013 78 10000 5.14 130 20:31 20.01.2022
5789 Clouds 29 1014 79 10000 4.63 110 19:19 20.01.2022
5790 Clouds 28 1014 78 10000 4.63 100 18:18 20.01.2022
5791 Clouds 25 1015 88 6000 5.66 110 16:40 20.01.2022
5792 Mist 25 1015 88 5000 4.63 110 15:40 20.01.2022
5793 Rain 24 1016 88 6000 2.06 130 14:40 20.01.2022
5794 Mist 24 1016 94 4000 2.06 120 13:33 20.01.2022
5795 Mist 23 1016 94 4000 3.09 150 12:32 20.01.2022
5796 Mist 22 1015 100 2000 2.57 150 11:50 20.01.2022
5797 Fog 22 1015 100 300 3.6 110 10:38 20.01.2022
5798 Mist 22 1015 100 1500 5.66 110 09:34 20.01.2022
5799 Clouds 22 1015 100 4000 5.14 120 07:50 20.01.2022
5800 Clouds 22 1015 88 8000 5.66 120 00:44 20.01.2022
5801 Clouds 22 1015 88 10000 6.17 120 22:54 19.01.2022
5802 Clouds 22 1015 88 10000 6.17 120 22:21 19.01.2022
5803 Clouds 23 1015 83 10000 6.69 120 21:23 19.01.2022
5804 Clouds 23 1016 83 10000 6.69 110 20:46 19.01.2022
5805 Clouds 23 1016 83 10000 7.2 110 19:42 19.01.2022
5806 Clouds 23 1016 83 10000 7.2 110 18:18 19.01.2022
5807 Clouds 24 1016 78 10000 7.72 120 17:44 19.01.2022
5808 Clouds 23 1016 88 10000 7.72 120 16:46 19.01.2022
5809 Clouds 22 1017 88 10000 6.69 130 14:42 19.01.2022
5810 Drizzle 21 1016 94 10000 6.69 110 12:42 19.01.2022
5811 Clouds 21 1016 94 10000 7.2 100 11:39 19.01.2022
5812 Clouds 21 1016 94 10000 7.72 110 10:20 19.01.2022
5813 Clouds 21 1016 94 10000 10.29 110 09:34 19.01.2022
5814 Clouds 21 1016 94 8000 9.77 110 06:35 19.01.2022
5815 Mist 21 1017 100 4000 9.26 120 02:38 19.01.2022
5816 Clouds 21 1015 94 1500 7.2 120 23:19 18.01.2022
5817 Clouds 21 1015 94 2000 7.72 110 22:19 18.01.2022
5818 Rain 21 1015 94 3000 7.72 110 20:58 18.01.2022
5819 Drizzle 23 1017 83 10000 7.72 110 19:54 18.01.2022
5820 Clouds 23 1017 83 10000 7.72 110 19:36 18.01.2022
5821 Clouds 23 1017 83 8000 6.69 110 18:51 18.01.2022
5822 Rain 23 1017 83 7000 6.69 110 17:58 18.01.2022
5823 Rain 23 1017 83 7000 5.14 120 16:50 18.01.2022
5824 Rain 22 1018 88 7000 4.12 110 15:41 18.01.2022
5825 Rain 22 1018 88 7000 4.12 110 15:21 18.01.2022
5826 Clouds 23 1015 78 10000 7.72 120 12:47 18.01.2022
5827 Clouds 22 1013 78 10000 11.32 100 10:47 18.01.2022
5828 Clouds 22 1013 83 10000 10.29 120 08:59 18.01.2022
5829 Clouds 22 1012 83 10000 7.72 130 07:51 18.01.2022
5830 Clouds 23 1012 78 10000 7.2 130 02:34 18.01.2022
5831 Clouds 23 1009 83 10000 9.26 150 23:39 17.01.2022
5832 Clouds 24 1009 83 10000 7.72 140 22:26 17.01.2022
5833 Clouds 25 1009 73 10000 7.72 140 21:34 17.01.2022
5834 Clouds 26 1008 65 10000 5.14 140 20:24 17.01.2022
5835 Clouds 26 1008 69 10000 7.2 80 18:30 17.01.2022
5836 Rain 24 1007 73 10000 6.17 80 17:44 17.01.2022
5837 Clouds 23 1006 78 10000 8.23 90 16:40 17.01.2022
5838 Rain 22 1006 88 8000 6.69 90 15:19 17.01.2022
5839 Rain 22 1006 88 8000 6.69 90 14:55 17.01.2022
5840 Mist 21 1006 100 2000 10.29 110 13:22 17.01.2022
5841 Rain 21 1006 100 2000 10.29 110 12:55 17.01.2022
5842 Thunderstorm 20 1008 100 1000 5.14 140 11:49 17.01.2022
5843 Thunderstorm 23 1007 94 1500 9.26 170 10:21 17.01.2022
5844 Thunderstorm 24 1006 88 10000 3.09 140 09:34 17.01.2022
5845 Thunderstorm 24 1004 88 10000 3.09 110 07:24 17.01.2022
5846 Thunderstorm 24 1005 88 10000 0 0 06:56 17.01.2022
5847 Clear 26 1004 78 10000 1.54 160 00:55 17.01.2022
5848 Clear 30 1002 62 10000 4.12 270 22:29 16.01.2022
5849 Clouds 30 1002 66 10000 4.12 300 20:36 16.01.2022
5850 Clouds 29 1003 65 10000 6.17 310 18:52 16.01.2022
5851 Rain 28 1004 69 10000 5.14 330 17:59 16.01.2022
5852 Clear 28 1004 69 10000 5.14 330 17:21 16.01.2022
5853 Rain 26 1003 78 10000 5.14 340 16:33 16.01.2022
5854 Rain 22 1004 94 10000 6.17 10 14:31 16.01.2022
5855 Rain 22 1003 94 10000 5.14 10 13:46 16.01.2022
5856 Rain 21 1002 100 5000 7.72 30 12:48 16.01.2022
5857 Rain 21 1003 100 5000 7.72 20 11:42 16.01.2022
5858 Rain 21 1004 100 5000 1.54 30 10:54 16.01.2022
5859 Rain 22 1005 94 3000 1.54 350 10:19 16.01.2022
5860 Thunderstorm 22 1004 94 5000 2.57 220 09:51 16.01.2022
5861 Thunderstorm 22 1004 94 5000 2.57 220 09:22 16.01.2022
5862 Thunderstorm 22 1004 94 10000 3.6 230 07:33 16.01.2022
5863 Rain 27 1005 74 10000 3.09 70 00:42 16.01.2022
5864 Rain 27 1005 74 10000 5.66 60 23:49 15.01.2022
5865 Clouds 25 1006 83 10000 4.63 90 21:37 15.01.2022
5866 Clouds 25 1006 83 10000 4.63 90 21:19 15.01.2022
5867 Thunderstorm 24 1008 83 7000 6.17 160 20:39 15.01.2022
5868 Thunderstorm 30 1006 67 7000 2.06 160 19:29 15.01.2022
5869 Thunderstorm 30 1006 64 9000 0.89 277 18:37 15.01.2022
5870 Clouds 30 1007 66 10000 2.06 270 16:58 15.01.2022
5871 Clouds 30 1009 68 10000 0.89 89 15:42 15.01.2022
5872 Clouds 32 1009 56 10000 2.24 134 13:52 15.01.2022
5873 Clouds 28 1010 47 10000 3.09 360 11:46 15.01.2022
5874 Clouds 26 1009 47 10000 3.6 10 10:25 15.01.2022
5875 Clear 28 1009 44 10000 3.6 40 06:40 15.01.2022
5876 Clear 31 1008 55 10000 1.79 65 23:49 14.01.2022
5877 Clear 33 1007 46 10000 1.34 171 21:41 14.01.2022
5878 Clear 40 1009 18 10000 5.14 240 20:37 14.01.2022
5879 Clear 41 1009 17 10000 5.66 250 19:58 14.01.2022
5880 Clear 41 1009 15 10000 5.66 330 18:46 14.01.2022
5881 Clear 39 1010 21 10000 5.66 340 17:54 14.01.2022
5882 Clear 38 1010 22 10000 7.2 340 16:47 14.01.2022
5883 Clear 36 1011 28 10000 7.72 340 15:33 14.01.2022
5884 Clear 36 1011 28 10000 7.72 340 15:33 14.01.2022
5885 Clear 34 1010 44 10000 2.24 30 14:30 14.01.2022
5886 Clear 30 1011 54 10000 4.92 14 13:34 14.01.2022
5887 Clear 26 1012 61 10000 8.23 20 12:24 14.01.2022
5888 Rain 21 1012 83 10000 2.57 20 10:47 14.01.2022
5889 Clear 22 1012 78 10000 3.6 30 08:54 14.01.2022
5890 Clear 22 1012 78 10000 3.6 40 07:56 14.01.2022
5891 Clear 25 1012 69 10000 6.69 60 03:55 14.01.2022
5892 Clear 25 1010 83 10000 4.47 61 00:50 14.01.2022
5893 Clear 26 1011 78 10000 5.36 78 22:35 13.01.2022
5894 Clear 26 1011 75 10000 4.92 57 21:30 13.01.2022
5895 Clear 26 1012 75 10000 4.47 74 20:54 13.01.2022
5896 Clear 26 1013 74 10000 4.02 92 19:32 13.01.2022
5897 Clear 34 1013 33 10000 4.63 100 18:57 13.01.2022
5898 Clear 33 1014 24 10000 4.12 70 17:25 13.01.2022
5899 Rain 31 1015 30 10000 5.14 50 16:19 13.01.2022
5900 Rain 28 1015 44 10000 4.63 40 15:35 13.01.2022
5901 Rain 23 1016 64 10000 6.17 30 13:48 13.01.2022
5902 Clear 19 1015 82 10000 3.6 20 12:25 13.01.2022
5903 Mist 16 1015 88 5000 1.54 30 09:38 13.01.2022
5904 Rain 17 1014 88 10000 2.06 20 08:54 13.01.2022
5905 Rain 17 1014 88 10000 2.06 20 08:24 13.01.2022
5906 Rain 18 1014 82 10000 4.12 60 07:21 13.01.2022
5907 Rain 18 1015 82 10000 3.09 70 05:57 13.01.2022
5908 Rain 19 1015 77 10000 3.09 60 05:18 13.01.2022
5909 Clear 22 1014 78 10000 5.66 120 01:53 13.01.2022
5910 Clear 23 1014 64 10000 5.14 110 00:40 13.01.2022
5911 Clear 24 1013 74 10000 5.81 114 23:45 12.01.2022
5912 Rain 24 1013 76 10000 4.92 113 22:57 12.01.2022
5913 Rain 24 1013 73 10000 5.81 117 21:56 12.01.2022
5914 Rain 24 1013 73 10000 5.36 116 21:21 12.01.2022
5915 Clear 24 1013 73 10000 5.36 128 20:56 12.01.2022
5916 Rain 24 1014 74 10000 5.36 113 19:35 12.01.2022
5917 Rain 24 1014 75 10000 4.47 98 18:30 12.01.2022
5918 Clear 23 1014 77 10000 4.47 121 16:59 12.01.2022
5919 Clear 23 1015 76 10000 6.26 126 16:26 12.01.2022
5920 Clear 23 1014 79 10000 5.81 120 14:48 12.01.2022
5921 Clear 23 1014 83 10000 5.81 127 12:58 12.01.2022
5922 Rain 21 1013 78 10000 5.14 150 10:38 12.01.2022
5923 Clear 22 1013 73 10000 5.66 150 08:37 12.01.2022
5924 Clear 22 1013 73 10000 4.63 150 07:36 12.01.2022
5925 Rain 22 1013 78 10000 5.14 150 06:49 12.01.2022
5926 Clear 36 1007 24 10000 2.06 270 23:40 11.01.2022
5927 Clear 37 1007 22 10000 3.09 300 22:49 11.01.2022
5928 Clear 34 1006 40 10000 2.24 266 22:22 11.01.2022
5929 Clouds 37 1008 22 10000 3.6 300 20:51 11.01.2022
5930 Clear 37 1009 25 10000 6.17 270 19:48 11.01.2022
5931 Clouds 35 1009 28 10000 6.17 270 18:31 11.01.2022
5932 Clouds 32 1008 41 10000 4.92 281 17:24 11.01.2022
5933 Clear 34 1010 29 10000 6.17 270 16:37 11.01.2022
5934 Clear 34 1009 36 10000 3.6 300 15:39 11.01.2022
5935 Clear 31 1009 47 10000 2.68 314 14:42 11.01.2022
5936 Clear 29 1009 54 10000 2.68 304 13:55 11.01.2022
5937 Clear 29 1008 58 10000 3.58 323 13:35 11.01.2022
5938 Clear 24 1010 69 10000 4.63 360 12:43 11.01.2022
5939 Rain 21 1010 78 10000 4.63 360 11:43 11.01.2022
5940 Rain 20 1009 77 10000 4.12 20 09:29 11.01.2022
5941 Rain 22 1009 64 10000 3.6 30 06:37 11.01.2022
5942 Clear 25 1009 78 10000 5.14 110 00:32 11.01.2022
5943 Clear 25 1009 73 10000 4.92 82 23:43 10.01.2022
5944 Clear 25 1009 73 10000 5.36 69 23:22 10.01.2022
5945 Clear 25 1009 74 10000 4.47 68 22:19 10.01.2022
5946 Clear 25 1009 75 10000 4.02 68 21:54 10.01.2022
5947 Clear 25 1009 75 10000 4.02 96 21:20 10.01.2022
5948 Clouds 25 1010 75 10000 3.58 76 20:56 10.01.2022
5949 Clouds 25 1010 75 10000 4.02 77 20:28 10.01.2022
5950 Clouds 25 1011 75 10000 4.47 93 19:42 10.01.2022
5951 Clouds 32 1011 37 10000 3.09 150 19:21 10.01.2022
5952 Clouds 32 1012 33 10000 2.06 30 18:48 10.01.2022
5953 Rain 32 1013 35 10000 3.09 90 17:41 10.01.2022
5954 Clear 27 1013 66 10000 4.47 126 16:42 10.01.2022
5955 Clear 29 1013 50 10000 0.89 23 15:49 10.01.2022
5956 Clear 27 1013 56 10000 3.58 10 14:30 10.01.2022
5957 Clear 20 1015 83 10000 7.72 30 11:58 10.01.2022
5958 Clear 20 1015 83 10000 7.72 30 11:25 10.01.2022
5959 Clear 20 1014 77 10000 3.6 30 09:50 10.01.2022
5960 Clear 21 1014 78 10000 4.63 40 07:18 10.01.2022
5961 Clear 22 1015 68 10000 5.14 50 05:49 10.01.2022
5962 Clear 22 1015 68 10000 5.14 50 05:49 10.01.2022
5963 Clear 27 1013 39 10000 5.66 70 01:30 10.01.2022
5964 Clear 25 1011 84 10000 4.47 84 00:25 10.01.2022
5965 Clear 25 1011 76 10000 4.47 84 23:40 09.01.2022
5966 Clear 25 1012 77 10000 4.47 65 22:38 09.01.2022
5967 Clear 25 1012 77 10000 4.47 75 21:46 09.01.2022
5968 Clear 25 1012 77 10000 5.36 88 21:24 09.01.2022
5969 Clear 25 1012 76 10000 5.36 115 20:52 09.01.2022
5970 Clear 25 1012 76 10000 4.92 92 20:34 09.01.2022
5971 Clear 25 1013 76 10000 4.92 91 19:45 09.01.2022
5972 Clear 25 1013 75 10000 7.15 108 19:23 09.01.2022
5973 Clouds 25 1014 76 10000 7.15 109 18:56 09.01.2022
5974 Rain 25 1014 76 10000 6.26 105 18:34 09.01.2022
5975 Clouds 25 1015 76 10000 6.71 121 17:40 09.01.2022
5976 Clouds 25 1015 75 10000 7.6 131 17:20 09.01.2022
5977 Clouds 27 1016 56 10000 5.36 44 15:59 09.01.2022
5978 Clouds 27 1016 56 10000 4.47 38 15:36 09.01.2022
5979 Clouds 25 1017 53 10000 9.26 40 14:41 09.01.2022
5980 Clouds 22 1018 68 10000 8.75 50 13:51 09.01.2022
5981 Clouds 22 1018 68 10000 8.75 50 13:25 09.01.2022
5982 Clear 21 1018 73 10000 6.69 60 11:55 09.01.2022
5983 Clear 19 1018 77 10000 3.6 70 11:19 09.01.2022
5984 Clear 18 1017 82 10000 4.12 80 09:51 09.01.2022
5985 Clear 18 1017 82 10000 4.12 80 08:54 09.01.2022
5986 Clear 20 1017 73 10000 4.63 70 05:54 09.01.2022
5987 Clear 24 1016 64 10000 7.2 100 01:25 09.01.2022
5988 Clear 24 1014 81 10000 9.39 63 00:37 09.01.2022
5989 Clear 24 1014 79 10000 8.94 85 23:27 08.01.2022
5990 Clouds 24 1013 80 10000 7.6 84 22:35 08.01.2022
5991 Clouds 24 1014 78 10000 7.15 106 21:26 08.01.2022
5992 Clouds 24 1014 77 10000 6.71 100 20:43 08.01.2022
5993 Clouds 24 1014 76 10000 6.71 84 20:21 08.01.2022
5994 Clouds 24 1015 75 10000 5.81 107 18:45 08.01.2022
5995 Clouds 23 1016 75 10000 6.71 100 17:23 08.01.2022
5996 Clouds 23 1017 74 10000 5.36 97 15:58 08.01.2022
5997 Clouds 24 1017 74 10000 4.92 81 14:46 08.01.2022
5998 Clouds 22 1018 68 10000 5.66 70 13:41 08.01.2022
5999 Clear 19 1018 77 10000 3.6 90 11:30 08.01.2022
6000 Clouds 18 1018 77 10000 2.57 80 10:31 08.01.2022
6001 Clouds 18 1018 77 10000 2.57 80 09:54 08.01.2022
6002 Clear 18 1018 77 10000 2.57 110 09:30 08.01.2022
6003 Clear 20 1017 73 10000 4.12 90 04:25 08.01.2022
6004 Clouds 24 1015 81 10000 8.49 109 00:58 08.01.2022
6005 Clouds 23 1015 80 10000 8.05 93 22:54 07.01.2022
6006 Clouds 24 1015 77 10000 7.15 109 21:34 07.01.2022
6007 Clouds 24 1016 73 10000 7.15 109 20:23 07.01.2022
6008 Clouds 24 1016 71 10000 6.71 125 19:26 07.01.2022
6009 Clouds 24 1016 71 10000 5.81 122 18:45 07.01.2022
6010 Clouds 23 1017 73 10000 5.81 111 17:58 07.01.2022
6011 Clouds 23 1017 73 10000 5.36 119 17:22 07.01.2022
6012 Clouds 23 1018 75 10000 4.47 126 14:50 07.01.2022
6013 Clouds 22 1018 68 10000 4.12 30 13:50 07.01.2022
6014 Clear 23 1018 60 10000 4.12 20 12:50 07.01.2022
6015 Clear 15 1018 88 10000 0 0 10:18 07.01.2022
6016 Clear 20 1017 64 10000 5.66 90 02:59 07.01.2022
6017 Clear 20 1017 64 10000 5.66 90 02:21 07.01.2022
6018 Clear 21 1016 64 10000 5.66 100 01:45 07.01.2022
6019 Clear 21 1016 64 10000 5.66 100 01:23 07.01.2022
6020 Clear 23 1015 78 10000 6.71 103 00:28 07.01.2022
6021 Clear 23 1015 72 8000 7.15 85 21:56 06.01.2022
6022 Clear 23 1016 71 10000 6.26 110 20:37 06.01.2022
6023 Clear 23 1016 71 10000 5.36 115 19:54 06.01.2022
6024 Clear 23 1016 70 10000 6.71 89 19:29 06.01.2022
6025 Clear 23 1017 69 10000 5.36 117 17:51 06.01.2022
6026 Clear 22 1017 67 10000 5.36 119 17:19 06.01.2022
6027 Clear 22 1017 72 10000 4.92 125 16:31 06.01.2022
6028 Clear 22 1018 67 10000 3.13 113 15:43 06.01.2022
6029 Clear 22 1018 66 10000 3.13 106 15:20 06.01.2022
6030 Clear 23 1018 53 10000 3.6 110 14:19 06.01.2022
6031 Clear 22 1019 53 10000 3.09 110 13:30 06.01.2022
6032 Clear 20 1018 68 10000 1.54 90 12:20 06.01.2022
6033 Clear 16 1018 88 10000 1.03 70 11:29 06.01.2022
6034 Clouds 14 1017 88 10000 1.54 250 09:50 06.01.2022
6035 Clouds 19 1016 63 10000 3.6 110 05:55 06.01.2022
6036 Clouds 20 1016 67 10000 7.15 135 00:27 06.01.2022
6037 Clouds 21 1015 62 10000 7.6 147 23:22 05.01.2022
6038 Clouds 21 1015 61 10000 8.49 127 22:42 05.01.2022
6039 Clouds 21 1015 61 10000 8.05 120 22:18 05.01.2022
6040 Clouds 21 1015 62 10000 8.05 136 21:25 05.01.2022
6041 Clouds 21 1015 61 10000 7.6 156 20:30 05.01.2022
6042 Clouds 21 1015 64 10000 6.26 150 19:29 05.01.2022
6043 Clouds 21 1015 64 10000 6.26 150 19:29 05.01.2022
6044 Clouds 21 1015 63 10000 6.26 155 18:21 05.01.2022
6045 Clouds 21 1016 65 10000 6.26 166 16:56 05.01.2022
6046 Clouds 21 1016 65 10000 7.15 152 16:18 05.01.2022
6047 Clouds 20 1015 71 10000 7.15 155 14:56 05.01.2022
6048 Clouds 20 1015 71 10000 8.05 152 13:34 05.01.2022
6049 Clouds 20 1014 52 10000 6.69 150 12:20 05.01.2022
6050 Clouds 19 1012 55 10000 7.72 160 08:35 05.01.2022
6051 Clouds 20 1012 60 10000 7.72 150 06:46 05.01.2022
6052 Clouds 22 1009 53 8000 9.77 160 01:46 05.01.2022
6053 Mist 23 1007 68 4000 12.86 160 23:43 04.01.2022
6054 Mist 23 1007 68 4000 12.86 160 23:21 04.01.2022
6055 Clouds 26 1005 65 10000 7.72 180 21:41 04.01.2022
6056 Clouds 27 1005 69 10000 7.72 180 20:42 04.01.2022
6057 Thunderstorm 28 1004 69 10000 6.17 90 18:39 04.01.2022
6058 Thunderstorm 28 1002 74 10000 4.47 308 17:30 04.01.2022
6059 Rain 29 1002 69 10000 4.02 261 16:33 04.01.2022
6060 Clouds 32 1002 54 10000 3.13 217 15:20 04.01.2022
6061 Clouds 32 1003 50 10000 2.68 323 14:37 04.01.2022
6062 Clouds 31 1003 55 10000 4.02 267 13:56 04.01.2022
6063 Clear 29 1003 64 10000 3.13 320 12:22 04.01.2022
6064 Clouds 22 1004 81 10000 2.57 350 10:23 04.01.2022
6065 Clear 22 1004 81 10000 1.54 310 08:57 04.01.2022
6066 Clear 24 1004 78 10000 2.06 40 06:28 04.01.2022
6067 Clouds 26 1006 75 10000 5.36 53 00:43 04.01.2022
6068 Clouds 26 1006 72 10000 5.36 53 23:56 03.01.2022
6069 Clouds 25 1005 80 10000 4.92 77 22:22 03.01.2022
6070 Clouds 26 1005 80 10000 3.13 101 21:40 03.01.2022
6071 Clouds 26 1006 79 10000 4.02 136 20:41 03.01.2022
6072 Clouds 26 1006 77 10000 2.24 151 19:38 03.01.2022
6073 Clouds 26 1007 75 10000 3.13 190 18:31 03.01.2022
6074 Clouds 26 1007 80 10000 1.79 181 17:23 03.01.2022
6075 Clouds 26 1007 81 10000 5.36 186 16:53 03.01.2022
6076 Clear 32 1009 46 10000 3.6 310 14:32 03.01.2022
6077 Clouds 29 1009 61 10000 1.03 0 13:25 03.01.2022
6078 Rain 23 1008 89 10000 2.24 218 12:22 03.01.2022
6079 Clouds 25 1009 80 10000 2.06 110 11:22 03.01.2022
6080 Clear 22 1007 84 10000 4.12 70 09:29 03.01.2022
6081 Clouds 23 1007 84 10000 3.6 70 07:55 03.01.2022
6082 Clear 23 1007 76 10000 0 0 04:23 03.01.2022
6083 Clear 26 1004 74 10000 1.79 108 23:32 02.01.2022
6084 Clear 26 1003 73 10000 1.79 119 22:57 02.01.2022
6085 Clear 27 1003 70 10000 1.79 125 22:22 02.01.2022
6086 Clouds 27 1003 71 10000 1.79 113 21:26 02.01.2022
6087 Clouds 27 1004 70 10000 1.34 117 20:30 02.01.2022
6088 Clouds 26 1004 72 10000 3.13 148 19:32 02.01.2022
6089 Clouds 26 1005 71 10000 3.58 130 18:56 02.01.2022
6090 Clouds 26 1005 72 10000 2.68 138 18:30 02.01.2022
6091 Clouds 26 1005 77 10000 2.24 115 17:42 02.01.2022
6092 Clouds 26 1005 74 10000 1.79 124 17:21 02.01.2022
6093 Clear 26 1005 72 10000 3.13 190 16:30 02.01.2022
6094 Clouds 26 1005 77 10000 2.24 200 15:49 02.01.2022
6095 Clouds 26 1006 79 10000 2.24 195 13:57 02.01.2022
6096 Clouds 23 1006 82 10000 1.34 326 12:33 02.01.2022
6097 Clouds 22 1006 81 10000 0 0 11:55 02.01.2022
6098 Clear 20 1005 95 10000 1.54 320 10:55 02.01.2022
6099 Clear 18 1005 95 10000 1.54 320 10:22 02.01.2022
6100 Clear 19 1004 93 10000 0 0 07:45 02.01.2022
6101 Clear 21 1005 84 10000 1.54 20 02:57 02.01.2022
6102 Clear 24 1003 79 10000 3.58 163 23:55 01.01.2022
6103 Clear 24 1003 78 10000 3.13 181 23:36 01.01.2022
6104 Clear 23 1003 79 10000 3.6 30 22:41 01.01.2022
6105 Clear 22 1003 83 10000 3.6 30 22:18 01.01.2022
6106 Clouds 22 1003 83 10000 5.14 30 21:42 01.01.2022
6107 Clouds 29 1003 45 10000 8.29 305 20:50 01.01.2022
6108 Rain 25 1005 57 10000 10.29 310 19:47 01.01.2022
6109 Rain 28 1004 58 10000 4.47 281 18:53 01.01.2022
6110 Rain 28 1004 58 10000 3.58 11 17:46 01.01.2022
6111 Clear 25 1005 65 10000 6.69 20 16:35 01.01.2022
6112 Clouds 32 1003 39 10000 3.24 337 15:50 01.01.2022
6113 Rain 31 1004 41 10000 4.32 356 14:40 01.01.2022
6114 Thunderstorm 21 1007 88 10000 5.66 340 13:42 01.01.2022
6115 Rain 22 1004 83 10000 6.69 30 12:26 01.01.2022
6116 Rain 22 1004 83 10000 6.69 30 11:46 01.01.2022
6117 Rain 22 1004 83 10000 6.69 30 11:18 01.01.2022
6118 Rain 21 1003 83 10000 5.14 40 09:48 01.01.2022
6119 Rain 21 1003 83 10000 5.14 40 09:20 01.01.2022
6120 Clear 21 1003 83 10000 5.66 30 08:22 01.01.2022
6121 Clear 22 1004 78 10000 6.17 50 07:41 01.01.2022
6122 Clear 22 1004 78 10000 5.14 40 06:45 01.01.2022
6123 Clear 23 1005 73 10000 5.66 40 05:26 01.01.2022
6124 Clear 24 1005 64 10000 5.14 40 04:37 01.01.2022
6125 Clear 25 1004 87 10000 4.47 82 00:41 01.01.2022
6126 Clear 24 1004 81 10000 4.47 69 22:59 31.12.2021
6127 Clouds 25 1004 83 10000 3.58 80 21:52 31.12.2021
6128 Rain 25 1005 82 10000 4.02 109 20:32 31.12.2021
6129 Rain 25 1005 81 10000 3.58 82 19:29 31.12.2021
6130 Rain 31 1006 51 10000 6.17 150 18:30 31.12.2021
6131 Clouds 24 1007 83 10000 4.02 109 17:37 31.12.2021
6132 Clouds 24 1007 83 10000 4.02 109 17:18 31.12.2021
6133 Clouds 25 1007 84 10000 3.58 150 16:21 31.12.2021
6134 Clouds 25 1008 82 10000 3.13 157 15:53 31.12.2021
6135 Clouds 25 1008 81 10000 2.68 161 15:28 31.12.2021
6136 Clouds 24 1008 82 10000 2.24 110 14:47 31.12.2021
6137 Clouds 25 1008 82 10000 2.24 123 14:28 31.12.2021
6138 Clouds 24 1008 82 10000 2.68 151 13:36 31.12.2021
6139 Clouds 25 1008 81 10000 1.34 137 12:44 31.12.2021
6140 Clear 23 1009 83 10000 1.54 100 11:43 31.12.2021
6141 Clear 23 1009 83 10000 1.54 100 11:24 31.12.2021
6142 Clouds 21 1008 88 10000 0 0 10:34 31.12.2021
6143 Clouds 21 1008 88 10000 1.54 90 09:52 31.12.2021
6144 Clear 21 1008 88 10000 1.54 110 09:32 31.12.2021
6145 Clear 21 1008 88 10000 0 0 08:25 31.12.2021
6146 Clear 22 1008 83 10000 1.54 330 07:30 31.12.2021
6147 Clear 26 1007 73 10000 3.13 74 23:23 30.12.2021
6148 Clear 25 1006 75 10000 4.47 57 22:33 30.12.2021
6149 Clear 26 1007 75 10000 2.24 61 21:54 30.12.2021
6150 Clear 26 1007 75 10000 3.13 61 21:36 30.12.2021
6151 Clouds 26 1007 75 10000 4.02 77 20:46 30.12.2021
6152 Clouds 26 1007 75 10000 5.36 137 20:25 30.12.2021
6153 Clouds 27 1008 71 10000 4.92 176 19:45 30.12.2021
6154 Clouds 28 1008 66 10000 4.02 181 18:45 30.12.2021
6155 Clouds 31 1009 45 10000 4.63 210 18:18 30.12.2021
6156 Clear 33 1008 32 10000 3.13 313 16:19 30.12.2021
6157 Clear 33 1008 35 10000 2.68 341 15:51 30.12.2021
6158 Clear 29 1008 43 10000 4.02 28 14:39 30.12.2021
6159 Clear 28 1009 42 10000 8.75 20 13:55 30.12.2021
6160 Clear 28 1009 42 10000 8.75 20 13:55 30.12.2021
6161 Clear 23 1010 60 10000 9.26 20 12:40 30.12.2021
6162 Clear 20 1010 77 10000 8.75 20 10:59 30.12.2021
6163 Clear 21 1010 68 10000 6.17 30 09:59 30.12.2021
6164 Clear 21 1010 68 10000 6.17 30 09:59 30.12.2021
6165 Clear 21 1010 68 10000 6.17 30 09:21 30.12.2021
6166 Clear 22 1010 68 10000 6.17 30 06:54 30.12.2021
6167 Clear 24 1011 57 10000 7.72 40 04:20 30.12.2021
6168 Clear 26 1011 47 10000 6.17 40 03:38 30.12.2021
6169 Clear 27 1008 67 10000 2.24 61 23:57 29.12.2021
6170 Clear 27 1008 68 10000 4.02 80 23:23 29.12.2021
6171 Clear 27 1008 67 10000 4.47 86 22:22 29.12.2021
6172 Clear 27 1008 66 10000 2.24 79 21:45 29.12.2021
6173 Clear 27 1009 67 10000 4.02 69 20:39 29.12.2021
6174 Clouds 27 1010 66 10000 2.24 92 19:50 29.12.2021
6175 Clear 35 1012 20 10000 7.72 20 18:57 29.12.2021
6176 Clear 34 1011 29 10000 4.47 6 17:57 29.12.2021
6177 Clear 33 1011 29 10000 3.13 21 17:28 29.12.2021
6178 Clear 30 1012 38 10000 4.92 30 16:44 29.12.2021
6179 Clear 30 1012 38 10000 4.92 30 16:19 29.12.2021
6180 Clear 25 1013 51 10000 4.92 32 14:40 29.12.2021
6181 Clear 25 1013 57 10000 4.47 48 12:48 29.12.2021
6182 Clear 24 1013 61 10000 6.71 37 12:20 29.12.2021
6183 Clear 21 1014 60 10000 5.14 10 10:31 29.12.2021
6184 Clear 22 1012 60 10000 6.17 30 08:24 29.12.2021
6185 Rain 23 1012 56 10000 5.66 30 06:45 29.12.2021
6186 Clear 23 1012 56 10000 5.66 30 06:24 29.12.2021
6187 Rain 24 1013 50 10000 5.66 30 05:42 29.12.2021
6188 Clear 26 1013 53 10000 3.6 60 03:20 29.12.2021
6189 Clear 25 1011 76 10000 4.47 73 00:24 29.12.2021
6190 Clear 26 1011 71 10000 4.47 73 23:47 28.12.2021
6191 Clear 26 1011 69 10000 5.36 73 22:45 28.12.2021
6192 Clear 26 1011 69 10000 4.92 90 22:24 28.12.2021
6193 Clear 26 1010 69 10000 5.81 71 21:53 28.12.2021
6194 Clear 26 1011 68 10000 4.92 71 20:49 28.12.2021
6195 Clear 27 1011 68 10000 2.68 65 19:44 28.12.2021
6196 Clear 27 1011 63 10000 2.24 100 18:50 28.12.2021
6197 Clear 27 1011 61 10000 2.68 133 18:23 28.12.2021
6198 Rain 27 1012 57 10000 3.58 186 16:35 28.12.2021
6199 Rain 30 1012 38 10000 1.79 303 15:52 28.12.2021
6200 Rain 29 1012 41 10000 2.24 21 15:27 28.12.2021
6201 Rain 28 1012 45 10000 2.68 28 14:53 28.12.2021
6202 Rain 27 1012 49 10000 0.89 352 14:21 28.12.2021
6203 Rain 26 1011 52 10000 2.68 15 13:54 28.12.2021
6204 Clear 25 1011 53 10000 4.02 21 13:33 28.12.2021
6205 Clear 23 1012 68 10000 4.02 5 12:55 28.12.2021
6206 Clear 22 1012 71 10000 5.36 43 12:18 28.12.2021
6207 Clear 16 1011 82 10000 2.57 10 09:30 28.12.2021
6208 Rain 17 1011 77 10000 3.09 40 07:33 28.12.2021
6209 Clear 20 1011 73 10000 2.57 70 03:28 28.12.2021
6210 Clear 23 1009 69 10000 4.02 97 23:26 27.12.2021
6211 Clear 22 1010 68 10000 3.58 125 22:20 27.12.2021
6212 Clear 22 1009 68 10000 3.13 127 21:30 27.12.2021
6213 Clear 23 1010 65 10000 3.13 129 20:27 27.12.2021
6214 Clear 22 1010 67 10000 2.68 98 19:47 27.12.2021
6215 Clear 22 1010 67 10000 3.58 140 18:57 27.12.2021
6216 Clear 22 1010 68 10000 3.13 82 17:51 27.12.2021
6217 Clear 22 1010 68 10000 2.68 134 17:28 27.12.2021
6218 Clear 22 1011 69 10000 2.24 113 15:54 27.12.2021
6219 Clear 22 1011 72 10000 4.02 130 14:56 27.12.2021
6220 Clear 23 1011 53 10000 4.12 140 14:21 27.12.2021
6221 Clouds 21 1011 68 10000 2.57 120 12:49 27.12.2021
6222 Clouds 19 1010 72 10000 3.09 150 10:37 27.12.2021
6223 Clouds 19 1010 72 10000 3.09 150 10:18 27.12.2021
6224 Clouds 20 1009 77 10000 2.57 150 08:42 27.12.2021
6225 Clouds 20 1009 73 10000 3.09 160 07:34 27.12.2021
6226 Clouds 22 1011 64 10000 2.57 150 02:29 27.12.2021
6227 Clouds 23 1010 53 10000 3.6 140 01:51 27.12.2021
6228 Clear 25 1009 63 10000 5.36 94 23:49 26.12.2021
6229 Clear 26 1008 59 10000 2.24 71 23:19 26.12.2021
6230 Clear 26 1008 56 10000 1.79 97 21:33 26.12.2021
6231 Clear 25 1010 63 10000 1.79 148 19:55 26.12.2021
6232 Clear 27 1011 61 10000 1.79 211 18:45 26.12.2021
6233 Clear 26 1011 63 10000 2.24 186 18:21 26.12.2021
6234 Clear 25 1013 59 10000 2.68 217 15:38 26.12.2021
6235 Clear 23 1013 60 10000 3.09 220 13:49 26.12.2021
6236 Clear 23 1013 60 10000 3.09 220 13:31 26.12.2021
6237 Clear 20 1013 83 10000 0 0 12:35 26.12.2021
6238 Clear 16 1013 94 10000 0 0 11:20 26.12.2021
6239 Clear 15 1012 94 7000 0 0 09:31 26.12.2021
6240 Clear 17 1012 82 10000 0 0 08:45 26.12.2021
6241 Clear 17 1012 82 10000 0 0 08:26 26.12.2021
6242 Clouds 20 1011 77 10000 3.09 150 01:50 26.12.2021
6243 Clouds 22 1010 82 10000 5.81 169 00:40 26.12.2021
6244 Clouds 22 1010 80 10000 5.36 149 23:37 25.12.2021
6245 Clouds 23 1010 78 10000 6.26 176 22:38 25.12.2021
6246 Clouds 23 1010 78 10000 6.26 169 22:20 25.12.2021
6247 Clouds 23 1010 79 10000 7.6 186 20:26 25.12.2021
6248 Clouds 24 1009 77 10000 6.71 186 19:19 25.12.2021
6249 Clouds 23 1009 78 10000 7.6 194 18:39 25.12.2021
6250 Clouds 24 1009 81 10000 5.81 197 16:50 25.12.2021
6251 Clouds 24 1008 79 10000 5.36 202 15:38 25.12.2021
6252 Clouds 26 1008 78 10000 3.58 207 14:24 25.12.2021
6253 Clouds 25 1008 68 10000 1.79 317 12:40 25.12.2021
6254 Clouds 23 1008 60 10000 2.06 360 11:21 25.12.2021
6255 Clear 23 1007 64 10000 4.12 10 09:49 25.12.2021
6256 Clear 23 1007 60 10000 5.14 20 07:39 25.12.2021
6257 Clear 25 1008 61 10000 3.6 90 01:45 25.12.2021
6258 Clear 25 1007 80 10000 3.13 77 00:23 25.12.2021
6259 Clouds 25 1007 75 10000 4.02 91 22:26 24.12.2021
6260 Clouds 25 1009 76 10000 4.02 65 19:36 24.12.2021
6261 Clouds 25 1009 75 10000 4.02 89 19:18 24.12.2021
6262 Clear 26 1010 72 10000 4.02 51 16:50 24.12.2021
6263 Clear 29 1011 52 10000 1.34 6 15:53 24.12.2021
6264 Clear 28 1011 51 10000 2.68 37 15:34 24.12.2021
6265 Clear 25 1013 61 10000 6.17 360 14:36 24.12.2021
6266 Clear 25 1013 61 10000 6.17 360 14:36 24.12.2021
6267 Clear 25 1013 61 10000 6.17 360 14:18 24.12.2021
6268 Clear 23 1014 64 10000 6.69 20 13:33 24.12.2021
6269 Clear 21 1014 78 10000 6.69 20 12:47 24.12.2021
6270 Clear 19 1014 88 10000 5.66 30 11:52 24.12.2021
6271 Clear 19 1014 88 10000 5.66 30 11:25 24.12.2021
6272 Clear 17 1014 94 10000 2.06 40 10:46 24.12.2021
6273 Clear 17 1014 94 10000 2.57 60 09:32 24.12.2021
6274 Clear 17 1013 88 10000 1.54 20 08:23 24.12.2021
6275 Clear 18 1013 88 10000 2.06 30 07:46 24.12.2021
6276 Clear 21 1015 73 10000 5.66 110 01:30 24.12.2021
6277 Clouds 23 1015 64 10000 5.66 120 23:56 23.12.2021
6278 Clouds 23 1015 64 10000 5.66 120 22:56 23.12.2021
6279 Clear 23 1015 76 10000 5.81 122 22:37 23.12.2021
6280 Clear 23 1015 76 10000 5.81 122 22:18 23.12.2021
6281 Clouds 23 1015 76 10000 5.36 133 20:56 23.12.2021
6282 Clouds 23 1016 77 10000 4.92 111 19:47 23.12.2021
6283 Clouds 23 1016 74 10000 4.92 133 18:35 23.12.2021
6284 Clouds 23 1017 75 10000 4.47 134 17:56 23.12.2021
6285 Rain 23 1017 74 10000 2.68 152 16:43 23.12.2021
6286 Rain 23 1017 74 10000 2.68 139 16:23 23.12.2021
6287 Rain 23 1017 74 10000 2.24 107 15:31 23.12.2021
6288 Rain 23 1018 77 10000 1.34 98 14:52 23.12.2021
6289 Clouds 23 1018 77 10000 1.79 104 14:30 23.12.2021
6290 Clouds 23 1018 68 10000 3.6 100 12:54 23.12.2021
6291 Rain 18 1017 88 10000 2.06 60 10:44 23.12.2021
6292 Rain 18 1017 88 10000 1.03 60 09:42 23.12.2021
6293 Rain 18 1016 88 10000 2.06 350 08:59 23.12.2021
6294 Rain 20 1016 77 10000 2.06 90 06:55 23.12.2021
6295 Rain 20 1016 83 10000 3.09 110 04:30 23.12.2021
6296 Clear 23 1014 77 10000 4.02 60 23:20 22.12.2021
6297 Clear 23 1014 76 10000 4.02 116 22:42 22.12.2021
6298 Clear 23 1014 77 10000 3.13 63 21:56 22.12.2021
6299 Clear 23 1014 76 10000 4.02 98 21:29 22.12.2021
6300 Clouds 23 1014 77 10000 4.02 134 20:47 22.12.2021
6301 Clouds 22 1014 77 10000 4.47 132 20:26 22.12.2021
6302 Clouds 23 1014 77 10000 4.47 132 19:28 22.12.2021
6303 Clouds 22 1014 77 10000 4.92 139 17:50 22.12.2021
6304 Clouds 22 1014 77 10000 4.02 145 16:40 22.12.2021
6305 Clouds 22 1014 84 10000 3.58 135 15:40 22.12.2021
6306 Clouds 22 1013 83 10000 4.47 121 13:33 22.12.2021
6307 Clouds 22 1013 86 10000 3.58 140 12:40 22.12.2021
6308 Clouds 19 1012 94 9000 2.06 140 10:36 22.12.2021
6309 Clouds 19 1011 94 9000 2.57 130 09:39 22.12.2021
6310 Clouds 19 1011 94 10000 2.57 130 07:30 22.12.2021
6311 Clouds 20 1010 88 10000 3.6 110 05:50 22.12.2021
6312 Clouds 20 1010 88 10000 3.6 110 05:26 22.12.2021
6313 Clear 20 1010 88 10000 3.09 110 04:50 22.12.2021
6314 Clear 20 1010 88 10000 3.09 110 04:26 22.12.2021
6315 Clear 20 1010 88 10000 3.6 130 03:32 22.12.2021
6316 Clouds 21 1009 78 10000 5.66 120 00:47 22.12.2021
6317 Clouds 22 1008 84 10000 7.15 139 23:25 21.12.2021
6318 Rain 23 1008 84 10000 4.02 122 22:28 21.12.2021
6319 Clouds 22 1008 84 10000 5.81 143 21:44 21.12.2021
6320 Clouds 22 1008 83 10000 6.71 138 21:22 21.12.2021
6321 Clouds 23 1008 87 10000 6.71 163 20:21 21.12.2021
6322 Clouds 23 1009 77 10000 3.58 136 19:42 21.12.2021
6323 Clouds 23 1008 79 10000 4.92 79 18:48 21.12.2021
6324 Clouds 23 1008 79 10000 5.36 75 18:21 21.12.2021
6325 Clouds 23 1009 81 10000 5.36 71 17:42 21.12.2021
6326 Clouds 22 1010 86 10000 5.36 94 16:26 21.12.2021
6327 Clouds 22 1010 86 10000 6.26 143 15:24 21.12.2021
6328 Clouds 22 1010 84 10000 1.34 58 13:50 21.12.2021
6329 Clouds 22 1011 85 10000 1.34 59 13:30 21.12.2021
6330 Clouds 21 1010 89 8000 3.13 40 11:49 21.12.2021
6331 Clouds 19 1010 88 10000 3.09 90 10:25 21.12.2021
6332 Rain 19 1010 88 10000 2.57 90 09:27 21.12.2021
6333 Rain 19 1010 88 10000 2.57 90 07:59 21.12.2021
6334 Clear 19 1011 88 10000 2.06 60 07:29 21.12.2021
6335 Clouds 20 1012 88 10000 2.06 120 06:50 21.12.2021
6336 Clouds 21 1011 88 10000 5.66 110 02:51 21.12.2021
6337 Clear 22 1011 89 10000 8.05 100 23:59 20.12.2021
6338 Clear 23 1011 89 10000 7.15 101 23:32 20.12.2021
6339 Clouds 22 1011 88 10000 8.49 117 22:30 20.12.2021
6340 Clouds 23 1011 88 10000 8.05 120 21:47 20.12.2021
6341 Clouds 23 1011 87 10000 6.71 119 21:23 20.12.2021
6342 Clouds 22 1012 85 10000 8.05 116 20:45 20.12.2021
6343 Clear 23 1012 84 10000 7.6 121 19:54 20.12.2021
6344 Rain 23 1012 84 10000 6.26 86 19:31 20.12.2021
6345 Rain 23 1012 84 10000 5.81 136 18:54 20.12.2021
6346 Clear 23 1012 82 10000 6.26 125 17:53 20.12.2021
6347 Clear 23 1013 79 10000 5.36 144 17:25 20.12.2021
6348 Clear 23 1013 79 10000 4.47 147 16:42 20.12.2021
6349 Clear 24 1013 81 10000 4.02 157 15:51 20.12.2021
6350 Clear 24 1013 79 10000 2.24 146 14:53 20.12.2021
6351 Clear 25 1014 69 10000 3.6 170 13:18 20.12.2021
6352 Clear 19 1013 94 10000 1.03 120 11:19 20.12.2021
6353 Clear 18 1011 94 10000 2.06 10 09:51 20.12.2021
6354 Clear 18 1011 94 10000 2.06 10 09:31 20.12.2021
6355 Rain 19 1011 88 10000 1.03 30 08:42 20.12.2021
6356 Rain 19 1011 88 10000 2.06 20 07:50 20.12.2021
6357 Rain 19 1011 88 10000 2.06 20 07:50 20.12.2021
6358 Clear 19 1011 88 10000 2.06 20 07:30 20.12.2021
6359 Rain 22 1011 83 10000 2.06 110 04:36 20.12.2021
6360 Clear 23 1010 82 10000 3.58 154 23:59 19.12.2021
6361 Clear 23 1010 80 10000 3.58 121 22:52 19.12.2021
6362 Clear 23 1010 78 10000 4.02 118 21:55 19.12.2021
6363 Clear 23 1010 78 10000 4.47 132 21:30 19.12.2021
6364 Clear 23 1010 76 10000 4.92 150 20:34 19.12.2021
6365 Clear 23 1010 82 10000 4.47 121 19:52 19.12.2021
6366 Clear 23 1010 83 10000 4.92 117 19:27 19.12.2021
6367 Clear 24 1011 76 10000 3.13 97 18:30 19.12.2021
6368 Clear 29 1012 39 10000 4.12 60 17:53 19.12.2021
6369 Clear 29 1012 39 10000 4.12 60 17:19 19.12.2021
6370 Clear 24 1012 71 10000 5.36 100 16:26 19.12.2021
6371 Clear 26 1013 58 10000 3.58 28 15:43 19.12.2021
6372 Clear 26 1013 58 10000 2.24 53 15:20 19.12.2021
6373 Clear 24 1013 62 10000 5.36 28 14:42 19.12.2021
6374 Clouds 21 1016 68 10000 6.17 30 13:22 19.12.2021
6375 Clear 20 1016 73 10000 6.17 30 12:46 19.12.2021
6376 Clear 20 1016 73 10000 6.17 30 12:23 19.12.2021
6377 Clear 18 1016 82 10000 3.6 60 11:21 19.12.2021
6378 Clear 16 1016 88 10000 3.09 80 10:26 19.12.2021
6379 Clear 16 1016 88 10000 1.54 90 09:42 19.12.2021
6380 Clear 17 1016 82 10000 1.03 110 08:35 19.12.2021
6381 Clear 20 1016 64 10000 5.14 80 04:45 19.12.2021
6382 Clear 24 1016 43 10000 5.14 70 01:33 19.12.2021
6383 Clear 23 1015 68 10000 4.63 110 00:52 19.12.2021
6384 Clear 26 1015 57 10000 6.69 120 22:37 18.12.2021
6385 Clear 26 1016 57 10000 7.2 130 21:58 18.12.2021
6386 Clear 26 1016 57 10000 7.2 130 21:36 18.12.2021
6387 Clear 26 1016 57 10000 7.72 110 20:44 18.12.2021
6388 Clear 26 1016 57 10000 7.72 110 20:19 18.12.2021
6389 Clouds 26 1017 57 10000 7.2 140 19:25 18.12.2021
6390 Clouds 27 1018 50 10000 6.69 120 18:22 18.12.2021
6391 Clouds 27 1019 50 10000 5.14 110 17:48 18.12.2021
6392 Clouds 26 1019 50 10000 4.12 70 16:26 18.12.2021
6393 Clouds 25 1020 53 10000 5.66 130 15:28 18.12.2021
6394 Clouds 24 1020 57 10000 4.12 50 14:51 18.12.2021
6395 Clouds 22 1020 68 10000 5.66 40 13:28 18.12.2021
6396 Clear 17 1020 82 10000 3.6 90 11:23 18.12.2021
6397 Clear 16 1019 82 10000 2.57 90 09:40 18.12.2021
6398 Clear 16 1019 82 10000 2.57 80 08:47 18.12.2021
6399 Clear 16 1019 82 10000 2.57 80 08:24 18.12.2021
6400 Clear 20 1019 68 10000 5.14 90 03:58 18.12.2021
6401 Clear 21 1018 73 10000 6.69 120 00:30 18.12.2021
6402 Clear 22 1018 68 10000 7.72 120 23:46 17.12.2021
6403 Clouds 24 1018 64 10000 7.72 120 21:58 17.12.2021
6404 Clouds 24 1018 64 10000 7.72 120 21:20 17.12.2021
6405 Clouds 25 1018 57 10000 7.2 110 20:41 17.12.2021
6406 Clouds 25 1019 61 10000 6.17 140 19:28 17.12.2021
6407 Clouds 25 1019 53 10000 5.14 100 18:39 17.12.2021
6408 Clouds 25 1020 50 10000 4.12 100 17:33 17.12.2021
6409 Clouds 25 1020 53 10000 4.12 100 16:49 17.12.2021
6410 Clouds 25 1020 53 10000 4.12 100 16:22 17.12.2021
6411 Clouds 24 1020 57 10000 5.14 110 15:25 17.12.2021
6412 Clouds 23 1021 60 10000 5.14 110 14:40 17.12.2021
6413 Clouds 23 1021 56 10000 5.14 120 13:21 17.12.2021
6414 Clear 18 1019 88 10000 3.6 100 11:50 17.12.2021
6415 Clouds 18 1019 88 10000 2.57 90 10:37 17.12.2021
6416 Clouds 18 1018 82 10000 1.54 50 09:34 17.12.2021
6417 Clouds 18 1018 82 10000 1.54 50 09:34 17.12.2021
6418 Clouds 19 1018 77 10000 2.57 90 08:30 17.12.2021
6419 Clouds 19 1018 77 10000 3.6 100 07:18 17.12.2021
6420 Clouds 17 1018 86 10000 4.63 110 04:39 17.12.2021
6421 Clouds 20 1017 73 10000 6.17 120 23:47 16.12.2021
6422 Clouds 22 1017 64 10000 6.69 130 22:24 16.12.2021
6423 Clouds 22 1017 64 10000 6.69 130 22:24 16.12.2021
6424 Clouds 22 1017 64 10000 6.69 130 22:24 16.12.2021
6425 Clouds 22 1017 64 10000 6.69 130 22:23 16.12.2021
6426 Clouds 22 1017 64 10000 6.69 130 22:23 16.12.2021
6427 Clouds 22 1017 64 10000 6.69 130 22:23 16.12.2021
6428 Clouds 22 1017 64 10000 6.69 130 22:23 16.12.2021
6429 Clouds 22 1017 68 10000 7.2 140 21:45 16.12.2021
6430 Clouds 22 1017 68 10000 7.2 140 20:57 16.12.2021
6431 Clouds 22 1017 64 10000 7.2 130 20:27 16.12.2021
6432 Clouds 23 1017 60 10000 7.2 140 19:33 16.12.2021
6433 Clouds 22 1017 64 10000 7.2 130 18:37 16.12.2021
6434 Clouds 23 1016 60 10000 8.23 150 17:48 16.12.2021
6435 Clouds 23 1016 60 10000 7.72 140 16:55 16.12.2021
6436 Clouds 23 1016 60 10000 7.72 140 16:20 16.12.2021
6437 Clouds 21 1016 78 10000 5.66 120 14:32 16.12.2021
6438 Clouds 19 1015 88 10000 5.14 130 12:34 16.12.2021
6439 Clouds 19 1015 88 10000 4.63 140 11:19 16.12.2021
6440 Clouds 19 1015 88 10000 4.63 140 11:19 16.12.2021
6441 Clouds 19 1014 88 10000 6.69 130 10:45 16.12.2021
6442 Clouds 19 1013 94 10000 6.69 130 09:52 16.12.2021
6443 Clouds 19 1013 94 10000 5.14 120 07:19 16.12.2021
6444 Clouds 19 1013 94 10000 5.14 130 06:19 16.12.2021
6445 Clouds 22 1012 86 10000 2.68 195 00:44 16.12.2021
6446 Clouds 22 1012 82 10000 2.24 197 23:21 15.12.2021
6447 Clouds 23 1012 80 10000 2.68 203 22:26 15.12.2021
6448 Clouds 24 1013 64 10000 4.12 180 21:46 15.12.2021
6449 Clouds 23 1012 80 10000 2.68 213 21:26 15.12.2021
6450 Clouds 23 1013 80 10000 3.58 181 19:55 15.12.2021
6451 Clouds 23 1013 80 10000 5.36 209 19:22 15.12.2021
6452 Clouds 24 1014 69 10000 4.63 240 18:26 15.12.2021
6453 Clouds 23 1013 86 10000 2.24 203 17:49 15.12.2021
6454 Clouds 22 1014 87 10000 2.24 196 17:27 15.12.2021
6455 Clouds 22 1014 88 10000 3.13 191 16:25 15.12.2021
6456 Clouds 22 1014 88 10000 2.24 129 15:42 15.12.2021
6457 Clouds 22 1014 88 10000 3.13 132 15:24 15.12.2021
6458 Rain 22 1014 89 10000 2.24 83 13:58 15.12.2021
6459 Clouds 21 1014 91 10000 4.02 78 11:57 15.12.2021
6460 Clouds 20 1016 85 10000 5.34 47 10:23 15.12.2021
6461 Clouds 20 1013 83 10000 2.57 70 08:48 15.12.2021
6462 Rain 20 1015 83 10000 3.6 60 05:59 15.12.2021
6463 Clouds 21 1015 78 10000 8.23 110 00:47 15.12.2021
6464 Clouds 22 1014 86 10000 8.05 77 23:41 14.12.2021
6465 Clouds 22 1014 86 10000 8.05 118 22:47 14.12.2021
6466 Clouds 22 1014 84 10000 7.6 108 21:51 14.12.2021
6467 Clouds 22 1014 80 10000 8.49 123 20:27 14.12.2021
6468 Clouds 22 1014 79 10000 8.94 117 19:40 14.12.2021
6469 Clouds 22 1015 79 10000 7.6 138 18:42 14.12.2021
6470 Clouds 22 1015 79 10000 7.6 126 17:58 14.12.2021
6471 Clouds 22 1015 80 10000 7.15 133 17:27 14.12.2021
6472 Rain 21 1016 80 10000 6.71 118 16:38 14.12.2021
6473 Rain 21 1016 82 10000 6.26 117 14:52 14.12.2021
6474 Clear 22 1016 64 10000 7.2 120 13:31 14.12.2021
6475 Clear 19 1015 82 10000 7.2 140 11:57 14.12.2021
6476 Clear 19 1015 82 10000 7.2 140 11:23 14.12.2021
6477 Clear 18 1015 94 10000 3.6 140 09:56 14.12.2021
6478 Clear 18 1015 94 10000 3.6 140 09:34 14.12.2021
6479 Clear 18 1014 94 10000 3.6 130 08:23 14.12.2021
6480 Clear 19 1014 82 10000 3.6 120 07:43 14.12.2021
6481 Rain 20 1015 68 10000 4.12 110 02:25 14.12.2021
6482 Clear 22 1013 73 10000 4.02 121 22:50 13.12.2021
6483 Clear 22 1013 72 10000 4.47 132 21:52 13.12.2021
6484 Clear 22 1013 71 10000 4.47 130 20:59 13.12.2021
6485 Clear 23 1012 71 10000 4.02 141 20:34 13.12.2021
6486 Clear 22 1012 71 10000 4.47 126 19:52 13.12.2021
6487 Clear 23 1013 68 10000 4.47 153 17:56 13.12.2021
6488 Clear 23 1013 68 10000 4.47 146 17:24 13.12.2021
6489 Clouds 22 1012 69 10000 5.36 176 15:50 13.12.2021
6490 Clouds 23 1012 71 10000 4.92 176 15:19 13.12.2021
6491 Clear 22 1012 88 10000 3.58 176 13:38 13.12.2021
6492 Clear 22 1011 90 10000 1.34 140 12:46 13.12.2021
6493 Clear 22 1011 83 10000 5.14 170 11:54 13.12.2021
6494 Rain 21 1010 88 10000 5.14 170 11:35 13.12.2021
6495 Clear 21 1009 88 10000 3.09 190 10:43 13.12.2021
6496 Rain 20 1008 94 10000 2.06 220 08:57 13.12.2021
6497 Rain 21 1007 88 10000 3.09 220 07:46 13.12.2021
6498 Clear 20 1007 88 10000 2.06 250 05:35 13.12.2021
6499 Clear 22 1005 78 10000 1.54 150 00:43 13.12.2021
6500 Clear 23 1003 81 10000 2.68 190 22:23 12.12.2021
6501 Clear 23 1003 82 10000 4.02 154 21:38 12.12.2021
6502 Clouds 23 1003 79 10000 1.34 181 19:47 12.12.2021
6503 Clouds 24 1003 75 10000 1.79 147 18:35 12.12.2021
6504 Clouds 23 1004 76 10000 1.34 158 17:31 12.12.2021
6505 Clouds 27 1004 70 10000 4.47 210 16:27 12.12.2021
6506 Clear 29 1005 48 10000 5.14 20 15:45 12.12.2021
6507 Clear 29 1005 48 10000 5.14 20 15:25 12.12.2021
6508 Clear 28 1004 58 10000 4.92 17 14:34 12.12.2021
6509 Clear 24 1005 60 10000 8.23 30 13:22 12.12.2021
6510 Clear 22 1005 68 10000 8.75 20 12:30 12.12.2021
6511 Clear 19 1005 77 10000 7.72 40 11:44 12.12.2021
6512 Clear 19 1005 77 10000 7.72 40 11:20 12.12.2021
6513 Clear 18 1005 82 10000 4.12 30 10:22 12.12.2021
6514 Clear 18 1004 82 10000 2.57 40 08:58 12.12.2021
6515 Clear 18 1004 82 10000 3.09 50 07:32 12.12.2021
6516 Clear 19 1005 77 10000 3.6 60 05:57 12.12.2021
6517 Clear 20 1006 73 10000 3.09 60 04:56 12.12.2021
6518 Clear 20 1006 83 10000 3.09 90 03:27 12.12.2021
6519 Rain 22 1004 77 10000 4.47 65 23:39 11.12.2021
6520 Clear 21 1005 79 10000 4.47 65 22:22 11.12.2021
6521 Clouds 21 1005 80 10000 4.92 87 21:51 11.12.2021
6522 Clouds 21 1005 80 10000 4.47 74 20:51 11.12.2021
6523 Clouds 21 1006 81 10000 4.47 63 19:23 11.12.2021
6524 Clouds 21 1006 79 10000 4.47 92 18:52 11.12.2021
6525 Clouds 21 1007 79 10000 4.92 131 18:21 11.12.2021
6526 Clouds 21 1007 79 10000 4.92 140 17:20 11.12.2021
6527 Clouds 21 1007 78 10000 3.58 119 15:53 11.12.2021
6528 Clouds 21 1008 78 10000 3.58 111 15:27 11.12.2021
6529 Clear 20 1009 75 10000 2.24 13 12:50 11.12.2021
6530 Clear 20 1009 75 10000 2.24 13 12:50 11.12.2021
6531 Clear 17 1009 77 10000 2.06 50 11:25 11.12.2021
6532 Clear 15 1009 88 10000 2.57 80 09:45 11.12.2021
6533 Clear 16 1009 82 10000 1.54 80 08:23 11.12.2021
6534 Clear 20 1011 68 10000 3.6 90 02:23 11.12.2021
6535 Clear 21 1009 83 10000 6.17 110 23:58 10.12.2021
6536 Clear 21 1010 84 10000 6.26 87 23:21 10.12.2021
6537 Rain 21 1010 82 10000 6.71 102 21:56 10.12.2021
6538 Rain 21 1011 82 10000 6.71 87 21:28 10.12.2021
6539 Clouds 21 1012 80 10000 6.71 117 19:21 10.12.2021
6540 Clouds 21 1013 79 10000 6.71 134 18:19 10.12.2021
6541 Clouds 21 1014 76 10000 6.26 129 16:56 10.12.2021
6542 Clouds 21 1014 77 10000 5.81 119 16:28 10.12.2021
6543 Clouds 21 1014 77 10000 6.26 127 15:41 10.12.2021
6544 Clouds 21 1015 75 10000 4.47 113 15:21 10.12.2021
6545 Clouds 20 1016 71 10000 3.58 46 13:51 10.12.2021
6546 Rain 20 1016 72 10000 4.02 60 13:26 10.12.2021
6547 Clear 19 1016 75 10000 4.47 59 12:39 10.12.2021
6548 Clear 17 1017 82 10000 3.6 80 11:28 10.12.2021
6549 Clear 16 1017 88 10000 0 0 10:37 10.12.2021
6550 Clear 17 1016 82 10000 4.12 90 08:57 10.12.2021
6551 Clear 17 1017 82 10000 2.06 80 06:50 10.12.2021
6552 Clear 19 1018 72 10000 5.14 90 02:48 10.12.2021
6553 Clear 19 1018 72 10000 5.14 90 02:48 10.12.2021
6554 Clear 21 1016 87 10000 8.05 78 00:38 10.12.2021
6555 Clear 21 1016 84 10000 8.05 61 23:22 09.12.2021
6556 Rain 21 1016 84 10000 8.94 76 22:26 09.12.2021
6557 Clear 21 1016 84 10000 8.05 83 21:59 09.12.2021
6558 Clear 21 1017 82 10000 7.6 98 21:18 09.12.2021
6559 Clear 21 1017 81 10000 6.71 82 20:28 09.12.2021
6560 Clear 21 1018 81 10000 8.05 133 19:22 09.12.2021
6561 Rain 21 1017 80 10000 8.49 83 18:49 09.12.2021
6562 Clear 21 1018 80 10000 8.05 77 17:56 09.12.2021
6563 Clear 21 1018 76 10000 8.49 86 17:27 09.12.2021
6564 Clear 21 1018 76 10000 8.05 86 16:56 09.12.2021
6565 Clouds 22 1019 79 10000 6.71 109 15:57 09.12.2021
6566 Clouds 21 1019 79 10000 6.26 84 14:50 09.12.2021
6567 Clouds 20 1020 73 10000 7.72 50 13:25 09.12.2021
6568 Clear 18 1020 82 10000 5.14 70 12:42 09.12.2021
6569 Clear 17 1020 82 10000 4.12 80 11:24 09.12.2021
6570 Clear 16 1020 82 10000 1.54 60 09:44 09.12.2021
6571 Clear 17 1019 77 10000 3.09 50 06:51 09.12.2021
6572 Clear 20 1019 68 10000 6.17 60 03:46 09.12.2021
6573 Clear 22 1017 83 10000 7.15 76 23:46 08.12.2021
6574 Clear 22 1017 83 10000 7.15 93 23:26 08.12.2021
6575 Clear 22 1017 82 10000 7.6 82 22:50 08.12.2021
6576 Clear 22 1017 82 10000 7.6 106 21:46 08.12.2021
6577 Clear 22 1017 82 10000 7.6 117 21:28 08.12.2021
6578 Clear 22 1017 81 10000 8.05 84 20:18 08.12.2021
6579 Clouds 22 1018 81 10000 8.05 93 19:37 08.12.2021
6580 Clouds 22 1018 80 10000 8.49 111 18:53 08.12.2021
6581 Clear 21 1019 76 10000 8.94 126 17:52 08.12.2021
6582 Clouds 21 1020 76 10000 4.92 98 15:58 08.12.2021
6583 Rain 21 1020 76 10000 4.92 127 15:29 08.12.2021
6584 Clouds 22 1020 75 10000 4.92 86 14:50 08.12.2021
6585 Clear 20 1022 68 10000 5.14 40 12:39 08.12.2021
6586 Clear 15 1021 88 10000 1.54 110 10:32 08.12.2021
6587 Clear 15 1020 88 10000 3.09 80 09:30 08.12.2021
6588 Clear 15 1020 82 10000 2.57 70 07:34 08.12.2021
6589 Clear 18 1021 63 10000 3.6 70 04:58 08.12.2021
6590 Clear 22 1018 77 10000 8.05 73 23:48 07.12.2021
6591 Clear 22 1018 78 10000 7.6 62 22:27 07.12.2021
6592 Clear 22 1018 77 10000 8.49 93 21:24 07.12.2021
6593 Clear 22 1019 80 10000 5.81 84 20:24 07.12.2021
6594 Clouds 22 1020 81 10000 6.26 86 18:56 07.12.2021
6595 Clouds 22 1020 81 10000 7.15 59 18:18 07.12.2021
6596 Clouds 22 1021 78 10000 5.81 130 17:20 07.12.2021
6597 Clouds 22 1022 77 10000 5.36 85 16:36 07.12.2021
6598 Clouds 23 1022 73 10000 4.92 74 15:35 07.12.2021
6599 Clouds 23 1022 70 10000 4.02 55 14:37 07.12.2021
6600 Clouds 21 1023 73 10000 6.17 40 13:19 07.12.2021
6601 Clouds 19 1023 82 10000 5.14 40 12:21 07.12.2021
6602 Clear 17 1023 88 10000 3.6 70 10:44 07.12.2021
6603 Clear 16 1022 94 10000 2.57 90 09:19 07.12.2021
6604 Clear 17 1022 88 10000 3.6 80 06:39 07.12.2021
6605 Clear 18 1022 88 10000 2.57 80 05:45 07.12.2021
6606 Clouds 20 1022 77 10000 5.14 110 01:43 07.12.2021
6607 Clouds 22 1021 84 10000 5.36 92 23:21 06.12.2021
6608 Clouds 22 1021 83 10000 5.81 94 22:40 06.12.2021
6609 Clouds 22 1021 82 10000 6.26 89 21:59 06.12.2021
6610 Clouds 22 1021 83 10000 6.26 117 21:21 06.12.2021
6611 Clouds 22 1021 80 10000 6.26 129 20:32 06.12.2021
6612 Clouds 22 1021 79 10000 5.36 125 19:24 06.12.2021
6613 Clouds 22 1022 78 10000 4.92 128 18:31 06.12.2021
6614 Clouds 22 1022 80 10000 5.81 163 17:53 06.12.2021
6615 Clouds 22 1022 80 10000 5.36 154 17:30 06.12.2021
6616 Clouds 21 1022 82 10000 4.92 139 15:51 06.12.2021
6617 Clouds 22 1022 84 10000 3.13 130 13:53 06.12.2021
6618 Clouds 21 1022 86 10000 3.13 108 12:40 06.12.2021
6619 Clouds 19 1022 88 10000 2.57 120 11:54 06.12.2021
6620 Clouds 19 1020 88 10000 1.54 110 09:44 06.12.2021
6621 Clouds 19 1020 82 10000 2.57 120 07:18 06.12.2021
6622 Clouds 19 1019 77 10000 4.12 100 00:38 06.12.2021
6623 Clouds 20 1018 82 10000 6.71 112 22:20 05.12.2021
6624 Clouds 20 1019 81 10000 6.26 113 21:25 05.12.2021
6625 Clouds 21 1018 82 10000 6.71 107 20:20 05.12.2021
6626 Clouds 21 1019 83 10000 5.36 94 19:58 05.12.2021
6627 Clouds 20 1019 84 10000 6.26 105 19:23 05.12.2021
6628 Clouds 20 1019 84 10000 5.36 138 18:26 05.12.2021
6629 Clouds 20 1019 83 10000 5.81 145 17:49 05.12.2021
6630 Clouds 20 1020 82 10000 4.02 140 16:58 05.12.2021
6631 Clouds 20 1020 81 10000 4.02 125 16:28 05.12.2021
6632 Clouds 20 1020 82 7000 3.13 122 15:58 05.12.2021
6633 Clouds 20 1020 82 10000 2.68 100 14:47 05.12.2021
6634 Clouds 20 1020 82 10000 2.68 104 14:29 05.12.2021
6635 Clouds 20 1020 83 10000 3.58 69 13:31 05.12.2021
6636 Rain 20 1021 83 10000 3.6 90 12:41 05.12.2021
6637 Rain 20 1021 83 10000 3.6 90 12:23 05.12.2021
6638 Clear 18 1021 94 10000 2.06 100 11:41 05.12.2021
6639 Clouds 18 1020 88 10000 2.06 80 10:21 05.12.2021
6640 Clouds 18 1020 88 10000 3.09 100 09:26 05.12.2021
6641 Clear 19 1021 72 10000 3.09 100 04:56 05.12.2021
6642 Clouds 20 1020 73 10000 5.66 120 01:23 05.12.2021
6643 Clouds 21 1019 68 10000 5.14 120 22:42 04.12.2021
6644 Clouds 22 1019 64 10000 6.17 130 21:37 04.12.2021
6645 Clouds 23 1019 64 10000 5.14 150 20:40 04.12.2021
6646 Clouds 23 1019 60 10000 5.14 140 19:43 04.12.2021
6647 Clouds 23 1019 60 10000 5.14 140 19:23 04.12.2021
6648 Clouds 23 1020 60 10000 5.66 170 17:52 04.12.2021
6649 Clouds 23 1020 60 10000 5.66 170 17:22 04.12.2021
6650